<?xml version="1.0" encoding="UTF-8" standalone="no" ?>
<gpx xmlns="http://www.topografix.com/GPX/1/1" xmlns:xsi="http://www.w3.org/2001/XMLSchema-instance" xsi:schemaLocation="http://www.topografix.com/GPX/1/1 http://www.topografix.com/GPX/1/1/gpx.xsd" version="1.1" creator="VisuGPX - https://www.visugpx.com">
  <metadata>
    <name>sortie vtt gres</name>
    <desc><![CDATA[rando club du gres]]></desc>
  </metadata>
  <trk>
    <name><![CDATA[sortie vtt gres_1]]></name>
    <trkseg>
      <trkpt lat="43.78207" lon="4.73269">
        <ele>10.166414260864</ele>
        <time>2014-12-28T07:35:40.000Z</time>
      </trkpt>
      <trkpt lat="43.78209" lon="4.73268">
        <ele>10.135895729065</ele>
        <time>2014-12-28T07:36:15.000Z</time>
      </trkpt>
      <trkpt lat="43.78207" lon="4.73268">
        <ele>10.143793106079</ele>
        <time>2014-12-28T07:36:18.000Z</time>
      </trkpt>
      <trkpt lat="43.78205" lon="4.73266">
        <ele>10.164083480835</ele>
        <time>2014-12-28T07:36:21.000Z</time>
      </trkpt>
      <trkpt lat="43.78207" lon="4.73266">
        <ele>10.161046981812</ele>
        <time>2014-12-28T07:36:23.000Z</time>
      </trkpt>
      <trkpt lat="43.78209" lon="4.73267">
        <ele>10.147494316101</ele>
        <time>2014-12-28T07:36:29.000Z</time>
      </trkpt>
      <trkpt lat="43.78209" lon="4.73269">
        <ele>10.144233703613</ele>
        <time>2014-12-28T07:36:32.000Z</time>
      </trkpt>
      <trkpt lat="43.78208" lon="4.73267">
        <ele>10.135690689087</ele>
        <time>2014-12-28T07:36:49.000Z</time>
      </trkpt>
      <trkpt lat="43.78207" lon="4.73267">
        <ele>10.12490272522</ele>
        <time>2014-12-28T07:36:53.000Z</time>
      </trkpt>
      <trkpt lat="43.78207" lon="4.73266">
        <ele>10.124131202698</ele>
        <time>2014-12-28T07:36:57.000Z</time>
      </trkpt>
      <trkpt lat="43.78208" lon="4.73264">
        <ele>10.128065109253</ele>
        <time>2014-12-28T07:37:04.000Z</time>
      </trkpt>
      <trkpt lat="43.78207" lon="4.73265">
        <ele>10.142573356628</ele>
        <time>2014-12-28T07:37:10.000Z</time>
      </trkpt>
      <trkpt lat="43.78206" lon="4.73263">
        <ele>10.156559944153</ele>
        <time>2014-12-28T07:37:14.000Z</time>
      </trkpt>
      <trkpt lat="43.78205" lon="4.73259">
        <ele>10.166573524475</ele>
        <time>2014-12-28T07:37:17.000Z</time>
      </trkpt>
      <trkpt lat="43.78204" lon="4.73256">
        <ele>10.186490058899</ele>
        <time>2014-12-28T07:37:20.000Z</time>
      </trkpt>
      <trkpt lat="43.78203" lon="4.73252">
        <ele>10.21928691864</ele>
        <time>2014-12-28T07:37:23.000Z</time>
      </trkpt>
      <trkpt lat="43.78203" lon="4.73249">
        <ele>10.239929199219</ele>
        <time>2014-12-28T07:37:25.000Z</time>
      </trkpt>
      <trkpt lat="43.78204" lon="4.73245">
        <ele>10.238237380981</ele>
        <time>2014-12-28T07:37:27.000Z</time>
      </trkpt>
      <trkpt lat="43.78207" lon="4.73242">
        <ele>10.195452690125</ele>
        <time>2014-12-28T07:37:29.000Z</time>
      </trkpt>
      <trkpt lat="43.78214" lon="4.73241">
        <ele>10.081723213196</ele>
        <time>2014-12-28T07:37:32.000Z</time>
      </trkpt>
      <trkpt lat="43.78219" lon="4.73241">
        <ele>9.9151678085327</ele>
        <time>2014-12-28T07:37:34.000Z</time>
      </trkpt>
      <trkpt lat="43.78226" lon="4.73242">
        <ele>9.6877870559692</ele>
        <time>2014-12-28T07:37:37.000Z</time>
      </trkpt>
      <trkpt lat="43.7823" lon="4.73242">
        <ele>9.436014175415</ele>
        <time>2014-12-28T07:37:39.000Z</time>
      </trkpt>
      <trkpt lat="43.78234" lon="4.73242">
        <ele>9.1802806854248</ele>
        <time>2014-12-28T07:37:41.000Z</time>
      </trkpt>
      <trkpt lat="43.78241" lon="4.73241">
        <ele>8.9256677627563</ele>
        <time>2014-12-28T07:37:44.000Z</time>
      </trkpt>
      <trkpt lat="43.78246" lon="4.7324">
        <ele>8.6744203567505</ele>
        <time>2014-12-28T07:37:46.000Z</time>
      </trkpt>
      <trkpt lat="43.78251" lon="4.7324">
        <ele>8.450213432312</ele>
        <time>2014-12-28T07:37:48.000Z</time>
      </trkpt>
      <trkpt lat="43.78257" lon="4.7324">
        <ele>8.2967824935913</ele>
        <time>2014-12-28T07:37:51.000Z</time>
      </trkpt>
      <trkpt lat="43.78263" lon="4.7324">
        <ele>8.2057399749756</ele>
        <time>2014-12-28T07:37:53.000Z</time>
      </trkpt>
      <trkpt lat="43.78269" lon="4.73242">
        <ele>8.2075510025024</ele>
        <time>2014-12-28T07:37:55.000Z</time>
      </trkpt>
      <trkpt lat="43.78275" lon="4.7325">
        <ele>8.2874517440796</ele>
        <time>2014-12-28T07:37:58.000Z</time>
      </trkpt>
      <trkpt lat="43.78275" lon="4.73259">
        <ele>8.4138212203979</ele>
        <time>2014-12-28T07:38:00.000Z</time>
      </trkpt>
      <trkpt lat="43.78275" lon="4.73272">
        <ele>8.5248394012451</ele>
        <time>2014-12-28T07:38:03.000Z</time>
      </trkpt>
      <trkpt lat="43.78274" lon="4.7328">
        <ele>8.6169118881226</ele>
        <time>2014-12-28T07:38:05.000Z</time>
      </trkpt>
      <trkpt lat="43.78277" lon="4.73294">
        <ele>8.7005767822266</ele>
        <time>2014-12-28T07:38:08.000Z</time>
      </trkpt>
      <trkpt lat="43.78277" lon="4.73307">
        <ele>8.7592401504517</ele>
        <time>2014-12-28T07:38:11.000Z</time>
      </trkpt>
      <trkpt lat="43.78277" lon="4.73321">
        <ele>8.8212661743164</ele>
        <time>2014-12-28T07:38:14.000Z</time>
      </trkpt>
      <trkpt lat="43.78277" lon="4.7333">
        <ele>8.8773622512817</ele>
        <time>2014-12-28T07:38:16.000Z</time>
      </trkpt>
      <trkpt lat="43.78279" lon="4.73344">
        <ele>8.9482727050781</ele>
        <time>2014-12-28T07:38:19.000Z</time>
      </trkpt>
      <trkpt lat="43.78279" lon="4.73358">
        <ele>9.0227298736572</ele>
        <time>2014-12-28T07:38:22.000Z</time>
      </trkpt>
      <trkpt lat="43.78279" lon="4.73368">
        <ele>9.1034879684448</ele>
        <time>2014-12-28T07:38:25.000Z</time>
      </trkpt>
      <trkpt lat="43.78279" lon="4.73377">
        <ele>9.1881771087646</ele>
        <time>2014-12-28T07:38:27.000Z</time>
      </trkpt>
      <trkpt lat="43.78282" lon="4.7339">
        <ele>9.295618057251</ele>
        <time>2014-12-28T07:38:30.000Z</time>
      </trkpt>
      <trkpt lat="43.78283" lon="4.73402">
        <ele>9.408878326416</ele>
        <time>2014-12-28T07:38:33.000Z</time>
      </trkpt>
      <trkpt lat="43.78287" lon="4.73416">
        <ele>9.5449085235596</ele>
        <time>2014-12-28T07:38:36.000Z</time>
      </trkpt>
      <trkpt lat="43.78288" lon="4.73425">
        <ele>9.6719884872437</ele>
        <time>2014-12-28T07:38:38.000Z</time>
      </trkpt>
      <trkpt lat="43.78289" lon="4.73434">
        <ele>9.7912187576294</ele>
        <time>2014-12-28T07:38:40.000Z</time>
      </trkpt>
      <trkpt lat="43.78291" lon="4.73447">
        <ele>9.8853816986084</ele>
        <time>2014-12-28T07:38:43.000Z</time>
      </trkpt>
      <trkpt lat="43.78291" lon="4.73461">
        <ele>9.954704284668</ele>
        <time>2014-12-28T07:38:46.000Z</time>
      </trkpt>
      <trkpt lat="43.78292" lon="4.7347">
        <ele>9.9768495559692</ele>
        <time>2014-12-28T07:38:48.000Z</time>
      </trkpt>
      <trkpt lat="43.78295" lon="4.73483">
        <ele>9.9832744598389</ele>
        <time>2014-12-28T07:38:51.000Z</time>
      </trkpt>
      <trkpt lat="43.78298" lon="4.73496">
        <ele>9.9625835418701</ele>
        <time>2014-12-28T07:38:54.000Z</time>
      </trkpt>
      <trkpt lat="43.783" lon="4.73505">
        <ele>9.9311323165894</ele>
        <time>2014-12-28T07:38:56.000Z</time>
      </trkpt>
      <trkpt lat="43.78302" lon="4.73519">
        <ele>9.9017686843872</ele>
        <time>2014-12-28T07:38:59.000Z</time>
      </trkpt>
      <trkpt lat="43.783" lon="4.73527">
        <ele>9.8994512557983</ele>
        <time>2014-12-28T07:39:01.000Z</time>
      </trkpt>
      <trkpt lat="43.78297" lon="4.73536">
        <ele>9.9484243392944</ele>
        <time>2014-12-28T07:39:03.000Z</time>
      </trkpt>
      <trkpt lat="43.78294" lon="4.73544">
        <ele>10.058917999268</ele>
        <time>2014-12-28T07:39:05.000Z</time>
      </trkpt>
      <trkpt lat="43.78287" lon="4.73557">
        <ele>10.282911300659</ele>
        <time>2014-12-28T07:39:08.000Z</time>
      </trkpt>
      <trkpt lat="43.78288" lon="4.7357">
        <ele>10.537002563477</ele>
        <time>2014-12-28T07:39:11.000Z</time>
      </trkpt>
      <trkpt lat="43.78291" lon="4.73578">
        <ele>10.741858482361</ele>
        <time>2014-12-28T07:39:13.000Z</time>
      </trkpt>
      <trkpt lat="43.78294" lon="4.7359">
        <ele>10.891123771667</ele>
        <time>2014-12-28T07:39:16.000Z</time>
      </trkpt>
      <trkpt lat="43.78296" lon="4.73598">
        <ele>10.991708755493</ele>
        <time>2014-12-28T07:39:18.000Z</time>
      </trkpt>
      <trkpt lat="43.78298" lon="4.73606">
        <ele>10.972770690918</ele>
        <time>2014-12-28T07:39:20.000Z</time>
      </trkpt>
      <trkpt lat="43.78302" lon="4.7362">
        <ele>10.902730941772</ele>
        <time>2014-12-28T07:39:23.000Z</time>
      </trkpt>
      <trkpt lat="43.78306" lon="4.73629">
        <ele>10.84107208252</ele>
        <time>2014-12-28T07:39:25.000Z</time>
      </trkpt>
      <trkpt lat="43.78309" lon="4.73639">
        <ele>10.788375854492</ele>
        <time>2014-12-28T07:39:27.000Z</time>
      </trkpt>
      <trkpt lat="43.78313" lon="4.73655">
        <ele>10.752317428589</ele>
        <time>2014-12-28T07:39:30.000Z</time>
      </trkpt>
      <trkpt lat="43.78317" lon="4.73668">
        <ele>10.738263130188</ele>
        <time>2014-12-28T07:39:33.000Z</time>
      </trkpt>
      <trkpt lat="43.78318" lon="4.7368">
        <ele>10.751396179199</ele>
        <time>2014-12-28T07:39:35.000Z</time>
      </trkpt>
      <trkpt lat="43.78321" lon="4.73696">
        <ele>10.778420448303</ele>
        <time>2014-12-28T07:39:38.000Z</time>
      </trkpt>
      <trkpt lat="43.78324" lon="4.73712">
        <ele>10.818356513977</ele>
        <time>2014-12-28T07:39:41.000Z</time>
      </trkpt>
      <trkpt lat="43.78327" lon="4.73726">
        <ele>10.852045059204</ele>
        <time>2014-12-28T07:39:44.000Z</time>
      </trkpt>
      <trkpt lat="43.7833" lon="4.73741">
        <ele>10.890846252441</ele>
        <time>2014-12-28T07:39:47.000Z</time>
      </trkpt>
      <trkpt lat="43.78333" lon="4.73751">
        <ele>10.932323455811</ele>
        <time>2014-12-28T07:39:49.000Z</time>
      </trkpt>
      <trkpt lat="43.78336" lon="4.7376">
        <ele>11.014073371887</ele>
        <time>2014-12-28T07:39:51.000Z</time>
      </trkpt>
      <trkpt lat="43.78339" lon="4.73772">
        <ele>11.150265693665</ele>
        <time>2014-12-28T07:39:54.000Z</time>
      </trkpt>
      <trkpt lat="43.78338" lon="4.73785">
        <ele>11.389748573303</ele>
        <time>2014-12-28T07:39:57.000Z</time>
      </trkpt>
      <trkpt lat="43.78337" lon="4.73795">
        <ele>11.684814453125</ele>
        <time>2014-12-28T07:39:59.000Z</time>
      </trkpt>
      <trkpt lat="43.7834" lon="4.73809">
        <ele>12.051025390625</ele>
        <time>2014-12-28T07:40:02.000Z</time>
      </trkpt>
      <trkpt lat="43.78342" lon="4.73818">
        <ele>12.431518554688</ele>
        <time>2014-12-28T07:40:04.000Z</time>
      </trkpt>
      <trkpt lat="43.78345" lon="4.73832">
        <ele>12.821533203125</ele>
        <time>2014-12-28T07:40:07.000Z</time>
      </trkpt>
      <trkpt lat="43.78348" lon="4.73845">
        <ele>13.076223373413</ele>
        <time>2014-12-28T07:40:10.000Z</time>
      </trkpt>
      <trkpt lat="43.78353" lon="4.73859">
        <ele>13.210856437683</ele>
        <time>2014-12-28T07:40:13.000Z</time>
      </trkpt>
      <trkpt lat="43.78357" lon="4.73869">
        <ele>13.228437423706</ele>
        <time>2014-12-28T07:40:15.000Z</time>
      </trkpt>
      <trkpt lat="43.7836" lon="4.73878">
        <ele>13.167860031128</ele>
        <time>2014-12-28T07:40:17.000Z</time>
      </trkpt>
      <trkpt lat="43.78366" lon="4.73893">
        <ele>12.999186515808</ele>
        <time>2014-12-28T07:40:20.000Z</time>
      </trkpt>
      <trkpt lat="43.78371" lon="4.73906">
        <ele>12.833639144897</ele>
        <time>2014-12-28T07:40:23.000Z</time>
      </trkpt>
      <trkpt lat="43.78375" lon="4.73915">
        <ele>12.706811904907</ele>
        <time>2014-12-28T07:40:25.000Z</time>
      </trkpt>
      <trkpt lat="43.78381" lon="4.73929">
        <ele>12.616479873657</ele>
        <time>2014-12-28T07:40:28.000Z</time>
      </trkpt>
      <trkpt lat="43.78384" lon="4.7394">
        <ele>12.559514045715</ele>
        <time>2014-12-28T07:40:30.000Z</time>
      </trkpt>
      <trkpt lat="43.78387" lon="4.73949">
        <ele>12.545881271362</ele>
        <time>2014-12-28T07:40:32.000Z</time>
      </trkpt>
      <trkpt lat="43.78392" lon="4.73963">
        <ele>12.573820114136</ele>
        <time>2014-12-28T07:40:35.000Z</time>
      </trkpt>
      <trkpt lat="43.78397" lon="4.73976">
        <ele>12.629598617554</ele>
        <time>2014-12-28T07:40:38.000Z</time>
      </trkpt>
      <trkpt lat="43.78403" lon="4.7399">
        <ele>12.707118034363</ele>
        <time>2014-12-28T07:40:41.000Z</time>
      </trkpt>
      <trkpt lat="43.78412" lon="4.74">
        <ele>12.79758644104</ele>
        <time>2014-12-28T07:40:44.000Z</time>
      </trkpt>
      <trkpt lat="43.78419" lon="4.73998">
        <ele>12.856454849243</ele>
        <time>2014-12-28T07:40:46.000Z</time>
      </trkpt>
      <trkpt lat="43.78431" lon="4.73993">
        <ele>12.800138473511</ele>
        <time>2014-12-28T07:40:49.000Z</time>
      </trkpt>
      <trkpt lat="43.78442" lon="4.73987">
        <ele>12.628132820129</ele>
        <time>2014-12-28T07:40:52.000Z</time>
      </trkpt>
      <trkpt lat="43.7845" lon="4.73983">
        <ele>12.368334770203</ele>
        <time>2014-12-28T07:40:54.000Z</time>
      </trkpt>
      <trkpt lat="43.78458" lon="4.73978">
        <ele>12.01708984375</ele>
        <time>2014-12-28T07:40:56.000Z</time>
      </trkpt>
      <trkpt lat="43.78462" lon="4.73974">
        <ele>11.645141601562</ele>
        <time>2014-12-28T07:40:58.000Z</time>
      </trkpt>
      <trkpt lat="43.7847" lon="4.73977">
        <ele>11.322631835938</ele>
        <time>2014-12-28T07:41:01.000Z</time>
      </trkpt>
      <trkpt lat="43.78475" lon="4.73985">
        <ele>11.083740234375</ele>
        <time>2014-12-28T07:41:03.000Z</time>
      </trkpt>
      <trkpt lat="43.78479" lon="4.73994">
        <ele>10.900268554688</ele>
        <time>2014-12-28T07:41:05.000Z</time>
      </trkpt>
      <trkpt lat="43.78485" lon="4.74007">
        <ele>10.766131401062</ele>
        <time>2014-12-28T07:41:08.000Z</time>
      </trkpt>
      <trkpt lat="43.78491" lon="4.74021">
        <ele>10.641156196594</ele>
        <time>2014-12-28T07:41:11.000Z</time>
      </trkpt>
      <trkpt lat="43.78498" lon="4.74034">
        <ele>10.504780769348</ele>
        <time>2014-12-28T07:41:14.000Z</time>
      </trkpt>
      <trkpt lat="43.78506" lon="4.74048">
        <ele>10.337294578552</ele>
        <time>2014-12-28T07:41:17.000Z</time>
      </trkpt>
      <trkpt lat="43.78511" lon="4.74057">
        <ele>10.155116081238</ele>
        <time>2014-12-28T07:41:19.000Z</time>
      </trkpt>
      <trkpt lat="43.78517" lon="4.74069">
        <ele>9.9628925323486</ele>
        <time>2014-12-28T07:41:22.000Z</time>
      </trkpt>
      <trkpt lat="43.78525" lon="4.74083">
        <ele>9.7621688842773</ele>
        <time>2014-12-28T07:41:25.000Z</time>
      </trkpt>
      <trkpt lat="43.78529" lon="4.74091">
        <ele>9.6213827133179</ele>
        <time>2014-12-28T07:41:27.000Z</time>
      </trkpt>
      <trkpt lat="43.78534" lon="4.741">
        <ele>9.5373201370239</ele>
        <time>2014-12-28T07:41:29.000Z</time>
      </trkpt>
      <trkpt lat="43.7854" lon="4.74112">
        <ele>9.4924345016479</ele>
        <time>2014-12-28T07:41:32.000Z</time>
      </trkpt>
      <trkpt lat="43.78543" lon="4.7412">
        <ele>9.4940958023071</ele>
        <time>2014-12-28T07:41:34.000Z</time>
      </trkpt>
      <trkpt lat="43.78547" lon="4.74129">
        <ele>9.5553226470947</ele>
        <time>2014-12-28T07:41:36.000Z</time>
      </trkpt>
      <trkpt lat="43.78552" lon="4.74141">
        <ele>9.6476373672485</ele>
        <time>2014-12-28T07:41:39.000Z</time>
      </trkpt>
      <trkpt lat="43.78555" lon="4.74148">
        <ele>9.747278213501</ele>
        <time>2014-12-28T07:41:41.000Z</time>
      </trkpt>
      <trkpt lat="43.78561" lon="4.74161">
        <ele>9.8663129806519</ele>
        <time>2014-12-28T07:41:44.000Z</time>
      </trkpt>
      <trkpt lat="43.78566" lon="4.74169">
        <ele>9.9920930862427</ele>
        <time>2014-12-28T07:41:46.000Z</time>
      </trkpt>
      <trkpt lat="43.78572" lon="4.74183">
        <ele>10.126719474792</ele>
        <time>2014-12-28T07:41:49.000Z</time>
      </trkpt>
      <trkpt lat="43.78576" lon="4.74192">
        <ele>10.242089271545</ele>
        <time>2014-12-28T07:41:51.000Z</time>
      </trkpt>
      <trkpt lat="43.78582" lon="4.74206">
        <ele>10.34700012207</ele>
        <time>2014-12-28T07:41:54.000Z</time>
      </trkpt>
      <trkpt lat="43.78589" lon="4.7422">
        <ele>10.445851325989</ele>
        <time>2014-12-28T07:41:57.000Z</time>
      </trkpt>
      <trkpt lat="43.78594" lon="4.7423">
        <ele>10.545135498047</ele>
        <time>2014-12-28T07:41:59.000Z</time>
      </trkpt>
      <trkpt lat="43.786" lon="4.74244">
        <ele>10.652739524841</ele>
        <time>2014-12-28T07:42:02.000Z</time>
      </trkpt>
      <trkpt lat="43.78607" lon="4.74258">
        <ele>10.751619338989</ele>
        <time>2014-12-28T07:42:05.000Z</time>
      </trkpt>
      <trkpt lat="43.78611" lon="4.74269">
        <ele>10.823266983032</ele>
        <time>2014-12-28T07:42:07.000Z</time>
      </trkpt>
      <trkpt lat="43.78618" lon="4.74284">
        <ele>10.827805519104</ele>
        <time>2014-12-28T07:42:10.000Z</time>
      </trkpt>
      <trkpt lat="43.78623" lon="4.74294">
        <ele>10.77737903595</ele>
        <time>2014-12-28T07:42:12.000Z</time>
      </trkpt>
      <trkpt lat="43.78628" lon="4.74304">
        <ele>10.653051376343</ele>
        <time>2014-12-28T07:42:14.000Z</time>
      </trkpt>
      <trkpt lat="43.78636" lon="4.74318">
        <ele>10.458990097046</ele>
        <time>2014-12-28T07:42:17.000Z</time>
      </trkpt>
      <trkpt lat="43.78643" lon="4.74333">
        <ele>10.204657554626</ele>
        <time>2014-12-28T07:42:20.000Z</time>
      </trkpt>
      <trkpt lat="43.78647" lon="4.74343">
        <ele>9.9501514434814</ele>
        <time>2014-12-28T07:42:22.000Z</time>
      </trkpt>
      <trkpt lat="43.78654" lon="4.74355">
        <ele>9.666431427002</ele>
        <time>2014-12-28T07:42:25.000Z</time>
      </trkpt>
      <trkpt lat="43.7866" lon="4.74369">
        <ele>9.3610706329346</ele>
        <time>2014-12-28T07:42:28.000Z</time>
      </trkpt>
      <trkpt lat="43.78663" lon="4.74376">
        <ele>9.0873432159424</ele>
        <time>2014-12-28T07:42:30.000Z</time>
      </trkpt>
      <trkpt lat="43.78667" lon="4.74387">
        <ele>8.8431482315063</ele>
        <time>2014-12-28T07:42:33.000Z</time>
      </trkpt>
      <trkpt lat="43.78673" lon="4.74399">
        <ele>8.6041593551636</ele>
        <time>2014-12-28T07:42:36.000Z</time>
      </trkpt>
      <trkpt lat="43.78674" lon="4.74405">
        <ele>8.4136114120483</ele>
        <time>2014-12-28T07:42:38.000Z</time>
      </trkpt>
      <trkpt lat="43.78675" lon="4.74411">
        <ele>8.2708978652954</ele>
        <time>2014-12-28T07:42:41.000Z</time>
      </trkpt>
      <trkpt lat="43.78675" lon="4.74416">
        <ele>8.1521482467651</ele>
        <time>2014-12-28T07:42:44.000Z</time>
      </trkpt>
      <trkpt lat="43.78676" lon="4.74419">
        <ele>8.0931377410889</ele>
        <time>2014-12-28T07:42:47.000Z</time>
      </trkpt>
      <trkpt lat="43.78678" lon="4.74424">
        <ele>8.0874433517456</ele>
        <time>2014-12-28T07:42:50.000Z</time>
      </trkpt>
      <trkpt lat="43.7868" lon="4.74428">
        <ele>8.1156520843506</ele>
        <time>2014-12-28T07:42:52.000Z</time>
      </trkpt>
      <trkpt lat="43.78684" lon="4.74436">
        <ele>8.1952323913574</ele>
        <time>2014-12-28T07:42:55.000Z</time>
      </trkpt>
      <trkpt lat="43.78685" lon="4.74441">
        <ele>8.308349609375</ele>
        <time>2014-12-28T07:42:57.000Z</time>
      </trkpt>
      <trkpt lat="43.78688" lon="4.7445">
        <ele>8.457275390625</ele>
        <time>2014-12-28T07:43:00.000Z</time>
      </trkpt>
      <trkpt lat="43.78691" lon="4.74457">
        <ele>8.61962890625</ele>
        <time>2014-12-28T07:43:02.000Z</time>
      </trkpt>
      <trkpt lat="43.78698" lon="4.74466">
        <ele>8.80322265625</ele>
        <time>2014-12-28T07:43:05.000Z</time>
      </trkpt>
      <trkpt lat="43.78699" lon="4.74476">
        <ele>8.9970703125</ele>
        <time>2014-12-28T07:43:07.000Z</time>
      </trkpt>
      <trkpt lat="43.78701" lon="4.74486">
        <ele>9.215576171875</ele>
        <time>2014-12-28T07:43:09.000Z</time>
      </trkpt>
      <trkpt lat="43.78704" lon="4.74495">
        <ele>9.432373046875</ele>
        <time>2014-12-28T07:43:11.000Z</time>
      </trkpt>
      <trkpt lat="43.78708" lon="4.74508">
        <ele>9.6466522216797</ele>
        <time>2014-12-28T07:43:14.000Z</time>
      </trkpt>
      <trkpt lat="43.7871" lon="4.74518">
        <ele>9.8293399810791</ele>
        <time>2014-12-28T07:43:16.000Z</time>
      </trkpt>
      <trkpt lat="43.78711" lon="4.74528">
        <ele>9.973482131958</ele>
        <time>2014-12-28T07:43:18.000Z</time>
      </trkpt>
      <trkpt lat="43.78714" lon="4.74541">
        <ele>10.081949234009</ele>
        <time>2014-12-28T07:43:21.000Z</time>
      </trkpt>
      <trkpt lat="43.78718" lon="4.74557">
        <ele>10.156722068787</ele>
        <time>2014-12-28T07:43:24.000Z</time>
      </trkpt>
      <trkpt lat="43.78719" lon="4.74567">
        <ele>10.206785202026</ele>
        <time>2014-12-28T07:43:26.000Z</time>
      </trkpt>
      <trkpt lat="43.7872" lon="4.74577">
        <ele>10.251829147339</ele>
        <time>2014-12-28T07:43:28.000Z</time>
      </trkpt>
      <trkpt lat="43.78724" lon="4.74593">
        <ele>10.290596961975</ele>
        <time>2014-12-28T07:43:31.000Z</time>
      </trkpt>
      <trkpt lat="43.78726" lon="4.74603">
        <ele>10.319315910339</ele>
        <time>2014-12-28T07:43:33.000Z</time>
      </trkpt>
      <trkpt lat="43.78726" lon="4.7462">
        <ele>10.348190307617</ele>
        <time>2014-12-28T07:43:36.000Z</time>
      </trkpt>
      <trkpt lat="43.78727" lon="4.74632">
        <ele>10.374425888062</ele>
        <time>2014-12-28T07:43:38.000Z</time>
      </trkpt>
      <trkpt lat="43.78732" lon="4.7465">
        <ele>10.386240005493</ele>
        <time>2014-12-28T07:43:41.000Z</time>
      </trkpt>
      <trkpt lat="43.78734" lon="4.74668">
        <ele>10.397521018982</ele>
        <time>2014-12-28T07:43:44.000Z</time>
      </trkpt>
      <trkpt lat="43.78735" lon="4.74684">
        <ele>10.441097259521</ele>
        <time>2014-12-28T07:43:47.000Z</time>
      </trkpt>
      <trkpt lat="43.78735" lon="4.74696">
        <ele>10.503806114197</ele>
        <time>2014-12-28T07:43:49.000Z</time>
      </trkpt>
      <trkpt lat="43.78736" lon="4.74716">
        <ele>10.603340148926</ele>
        <time>2014-12-28T07:43:52.000Z</time>
      </trkpt>
      <trkpt lat="43.78736" lon="4.74727">
        <ele>10.734619140625</ele>
        <time>2014-12-28T07:43:54.000Z</time>
      </trkpt>
      <trkpt lat="43.78738" lon="4.74745">
        <ele>10.89794921875</ele>
        <time>2014-12-28T07:43:57.000Z</time>
      </trkpt>
      <trkpt lat="43.7874" lon="4.74763">
        <ele>11.056874275208</ele>
        <time>2014-12-28T07:44:00.000Z</time>
      </trkpt>
      <trkpt lat="43.78739" lon="4.74782">
        <ele>11.233489990234</ele>
        <time>2014-12-28T07:44:03.000Z</time>
      </trkpt>
      <trkpt lat="43.78741" lon="4.748">
        <ele>11.397067070007</ele>
        <time>2014-12-28T07:44:06.000Z</time>
      </trkpt>
      <trkpt lat="43.78742" lon="4.74809">
        <ele>11.553628921509</ele>
        <time>2014-12-28T07:44:08.000Z</time>
      </trkpt>
      <trkpt lat="43.78742" lon="4.74826">
        <ele>11.711126327515</ele>
        <time>2014-12-28T07:44:11.000Z</time>
      </trkpt>
      <trkpt lat="43.78745" lon="4.74838">
        <ele>11.840658187866</ele>
        <time>2014-12-28T07:44:13.000Z</time>
      </trkpt>
      <trkpt lat="43.78747" lon="4.74851">
        <ele>11.886158943176</ele>
        <time>2014-12-28T07:44:15.000Z</time>
      </trkpt>
      <trkpt lat="43.7875" lon="4.74865">
        <ele>11.861668586731</ele>
        <time>2014-12-28T07:44:17.000Z</time>
      </trkpt>
      <trkpt lat="43.78751" lon="4.74887">
        <ele>11.763657569885</ele>
        <time>2014-12-28T07:44:20.000Z</time>
      </trkpt>
      <trkpt lat="43.78753" lon="4.749">
        <ele>11.586313247681</ele>
        <time>2014-12-28T07:44:23.000Z</time>
      </trkpt>
      <trkpt lat="43.78755" lon="4.74917">
        <ele>11.356253623962</ele>
        <time>2014-12-28T07:44:26.000Z</time>
      </trkpt>
      <trkpt lat="43.78757" lon="4.74936">
        <ele>11.107940673828</ele>
        <time>2014-12-28T07:44:29.000Z</time>
      </trkpt>
      <trkpt lat="43.7876" lon="4.74956">
        <ele>10.839385986328</ele>
        <time>2014-12-28T07:44:32.000Z</time>
      </trkpt>
      <trkpt lat="43.78767" lon="4.74976">
        <ele>10.549561500549</ele>
        <time>2014-12-28T07:44:35.000Z</time>
      </trkpt>
      <trkpt lat="43.78769" lon="4.74987">
        <ele>10.267578125</ele>
        <time>2014-12-28T07:44:37.000Z</time>
      </trkpt>
      <trkpt lat="43.78771" lon="4.74998">
        <ele>10.000122070312</ele>
        <time>2014-12-28T07:44:39.000Z</time>
      </trkpt>
      <trkpt lat="43.78775" lon="4.75014">
        <ele>9.82958984375</ele>
        <time>2014-12-28T07:44:42.000Z</time>
      </trkpt>
      <trkpt lat="43.78781" lon="4.75034">
        <ele>9.786865234375</ele>
        <time>2014-12-28T07:44:45.000Z</time>
      </trkpt>
      <trkpt lat="43.78785" lon="4.75046">
        <ele>9.86328125</ele>
        <time>2014-12-28T07:44:47.000Z</time>
      </trkpt>
      <trkpt lat="43.7879" lon="4.75062">
        <ele>10.031372070312</ele>
        <time>2014-12-28T07:44:50.000Z</time>
      </trkpt>
      <trkpt lat="43.78797" lon="4.75081">
        <ele>10.29150390625</ele>
        <time>2014-12-28T07:44:53.000Z</time>
      </trkpt>
      <trkpt lat="43.78801" lon="4.75091">
        <ele>10.5064868927</ele>
        <time>2014-12-28T07:44:55.000Z</time>
      </trkpt>
      <trkpt lat="43.78808" lon="4.75107">
        <ele>10.630853652954</ele>
        <time>2014-12-28T07:44:58.000Z</time>
      </trkpt>
      <trkpt lat="43.78818" lon="4.75124">
        <ele>10.671310424805</ele>
        <time>2014-12-28T07:45:01.000Z</time>
      </trkpt>
      <trkpt lat="43.78822" lon="4.75135">
        <ele>10.629446029663</ele>
        <time>2014-12-28T07:45:03.000Z</time>
      </trkpt>
      <trkpt lat="43.78831" lon="4.75155">
        <ele>10.479862213135</ele>
        <time>2014-12-28T07:45:06.000Z</time>
      </trkpt>
      <trkpt lat="43.78834" lon="4.75165">
        <ele>10.314781188965</ele>
        <time>2014-12-28T07:45:08.000Z</time>
      </trkpt>
      <trkpt lat="43.78838" lon="4.75175">
        <ele>10.154867172241</ele>
        <time>2014-12-28T07:45:10.000Z</time>
      </trkpt>
      <trkpt lat="43.78843" lon="4.75184">
        <ele>10.015142440796</ele>
        <time>2014-12-28T07:45:12.000Z</time>
      </trkpt>
      <trkpt lat="43.78849" lon="4.75197">
        <ele>9.8720464706421</ele>
        <time>2014-12-28T07:45:15.000Z</time>
      </trkpt>
      <trkpt lat="43.78854" lon="4.75208">
        <ele>9.7578125</ele>
        <time>2014-12-28T07:45:18.000Z</time>
      </trkpt>
      <trkpt lat="43.78859" lon="4.75217">
        <ele>9.63671875</ele>
        <time>2014-12-28T07:45:20.000Z</time>
      </trkpt>
      <trkpt lat="43.78864" lon="4.75226">
        <ele>9.51171875</ele>
        <time>2014-12-28T07:45:22.000Z</time>
      </trkpt>
      <trkpt lat="43.7887" lon="4.75235">
        <ele>9.380859375</ele>
        <time>2014-12-28T07:45:24.000Z</time>
      </trkpt>
      <trkpt lat="43.78876" lon="4.75244">
        <ele>9.248046875</ele>
        <time>2014-12-28T07:45:26.000Z</time>
      </trkpt>
      <trkpt lat="43.78883" lon="4.75256">
        <ele>9.129602432251</ele>
        <time>2014-12-28T07:45:29.000Z</time>
      </trkpt>
      <trkpt lat="43.7889" lon="4.75268">
        <ele>9.0538158416748</ele>
        <time>2014-12-28T07:45:32.000Z</time>
      </trkpt>
      <trkpt lat="43.78895" lon="4.75275">
        <ele>9.0112209320068</ele>
        <time>2014-12-28T07:45:34.000Z</time>
      </trkpt>
      <trkpt lat="43.789" lon="4.75284">
        <ele>9.0164365768433</ele>
        <time>2014-12-28T07:45:36.000Z</time>
      </trkpt>
      <trkpt lat="43.78909" lon="4.75298">
        <ele>9.0810689926147</ele>
        <time>2014-12-28T07:45:39.000Z</time>
      </trkpt>
      <trkpt lat="43.78912" lon="4.75307">
        <ele>9.1885690689087</ele>
        <time>2014-12-28T07:45:41.000Z</time>
      </trkpt>
      <trkpt lat="43.78918" lon="4.75319">
        <ele>9.3175649642944</ele>
        <time>2014-12-28T07:45:43.000Z</time>
      </trkpt>
      <trkpt lat="43.78924" lon="4.75328">
        <ele>9.481183052063</ele>
        <time>2014-12-28T07:45:45.000Z</time>
      </trkpt>
      <trkpt lat="43.7893" lon="4.75342">
        <ele>9.6937398910522</ele>
        <time>2014-12-28T07:45:48.000Z</time>
      </trkpt>
      <trkpt lat="43.78935" lon="4.75353">
        <ele>9.9333066940308</ele>
        <time>2014-12-28T07:45:50.000Z</time>
      </trkpt>
      <trkpt lat="43.78944" lon="4.75369">
        <ele>10.21378326416</ele>
        <time>2014-12-28T07:45:53.000Z</time>
      </trkpt>
      <trkpt lat="43.78952" lon="4.75383">
        <ele>10.521656990051</ele>
        <time>2014-12-28T07:45:56.000Z</time>
      </trkpt>
      <trkpt lat="43.78959" lon="4.75397">
        <ele>10.85107421875</ele>
        <time>2014-12-28T07:45:59.000Z</time>
      </trkpt>
      <trkpt lat="43.78966" lon="4.75408">
        <ele>11.16650390625</ele>
        <time>2014-12-28T07:46:02.000Z</time>
      </trkpt>
      <trkpt lat="43.78973" lon="4.75419">
        <ele>11.467967033386</ele>
        <time>2014-12-28T07:46:05.000Z</time>
      </trkpt>
      <trkpt lat="43.78981" lon="4.75432">
        <ele>11.676682472229</ele>
        <time>2014-12-28T07:46:08.000Z</time>
      </trkpt>
      <trkpt lat="43.78985" lon="4.75441">
        <ele>11.802136421204</ele>
        <time>2014-12-28T07:46:10.000Z</time>
      </trkpt>
      <trkpt lat="43.78992" lon="4.75452">
        <ele>11.830438613892</ele>
        <time>2014-12-28T07:46:13.000Z</time>
      </trkpt>
      <trkpt lat="43.78995" lon="4.75459">
        <ele>11.785108566284</ele>
        <time>2014-12-28T07:46:15.000Z</time>
      </trkpt>
      <trkpt lat="43.79004" lon="4.75471">
        <ele>11.636191368103</ele>
        <time>2014-12-28T07:46:18.000Z</time>
      </trkpt>
      <trkpt lat="43.79009" lon="4.75482">
        <ele>11.452394485474</ele>
        <time>2014-12-28T07:46:20.000Z</time>
      </trkpt>
      <trkpt lat="43.79018" lon="4.755">
        <ele>11.205041885376</ele>
        <time>2014-12-28T07:46:23.000Z</time>
      </trkpt>
      <trkpt lat="43.79026" lon="4.75513">
        <ele>10.887530326843</ele>
        <time>2014-12-28T07:46:25.000Z</time>
      </trkpt>
      <trkpt lat="43.79035" lon="4.7553">
        <ele>10.463475227356</ele>
        <time>2014-12-28T07:46:28.000Z</time>
      </trkpt>
      <trkpt lat="43.79045" lon="4.75549">
        <ele>9.9594631195068</ele>
        <time>2014-12-28T07:46:31.000Z</time>
      </trkpt>
      <trkpt lat="43.79053" lon="4.75562">
        <ele>9.4099855422974</ele>
        <time>2014-12-28T07:46:33.000Z</time>
      </trkpt>
      <trkpt lat="43.79063" lon="4.75581">
        <ele>8.807861328125</ele>
        <time>2014-12-28T07:46:36.000Z</time>
      </trkpt>
      <trkpt lat="43.79071" lon="4.75598">
        <ele>8.2814350128174</ele>
        <time>2014-12-28T07:46:39.000Z</time>
      </trkpt>
      <trkpt lat="43.79078" lon="4.75612">
        <ele>7.8849158287048</ele>
        <time>2014-12-28T07:46:41.000Z</time>
      </trkpt>
      <trkpt lat="43.79084" lon="4.75627">
        <ele>7.6436319351196</ele>
        <time>2014-12-28T07:46:43.000Z</time>
      </trkpt>
      <trkpt lat="43.79095" lon="4.75646">
        <ele>7.5463905334473</ele>
        <time>2014-12-28T07:46:46.000Z</time>
      </trkpt>
      <trkpt lat="43.79105" lon="4.75665">
        <ele>7.6288366317749</ele>
        <time>2014-12-28T07:46:49.000Z</time>
      </trkpt>
      <trkpt lat="43.79112" lon="4.75677">
        <ele>7.7740278244019</ele>
        <time>2014-12-28T07:46:51.000Z</time>
      </trkpt>
      <trkpt lat="43.79122" lon="4.75694">
        <ele>7.9546022415161</ele>
        <time>2014-12-28T07:46:54.000Z</time>
      </trkpt>
      <trkpt lat="43.79131" lon="4.75708">
        <ele>8.1374454498291</ele>
        <time>2014-12-28T07:46:56.000Z</time>
      </trkpt>
      <trkpt lat="43.7914" lon="4.75728">
        <ele>8.2830257415771</ele>
        <time>2014-12-28T07:46:59.000Z</time>
      </trkpt>
      <trkpt lat="43.79149" lon="4.75744">
        <ele>8.3668308258057</ele>
        <time>2014-12-28T07:47:02.000Z</time>
      </trkpt>
      <trkpt lat="43.79155" lon="4.75756">
        <ele>8.4149551391602</ele>
        <time>2014-12-28T07:47:04.000Z</time>
      </trkpt>
      <trkpt lat="43.79152" lon="4.75765">
        <ele>8.4724044799805</ele>
        <time>2014-12-28T07:47:06.000Z</time>
      </trkpt>
      <trkpt lat="43.79142" lon="4.75768">
        <ele>8.5667963027954</ele>
        <time>2014-12-28T07:47:09.000Z</time>
      </trkpt>
      <trkpt lat="43.79127" lon="4.75776">
        <ele>8.726448059082</ele>
        <time>2014-12-28T07:47:12.000Z</time>
      </trkpt>
      <trkpt lat="43.79118" lon="4.75778">
        <ele>8.9351902008057</ele>
        <time>2014-12-28T07:47:14.000Z</time>
      </trkpt>
      <trkpt lat="43.79104" lon="4.7578">
        <ele>9.1895389556885</ele>
        <time>2014-12-28T07:47:17.000Z</time>
      </trkpt>
      <trkpt lat="43.79095" lon="4.75783">
        <ele>9.4266405105591</ele>
        <time>2014-12-28T07:47:19.000Z</time>
      </trkpt>
      <trkpt lat="43.79082" lon="4.75787">
        <ele>9.6471939086914</ele>
        <time>2014-12-28T07:47:22.000Z</time>
      </trkpt>
      <trkpt lat="43.79072" lon="4.75789">
        <ele>9.8047533035278</ele>
        <time>2014-12-28T07:47:24.000Z</time>
      </trkpt>
      <trkpt lat="43.79059" lon="4.75795">
        <ele>9.9476203918457</ele>
        <time>2014-12-28T07:47:27.000Z</time>
      </trkpt>
      <trkpt lat="43.7905" lon="4.75798">
        <ele>10.058562278748</ele>
        <time>2014-12-28T07:47:29.000Z</time>
      </trkpt>
      <trkpt lat="43.79037" lon="4.75801">
        <ele>10.160474777222</ele>
        <time>2014-12-28T07:47:32.000Z</time>
      </trkpt>
      <trkpt lat="43.79028" lon="4.75803">
        <ele>10.242416381836</ele>
        <time>2014-12-28T07:47:34.000Z</time>
      </trkpt>
      <trkpt lat="43.79019" lon="4.75805">
        <ele>10.331830978394</ele>
        <time>2014-12-28T07:47:36.000Z</time>
      </trkpt>
      <trkpt lat="43.79012" lon="4.75807">
        <ele>10.418226242065</ele>
        <time>2014-12-28T07:47:38.000Z</time>
      </trkpt>
      <trkpt lat="43.79003" lon="4.7581">
        <ele>10.509964942932</ele>
        <time>2014-12-28T07:47:40.000Z</time>
      </trkpt>
      <trkpt lat="43.78997" lon="4.75812">
        <ele>10.625810623169</ele>
        <time>2014-12-28T07:47:42.000Z</time>
      </trkpt>
      <trkpt lat="43.78985" lon="4.75814">
        <ele>10.874007225037</ele>
        <time>2014-12-28T07:47:45.000Z</time>
      </trkpt>
      <trkpt lat="43.78977" lon="4.75816">
        <ele>11.210156440735</ele>
        <time>2014-12-28T07:47:47.000Z</time>
      </trkpt>
      <trkpt lat="43.78965" lon="4.7582">
        <ele>11.687786102295</ele>
        <time>2014-12-28T07:47:50.000Z</time>
      </trkpt>
      <trkpt lat="43.78957" lon="4.75823">
        <ele>12.23974609375</ele>
        <time>2014-12-28T07:47:52.000Z</time>
      </trkpt>
      <trkpt lat="43.78948" lon="4.75825">
        <ele>12.85791015625</ele>
        <time>2014-12-28T07:47:54.000Z</time>
      </trkpt>
      <trkpt lat="43.7894" lon="4.75828">
        <ele>13.436645507812</ele>
        <time>2014-12-28T07:47:56.000Z</time>
      </trkpt>
      <trkpt lat="43.78931" lon="4.75837">
        <ele>14.033223152161</ele>
        <time>2014-12-28T07:47:59.000Z</time>
      </trkpt>
      <trkpt lat="43.7893" lon="4.75847">
        <ele>14.489669799805</ele>
        <time>2014-12-28T07:48:01.000Z</time>
      </trkpt>
      <trkpt lat="43.78931" lon="4.75861">
        <ele>14.845219612122</ele>
        <time>2014-12-28T07:48:04.000Z</time>
      </trkpt>
      <trkpt lat="43.78937" lon="4.75881">
        <ele>15.056956291199</ele>
        <time>2014-12-28T07:48:07.000Z</time>
      </trkpt>
      <trkpt lat="43.78941" lon="4.75893">
        <ele>15.142420768738</ele>
        <time>2014-12-28T07:48:09.000Z</time>
      </trkpt>
      <trkpt lat="43.78946" lon="4.75911">
        <ele>15.085650444031</ele>
        <time>2014-12-28T07:48:12.000Z</time>
      </trkpt>
      <trkpt lat="43.78951" lon="4.75923">
        <ele>14.982968330383</ele>
        <time>2014-12-28T07:48:14.000Z</time>
      </trkpt>
      <trkpt lat="43.78956" lon="4.75941">
        <ele>14.82381439209</ele>
        <time>2014-12-28T07:48:17.000Z</time>
      </trkpt>
      <trkpt lat="43.78959" lon="4.75952">
        <ele>14.663858413696</ele>
        <time>2014-12-28T07:48:19.000Z</time>
      </trkpt>
      <trkpt lat="43.78962" lon="4.75969">
        <ele>14.472636222839</ele>
        <time>2014-12-28T07:48:22.000Z</time>
      </trkpt>
      <trkpt lat="43.78959" lon="4.75977">
        <ele>14.318361282349</ele>
        <time>2014-12-28T07:48:24.000Z</time>
      </trkpt>
      <trkpt lat="43.78949" lon="4.75985">
        <ele>14.268961906433</ele>
        <time>2014-12-28T07:48:27.000Z</time>
      </trkpt>
      <trkpt lat="43.7894" lon="4.75993">
        <ele>14.36268901825</ele>
        <time>2014-12-28T07:48:30.000Z</time>
      </trkpt>
      <trkpt lat="43.78933" lon="4.76002">
        <ele>14.558108329773</ele>
        <time>2014-12-28T07:48:32.000Z</time>
      </trkpt>
      <trkpt lat="43.78923" lon="4.76013">
        <ele>14.933151245117</ele>
        <time>2014-12-28T07:48:35.000Z</time>
      </trkpt>
      <trkpt lat="43.78915" lon="4.76016">
        <ele>15.346183776855</ele>
        <time>2014-12-28T07:48:37.000Z</time>
      </trkpt>
      <trkpt lat="43.78907" lon="4.76017">
        <ele>15.681973457336</ele>
        <time>2014-12-28T07:48:39.000Z</time>
      </trkpt>
      <trkpt lat="43.78893" lon="4.76018">
        <ele>15.933218002319</ele>
        <time>2014-12-28T07:48:42.000Z</time>
      </trkpt>
      <trkpt lat="43.78883" lon="4.76022">
        <ele>16.114925384521</ele>
        <time>2014-12-28T07:48:45.000Z</time>
      </trkpt>
      <trkpt lat="43.7887" lon="4.76024">
        <ele>16.160064697266</ele>
        <time>2014-12-28T07:48:48.000Z</time>
      </trkpt>
      <trkpt lat="43.78858" lon="4.76026">
        <ele>16.142183303833</ele>
        <time>2014-12-28T07:48:51.000Z</time>
      </trkpt>
      <trkpt lat="43.78851" lon="4.76028">
        <ele>16.120456695557</ele>
        <time>2014-12-28T07:48:53.000Z</time>
      </trkpt>
      <trkpt lat="43.78844" lon="4.76029">
        <ele>16.097343444824</ele>
        <time>2014-12-28T07:48:55.000Z</time>
      </trkpt>
      <trkpt lat="43.78832" lon="4.7603">
        <ele>16.082103729248</ele>
        <time>2014-12-28T07:48:58.000Z</time>
      </trkpt>
      <trkpt lat="43.78819" lon="4.76033">
        <ele>16.203998565674</ele>
        <time>2014-12-28T07:49:01.000Z</time>
      </trkpt>
      <trkpt lat="43.78811" lon="4.76035">
        <ele>16.404285430908</ele>
        <time>2014-12-28T07:49:03.000Z</time>
      </trkpt>
      <trkpt lat="43.78804" lon="4.76036">
        <ele>16.684965133667</ele>
        <time>2014-12-28T07:49:05.000Z</time>
      </trkpt>
      <trkpt lat="43.78793" lon="4.76039">
        <ele>17.06912612915</ele>
        <time>2014-12-28T07:49:08.000Z</time>
      </trkpt>
      <trkpt lat="43.78786" lon="4.7604">
        <ele>17.515245437622</ele>
        <time>2014-12-28T07:49:10.000Z</time>
      </trkpt>
      <trkpt lat="43.78774" lon="4.7604">
        <ele>17.938861846924</ele>
        <time>2014-12-28T07:49:13.000Z</time>
      </trkpt>
      <trkpt lat="43.78769" lon="4.76043">
        <ele>18.334676742554</ele>
        <time>2014-12-28T07:49:15.000Z</time>
      </trkpt>
      <trkpt lat="43.78761" lon="4.76045">
        <ele>18.718910217285</ele>
        <time>2014-12-28T07:49:17.000Z</time>
      </trkpt>
      <trkpt lat="43.78751" lon="4.76048">
        <ele>19.088468551636</ele>
        <time>2014-12-28T07:49:20.000Z</time>
      </trkpt>
      <trkpt lat="43.78741" lon="4.76052">
        <ele>19.565185546875</ele>
        <time>2014-12-28T07:49:23.000Z</time>
      </trkpt>
      <trkpt lat="43.78731" lon="4.76052">
        <ele>20.166149139404</ele>
        <time>2014-12-28T07:49:26.000Z</time>
      </trkpt>
      <trkpt lat="43.78722" lon="4.76056">
        <ele>20.892507553101</ele>
        <time>2014-12-28T07:49:29.000Z</time>
      </trkpt>
      <trkpt lat="43.78714" lon="4.76057">
        <ele>21.703702926636</ele>
        <time>2014-12-28T07:49:32.000Z</time>
      </trkpt>
      <trkpt lat="43.78708" lon="4.76059">
        <ele>22.548885345459</ele>
        <time>2014-12-28T07:49:34.000Z</time>
      </trkpt>
      <trkpt lat="43.78697" lon="4.7606">
        <ele>23.417392730713</ele>
        <time>2014-12-28T07:49:37.000Z</time>
      </trkpt>
      <trkpt lat="43.78693" lon="4.76062">
        <ele>24.130126953125</ele>
        <time>2014-12-28T07:49:39.000Z</time>
      </trkpt>
      <trkpt lat="43.78687" lon="4.76063">
        <ele>24.769107818604</ele>
        <time>2014-12-28T07:49:41.000Z</time>
      </trkpt>
      <trkpt lat="43.78677" lon="4.76067">
        <ele>25.3805103302</ele>
        <time>2014-12-28T07:49:44.000Z</time>
      </trkpt>
      <trkpt lat="43.78672" lon="4.7607">
        <ele>25.929668426514</ele>
        <time>2014-12-28T07:49:46.000Z</time>
      </trkpt>
      <trkpt lat="43.78664" lon="4.76075">
        <ele>26.357431411743</ele>
        <time>2014-12-28T07:49:49.000Z</time>
      </trkpt>
      <trkpt lat="43.78661" lon="4.76076">
        <ele>26.827251434326</ele>
        <time>2014-12-28T07:49:51.000Z</time>
      </trkpt>
      <trkpt lat="43.7865" lon="4.76084">
        <ele>27.444965362549</ele>
        <time>2014-12-28T07:49:54.000Z</time>
      </trkpt>
      <trkpt lat="43.78643" lon="4.76087">
        <ele>28.145847320557</ele>
        <time>2014-12-28T07:49:56.000Z</time>
      </trkpt>
      <trkpt lat="43.78637" lon="4.76094">
        <ele>28.953746795654</ele>
        <time>2014-12-28T07:49:59.000Z</time>
      </trkpt>
      <trkpt lat="43.7863" lon="4.76098">
        <ele>29.829425811768</ele>
        <time>2014-12-28T07:50:01.000Z</time>
      </trkpt>
      <trkpt lat="43.78624" lon="4.76104">
        <ele>30.708435058594</ele>
        <time>2014-12-28T07:50:03.000Z</time>
      </trkpt>
      <trkpt lat="43.78615" lon="4.76113">
        <ele>31.478916168213</ele>
        <time>2014-12-28T07:50:06.000Z</time>
      </trkpt>
      <trkpt lat="43.7861" lon="4.76118">
        <ele>32.094829559326</ele>
        <time>2014-12-28T07:50:08.000Z</time>
      </trkpt>
      <trkpt lat="43.78603" lon="4.76126">
        <ele>32.594604492188</ele>
        <time>2014-12-28T07:50:11.000Z</time>
      </trkpt>
      <trkpt lat="43.78598" lon="4.76132">
        <ele>32.950645446777</ele>
        <time>2014-12-28T07:50:13.000Z</time>
      </trkpt>
      <trkpt lat="43.78591" lon="4.76141">
        <ele>33.156818389893</ele>
        <time>2014-12-28T07:50:16.000Z</time>
      </trkpt>
      <trkpt lat="43.78584" lon="4.76149">
        <ele>33.18465423584</ele>
        <time>2014-12-28T07:50:19.000Z</time>
      </trkpt>
      <trkpt lat="43.78579" lon="4.76156">
        <ele>33.104251861572</ele>
        <time>2014-12-28T07:50:21.000Z</time>
      </trkpt>
      <trkpt lat="43.78571" lon="4.76164">
        <ele>32.94002532959</ele>
        <time>2014-12-28T07:50:24.000Z</time>
      </trkpt>
      <trkpt lat="43.78566" lon="4.76168">
        <ele>32.795341491699</ele>
        <time>2014-12-28T07:50:26.000Z</time>
      </trkpt>
      <trkpt lat="43.78557" lon="4.76172">
        <ele>32.838893890381</ele>
        <time>2014-12-28T07:50:29.000Z</time>
      </trkpt>
      <trkpt lat="43.78548" lon="4.76176">
        <ele>33.063953399658</ele>
        <time>2014-12-28T07:50:32.000Z</time>
      </trkpt>
      <trkpt lat="43.78539" lon="4.76178">
        <ele>33.483203887939</ele>
        <time>2014-12-28T07:50:35.000Z</time>
      </trkpt>
      <trkpt lat="43.78531" lon="4.7618">
        <ele>34.053291320801</ele>
        <time>2014-12-28T07:50:37.000Z</time>
      </trkpt>
      <trkpt lat="43.78524" lon="4.76182">
        <ele>34.689937591553</ele>
        <time>2014-12-28T07:50:39.000Z</time>
      </trkpt>
      <trkpt lat="43.78514" lon="4.76184">
        <ele>35.290222167969</ele>
        <time>2014-12-28T07:50:42.000Z</time>
      </trkpt>
      <trkpt lat="43.7851" lon="4.76185">
        <ele>35.813056945801</ele>
        <time>2014-12-28T07:50:44.000Z</time>
      </trkpt>
      <trkpt lat="43.78507" lon="4.76187">
        <ele>36.215461730957</ele>
        <time>2014-12-28T07:50:46.000Z</time>
      </trkpt>
      <trkpt lat="43.78498" lon="4.76189">
        <ele>36.582069396973</ele>
        <time>2014-12-28T07:50:49.000Z</time>
      </trkpt>
      <trkpt lat="43.78491" lon="4.7619">
        <ele>36.872470855713</ele>
        <time>2014-12-28T07:50:51.000Z</time>
      </trkpt>
      <trkpt lat="43.78482" lon="4.7619">
        <ele>37.07592010498</ele>
        <time>2014-12-28T07:50:54.000Z</time>
      </trkpt>
      <trkpt lat="43.78474" lon="4.7619">
        <ele>37.260326385498</ele>
        <time>2014-12-28T07:50:57.000Z</time>
      </trkpt>
      <trkpt lat="43.78468" lon="4.76191">
        <ele>37.448120117188</ele>
        <time>2014-12-28T07:50:59.000Z</time>
      </trkpt>
      <trkpt lat="43.78459" lon="4.7619">
        <ele>37.6181640625</ele>
        <time>2014-12-28T07:51:02.000Z</time>
      </trkpt>
      <trkpt lat="43.7845" lon="4.76189">
        <ele>37.838012695312</ele>
        <time>2014-12-28T07:51:05.000Z</time>
      </trkpt>
      <trkpt lat="43.78446" lon="4.76186">
        <ele>38.092407226562</ele>
        <time>2014-12-28T07:51:07.000Z</time>
      </trkpt>
      <trkpt lat="43.78442" lon="4.76182">
        <ele>38.377197265625</ele>
        <time>2014-12-28T07:51:09.000Z</time>
      </trkpt>
      <trkpt lat="43.78435" lon="4.76182">
        <ele>38.684326171875</ele>
        <time>2014-12-28T07:51:12.000Z</time>
      </trkpt>
      <trkpt lat="43.78431" lon="4.7618">
        <ele>38.98486328125</ele>
        <time>2014-12-28T07:51:14.000Z</time>
      </trkpt>
      <trkpt lat="43.78422" lon="4.76176">
        <ele>39.328369140625</ele>
        <time>2014-12-28T07:51:17.000Z</time>
      </trkpt>
      <trkpt lat="43.78415" lon="4.76172">
        <ele>39.670513153076</ele>
        <time>2014-12-28T07:51:19.000Z</time>
      </trkpt>
      <trkpt lat="43.78408" lon="4.76165">
        <ele>39.893814086914</ele>
        <time>2014-12-28T07:51:22.000Z</time>
      </trkpt>
      <trkpt lat="43.78402" lon="4.7616">
        <ele>39.993782043457</ele>
        <time>2014-12-28T07:51:24.000Z</time>
      </trkpt>
      <trkpt lat="43.78393" lon="4.76154">
        <ele>39.871097564697</ele>
        <time>2014-12-28T07:51:27.000Z</time>
      </trkpt>
      <trkpt lat="43.78388" lon="4.76148">
        <ele>39.563674926758</ele>
        <time>2014-12-28T07:51:29.000Z</time>
      </trkpt>
      <trkpt lat="43.78382" lon="4.76139">
        <ele>39.086040496826</ele>
        <time>2014-12-28T07:51:32.000Z</time>
      </trkpt>
      <trkpt lat="43.78374" lon="4.76131">
        <ele>38.51362991333</ele>
        <time>2014-12-28T07:51:35.000Z</time>
      </trkpt>
      <trkpt lat="43.78367" lon="4.76124">
        <ele>37.882621765137</ele>
        <time>2014-12-28T07:51:38.000Z</time>
      </trkpt>
      <trkpt lat="43.78362" lon="4.76118">
        <ele>37.334114074707</ele>
        <time>2014-12-28T07:51:40.000Z</time>
      </trkpt>
      <trkpt lat="43.78352" lon="4.76112">
        <ele>36.657054901123</ele>
        <time>2014-12-28T07:51:43.000Z</time>
      </trkpt>
      <trkpt lat="43.78348" lon="4.76108">
        <ele>35.982414245605</ele>
        <time>2014-12-28T07:51:45.000Z</time>
      </trkpt>
      <trkpt lat="43.78342" lon="4.76105">
        <ele>35.303546905518</ele>
        <time>2014-12-28T07:51:48.000Z</time>
      </trkpt>
      <trkpt lat="43.78332" lon="4.76103">
        <ele>34.584072113037</ele>
        <time>2014-12-28T07:51:51.000Z</time>
      </trkpt>
      <trkpt lat="43.78323" lon="4.76103">
        <ele>33.972408294678</ele>
        <time>2014-12-28T07:51:54.000Z</time>
      </trkpt>
      <trkpt lat="43.78316" lon="4.76104">
        <ele>33.585525512695</ele>
        <time>2014-12-28T07:51:56.000Z</time>
      </trkpt>
      <trkpt lat="43.7831" lon="4.76104">
        <ele>33.311279296875</ele>
        <time>2014-12-28T07:51:58.000Z</time>
      </trkpt>
      <trkpt lat="43.783" lon="4.76104">
        <ele>33.20703125</ele>
        <time>2014-12-28T07:52:01.000Z</time>
      </trkpt>
      <trkpt lat="43.78294" lon="4.76104">
        <ele>33.298828125</ele>
        <time>2014-12-28T07:52:03.000Z</time>
      </trkpt>
      <trkpt lat="43.78284" lon="4.76104">
        <ele>33.392578125</ele>
        <time>2014-12-28T07:52:06.000Z</time>
      </trkpt>
      <trkpt lat="43.78276" lon="4.76104">
        <ele>33.490234375</ele>
        <time>2014-12-28T07:52:09.000Z</time>
      </trkpt>
      <trkpt lat="43.78269" lon="4.76105">
        <ele>33.5888671875</ele>
        <time>2014-12-28T07:52:11.000Z</time>
      </trkpt>
      <trkpt lat="43.7826" lon="4.76105">
        <ele>33.6826171875</ele>
        <time>2014-12-28T07:52:14.000Z</time>
      </trkpt>
      <trkpt lat="43.78254" lon="4.76104">
        <ele>33.77734375</ele>
        <time>2014-12-28T07:52:16.000Z</time>
      </trkpt>
      <trkpt lat="43.78246" lon="4.76104">
        <ele>33.933067321777</ele>
        <time>2014-12-28T07:52:19.000Z</time>
      </trkpt>
      <trkpt lat="43.78242" lon="4.76105">
        <ele>34.127281188965</ele>
        <time>2014-12-28T07:52:21.000Z</time>
      </trkpt>
      <trkpt lat="43.78232" lon="4.76106">
        <ele>34.462387084961</ele>
        <time>2014-12-28T07:52:24.000Z</time>
      </trkpt>
      <trkpt lat="43.78226" lon="4.76108">
        <ele>34.868961334229</ele>
        <time>2014-12-28T07:52:26.000Z</time>
      </trkpt>
      <trkpt lat="43.78218" lon="4.76107">
        <ele>35.39818572998</ele>
        <time>2014-12-28T07:52:29.000Z</time>
      </trkpt>
      <trkpt lat="43.7821" lon="4.76108">
        <ele>35.96089553833</ele>
        <time>2014-12-28T07:52:32.000Z</time>
      </trkpt>
      <trkpt lat="43.78204" lon="4.7611">
        <ele>36.57356262207</ele>
        <time>2014-12-28T07:52:35.000Z</time>
      </trkpt>
      <trkpt lat="43.78197" lon="4.7611">
        <ele>37.125816345215</ele>
        <time>2014-12-28T07:52:38.000Z</time>
      </trkpt>
      <trkpt lat="43.7819" lon="4.76109">
        <ele>37.706573486328</ele>
        <time>2014-12-28T07:52:41.000Z</time>
      </trkpt>
      <trkpt lat="43.78185" lon="4.76109">
        <ele>38.228057861328</ele>
        <time>2014-12-28T07:52:43.000Z</time>
      </trkpt>
      <trkpt lat="43.78176" lon="4.76109">
        <ele>38.776695251465</ele>
        <time>2014-12-28T07:52:46.000Z</time>
      </trkpt>
      <trkpt lat="43.78169" lon="4.76111">
        <ele>39.329242706299</ele>
        <time>2014-12-28T07:52:49.000Z</time>
      </trkpt>
      <trkpt lat="43.78163" lon="4.76111">
        <ele>39.896137237549</ele>
        <time>2014-12-28T07:52:51.000Z</time>
      </trkpt>
      <trkpt lat="43.78154" lon="4.76112">
        <ele>40.523017883301</ele>
        <time>2014-12-28T07:52:54.000Z</time>
      </trkpt>
      <trkpt lat="43.78146" lon="4.76113">
        <ele>41.228866577148</ele>
        <time>2014-12-28T07:52:57.000Z</time>
      </trkpt>
      <trkpt lat="43.78136" lon="4.76114">
        <ele>41.991226196289</ele>
        <time>2014-12-28T07:53:00.000Z</time>
      </trkpt>
      <trkpt lat="43.78132" lon="4.76114">
        <ele>42.72473526001</ele>
        <time>2014-12-28T07:53:02.000Z</time>
      </trkpt>
      <trkpt lat="43.78125" lon="4.76113">
        <ele>43.499809265137</ele>
        <time>2014-12-28T07:53:05.000Z</time>
      </trkpt>
      <trkpt lat="43.7812" lon="4.76114">
        <ele>44.201820373535</ele>
        <time>2014-12-28T07:53:08.000Z</time>
      </trkpt>
      <trkpt lat="43.78116" lon="4.76115">
        <ele>44.832557678223</ele>
        <time>2014-12-28T07:53:10.000Z</time>
      </trkpt>
      <trkpt lat="43.78114" lon="4.76121">
        <ele>45.364177703857</ele>
        <time>2014-12-28T07:53:12.000Z</time>
      </trkpt>
      <trkpt lat="43.78111" lon="4.76127">
        <ele>45.93595123291</ele>
        <time>2014-12-28T07:53:14.000Z</time>
      </trkpt>
      <trkpt lat="43.78104" lon="4.76135">
        <ele>46.584861755371</ele>
        <time>2014-12-28T07:53:17.000Z</time>
      </trkpt>
      <trkpt lat="43.781" lon="4.76137">
        <ele>47.247924804688</ele>
        <time>2014-12-28T07:53:19.000Z</time>
      </trkpt>
      <trkpt lat="43.78096" lon="4.76138">
        <ele>47.942344665527</ele>
        <time>2014-12-28T07:53:22.000Z</time>
      </trkpt>
      <trkpt lat="43.78091" lon="4.76138">
        <ele>48.638679504395</ele>
        <time>2014-12-28T07:53:24.000Z</time>
      </trkpt>
      <trkpt lat="43.78085" lon="4.76138">
        <ele>49.371990203857</ele>
        <time>2014-12-28T07:53:27.000Z</time>
      </trkpt>
      <trkpt lat="43.78078" lon="4.76139">
        <ele>50.051490783691</ele>
        <time>2014-12-28T07:53:30.000Z</time>
      </trkpt>
      <trkpt lat="43.78074" lon="4.7614">
        <ele>50.729637145996</ele>
        <time>2014-12-28T07:53:32.000Z</time>
      </trkpt>
      <trkpt lat="43.78066" lon="4.76139">
        <ele>51.449317932129</ele>
        <time>2014-12-28T07:53:35.000Z</time>
      </trkpt>
      <trkpt lat="43.78062" lon="4.76139">
        <ele>52.161945343018</ele>
        <time>2014-12-28T07:53:37.000Z</time>
      </trkpt>
      <trkpt lat="43.78056" lon="4.76142">
        <ele>52.87816619873</ele>
        <time>2014-12-28T07:53:40.000Z</time>
      </trkpt>
      <trkpt lat="43.78052" lon="4.76144">
        <ele>53.551105499268</ele>
        <time>2014-12-28T07:53:42.000Z</time>
      </trkpt>
      <trkpt lat="43.78048" lon="4.76146">
        <ele>54.237415313721</ele>
        <time>2014-12-28T07:53:44.000Z</time>
      </trkpt>
      <trkpt lat="43.78042" lon="4.76148">
        <ele>54.931690216064</ele>
        <time>2014-12-28T07:53:47.000Z</time>
      </trkpt>
      <trkpt lat="43.78035" lon="4.76148">
        <ele>55.670310974121</ele>
        <time>2014-12-28T07:53:50.000Z</time>
      </trkpt>
      <trkpt lat="43.78031" lon="4.76147">
        <ele>56.32816696167</ele>
        <time>2014-12-28T07:53:52.000Z</time>
      </trkpt>
      <trkpt lat="43.78027" lon="4.76145">
        <ele>56.908325195312</ele>
        <time>2014-12-28T07:53:54.000Z</time>
      </trkpt>
      <trkpt lat="43.78021" lon="4.76142">
        <ele>57.440612792969</ele>
        <time>2014-12-28T07:53:57.000Z</time>
      </trkpt>
      <trkpt lat="43.78015" lon="4.76135">
        <ele>57.816417694092</ele>
        <time>2014-12-28T07:54:00.000Z</time>
      </trkpt>
      <trkpt lat="43.78013" lon="4.76129">
        <ele>57.988807678223</ele>
        <time>2014-12-28T07:54:02.000Z</time>
      </trkpt>
      <trkpt lat="43.78013" lon="4.76119">
        <ele>57.897277832031</ele>
        <time>2014-12-28T07:54:05.000Z</time>
      </trkpt>
      <trkpt lat="43.78013" lon="4.76111">
        <ele>57.596374511719</ele>
        <time>2014-12-28T07:54:07.000Z</time>
      </trkpt>
      <trkpt lat="43.78012" lon="4.76099">
        <ele>57.009162902832</ele>
        <time>2014-12-28T07:54:10.000Z</time>
      </trkpt>
      <trkpt lat="43.7801" lon="4.76089">
        <ele>56.260353088379</ele>
        <time>2014-12-28T07:54:12.000Z</time>
      </trkpt>
      <trkpt lat="43.78006" lon="4.76074">
        <ele>55.41690826416</ele>
        <time>2014-12-28T07:54:15.000Z</time>
      </trkpt>
      <trkpt lat="43.78001" lon="4.76057">
        <ele>54.60986328125</ele>
        <time>2014-12-28T07:54:18.000Z</time>
      </trkpt>
      <trkpt lat="43.77993" lon="4.7605">
        <ele>53.975463867188</ele>
        <time>2014-12-28T07:54:20.000Z</time>
      </trkpt>
      <trkpt lat="43.77984" lon="4.76045">
        <ele>53.605388641357</ele>
        <time>2014-12-28T07:54:22.000Z</time>
      </trkpt>
      <trkpt lat="43.77976" lon="4.76044">
        <ele>53.480537414551</ele>
        <time>2014-12-28T07:54:24.000Z</time>
      </trkpt>
      <trkpt lat="43.77962" lon="4.76044">
        <ele>53.722827911377</ele>
        <time>2014-12-28T07:54:27.000Z</time>
      </trkpt>
      <trkpt lat="43.77955" lon="4.76044">
        <ele>54.202354431152</ele>
        <time>2014-12-28T07:54:29.000Z</time>
      </trkpt>
      <trkpt lat="43.77944" lon="4.76044">
        <ele>54.836578369141</ele>
        <time>2014-12-28T07:54:32.000Z</time>
      </trkpt>
      <trkpt lat="43.77938" lon="4.76045">
        <ele>55.511817932129</ele>
        <time>2014-12-28T07:54:34.000Z</time>
      </trkpt>
      <trkpt lat="43.77927" lon="4.76046">
        <ele>56.290580749512</ele>
        <time>2014-12-28T07:54:37.000Z</time>
      </trkpt>
      <trkpt lat="43.77918" lon="4.76046">
        <ele>56.988395690918</ele>
        <time>2014-12-28T07:54:40.000Z</time>
      </trkpt>
      <trkpt lat="43.77912" lon="4.76046">
        <ele>57.654716491699</ele>
        <time>2014-12-28T07:54:42.000Z</time>
      </trkpt>
      <trkpt lat="43.77903" lon="4.76047">
        <ele>58.250297546387</ele>
        <time>2014-12-28T07:54:45.000Z</time>
      </trkpt>
      <trkpt lat="43.77897" lon="4.76047">
        <ele>58.814842224121</ele>
        <time>2014-12-28T07:54:47.000Z</time>
      </trkpt>
      <trkpt lat="43.77888" lon="4.76047">
        <ele>59.24955368042</ele>
        <time>2014-12-28T07:54:50.000Z</time>
      </trkpt>
      <trkpt lat="43.77878" lon="4.76046">
        <ele>59.636241912842</ele>
        <time>2014-12-28T07:54:53.000Z</time>
      </trkpt>
      <trkpt lat="43.77868" lon="4.76046">
        <ele>60.04224395752</ele>
        <time>2014-12-28T07:54:56.000Z</time>
      </trkpt>
      <trkpt lat="43.7786" lon="4.76049">
        <ele>60.495765686035</ele>
        <time>2014-12-28T07:54:59.000Z</time>
      </trkpt>
      <trkpt lat="43.77853" lon="4.76056">
        <ele>61.074531555176</ele>
        <time>2014-12-28T07:55:02.000Z</time>
      </trkpt>
      <trkpt lat="43.7785" lon="4.76061">
        <ele>61.724498748779</ele>
        <time>2014-12-28T07:55:04.000Z</time>
      </trkpt>
      <trkpt lat="43.77842" lon="4.76068">
        <ele>62.487140655518</ele>
        <time>2014-12-28T07:55:07.000Z</time>
      </trkpt>
      <trkpt lat="43.77837" lon="4.76071">
        <ele>63.271789550781</ele>
        <time>2014-12-28T07:55:09.000Z</time>
      </trkpt>
      <trkpt lat="43.77831" lon="4.76073">
        <ele>63.967124938965</ele>
        <time>2014-12-28T07:55:11.000Z</time>
      </trkpt>
      <trkpt lat="43.77822" lon="4.76073">
        <ele>64.487075805664</ele>
        <time>2014-12-28T07:55:14.000Z</time>
      </trkpt>
      <trkpt lat="43.77814" lon="4.7607">
        <ele>64.845565795898</ele>
        <time>2014-12-28T07:55:17.000Z</time>
      </trkpt>
      <trkpt lat="43.77809" lon="4.76068">
        <ele>64.999618530273</ele>
        <time>2014-12-28T07:55:19.000Z</time>
      </trkpt>
      <trkpt lat="43.778" lon="4.76065">
        <ele>65.045539855957</ele>
        <time>2014-12-28T07:55:22.000Z</time>
      </trkpt>
      <trkpt lat="43.77793" lon="4.76064">
        <ele>65.044639587402</ele>
        <time>2014-12-28T07:55:24.000Z</time>
      </trkpt>
      <trkpt lat="43.77787" lon="4.76062">
        <ele>65.034065246582</ele>
        <time>2014-12-28T07:55:26.000Z</time>
      </trkpt>
      <trkpt lat="43.77781" lon="4.76064">
        <ele>65.083938598633</ele>
        <time>2014-12-28T07:55:28.000Z</time>
      </trkpt>
      <trkpt lat="43.77772" lon="4.76062">
        <ele>65.1748046875</ele>
        <time>2014-12-28T07:55:31.000Z</time>
      </trkpt>
      <trkpt lat="43.77766" lon="4.76058">
        <ele>65.290145874023</ele>
        <time>2014-12-28T07:55:33.000Z</time>
      </trkpt>
      <trkpt lat="43.7776" lon="4.76057">
        <ele>65.423606872559</ele>
        <time>2014-12-28T07:55:35.000Z</time>
      </trkpt>
      <trkpt lat="43.77753" lon="4.76056">
        <ele>65.582504272461</ele>
        <time>2014-12-28T07:55:37.000Z</time>
      </trkpt>
      <trkpt lat="43.77743" lon="4.76055">
        <ele>65.803573608398</ele>
        <time>2014-12-28T07:55:40.000Z</time>
      </trkpt>
      <trkpt lat="43.77732" lon="4.76054">
        <ele>66.117561340332</ele>
        <time>2014-12-28T07:55:43.000Z</time>
      </trkpt>
      <trkpt lat="43.77725" lon="4.76054">
        <ele>66.495162963867</ele>
        <time>2014-12-28T07:55:45.000Z</time>
      </trkpt>
      <trkpt lat="43.77719" lon="4.76055">
        <ele>66.908874511719</ele>
        <time>2014-12-28T07:55:47.000Z</time>
      </trkpt>
      <trkpt lat="43.77712" lon="4.76054">
        <ele>67.367027282715</ele>
        <time>2014-12-28T07:55:49.000Z</time>
      </trkpt>
      <trkpt lat="43.77704" lon="4.76056">
        <ele>67.798294067383</ele>
        <time>2014-12-28T07:55:52.000Z</time>
      </trkpt>
      <trkpt lat="43.77697" lon="4.76061">
        <ele>68.106094360352</ele>
        <time>2014-12-28T07:55:55.000Z</time>
      </trkpt>
      <trkpt lat="43.77691" lon="4.76064">
        <ele>68.311935424805</ele>
        <time>2014-12-28T07:55:57.000Z</time>
      </trkpt>
      <trkpt lat="43.77689" lon="4.76073">
        <ele>68.301490783691</ele>
        <time>2014-12-28T07:56:00.000Z</time>
      </trkpt>
      <trkpt lat="43.77683" lon="4.76082">
        <ele>68.047409057617</ele>
        <time>2014-12-28T07:56:03.000Z</time>
      </trkpt>
      <trkpt lat="43.77679" lon="4.76088">
        <ele>67.803192138672</ele>
        <time>2014-12-28T07:56:05.000Z</time>
      </trkpt>
      <trkpt lat="43.77671" lon="4.76096">
        <ele>67.755226135254</ele>
        <time>2014-12-28T07:56:08.000Z</time>
      </trkpt>
      <trkpt lat="43.77667" lon="4.76102">
        <ele>67.857139587402</ele>
        <time>2014-12-28T07:56:10.000Z</time>
      </trkpt>
      <trkpt lat="43.77663" lon="4.7611">
        <ele>68.372604370117</ele>
        <time>2014-12-28T07:56:13.000Z</time>
      </trkpt>
      <trkpt lat="43.77657" lon="4.76118">
        <ele>69.318634033203</ele>
        <time>2014-12-28T07:56:16.000Z</time>
      </trkpt>
      <trkpt lat="43.7765" lon="4.76126">
        <ele>70.424407958984</ele>
        <time>2014-12-28T07:56:19.000Z</time>
      </trkpt>
      <trkpt lat="43.77646" lon="4.7613">
        <ele>71.454078674316</ele>
        <time>2014-12-28T07:56:21.000Z</time>
      </trkpt>
      <trkpt lat="43.77642" lon="4.76135">
        <ele>72.449562072754</ele>
        <time>2014-12-28T07:56:23.000Z</time>
      </trkpt>
      <trkpt lat="43.77637" lon="4.76139">
        <ele>73.271957397461</ele>
        <time>2014-12-28T07:56:25.000Z</time>
      </trkpt>
      <trkpt lat="43.77629" lon="4.76145">
        <ele>73.934646606445</ele>
        <time>2014-12-28T07:56:28.000Z</time>
      </trkpt>
      <trkpt lat="43.77625" lon="4.76148">
        <ele>74.397033691406</ele>
        <time>2014-12-28T07:56:30.000Z</time>
      </trkpt>
      <trkpt lat="43.7762" lon="4.76151">
        <ele>74.76708984375</ele>
        <time>2014-12-28T07:56:32.000Z</time>
      </trkpt>
      <trkpt lat="43.77614" lon="4.76156">
        <ele>75.061424255371</ele>
        <time>2014-12-28T07:56:35.000Z</time>
      </trkpt>
      <trkpt lat="43.77611" lon="4.7616">
        <ele>75.262016296387</ele>
        <time>2014-12-28T07:56:37.000Z</time>
      </trkpt>
      <trkpt lat="43.77607" lon="4.76163">
        <ele>75.340057373047</ele>
        <time>2014-12-28T07:56:39.000Z</time>
      </trkpt>
      <trkpt lat="43.776" lon="4.76167">
        <ele>75.359313964844</ele>
        <time>2014-12-28T07:56:42.000Z</time>
      </trkpt>
      <trkpt lat="43.77595" lon="4.7617">
        <ele>75.402305603027</ele>
        <time>2014-12-28T07:56:44.000Z</time>
      </trkpt>
      <trkpt lat="43.77586" lon="4.76172">
        <ele>75.443534851074</ele>
        <time>2014-12-28T07:56:47.000Z</time>
      </trkpt>
      <trkpt lat="43.77581" lon="4.76171">
        <ele>75.478492736816</ele>
        <time>2014-12-28T07:56:49.000Z</time>
      </trkpt>
      <trkpt lat="43.77573" lon="4.76173">
        <ele>75.584411621094</ele>
        <time>2014-12-28T07:56:52.000Z</time>
      </trkpt>
      <trkpt lat="43.77568" lon="4.76174">
        <ele>75.742553710938</ele>
        <time>2014-12-28T07:56:54.000Z</time>
      </trkpt>
      <trkpt lat="43.77563" lon="4.76176">
        <ele>75.887107849121</ele>
        <time>2014-12-28T07:56:56.000Z</time>
      </trkpt>
      <trkpt lat="43.77554" lon="4.76174">
        <ele>75.99397277832</ele>
        <time>2014-12-28T07:56:59.000Z</time>
      </trkpt>
      <trkpt lat="43.77549" lon="4.76175">
        <ele>76.134658813477</ele>
        <time>2014-12-28T07:57:01.000Z</time>
      </trkpt>
      <trkpt lat="43.77542" lon="4.76174">
        <ele>76.21125793457</ele>
        <time>2014-12-28T07:57:04.000Z</time>
      </trkpt>
      <trkpt lat="43.77537" lon="4.76172">
        <ele>76.229537963867</ele>
        <time>2014-12-28T07:57:07.000Z</time>
      </trkpt>
      <trkpt lat="43.77532" lon="4.76173">
        <ele>76.237632751465</ele>
        <time>2014-12-28T07:57:09.000Z</time>
      </trkpt>
      <trkpt lat="43.77528" lon="4.76169">
        <ele>76.184036254883</ele>
        <time>2014-12-28T07:57:11.000Z</time>
      </trkpt>
      <trkpt lat="43.77519" lon="4.76169">
        <ele>76.127593994141</ele>
        <time>2014-12-28T07:57:14.000Z</time>
      </trkpt>
      <trkpt lat="43.77513" lon="4.76169">
        <ele>76.084594726562</ele>
        <time>2014-12-28T07:57:16.000Z</time>
      </trkpt>
      <trkpt lat="43.77505" lon="4.76169">
        <ele>76.083877563477</ele>
        <time>2014-12-28T07:57:19.000Z</time>
      </trkpt>
      <trkpt lat="43.77499" lon="4.76169">
        <ele>76.071746826172</ele>
        <time>2014-12-28T07:57:21.000Z</time>
      </trkpt>
      <trkpt lat="43.7749" lon="4.76168">
        <ele>76.21760559082</ele>
        <time>2014-12-28T07:57:24.000Z</time>
      </trkpt>
      <trkpt lat="43.77482" lon="4.76168">
        <ele>76.407432556152</ele>
        <time>2014-12-28T07:57:27.000Z</time>
      </trkpt>
      <trkpt lat="43.77474" lon="4.76168">
        <ele>76.663238525391</ele>
        <time>2014-12-28T07:57:30.000Z</time>
      </trkpt>
      <trkpt lat="43.77468" lon="4.76167">
        <ele>76.942825317383</ele>
        <time>2014-12-28T07:57:32.000Z</time>
      </trkpt>
      <trkpt lat="43.77463" lon="4.76166">
        <ele>77.266319274902</ele>
        <time>2014-12-28T07:57:34.000Z</time>
      </trkpt>
      <trkpt lat="43.77456" lon="4.76164">
        <ele>77.646141052246</ele>
        <time>2014-12-28T07:57:37.000Z</time>
      </trkpt>
      <trkpt lat="43.77448" lon="4.76162">
        <ele>78.089218139648</ele>
        <time>2014-12-28T07:57:40.000Z</time>
      </trkpt>
      <trkpt lat="43.77439" lon="4.76161">
        <ele>78.573989868164</ele>
        <time>2014-12-28T07:57:43.000Z</time>
      </trkpt>
      <trkpt lat="43.77433" lon="4.7616">
        <ele>79.102737426758</ele>
        <time>2014-12-28T07:57:45.000Z</time>
      </trkpt>
      <trkpt lat="43.77425" lon="4.76157">
        <ele>79.71297454834</ele>
        <time>2014-12-28T07:57:48.000Z</time>
      </trkpt>
      <trkpt lat="43.77419" lon="4.76155">
        <ele>80.282859802246</ele>
        <time>2014-12-28T07:57:50.000Z</time>
      </trkpt>
      <trkpt lat="43.77413" lon="4.76153">
        <ele>80.887985229492</ele>
        <time>2014-12-28T07:57:53.000Z</time>
      </trkpt>
      <trkpt lat="43.77407" lon="4.76162">
        <ele>81.333168029785</ele>
        <time>2014-12-28T07:57:56.000Z</time>
      </trkpt>
      <trkpt lat="43.77402" lon="4.7617">
        <ele>81.737350463867</ele>
        <time>2014-12-28T07:57:58.000Z</time>
      </trkpt>
      <trkpt lat="43.77397" lon="4.7618">
        <ele>82.239768981934</ele>
        <time>2014-12-28T07:58:01.000Z</time>
      </trkpt>
      <trkpt lat="43.77395" lon="4.76185">
        <ele>82.723190307617</ele>
        <time>2014-12-28T07:58:03.000Z</time>
      </trkpt>
      <trkpt lat="43.77393" lon="4.7619">
        <ele>83.136207580566</ele>
        <time>2014-12-28T07:58:05.000Z</time>
      </trkpt>
      <trkpt lat="43.77389" lon="4.762">
        <ele>83.726722717285</ele>
        <time>2014-12-28T07:58:08.000Z</time>
      </trkpt>
      <trkpt lat="43.77386" lon="4.76206">
        <ele>84.356414794922</ele>
        <time>2014-12-28T07:58:10.000Z</time>
      </trkpt>
      <trkpt lat="43.77381" lon="4.76214">
        <ele>84.849060058594</ele>
        <time>2014-12-28T07:58:13.000Z</time>
      </trkpt>
      <trkpt lat="43.77377" lon="4.76222">
        <ele>85.332077026367</ele>
        <time>2014-12-28T07:58:16.000Z</time>
      </trkpt>
      <trkpt lat="43.77374" lon="4.76227">
        <ele>85.757522583008</ele>
        <time>2014-12-28T07:58:18.000Z</time>
      </trkpt>
      <trkpt lat="43.7737" lon="4.76236">
        <ele>86.086463928223</ele>
        <time>2014-12-28T07:58:21.000Z</time>
      </trkpt>
      <trkpt lat="43.77367" lon="4.76242">
        <ele>86.342964172363</ele>
        <time>2014-12-28T07:58:23.000Z</time>
      </trkpt>
      <trkpt lat="43.77365" lon="4.76248">
        <ele>86.496231079102</ele>
        <time>2014-12-28T07:58:25.000Z</time>
      </trkpt>
      <trkpt lat="43.77362" lon="4.76256">
        <ele>86.740966796875</ele>
        <time>2014-12-28T07:58:28.000Z</time>
      </trkpt>
      <trkpt lat="43.77358" lon="4.76259">
        <ele>87.022422790527</ele>
        <time>2014-12-28T07:58:30.000Z</time>
      </trkpt>
      <trkpt lat="43.77353" lon="4.76262">
        <ele>87.335876464844</ele>
        <time>2014-12-28T07:58:32.000Z</time>
      </trkpt>
      <trkpt lat="43.77348" lon="4.76269">
        <ele>87.770240783691</ele>
        <time>2014-12-28T07:58:35.000Z</time>
      </trkpt>
      <trkpt lat="43.77346" lon="4.76272">
        <ele>88.258094787598</ele>
        <time>2014-12-28T07:58:37.000Z</time>
      </trkpt>
      <trkpt lat="43.77342" lon="4.76278">
        <ele>88.696304321289</ele>
        <time>2014-12-28T07:58:40.000Z</time>
      </trkpt>
      <trkpt lat="43.7734" lon="4.76282">
        <ele>89.123626708984</ele>
        <time>2014-12-28T07:58:42.000Z</time>
      </trkpt>
      <trkpt lat="43.77337" lon="4.76288">
        <ele>89.558578491211</ele>
        <time>2014-12-28T07:58:45.000Z</time>
      </trkpt>
      <trkpt lat="43.77334" lon="4.76294">
        <ele>89.934860229492</ele>
        <time>2014-12-28T07:58:48.000Z</time>
      </trkpt>
      <trkpt lat="43.7733" lon="4.76301">
        <ele>90.45809173584</ele>
        <time>2014-12-28T07:58:51.000Z</time>
      </trkpt>
      <trkpt lat="43.77325" lon="4.76307">
        <ele>91.092575073242</ele>
        <time>2014-12-28T07:58:54.000Z</time>
      </trkpt>
      <trkpt lat="43.77321" lon="4.76313">
        <ele>91.862571716309</ele>
        <time>2014-12-28T07:58:57.000Z</time>
      </trkpt>
      <trkpt lat="43.77317" lon="4.76317">
        <ele>92.720405578613</ele>
        <time>2014-12-28T07:58:59.000Z</time>
      </trkpt>
      <trkpt lat="43.77312" lon="4.76323">
        <ele>93.741004943848</ele>
        <time>2014-12-28T07:59:02.000Z</time>
      </trkpt>
      <trkpt lat="43.77308" lon="4.76328">
        <ele>94.756797790527</ele>
        <time>2014-12-28T07:59:04.000Z</time>
      </trkpt>
      <trkpt lat="43.77304" lon="4.76332">
        <ele>95.756546020508</ele>
        <time>2014-12-28T07:59:07.000Z</time>
      </trkpt>
      <trkpt lat="43.77299" lon="4.76338">
        <ele>96.79515838623</ele>
        <time>2014-12-28T07:59:10.000Z</time>
      </trkpt>
      <trkpt lat="43.77296" lon="4.76342">
        <ele>97.823783874512</ele>
        <time>2014-12-28T07:59:12.000Z</time>
      </trkpt>
      <trkpt lat="43.77292" lon="4.76351">
        <ele>98.85001373291</ele>
        <time>2014-12-28T07:59:15.000Z</time>
      </trkpt>
      <trkpt lat="43.7729" lon="4.76355">
        <ele>99.784729003906</ele>
        <time>2014-12-28T07:59:17.000Z</time>
      </trkpt>
      <trkpt lat="43.77288" lon="4.76358">
        <ele>100.61390686035</ele>
        <time>2014-12-28T07:59:19.000Z</time>
      </trkpt>
      <trkpt lat="43.77283" lon="4.76363">
        <ele>101.33960723877</ele>
        <time>2014-12-28T07:59:22.000Z</time>
      </trkpt>
      <trkpt lat="43.7728" lon="4.76365">
        <ele>101.97734069824</ele>
        <time>2014-12-28T07:59:24.000Z</time>
      </trkpt>
      <trkpt lat="43.77275" lon="4.76368">
        <ele>102.48760986328</ele>
        <time>2014-12-28T07:59:27.000Z</time>
      </trkpt>
      <trkpt lat="43.77272" lon="4.7637">
        <ele>102.93865966797</ele>
        <time>2014-12-28T07:59:29.000Z</time>
      </trkpt>
      <trkpt lat="43.77267" lon="4.76373">
        <ele>103.37030029297</ele>
        <time>2014-12-28T07:59:32.000Z</time>
      </trkpt>
      <trkpt lat="43.77264" lon="4.76375">
        <ele>103.71081542969</ele>
        <time>2014-12-28T07:59:34.000Z</time>
      </trkpt>
      <trkpt lat="43.77259" lon="4.76379">
        <ele>104.04498291016</ele>
        <time>2014-12-28T07:59:37.000Z</time>
      </trkpt>
      <trkpt lat="43.77257" lon="4.76381">
        <ele>104.29856109619</ele>
        <time>2014-12-28T07:59:39.000Z</time>
      </trkpt>
      <trkpt lat="43.77253" lon="4.76384">
        <ele>104.53902435303</ele>
        <time>2014-12-28T07:59:42.000Z</time>
      </trkpt>
      <trkpt lat="43.77251" lon="4.7639">
        <ele>104.71740722656</ele>
        <time>2014-12-28T07:59:45.000Z</time>
      </trkpt>
      <trkpt lat="43.7725" lon="4.76395">
        <ele>104.85416412354</ele>
        <time>2014-12-28T07:59:47.000Z</time>
      </trkpt>
      <trkpt lat="43.77252" lon="4.764">
        <ele>104.93283843994</ele>
        <time>2014-12-28T07:59:49.000Z</time>
      </trkpt>
      <trkpt lat="43.77258" lon="4.76407">
        <ele>105.00965881348</ele>
        <time>2014-12-28T07:59:52.000Z</time>
      </trkpt>
      <trkpt lat="43.77263" lon="4.7641">
        <ele>105.0869140625</ele>
        <time>2014-12-28T07:59:54.000Z</time>
      </trkpt>
      <trkpt lat="43.77268" lon="4.76412">
        <ele>105.18566894531</ele>
        <time>2014-12-28T07:59:56.000Z</time>
      </trkpt>
      <trkpt lat="43.77274" lon="4.76413">
        <ele>105.31958007812</ele>
        <time>2014-12-28T07:59:59.000Z</time>
      </trkpt>
      <trkpt lat="43.77278" lon="4.76412">
        <ele>105.46901702881</ele>
        <time>2014-12-28T08:00:01.000Z</time>
      </trkpt>
      <trkpt lat="43.77282" lon="4.76411">
        <ele>105.60472106934</ele>
        <time>2014-12-28T08:00:03.000Z</time>
      </trkpt>
      <trkpt lat="43.77288" lon="4.76411">
        <ele>105.73789978027</ele>
        <time>2014-12-28T08:00:06.000Z</time>
      </trkpt>
      <trkpt lat="43.77293" lon="4.76412">
        <ele>105.86871337891</ele>
        <time>2014-12-28T08:00:08.000Z</time>
      </trkpt>
      <trkpt lat="43.77297" lon="4.76411">
        <ele>105.97426605225</ele>
        <time>2014-12-28T08:00:10.000Z</time>
      </trkpt>
      <trkpt lat="43.77303" lon="4.76408">
        <ele>106.02988433838</ele>
        <time>2014-12-28T08:00:13.000Z</time>
      </trkpt>
      <trkpt lat="43.77307" lon="4.76405">
        <ele>106.00827789307</ele>
        <time>2014-12-28T08:00:15.000Z</time>
      </trkpt>
      <trkpt lat="43.77313" lon="4.76403">
        <ele>105.91318511963</ele>
        <time>2014-12-28T08:00:18.000Z</time>
      </trkpt>
      <trkpt lat="43.77319" lon="4.76404">
        <ele>105.82023620605</ele>
        <time>2014-12-28T08:00:21.000Z</time>
      </trkpt>
      <trkpt lat="43.77325" lon="4.76405">
        <ele>105.77122497559</ele>
        <time>2014-12-28T08:00:24.000Z</time>
      </trkpt>
      <trkpt lat="43.7733" lon="4.76401">
        <ele>105.63571929932</ele>
        <time>2014-12-28T08:00:27.000Z</time>
      </trkpt>
      <trkpt lat="43.77333" lon="4.76396">
        <ele>105.39161682129</ele>
        <time>2014-12-28T08:00:29.000Z</time>
      </trkpt>
      <trkpt lat="43.77338" lon="4.76389">
        <ele>105.0767364502</ele>
        <time>2014-12-28T08:00:32.000Z</time>
      </trkpt>
      <trkpt lat="43.77345" lon="4.76386">
        <ele>104.76975250244</ele>
        <time>2014-12-28T08:00:35.000Z</time>
      </trkpt>
      <trkpt lat="43.77351" lon="4.76385">
        <ele>104.54805755615</ele>
        <time>2014-12-28T08:00:38.000Z</time>
      </trkpt>
      <trkpt lat="43.77356" lon="4.76386">
        <ele>104.56123352051</ele>
        <time>2014-12-28T08:00:40.000Z</time>
      </trkpt>
      <trkpt lat="43.77363" lon="4.76389">
        <ele>105.00693511963</ele>
        <time>2014-12-28T08:00:43.000Z</time>
      </trkpt>
      <trkpt lat="43.77367" lon="4.7639">
        <ele>105.71689605713</ele>
        <time>2014-12-28T08:00:45.000Z</time>
      </trkpt>
      <trkpt lat="43.77371" lon="4.7639">
        <ele>106.48352050781</ele>
        <time>2014-12-28T08:00:47.000Z</time>
      </trkpt>
      <trkpt lat="43.77375" lon="4.76391">
        <ele>107.22515869141</ele>
        <time>2014-12-28T08:00:49.000Z</time>
      </trkpt>
      <trkpt lat="43.77378" lon="4.76388">
        <ele>107.80623626709</ele>
        <time>2014-12-28T08:00:52.000Z</time>
      </trkpt>
      <trkpt lat="43.7738" lon="4.76381">
        <ele>107.94535064697</ele>
        <time>2014-12-28T08:00:55.000Z</time>
      </trkpt>
      <trkpt lat="43.77382" lon="4.76376">
        <ele>107.79534912109</ele>
        <time>2014-12-28T08:00:58.000Z</time>
      </trkpt>
      <trkpt lat="43.77386" lon="4.76375">
        <ele>107.61122131348</ele>
        <time>2014-12-28T08:01:00.000Z</time>
      </trkpt>
      <trkpt lat="43.77389" lon="4.76379">
        <ele>107.50691986084</ele>
        <time>2014-12-28T08:01:02.000Z</time>
      </trkpt>
      <trkpt lat="43.77388" lon="4.76388">
        <ele>107.72953796387</ele>
        <time>2014-12-28T08:01:05.000Z</time>
      </trkpt>
      <trkpt lat="43.77388" lon="4.76396">
        <ele>108.41829681396</ele>
        <time>2014-12-28T08:01:08.000Z</time>
      </trkpt>
      <trkpt lat="43.77387" lon="4.76405">
        <ele>109.55782318115</ele>
        <time>2014-12-28T08:01:11.000Z</time>
      </trkpt>
      <trkpt lat="43.77385" lon="4.7641">
        <ele>110.76379394531</ele>
        <time>2014-12-28T08:01:13.000Z</time>
      </trkpt>
      <trkpt lat="43.77379" lon="4.76412">
        <ele>111.6883392334</ele>
        <time>2014-12-28T08:01:16.000Z</time>
      </trkpt>
      <trkpt lat="43.77374" lon="4.76412">
        <ele>112.21173095703</ele>
        <time>2014-12-28T08:01:18.000Z</time>
      </trkpt>
      <trkpt lat="43.77369" lon="4.76411">
        <ele>112.28183746338</ele>
        <time>2014-12-28T08:01:21.000Z</time>
      </trkpt>
      <trkpt lat="43.77363" lon="4.7641">
        <ele>111.893409729</ele>
        <time>2014-12-28T08:01:24.000Z</time>
      </trkpt>
      <trkpt lat="43.77359" lon="4.76411">
        <ele>111.30300140381</ele>
        <time>2014-12-28T08:01:26.000Z</time>
      </trkpt>
      <trkpt lat="43.77354" lon="4.76413">
        <ele>110.75230407715</ele>
        <time>2014-12-28T08:01:29.000Z</time>
      </trkpt>
      <trkpt lat="43.77351" lon="4.76417">
        <ele>110.37528991699</ele>
        <time>2014-12-28T08:01:31.000Z</time>
      </trkpt>
      <trkpt lat="43.77348" lon="4.76424">
        <ele>110.34860992432</ele>
        <time>2014-12-28T08:01:34.000Z</time>
      </trkpt>
      <trkpt lat="43.77346" lon="4.76428">
        <ele>110.60762023926</ele>
        <time>2014-12-28T08:01:36.000Z</time>
      </trkpt>
      <trkpt lat="43.77346" lon="4.76434">
        <ele>111.13985443115</ele>
        <time>2014-12-28T08:01:39.000Z</time>
      </trkpt>
      <trkpt lat="43.77343" lon="4.76437">
        <ele>111.80849456787</ele>
        <time>2014-12-28T08:01:41.000Z</time>
      </trkpt>
      <trkpt lat="43.77337" lon="4.76439">
        <ele>112.39848327637</ele>
        <time>2014-12-28T08:01:44.000Z</time>
      </trkpt>
      <trkpt lat="43.77333" lon="4.76439">
        <ele>112.73171234131</ele>
        <time>2014-12-28T08:01:46.000Z</time>
      </trkpt>
      <trkpt lat="43.77327" lon="4.76437">
        <ele>112.80727386475</ele>
        <time>2014-12-28T08:01:49.000Z</time>
      </trkpt>
      <trkpt lat="43.77322" lon="4.76436">
        <ele>112.59913635254</ele>
        <time>2014-12-28T08:01:51.000Z</time>
      </trkpt>
      <trkpt lat="43.77317" lon="4.76437">
        <ele>112.28691101074</ele>
        <time>2014-12-28T08:01:53.000Z</time>
      </trkpt>
      <trkpt lat="43.7731" lon="4.7644">
        <ele>112.0662612915</ele>
        <time>2014-12-28T08:01:56.000Z</time>
      </trkpt>
      <trkpt lat="43.77307" lon="4.76443">
        <ele>112.03391265869</ele>
        <time>2014-12-28T08:01:58.000Z</time>
      </trkpt>
      <trkpt lat="43.77304" lon="4.76447">
        <ele>112.28847503662</ele>
        <time>2014-12-28T08:02:00.000Z</time>
      </trkpt>
      <trkpt lat="43.773" lon="4.76452">
        <ele>112.77124023438</ele>
        <time>2014-12-28T08:02:02.000Z</time>
      </trkpt>
      <trkpt lat="43.77296" lon="4.76456">
        <ele>113.41984558105</ele>
        <time>2014-12-28T08:02:04.000Z</time>
      </trkpt>
      <trkpt lat="43.77291" lon="4.76463">
        <ele>114.23887634277</ele>
        <time>2014-12-28T08:02:07.000Z</time>
      </trkpt>
      <trkpt lat="43.77287" lon="4.76467">
        <ele>115.10581207275</ele>
        <time>2014-12-28T08:02:09.000Z</time>
      </trkpt>
      <trkpt lat="43.77283" lon="4.76475">
        <ele>116.1061630249</ele>
        <time>2014-12-28T08:02:12.000Z</time>
      </trkpt>
      <trkpt lat="43.77279" lon="4.76484">
        <ele>117.28015136719</ele>
        <time>2014-12-28T08:02:15.000Z</time>
      </trkpt>
      <trkpt lat="43.77278" lon="4.76492">
        <ele>118.635887146</ele>
        <time>2014-12-28T08:02:18.000Z</time>
      </trkpt>
      <trkpt lat="43.77277" lon="4.76497">
        <ele>119.96272277832</ele>
        <time>2014-12-28T08:02:20.000Z</time>
      </trkpt>
      <trkpt lat="43.77275" lon="4.76502">
        <ele>121.32849121094</ele>
        <time>2014-12-28T08:02:22.000Z</time>
      </trkpt>
      <trkpt lat="43.77272" lon="4.76509">
        <ele>122.67779541016</ele>
        <time>2014-12-28T08:02:25.000Z</time>
      </trkpt>
      <trkpt lat="43.77268" lon="4.76516">
        <ele>123.99565124512</ele>
        <time>2014-12-28T08:02:28.000Z</time>
      </trkpt>
      <trkpt lat="43.77266" lon="4.76519">
        <ele>125.12271881104</ele>
        <time>2014-12-28T08:02:30.000Z</time>
      </trkpt>
      <trkpt lat="43.77263" lon="4.76521">
        <ele>126.10502624512</ele>
        <time>2014-12-28T08:02:32.000Z</time>
      </trkpt>
      <trkpt lat="43.77259" lon="4.76521">
        <ele>126.86806488037</ele>
        <time>2014-12-28T08:02:34.000Z</time>
      </trkpt>
      <trkpt lat="43.77256" lon="4.76519">
        <ele>127.21761322021</ele>
        <time>2014-12-28T08:02:36.000Z</time>
      </trkpt>
      <trkpt lat="43.77251" lon="4.76513">
        <ele>126.96562194824</ele>
        <time>2014-12-28T08:02:39.000Z</time>
      </trkpt>
      <trkpt lat="43.77248" lon="4.7651">
        <ele>126.38928222656</ele>
        <time>2014-12-28T08:02:41.000Z</time>
      </trkpt>
      <trkpt lat="43.77245" lon="4.76505">
        <ele>125.5163192749</ele>
        <time>2014-12-28T08:02:44.000Z</time>
      </trkpt>
      <trkpt lat="43.7724" lon="4.76502">
        <ele>124.45971679688</ele>
        <time>2014-12-28T08:02:47.000Z</time>
      </trkpt>
      <trkpt lat="43.77236" lon="4.76497">
        <ele>123.34747314453</ele>
        <time>2014-12-28T08:02:49.000Z</time>
      </trkpt>
      <trkpt lat="43.77231" lon="4.7649">
        <ele>122.30197906494</ele>
        <time>2014-12-28T08:02:52.000Z</time>
      </trkpt>
      <trkpt lat="43.77228" lon="4.76486">
        <ele>121.3101348877</ele>
        <time>2014-12-28T08:02:54.000Z</time>
      </trkpt>
      <trkpt lat="43.77224" lon="4.76483">
        <ele>120.46513366699</ele>
        <time>2014-12-28T08:02:56.000Z</time>
      </trkpt>
      <trkpt lat="43.77217" lon="4.76481">
        <ele>119.80639648438</ele>
        <time>2014-12-28T08:02:59.000Z</time>
      </trkpt>
      <trkpt lat="43.7721" lon="4.76484">
        <ele>119.45295715332</ele>
        <time>2014-12-28T08:03:02.000Z</time>
      </trkpt>
      <trkpt lat="43.77206" lon="4.76487">
        <ele>119.41223144531</ele>
        <time>2014-12-28T08:03:04.000Z</time>
      </trkpt>
      <trkpt lat="43.772" lon="4.76491">
        <ele>119.61680603027</ele>
        <time>2014-12-28T08:03:07.000Z</time>
      </trkpt>
      <trkpt lat="43.77198" lon="4.76496">
        <ele>119.9991607666</ele>
        <time>2014-12-28T08:03:09.000Z</time>
      </trkpt>
      <trkpt lat="43.77195" lon="4.76501">
        <ele>120.51409912109</ele>
        <time>2014-12-28T08:03:11.000Z</time>
      </trkpt>
      <trkpt lat="43.77193" lon="4.76508">
        <ele>121.18727874756</ele>
        <time>2014-12-28T08:03:14.000Z</time>
      </trkpt>
      <trkpt lat="43.77193" lon="4.76518">
        <ele>122.21357727051</ele>
        <time>2014-12-28T08:03:17.000Z</time>
      </trkpt>
      <trkpt lat="43.77194" lon="4.76522">
        <ele>123.32663726807</ele>
        <time>2014-12-28T08:03:19.000Z</time>
      </trkpt>
      <trkpt lat="43.77195" lon="4.7653">
        <ele>124.66583251953</ele>
        <time>2014-12-28T08:03:22.000Z</time>
      </trkpt>
      <trkpt lat="43.77195" lon="4.76535">
        <ele>126.11157226562</ele>
        <time>2014-12-28T08:03:24.000Z</time>
      </trkpt>
      <trkpt lat="43.77192" lon="4.76543">
        <ele>127.59004211426</ele>
        <time>2014-12-28T08:03:27.000Z</time>
      </trkpt>
      <trkpt lat="43.77188" lon="4.76546">
        <ele>128.7590637207</ele>
        <time>2014-12-28T08:03:29.000Z</time>
      </trkpt>
      <trkpt lat="43.77184" lon="4.76547">
        <ele>129.70211791992</ele>
        <time>2014-12-28T08:03:32.000Z</time>
      </trkpt>
      <trkpt lat="43.7718" lon="4.76546">
        <ele>130.27076721191</ele>
        <time>2014-12-28T08:03:34.000Z</time>
      </trkpt>
      <trkpt lat="43.77174" lon="4.76547">
        <ele>130.57780456543</ele>
        <time>2014-12-28T08:03:37.000Z</time>
      </trkpt>
      <trkpt lat="43.77169" lon="4.76548">
        <ele>130.59048461914</ele>
        <time>2014-12-28T08:03:40.000Z</time>
      </trkpt>
      <trkpt lat="43.77165" lon="4.76551">
        <ele>130.58450317383</ele>
        <time>2014-12-28T08:03:42.000Z</time>
      </trkpt>
      <trkpt lat="43.77162" lon="4.76555">
        <ele>130.81057739258</ele>
        <time>2014-12-28T08:03:45.000Z</time>
      </trkpt>
      <trkpt lat="43.77161" lon="4.76559">
        <ele>131.27033996582</ele>
        <time>2014-12-28T08:03:47.000Z</time>
      </trkpt>
      <trkpt lat="43.7716" lon="4.76567">
        <ele>132.04696655273</ele>
        <time>2014-12-28T08:03:50.000Z</time>
      </trkpt>
      <trkpt lat="43.7716" lon="4.76572">
        <ele>132.99560546875</ele>
        <time>2014-12-28T08:03:52.000Z</time>
      </trkpt>
      <trkpt lat="43.7716" lon="4.76576">
        <ele>134.02584838867</ele>
        <time>2014-12-28T08:03:54.000Z</time>
      </trkpt>
      <trkpt lat="43.77159" lon="4.7658">
        <ele>135.01907348633</ele>
        <time>2014-12-28T08:03:56.000Z</time>
      </trkpt>
      <trkpt lat="43.77157" lon="4.76587">
        <ele>136.06015014648</ele>
        <time>2014-12-28T08:03:59.000Z</time>
      </trkpt>
      <trkpt lat="43.77156" lon="4.76594">
        <ele>137.00257873535</ele>
        <time>2014-12-28T08:04:02.000Z</time>
      </trkpt>
      <trkpt lat="43.77154" lon="4.76598">
        <ele>137.87028503418</ele>
        <time>2014-12-28T08:04:04.000Z</time>
      </trkpt>
      <trkpt lat="43.7715" lon="4.76601">
        <ele>138.6841583252</ele>
        <time>2014-12-28T08:04:07.000Z</time>
      </trkpt>
      <trkpt lat="43.77146" lon="4.76603">
        <ele>139.41275024414</ele>
        <time>2014-12-28T08:04:10.000Z</time>
      </trkpt>
      <trkpt lat="43.77142" lon="4.76604">
        <ele>139.98970031738</ele>
        <time>2014-12-28T08:04:13.000Z</time>
      </trkpt>
      <trkpt lat="43.77137" lon="4.76607">
        <ele>140.50871276855</ele>
        <time>2014-12-28T08:04:16.000Z</time>
      </trkpt>
      <trkpt lat="43.77135" lon="4.76611">
        <ele>141.02958679199</ele>
        <time>2014-12-28T08:04:18.000Z</time>
      </trkpt>
      <trkpt lat="43.77133" lon="4.76618">
        <ele>141.60879516602</ele>
        <time>2014-12-28T08:04:21.000Z</time>
      </trkpt>
      <trkpt lat="43.7713" lon="4.76621">
        <ele>142.20002746582</ele>
        <time>2014-12-28T08:04:23.000Z</time>
      </trkpt>
      <trkpt lat="43.77124" lon="4.76622">
        <ele>142.80284118652</ele>
        <time>2014-12-28T08:04:26.000Z</time>
      </trkpt>
      <trkpt lat="43.77119" lon="4.7662">
        <ele>143.30810546875</ele>
        <time>2014-12-28T08:04:29.000Z</time>
      </trkpt>
      <trkpt lat="43.77114" lon="4.76617">
        <ele>143.66644287109</ele>
        <time>2014-12-28T08:04:32.000Z</time>
      </trkpt>
      <trkpt lat="43.7711" lon="4.7661">
        <ele>143.74087524414</ele>
        <time>2014-12-28T08:04:35.000Z</time>
      </trkpt>
      <trkpt lat="43.77106" lon="4.76602">
        <ele>143.57612609863</ele>
        <time>2014-12-28T08:04:38.000Z</time>
      </trkpt>
      <trkpt lat="43.77104" lon="4.76594">
        <ele>143.18035888672</ele>
        <time>2014-12-28T08:04:41.000Z</time>
      </trkpt>
      <trkpt lat="43.77101" lon="4.76586">
        <ele>142.61135864258</ele>
        <time>2014-12-28T08:04:44.000Z</time>
      </trkpt>
      <trkpt lat="43.771" lon="4.76581">
        <ele>141.96076965332</ele>
        <time>2014-12-28T08:04:46.000Z</time>
      </trkpt>
      <trkpt lat="43.77097" lon="4.76574">
        <ele>141.20402526855</ele>
        <time>2014-12-28T08:04:49.000Z</time>
      </trkpt>
      <trkpt lat="43.77095" lon="4.76567">
        <ele>140.390625</ele>
        <time>2014-12-28T08:04:52.000Z</time>
      </trkpt>
      <trkpt lat="43.77094" lon="4.7656">
        <ele>139.54293823242</ele>
        <time>2014-12-28T08:04:55.000Z</time>
      </trkpt>
      <trkpt lat="43.77091" lon="4.76554">
        <ele>138.68519592285</ele>
        <time>2014-12-28T08:04:58.000Z</time>
      </trkpt>
      <trkpt lat="43.7709" lon="4.7655">
        <ele>137.80642700195</ele>
        <time>2014-12-28T08:05:00.000Z</time>
      </trkpt>
      <trkpt lat="43.77086" lon="4.76543">
        <ele>136.98461914062</ele>
        <time>2014-12-28T08:05:03.000Z</time>
      </trkpt>
      <trkpt lat="43.77082" lon="4.76539">
        <ele>136.32051086426</ele>
        <time>2014-12-28T08:05:05.000Z</time>
      </trkpt>
      <trkpt lat="43.77074" lon="4.76537">
        <ele>136.0094909668</ele>
        <time>2014-12-28T08:05:08.000Z</time>
      </trkpt>
      <trkpt lat="43.77071" lon="4.76537">
        <ele>135.97058105469</ele>
        <time>2014-12-28T08:05:10.000Z</time>
      </trkpt>
      <trkpt lat="43.77064" lon="4.76539">
        <ele>136.30026245117</ele>
        <time>2014-12-28T08:05:13.000Z</time>
      </trkpt>
      <trkpt lat="43.7706" lon="4.7654">
        <ele>136.93605041504</ele>
        <time>2014-12-28T08:05:15.000Z</time>
      </trkpt>
      <trkpt lat="43.77054" lon="4.76544">
        <ele>137.88459777832</ele>
        <time>2014-12-28T08:05:18.000Z</time>
      </trkpt>
      <trkpt lat="43.7705" lon="4.76546">
        <ele>138.81253051758</ele>
        <time>2014-12-28T08:05:20.000Z</time>
      </trkpt>
      <trkpt lat="43.77045" lon="4.76549">
        <ele>139.82667541504</ele>
        <time>2014-12-28T08:05:23.000Z</time>
      </trkpt>
      <trkpt lat="43.77039" lon="4.76552">
        <ele>140.84997558594</ele>
        <time>2014-12-28T08:05:26.000Z</time>
      </trkpt>
      <trkpt lat="43.77035" lon="4.76555">
        <ele>141.86294555664</ele>
        <time>2014-12-28T08:05:28.000Z</time>
      </trkpt>
      <trkpt lat="43.77029" lon="4.76559">
        <ele>142.83773803711</ele>
        <time>2014-12-28T08:05:31.000Z</time>
      </trkpt>
      <trkpt lat="43.77025" lon="4.76563">
        <ele>143.83073425293</ele>
        <time>2014-12-28T08:05:33.000Z</time>
      </trkpt>
      <trkpt lat="43.77022" lon="4.76567">
        <ele>144.77133178711</ele>
        <time>2014-12-28T08:05:35.000Z</time>
      </trkpt>
      <trkpt lat="43.77018" lon="4.76572">
        <ele>145.65408325195</ele>
        <time>2014-12-28T08:05:38.000Z</time>
      </trkpt>
      <trkpt lat="43.77014" lon="4.76575">
        <ele>146.5085144043</ele>
        <time>2014-12-28T08:05:40.000Z</time>
      </trkpt>
      <trkpt lat="43.77009" lon="4.76579">
        <ele>147.29684448242</ele>
        <time>2014-12-28T08:05:43.000Z</time>
      </trkpt>
      <trkpt lat="43.77005" lon="4.76586">
        <ele>148.04934692383</ele>
        <time>2014-12-28T08:05:46.000Z</time>
      </trkpt>
      <trkpt lat="43.77002" lon="4.7659">
        <ele>148.71870422363</ele>
        <time>2014-12-28T08:05:48.000Z</time>
      </trkpt>
      <trkpt lat="43.76996" lon="4.76594">
        <ele>149.32823181152</ele>
        <time>2014-12-28T08:05:51.000Z</time>
      </trkpt>
      <trkpt lat="43.76991" lon="4.76599">
        <ele>149.95515441895</ele>
        <time>2014-12-28T08:05:54.000Z</time>
      </trkpt>
      <trkpt lat="43.76987" lon="4.76601">
        <ele>150.52444458008</ele>
        <time>2014-12-28T08:05:56.000Z</time>
      </trkpt>
      <trkpt lat="43.76981" lon="4.766">
        <ele>151.10078430176</ele>
        <time>2014-12-28T08:05:59.000Z</time>
      </trkpt>
      <trkpt lat="43.76976" lon="4.76596">
        <ele>151.72074890137</ele>
        <time>2014-12-28T08:06:02.000Z</time>
      </trkpt>
      <trkpt lat="43.76975" lon="4.7659">
        <ele>152.24531555176</ele>
        <time>2014-12-28T08:06:04.000Z</time>
      </trkpt>
      <trkpt lat="43.76974" lon="4.7658">
        <ele>152.58036804199</ele>
        <time>2014-12-28T08:06:07.000Z</time>
      </trkpt>
      <trkpt lat="43.76974" lon="4.76575">
        <ele>152.73031616211</ele>
        <time>2014-12-28T08:06:09.000Z</time>
      </trkpt>
      <trkpt lat="43.76972" lon="4.76569">
        <ele>152.68083190918</ele>
        <time>2014-12-28T08:06:12.000Z</time>
      </trkpt>
      <trkpt lat="43.7697" lon="4.76565">
        <ele>152.51142883301</ele>
        <time>2014-12-28T08:06:14.000Z</time>
      </trkpt>
      <trkpt lat="43.76963" lon="4.7656">
        <ele>152.38201904297</ele>
        <time>2014-12-28T08:06:17.000Z</time>
      </trkpt>
      <trkpt lat="43.76956" lon="4.76557">
        <ele>152.39863586426</ele>
        <time>2014-12-28T08:06:20.000Z</time>
      </trkpt>
      <trkpt lat="43.76952" lon="4.76555">
        <ele>152.5461730957</ele>
        <time>2014-12-28T08:06:22.000Z</time>
      </trkpt>
      <trkpt lat="43.76944" lon="4.76552">
        <ele>152.82510375977</ele>
        <time>2014-12-28T08:06:25.000Z</time>
      </trkpt>
      <trkpt lat="43.76936" lon="4.76549">
        <ele>153.20610046387</ele>
        <time>2014-12-28T08:06:28.000Z</time>
      </trkpt>
      <trkpt lat="43.7693" lon="4.76546">
        <ele>153.57077026367</ele>
        <time>2014-12-28T08:06:31.000Z</time>
      </trkpt>
      <trkpt lat="43.76925" lon="4.76544">
        <ele>153.88687133789</ele>
        <time>2014-12-28T08:06:34.000Z</time>
      </trkpt>
      <trkpt lat="43.7692" lon="4.76541">
        <ele>154.17147827148</ele>
        <time>2014-12-28T08:06:37.000Z</time>
      </trkpt>
      <trkpt lat="43.76915" lon="4.76537">
        <ele>154.33866882324</ele>
        <time>2014-12-28T08:06:40.000Z</time>
      </trkpt>
      <trkpt lat="43.76912" lon="4.76535">
        <ele>154.33416748047</ele>
        <time>2014-12-28T08:06:42.000Z</time>
      </trkpt>
      <trkpt lat="43.76906" lon="4.76533">
        <ele>154.1537322998</ele>
        <time>2014-12-28T08:06:45.000Z</time>
      </trkpt>
      <trkpt lat="43.769" lon="4.76533">
        <ele>153.86918640137</ele>
        <time>2014-12-28T08:06:48.000Z</time>
      </trkpt>
      <trkpt lat="43.76896" lon="4.76536">
        <ele>153.58142089844</ele>
        <time>2014-12-28T08:06:50.000Z</time>
      </trkpt>
      <trkpt lat="43.76892" lon="4.7654">
        <ele>153.43325805664</ele>
        <time>2014-12-28T08:06:53.000Z</time>
      </trkpt>
      <trkpt lat="43.76889" lon="4.76544">
        <ele>153.48284912109</ele>
        <time>2014-12-28T08:06:55.000Z</time>
      </trkpt>
      <trkpt lat="43.76884" lon="4.76549">
        <ele>153.81552124023</ele>
        <time>2014-12-28T08:06:58.000Z</time>
      </trkpt>
      <trkpt lat="43.7688" lon="4.76553">
        <ele>154.33976745605</ele>
        <time>2014-12-28T08:07:00.000Z</time>
      </trkpt>
      <trkpt lat="43.76875" lon="4.76559">
        <ele>155.04568481445</ele>
        <time>2014-12-28T08:07:03.000Z</time>
      </trkpt>
      <trkpt lat="43.76869" lon="4.76562">
        <ele>155.78251647949</ele>
        <time>2014-12-28T08:07:07.000Z</time>
      </trkpt>
      <trkpt lat="43.76865" lon="4.76563">
        <ele>156.43110656738</ele>
        <time>2014-12-28T08:07:08.000Z</time>
      </trkpt>
      <trkpt lat="43.76861" lon="4.76563">
        <ele>156.91610717773</ele>
        <time>2014-12-28T08:07:10.000Z</time>
      </trkpt>
      <trkpt lat="43.76856" lon="4.76563">
        <ele>157.26881408691</ele>
        <time>2014-12-28T08:07:12.000Z</time>
      </trkpt>
      <trkpt lat="43.76853" lon="4.76565">
        <ele>157.50216674805</ele>
        <time>2014-12-28T08:07:15.000Z</time>
      </trkpt>
      <trkpt lat="43.76847" lon="4.76567">
        <ele>157.7377166748</ele>
        <time>2014-12-28T08:07:18.000Z</time>
      </trkpt>
      <trkpt lat="43.76842" lon="4.76569">
        <ele>158.04788208008</ele>
        <time>2014-12-28T08:07:20.000Z</time>
      </trkpt>
      <trkpt lat="43.76838" lon="4.76572">
        <ele>158.4953918457</ele>
        <time>2014-12-28T08:07:22.000Z</time>
      </trkpt>
      <trkpt lat="43.76833" lon="4.76575">
        <ele>159.13874816895</ele>
        <time>2014-12-28T08:07:25.000Z</time>
      </trkpt>
      <trkpt lat="43.76829" lon="4.76577">
        <ele>159.69415283203</ele>
        <time>2014-12-28T08:07:27.000Z</time>
      </trkpt>
      <trkpt lat="43.76826" lon="4.76579">
        <ele>160.15589904785</ele>
        <time>2014-12-28T08:07:29.000Z</time>
      </trkpt>
      <trkpt lat="43.7682" lon="4.76581">
        <ele>160.51695251465</ele>
        <time>2014-12-28T08:07:32.000Z</time>
      </trkpt>
      <trkpt lat="43.76817" lon="4.76583">
        <ele>160.71701049805</ele>
        <time>2014-12-28T08:07:34.000Z</time>
      </trkpt>
      <trkpt lat="43.7681" lon="4.76587">
        <ele>160.70198059082</ele>
        <time>2014-12-28T08:07:37.000Z</time>
      </trkpt>
      <trkpt lat="43.76806" lon="4.76589">
        <ele>160.6872253418</ele>
        <time>2014-12-28T08:07:39.000Z</time>
      </trkpt>
      <trkpt lat="43.76801" lon="4.76594">
        <ele>160.64961242676</ele>
        <time>2014-12-28T08:07:42.000Z</time>
      </trkpt>
      <trkpt lat="43.76796" lon="4.76598">
        <ele>160.63319396973</ele>
        <time>2014-12-28T08:07:45.000Z</time>
      </trkpt>
      <trkpt lat="43.76791" lon="4.76602">
        <ele>160.64099121094</ele>
        <time>2014-12-28T08:07:48.000Z</time>
      </trkpt>
      <trkpt lat="43.76785" lon="4.76607">
        <ele>160.70216369629</ele>
        <time>2014-12-28T08:07:51.000Z</time>
      </trkpt>
      <trkpt lat="43.76779" lon="4.76612">
        <ele>160.77279663086</ele>
        <time>2014-12-28T08:07:54.000Z</time>
      </trkpt>
      <trkpt lat="43.76776" lon="4.76616">
        <ele>160.87126159668</ele>
        <time>2014-12-28T08:07:56.000Z</time>
      </trkpt>
      <trkpt lat="43.76772" lon="4.76621">
        <ele>161.00907897949</ele>
        <time>2014-12-28T08:07:59.000Z</time>
      </trkpt>
      <trkpt lat="43.76768" lon="4.76625">
        <ele>161.18211364746</ele>
        <time>2014-12-28T08:08:01.000Z</time>
      </trkpt>
      <trkpt lat="43.76764" lon="4.7663">
        <ele>161.37313842773</ele>
        <time>2014-12-28T08:08:04.000Z</time>
      </trkpt>
      <trkpt lat="43.76761" lon="4.76634">
        <ele>161.60385131836</ele>
        <time>2014-12-28T08:08:06.000Z</time>
      </trkpt>
      <trkpt lat="43.76758" lon="4.76639">
        <ele>161.87680053711</ele>
        <time>2014-12-28T08:08:08.000Z</time>
      </trkpt>
      <trkpt lat="43.76755" lon="4.76643">
        <ele>162.14984130859</ele>
        <time>2014-12-28T08:08:10.000Z</time>
      </trkpt>
      <trkpt lat="43.76749" lon="4.76651">
        <ele>162.50300598145</ele>
        <time>2014-12-28T08:08:13.000Z</time>
      </trkpt>
      <trkpt lat="43.76746" lon="4.76656">
        <ele>162.99868774414</ele>
        <time>2014-12-28T08:08:15.000Z</time>
      </trkpt>
      <trkpt lat="43.76743" lon="4.76662">
        <ele>163.66188049316</ele>
        <time>2014-12-28T08:08:17.000Z</time>
      </trkpt>
      <trkpt lat="43.7674" lon="4.76671">
        <ele>164.2673034668</ele>
        <time>2014-12-28T08:08:20.000Z</time>
      </trkpt>
      <trkpt lat="43.76737" lon="4.76677">
        <ele>164.68344116211</ele>
        <time>2014-12-28T08:08:22.000Z</time>
      </trkpt>
      <trkpt lat="43.76735" lon="4.76682">
        <ele>164.86410522461</ele>
        <time>2014-12-28T08:08:24.000Z</time>
      </trkpt>
      <trkpt lat="43.76733" lon="4.76686">
        <ele>164.76301574707</ele>
        <time>2014-12-28T08:08:26.000Z</time>
      </trkpt>
      <trkpt lat="43.76732" lon="4.76691">
        <ele>164.32458496094</ele>
        <time>2014-12-28T08:08:29.000Z</time>
      </trkpt>
      <trkpt lat="43.76732" lon="4.76697">
        <ele>163.7271270752</ele>
        <time>2014-12-28T08:08:32.000Z</time>
      </trkpt>
      <trkpt lat="43.76735" lon="4.76704">
        <ele>163.04110717773</ele>
        <time>2014-12-28T08:08:35.000Z</time>
      </trkpt>
      <trkpt lat="43.76746" lon="4.7671">
        <ele>162.18466186523</ele>
        <time>2014-12-28T08:08:38.000Z</time>
      </trkpt>
      <trkpt lat="43.76757" lon="4.76716">
        <ele>161.39360046387</ele>
        <time>2014-12-28T08:08:40.000Z</time>
      </trkpt>
      <trkpt lat="43.76777" lon="4.76732">
        <ele>160.74154663086</ele>
        <time>2014-12-28T08:08:43.000Z</time>
      </trkpt>
      <trkpt lat="43.76789" lon="4.76743">
        <ele>160.21798706055</ele>
        <time>2014-12-28T08:08:45.000Z</time>
      </trkpt>
      <trkpt lat="43.76802" lon="4.76768">
        <ele>159.31161499023</ele>
        <time>2014-12-28T08:08:48.000Z</time>
      </trkpt>
      <trkpt lat="43.76804" lon="4.76791">
        <ele>157.89131164551</ele>
        <time>2014-12-28T08:08:50.000Z</time>
      </trkpt>
      <trkpt lat="43.76804" lon="4.76825">
        <ele>155.28182983398</ele>
        <time>2014-12-28T08:08:53.000Z</time>
      </trkpt>
      <trkpt lat="43.76805" lon="4.76857">
        <ele>151.87141418457</ele>
        <time>2014-12-28T08:08:56.000Z</time>
      </trkpt>
      <trkpt lat="43.76817" lon="4.76885">
        <ele>148.19845581055</ele>
        <time>2014-12-28T08:08:59.000Z</time>
      </trkpt>
      <trkpt lat="43.76827" lon="4.76901">
        <ele>145.11819458008</ele>
        <time>2014-12-28T08:09:01.000Z</time>
      </trkpt>
      <trkpt lat="43.76841" lon="4.76931">
        <ele>142.13467407227</ele>
        <time>2014-12-28T08:09:04.000Z</time>
      </trkpt>
      <trkpt lat="43.76846" lon="4.7695">
        <ele>139.66004943848</ele>
        <time>2014-12-28T08:09:06.000Z</time>
      </trkpt>
      <trkpt lat="43.76859" lon="4.76979">
        <ele>136.90657043457</ele>
        <time>2014-12-28T08:09:10.000Z</time>
      </trkpt>
      <trkpt lat="43.76868" lon="4.77005">
        <ele>133.55647277832</ele>
        <time>2014-12-28T08:09:12.000Z</time>
      </trkpt>
      <trkpt lat="43.76873" lon="4.77026">
        <ele>129.53793334961</ele>
        <time>2014-12-28T08:09:15.000Z</time>
      </trkpt>
      <trkpt lat="43.7688" lon="4.77035">
        <ele>125.89894866943</ele>
        <time>2014-12-28T08:09:17.000Z</time>
      </trkpt>
      <trkpt lat="43.76885" lon="4.77033">
        <ele>122.97639465332</ele>
        <time>2014-12-28T08:09:19.000Z</time>
      </trkpt>
      <trkpt lat="43.76887" lon="4.77021">
        <ele>121.42293548584</ele>
        <time>2014-12-28T08:09:21.000Z</time>
      </trkpt>
      <trkpt lat="43.76886" lon="4.77005">
        <ele>121.16418457031</ele>
        <time>2014-12-28T08:09:23.000Z</time>
      </trkpt>
      <trkpt lat="43.7688" lon="4.76979">
        <ele>122.32777404785</ele>
        <time>2014-12-28T08:09:26.000Z</time>
      </trkpt>
      <trkpt lat="43.76875" lon="4.76952">
        <ele>124.5859375</ele>
        <time>2014-12-28T08:09:29.000Z</time>
      </trkpt>
      <trkpt lat="43.76869" lon="4.76931">
        <ele>127.48899841309</ele>
        <time>2014-12-28T08:09:31.000Z</time>
      </trkpt>
      <trkpt lat="43.76865" lon="4.76898">
        <ele>131.0023651123</ele>
        <time>2014-12-28T08:09:34.000Z</time>
      </trkpt>
      <trkpt lat="43.76869" lon="4.76871">
        <ele>134.59944152832</ele>
        <time>2014-12-28T08:09:37.000Z</time>
      </trkpt>
      <trkpt lat="43.76874" lon="4.7686">
        <ele>137.62403869629</ele>
        <time>2014-12-28T08:09:39.000Z</time>
      </trkpt>
      <trkpt lat="43.76886" lon="4.76867">
        <ele>139.51608276367</ele>
        <time>2014-12-28T08:09:42.000Z</time>
      </trkpt>
      <trkpt lat="43.76893" lon="4.76873">
        <ele>140.46116638184</ele>
        <time>2014-12-28T08:09:44.000Z</time>
      </trkpt>
      <trkpt lat="43.76904" lon="4.76881">
        <ele>140.04360961914</ele>
        <time>2014-12-28T08:09:47.000Z</time>
      </trkpt>
      <trkpt lat="43.76912" lon="4.76885">
        <ele>138.84367370605</ele>
        <time>2014-12-28T08:09:49.000Z</time>
      </trkpt>
      <trkpt lat="43.76918" lon="4.76889">
        <ele>137.19984436035</ele>
        <time>2014-12-28T08:09:51.000Z</time>
      </trkpt>
      <trkpt lat="43.76925" lon="4.76892">
        <ele>135.6033782959</ele>
        <time>2014-12-28T08:09:53.000Z</time>
      </trkpt>
      <trkpt lat="43.76935" lon="4.76896">
        <ele>133.88690185547</ele>
        <time>2014-12-28T08:09:56.000Z</time>
      </trkpt>
      <trkpt lat="43.76942" lon="4.769">
        <ele>132.35510253906</ele>
        <time>2014-12-28T08:09:58.000Z</time>
      </trkpt>
      <trkpt lat="43.76949" lon="4.76904">
        <ele>130.81678771973</ele>
        <time>2014-12-28T08:10:00.000Z</time>
      </trkpt>
      <trkpt lat="43.7696" lon="4.76912">
        <ele>129.13571166992</ele>
        <time>2014-12-28T08:10:03.000Z</time>
      </trkpt>
      <trkpt lat="43.76966" lon="4.76917">
        <ele>127.55297851562</ele>
        <time>2014-12-28T08:10:05.000Z</time>
      </trkpt>
      <trkpt lat="43.76971" lon="4.76921">
        <ele>126.1926651001</ele>
        <time>2014-12-28T08:10:07.000Z</time>
      </trkpt>
      <trkpt lat="43.76975" lon="4.76922">
        <ele>125.00086975098</ele>
        <time>2014-12-28T08:10:10.000Z</time>
      </trkpt>
      <trkpt lat="43.76978" lon="4.76915">
        <ele>124.13426208496</ele>
        <time>2014-12-28T08:10:13.000Z</time>
      </trkpt>
      <trkpt lat="43.76977" lon="4.76908">
        <ele>123.76826477051</ele>
        <time>2014-12-28T08:10:15.000Z</time>
      </trkpt>
      <trkpt lat="43.76973" lon="4.76898">
        <ele>123.81465148926</ele>
        <time>2014-12-28T08:10:18.000Z</time>
      </trkpt>
      <trkpt lat="43.76971" lon="4.76894">
        <ele>124.14488220215</ele>
        <time>2014-12-28T08:10:20.000Z</time>
      </trkpt>
      <trkpt lat="43.76971" lon="4.76888">
        <ele>124.64968109131</ele>
        <time>2014-12-28T08:10:22.000Z</time>
      </trkpt>
      <trkpt lat="43.76968" lon="4.76881">
        <ele>125.27616882324</ele>
        <time>2014-12-28T08:10:25.000Z</time>
      </trkpt>
      <trkpt lat="43.76967" lon="4.76873">
        <ele>125.95389556885</ele>
        <time>2014-12-28T08:10:28.000Z</time>
      </trkpt>
      <trkpt lat="43.76966" lon="4.76867">
        <ele>126.55790710449</ele>
        <time>2014-12-28T08:10:30.000Z</time>
      </trkpt>
      <trkpt lat="43.76965" lon="4.76862">
        <ele>127.14589691162</ele>
        <time>2014-12-28T08:10:32.000Z</time>
      </trkpt>
      <trkpt lat="43.76962" lon="4.76854">
        <ele>127.91276550293</ele>
        <time>2014-12-28T08:10:35.000Z</time>
      </trkpt>
      <trkpt lat="43.76961" lon="4.76848">
        <ele>128.64784240723</ele>
        <time>2014-12-28T08:10:37.000Z</time>
      </trkpt>
      <trkpt lat="43.7696" lon="4.76843">
        <ele>129.35913085938</ele>
        <time>2014-12-28T08:10:39.000Z</time>
      </trkpt>
      <trkpt lat="43.76959" lon="4.76838">
        <ele>130.09286499023</ele>
        <time>2014-12-28T08:10:41.000Z</time>
      </trkpt>
      <trkpt lat="43.76957" lon="4.7683">
        <ele>130.98379516602</ele>
        <time>2014-12-28T08:10:44.000Z</time>
      </trkpt>
      <trkpt lat="43.76956" lon="4.76826">
        <ele>131.73426818848</ele>
        <time>2014-12-28T08:10:46.000Z</time>
      </trkpt>
      <trkpt lat="43.76955" lon="4.76822">
        <ele>132.47451782227</ele>
        <time>2014-12-28T08:10:48.000Z</time>
      </trkpt>
      <trkpt lat="43.76954" lon="4.76818">
        <ele>133.23806762695</ele>
        <time>2014-12-28T08:10:50.000Z</time>
      </trkpt>
      <trkpt lat="43.76952" lon="4.76811">
        <ele>134.0712890625</ele>
        <time>2014-12-28T08:10:53.000Z</time>
      </trkpt>
      <trkpt lat="43.7695" lon="4.76806">
        <ele>134.8984375</ele>
        <time>2014-12-28T08:10:56.000Z</time>
      </trkpt>
      <trkpt lat="43.76945" lon="4.76801">
        <ele>135.9375</ele>
        <time>2014-12-28T08:10:59.000Z</time>
      </trkpt>
      <trkpt lat="43.76943" lon="4.76798">
        <ele>137.0283203125</ele>
        <time>2014-12-28T08:11:01.000Z</time>
      </trkpt>
      <trkpt lat="43.76941" lon="4.76797">
        <ele>138.1162109375</ele>
        <time>2014-12-28T08:11:03.000Z</time>
      </trkpt>
      <trkpt lat="43.76937" lon="4.76792">
        <ele>139.3095703125</ele>
        <time>2014-12-28T08:11:06.000Z</time>
      </trkpt>
      <trkpt lat="43.76933" lon="4.76788">
        <ele>140.5302734375</ele>
        <time>2014-12-28T08:11:09.000Z</time>
      </trkpt>
      <trkpt lat="43.76931" lon="4.76788">
        <ele>141.513671875</ele>
        <time>2014-12-28T08:11:11.000Z</time>
      </trkpt>
      <trkpt lat="43.76926" lon="4.76783">
        <ele>142.7255859375</ele>
        <time>2014-12-28T08:11:14.000Z</time>
      </trkpt>
      <trkpt lat="43.76922" lon="4.76779">
        <ele>144.0576171875</ele>
        <time>2014-12-28T08:11:16.000Z</time>
      </trkpt>
      <trkpt lat="43.76919" lon="4.76776">
        <ele>145.279296875</ele>
        <time>2014-12-28T08:11:18.000Z</time>
      </trkpt>
      <trkpt lat="43.76915" lon="4.7677">
        <ele>146.54971313477</ele>
        <time>2014-12-28T08:11:21.000Z</time>
      </trkpt>
      <trkpt lat="43.76912" lon="4.76764">
        <ele>147.92683410645</ele>
        <time>2014-12-28T08:11:24.000Z</time>
      </trkpt>
      <trkpt lat="43.7691" lon="4.76759">
        <ele>149.03385925293</ele>
        <time>2014-12-28T08:11:26.000Z</time>
      </trkpt>
      <trkpt lat="43.76908" lon="4.76754">
        <ele>150.06596374512</ele>
        <time>2014-12-28T08:11:29.000Z</time>
      </trkpt>
      <trkpt lat="43.76905" lon="4.76749">
        <ele>151.08828735352</ele>
        <time>2014-12-28T08:11:32.000Z</time>
      </trkpt>
      <trkpt lat="43.76903" lon="4.76745">
        <ele>152.00100708008</ele>
        <time>2014-12-28T08:11:34.000Z</time>
      </trkpt>
      <trkpt lat="43.76902" lon="4.76741">
        <ele>152.87716674805</ele>
        <time>2014-12-28T08:11:36.000Z</time>
      </trkpt>
      <trkpt lat="43.76899" lon="4.76733">
        <ele>153.89266967773</ele>
        <time>2014-12-28T08:11:39.000Z</time>
      </trkpt>
      <trkpt lat="43.76897" lon="4.76726">
        <ele>155.00866699219</ele>
        <time>2014-12-28T08:11:42.000Z</time>
      </trkpt>
      <trkpt lat="43.76896" lon="4.76721">
        <ele>156.1360168457</ele>
        <time>2014-12-28T08:11:44.000Z</time>
      </trkpt>
      <trkpt lat="43.76894" lon="4.76714">
        <ele>157.32308959961</ele>
        <time>2014-12-28T08:11:47.000Z</time>
      </trkpt>
      <trkpt lat="43.76892" lon="4.76709">
        <ele>158.54724121094</ele>
        <time>2014-12-28T08:11:49.000Z</time>
      </trkpt>
      <trkpt lat="43.76892" lon="4.76701">
        <ele>159.72506713867</ele>
        <time>2014-12-28T08:11:52.000Z</time>
      </trkpt>
      <trkpt lat="43.76894" lon="4.76695">
        <ele>160.69804382324</ele>
        <time>2014-12-28T08:11:54.000Z</time>
      </trkpt>
      <trkpt lat="43.76899" lon="4.7669">
        <ele>161.42810058594</ele>
        <time>2014-12-28T08:11:57.000Z</time>
      </trkpt>
      <trkpt lat="43.76904" lon="4.76689">
        <ele>161.77453613281</ele>
        <time>2014-12-28T08:11:59.000Z</time>
      </trkpt>
      <trkpt lat="43.76911" lon="4.76688">
        <ele>161.64837646484</ele>
        <time>2014-12-28T08:12:02.000Z</time>
      </trkpt>
      <trkpt lat="43.76915" lon="4.76688">
        <ele>161.13464355469</ele>
        <time>2014-12-28T08:12:04.000Z</time>
      </trkpt>
      <trkpt lat="43.7692" lon="4.76688">
        <ele>160.38301086426</ele>
        <time>2014-12-28T08:12:06.000Z</time>
      </trkpt>
      <trkpt lat="43.76923" lon="4.76688">
        <ele>159.55187988281</ele>
        <time>2014-12-28T08:12:08.000Z</time>
      </trkpt>
      <trkpt lat="43.76928" lon="4.76687">
        <ele>158.72468566895</ele>
        <time>2014-12-28T08:12:10.000Z</time>
      </trkpt>
      <trkpt lat="43.76933" lon="4.76686">
        <ele>158.01908874512</ele>
        <time>2014-12-28T08:12:13.000Z</time>
      </trkpt>
      <trkpt lat="43.76937" lon="4.76685">
        <ele>157.34033203125</ele>
        <time>2014-12-28T08:12:15.000Z</time>
      </trkpt>
      <trkpt lat="43.76943" lon="4.76684">
        <ele>156.65933227539</ele>
        <time>2014-12-28T08:12:18.000Z</time>
      </trkpt>
      <trkpt lat="43.76947" lon="4.76683">
        <ele>156.00173950195</ele>
        <time>2014-12-28T08:12:20.000Z</time>
      </trkpt>
      <trkpt lat="43.76951" lon="4.76681">
        <ele>155.40972900391</ele>
        <time>2014-12-28T08:12:22.000Z</time>
      </trkpt>
      <trkpt lat="43.76954" lon="4.76679">
        <ele>154.93852233887</ele>
        <time>2014-12-28T08:12:24.000Z</time>
      </trkpt>
      <trkpt lat="43.76958" lon="4.76676">
        <ele>154.58474731445</ele>
        <time>2014-12-28T08:12:27.000Z</time>
      </trkpt>
      <trkpt lat="43.76964" lon="4.7667">
        <ele>154.44993591309</ele>
        <time>2014-12-28T08:12:30.000Z</time>
      </trkpt>
      <trkpt lat="43.76968" lon="4.76666">
        <ele>154.40649414062</ele>
        <time>2014-12-28T08:12:32.000Z</time>
      </trkpt>
      <trkpt lat="43.76976" lon="4.76661">
        <ele>154.21533203125</ele>
        <time>2014-12-28T08:12:35.000Z</time>
      </trkpt>
      <trkpt lat="43.76983" lon="4.76656">
        <ele>153.83889770508</ele>
        <time>2014-12-28T08:12:38.000Z</time>
      </trkpt>
      <trkpt lat="43.76991" lon="4.76651">
        <ele>153.2525177002</ele>
        <time>2014-12-28T08:12:41.000Z</time>
      </trkpt>
      <trkpt lat="43.76999" lon="4.76648">
        <ele>152.38340759277</ele>
        <time>2014-12-28T08:12:44.000Z</time>
      </trkpt>
      <trkpt lat="43.77005" lon="4.7665">
        <ele>151.46989440918</ele>
        <time>2014-12-28T08:12:46.000Z</time>
      </trkpt>
      <trkpt lat="43.77012" lon="4.76655">
        <ele>150.7646484375</ele>
        <time>2014-12-28T08:12:49.000Z</time>
      </trkpt>
      <trkpt lat="43.77017" lon="4.76658">
        <ele>150.2826385498</ele>
        <time>2014-12-28T08:12:51.000Z</time>
      </trkpt>
      <trkpt lat="43.77024" lon="4.76662">
        <ele>150.0458984375</ele>
        <time>2014-12-28T08:12:53.000Z</time>
      </trkpt>
      <trkpt lat="43.77039" lon="4.7667">
        <ele>149.94725036621</ele>
        <time>2014-12-28T08:12:56.000Z</time>
      </trkpt>
      <trkpt lat="43.77054" lon="4.7668">
        <ele>149.501953125</ele>
        <time>2014-12-28T08:12:59.000Z</time>
      </trkpt>
      <trkpt lat="43.77068" lon="4.76694">
        <ele>148.56390380859</ele>
        <time>2014-12-28T08:13:02.000Z</time>
      </trkpt>
      <trkpt lat="43.77088" lon="4.76706">
        <ele>147.27220153809</ele>
        <time>2014-12-28T08:13:05.000Z</time>
      </trkpt>
      <trkpt lat="43.77104" lon="4.76707">
        <ele>145.93127441406</ele>
        <time>2014-12-28T08:13:07.000Z</time>
      </trkpt>
      <trkpt lat="43.77119" lon="4.76708">
        <ele>144.65525817871</ele>
        <time>2014-12-28T08:13:09.000Z</time>
      </trkpt>
      <trkpt lat="43.7714" lon="4.76721">
        <ele>143.48132324219</ele>
        <time>2014-12-28T08:13:12.000Z</time>
      </trkpt>
      <trkpt lat="43.77152" lon="4.76746">
        <ele>142.32614135742</ele>
        <time>2014-12-28T08:13:15.000Z</time>
      </trkpt>
      <trkpt lat="43.7716" lon="4.76773">
        <ele>140.8740234375</ele>
        <time>2014-12-28T08:13:18.000Z</time>
      </trkpt>
      <trkpt lat="43.77174" lon="4.76788">
        <ele>138.99563598633</ele>
        <time>2014-12-28T08:13:21.000Z</time>
      </trkpt>
      <trkpt lat="43.77193" lon="4.76803">
        <ele>136.41706848145</ele>
        <time>2014-12-28T08:13:24.000Z</time>
      </trkpt>
      <trkpt lat="43.77205" lon="4.76819">
        <ele>133.77442932129</ele>
        <time>2014-12-28T08:13:26.000Z</time>
      </trkpt>
      <trkpt lat="43.77224" lon="4.76841">
        <ele>131.3157043457</ele>
        <time>2014-12-28T08:13:29.000Z</time>
      </trkpt>
      <trkpt lat="43.77232" lon="4.76854">
        <ele>129.38061523438</ele>
        <time>2014-12-28T08:13:31.000Z</time>
      </trkpt>
      <trkpt lat="43.77248" lon="4.76858">
        <ele>127.9083480835</ele>
        <time>2014-12-28T08:13:34.000Z</time>
      </trkpt>
      <trkpt lat="43.77263" lon="4.76866">
        <ele>126.55891418457</ele>
        <time>2014-12-28T08:13:37.000Z</time>
      </trkpt>
      <trkpt lat="43.77268" lon="4.76868">
        <ele>125.35939788818</ele>
        <time>2014-12-28T08:13:39.000Z</time>
      </trkpt>
      <trkpt lat="43.7727" lon="4.76862">
        <ele>124.36861419678</ele>
        <time>2014-12-28T08:13:41.000Z</time>
      </trkpt>
      <trkpt lat="43.77264" lon="4.76854">
        <ele>123.76635742188</ele>
        <time>2014-12-28T08:13:43.000Z</time>
      </trkpt>
      <trkpt lat="43.77249" lon="4.76844">
        <ele>123.80812835693</ele>
        <time>2014-12-28T08:13:46.000Z</time>
      </trkpt>
      <trkpt lat="43.77239" lon="4.76831">
        <ele>124.50738525391</ele>
        <time>2014-12-28T08:13:48.000Z</time>
      </trkpt>
      <trkpt lat="43.7723" lon="4.76814">
        <ele>125.38404846191</ele>
        <time>2014-12-28T08:13:50.000Z</time>
      </trkpt>
      <trkpt lat="43.7722" lon="4.76793">
        <ele>126.49938964844</ele>
        <time>2014-12-28T08:13:53.000Z</time>
      </trkpt>
      <trkpt lat="43.77211" lon="4.76765">
        <ele>127.66870117188</ele>
        <time>2014-12-28T08:13:56.000Z</time>
      </trkpt>
      <trkpt lat="43.77212" lon="4.76733">
        <ele>128.78652954102</ele>
        <time>2014-12-28T08:13:59.000Z</time>
      </trkpt>
      <trkpt lat="43.77223" lon="4.76716">
        <ele>130.06887817383</ele>
        <time>2014-12-28T08:14:02.000Z</time>
      </trkpt>
      <trkpt lat="43.77257" lon="4.76716">
        <ele>130.43980407715</ele>
        <time>2014-12-28T08:14:06.000Z</time>
      </trkpt>
      <trkpt lat="43.77275" lon="4.76704">
        <ele>131.11259460449</ele>
        <time>2014-12-28T08:14:09.000Z</time>
      </trkpt>
      <trkpt lat="43.77281" lon="4.76705">
        <ele>131.37675476074</ele>
        <time>2014-12-28T08:14:11.000Z</time>
      </trkpt>
      <trkpt lat="43.77279" lon="4.76715">
        <ele>130.52479553223</ele>
        <time>2014-12-28T08:14:14.000Z</time>
      </trkpt>
      <trkpt lat="43.77271" lon="4.7672">
        <ele>129.26972961426</ele>
        <time>2014-12-28T08:14:16.000Z</time>
      </trkpt>
      <trkpt lat="43.77266" lon="4.7674">
        <ele>128.04223632812</ele>
        <time>2014-12-28T08:14:19.000Z</time>
      </trkpt>
      <trkpt lat="43.77257" lon="4.7675">
        <ele>125.95919036865</ele>
        <time>2014-12-28T08:14:21.000Z</time>
      </trkpt>
      <trkpt lat="43.7725" lon="4.7676">
        <ele>124.1721572876</ele>
        <time>2014-12-28T08:14:24.000Z</time>
      </trkpt>
      <trkpt lat="43.77263" lon="4.76757">
        <ele>122.66694641113</ele>
        <time>2014-12-28T08:14:27.000Z</time>
      </trkpt>
      <trkpt lat="43.77282" lon="4.7675">
        <ele>121.11946105957</ele>
        <time>2014-12-28T08:14:30.000Z</time>
      </trkpt>
      <trkpt lat="43.77298" lon="4.76761">
        <ele>120.24082183838</ele>
        <time>2014-12-28T08:14:33.000Z</time>
      </trkpt>
      <trkpt lat="43.77314" lon="4.76775">
        <ele>119.32629394531</ele>
        <time>2014-12-28T08:14:36.000Z</time>
      </trkpt>
      <trkpt lat="43.77329" lon="4.76781">
        <ele>117.78395080566</ele>
        <time>2014-12-28T08:14:38.000Z</time>
      </trkpt>
      <trkpt lat="43.77345" lon="4.7679">
        <ele>116.36071777344</ele>
        <time>2014-12-28T08:14:40.000Z</time>
      </trkpt>
      <trkpt lat="43.77359" lon="4.768">
        <ele>115.12854003906</ele>
        <time>2014-12-28T08:14:42.000Z</time>
      </trkpt>
      <trkpt lat="43.7737" lon="4.76812">
        <ele>113.99161529541</ele>
        <time>2014-12-28T08:14:44.000Z</time>
      </trkpt>
      <trkpt lat="43.77374" lon="4.7683">
        <ele>112.83992004395</ele>
        <time>2014-12-28T08:14:46.000Z</time>
      </trkpt>
      <trkpt lat="43.77375" lon="4.76861">
        <ele>111.5576171875</ele>
        <time>2014-12-28T08:14:49.000Z</time>
      </trkpt>
      <trkpt lat="43.77377" lon="4.76881">
        <ele>110.02760314941</ele>
        <time>2014-12-28T08:14:51.000Z</time>
      </trkpt>
      <trkpt lat="43.77402" lon="4.76919">
        <ele>107.26259613037</ele>
        <time>2014-12-28T08:14:55.000Z</time>
      </trkpt>
      <trkpt lat="43.77416" lon="4.76937">
        <ele>103.96455383301</ele>
        <time>2014-12-28T08:14:57.000Z</time>
      </trkpt>
      <trkpt lat="43.77434" lon="4.76959">
        <ele>100.83890533447</ele>
        <time>2014-12-28T08:15:00.000Z</time>
      </trkpt>
      <trkpt lat="43.77459" lon="4.76985">
        <ele>97.818313598633</ele>
        <time>2014-12-28T08:15:03.000Z</time>
      </trkpt>
      <trkpt lat="43.77473" lon="4.77011">
        <ele>94.477966308594</ele>
        <time>2014-12-28T08:15:06.000Z</time>
      </trkpt>
      <trkpt lat="43.77483" lon="4.7703">
        <ele>91.900863647461</ele>
        <time>2014-12-28T08:15:08.000Z</time>
      </trkpt>
      <trkpt lat="43.77486" lon="4.77037">
        <ele>89.779670715332</ele>
        <time>2014-12-28T08:15:10.000Z</time>
      </trkpt>
      <trkpt lat="43.77491" lon="4.77048">
        <ele>87.574935913086</ele>
        <time>2014-12-28T08:15:13.000Z</time>
      </trkpt>
      <trkpt lat="43.77496" lon="4.77054">
        <ele>85.608055114746</ele>
        <time>2014-12-28T08:15:16.000Z</time>
      </trkpt>
      <trkpt lat="43.77501" lon="4.77061">
        <ele>84.065185546875</ele>
        <time>2014-12-28T08:15:19.000Z</time>
      </trkpt>
      <trkpt lat="43.77515" lon="4.77091">
        <ele>82.503036499023</ele>
        <time>2014-12-28T08:15:23.000Z</time>
      </trkpt>
      <trkpt lat="43.77528" lon="4.77102">
        <ele>81.194839477539</ele>
        <time>2014-12-28T08:15:26.000Z</time>
      </trkpt>
      <trkpt lat="43.77533" lon="4.77111">
        <ele>80.168930053711</ele>
        <time>2014-12-28T08:15:28.000Z</time>
      </trkpt>
      <trkpt lat="43.77533" lon="4.7712">
        <ele>79.23494720459</ele>
        <time>2014-12-28T08:15:31.000Z</time>
      </trkpt>
      <trkpt lat="43.77527" lon="4.7712">
        <ele>78.548377990723</ele>
        <time>2014-12-28T08:15:34.000Z</time>
      </trkpt>
      <trkpt lat="43.77517" lon="4.77121">
        <ele>78.374572753906</ele>
        <time>2014-12-28T08:15:37.000Z</time>
      </trkpt>
      <trkpt lat="43.77508" lon="4.7712">
        <ele>78.17301940918</ele>
        <time>2014-12-28T08:15:40.000Z</time>
      </trkpt>
      <trkpt lat="43.77497" lon="4.7712">
        <ele>78.086929321289</ele>
        <time>2014-12-28T08:15:43.000Z</time>
      </trkpt>
      <trkpt lat="43.77491" lon="4.77119">
        <ele>78.231819152832</ele>
        <time>2014-12-28T08:15:45.000Z</time>
      </trkpt>
      <trkpt lat="43.77482" lon="4.77116">
        <ele>78.550598144531</ele>
        <time>2014-12-28T08:15:48.000Z</time>
      </trkpt>
      <trkpt lat="43.77475" lon="4.77115">
        <ele>78.995620727539</ele>
        <time>2014-12-28T08:15:50.000Z</time>
      </trkpt>
      <trkpt lat="43.77465" lon="4.77114">
        <ele>79.613632202148</ele>
        <time>2014-12-28T08:15:53.000Z</time>
      </trkpt>
      <trkpt lat="43.77456" lon="4.77116">
        <ele>80.368530273438</ele>
        <time>2014-12-28T08:15:56.000Z</time>
      </trkpt>
      <trkpt lat="43.77449" lon="4.77118">
        <ele>81.145057678223</ele>
        <time>2014-12-28T08:15:58.000Z</time>
      </trkpt>
      <trkpt lat="43.77443" lon="4.77117">
        <ele>81.862930297852</ele>
        <time>2014-12-28T08:16:00.000Z</time>
      </trkpt>
      <trkpt lat="43.77433" lon="4.77115">
        <ele>82.630661010742</ele>
        <time>2014-12-28T08:16:03.000Z</time>
      </trkpt>
      <trkpt lat="43.77424" lon="4.77112">
        <ele>83.350524902344</ele>
        <time>2014-12-28T08:16:06.000Z</time>
      </trkpt>
      <trkpt lat="43.77415" lon="4.77111">
        <ele>84.042221069336</ele>
        <time>2014-12-28T08:16:09.000Z</time>
      </trkpt>
      <trkpt lat="43.77408" lon="4.77112">
        <ele>84.670066833496</ele>
        <time>2014-12-28T08:16:11.000Z</time>
      </trkpt>
      <trkpt lat="43.77402" lon="4.77113">
        <ele>85.267684936523</ele>
        <time>2014-12-28T08:16:13.000Z</time>
      </trkpt>
      <trkpt lat="43.77394" lon="4.77119">
        <ele>85.798881530762</ele>
        <time>2014-12-28T08:16:16.000Z</time>
      </trkpt>
      <trkpt lat="43.77389" lon="4.77123">
        <ele>86.251205444336</ele>
        <time>2014-12-28T08:16:18.000Z</time>
      </trkpt>
      <trkpt lat="43.77381" lon="4.77128">
        <ele>86.612442016602</ele>
        <time>2014-12-28T08:16:21.000Z</time>
      </trkpt>
      <trkpt lat="43.77374" lon="4.77134">
        <ele>86.925308227539</ele>
        <time>2014-12-28T08:16:24.000Z</time>
      </trkpt>
      <trkpt lat="43.77373" lon="4.77134">
        <ele>87.166229248047</ele>
        <time>2014-12-28T08:16:31.000Z</time>
      </trkpt>
      <trkpt lat="43.77367" lon="4.77138">
        <ele>87.316360473633</ele>
        <time>2014-12-28T08:16:34.000Z</time>
      </trkpt>
      <trkpt lat="43.77363" lon="4.77142">
        <ele>87.409507751465</ele>
        <time>2014-12-28T08:16:36.000Z</time>
      </trkpt>
      <trkpt lat="43.77359" lon="4.77145">
        <ele>87.428024291992</ele>
        <time>2014-12-28T08:16:38.000Z</time>
      </trkpt>
      <trkpt lat="43.77354" lon="4.77149">
        <ele>87.391403198242</ele>
        <time>2014-12-28T08:16:40.000Z</time>
      </trkpt>
      <trkpt lat="43.77346" lon="4.77155">
        <ele>87.288864135742</ele>
        <time>2014-12-28T08:16:43.000Z</time>
      </trkpt>
      <trkpt lat="43.77338" lon="4.77158">
        <ele>87.127151489258</ele>
        <time>2014-12-28T08:16:46.000Z</time>
      </trkpt>
      <trkpt lat="43.77331" lon="4.7716">
        <ele>86.969253540039</ele>
        <time>2014-12-28T08:16:49.000Z</time>
      </trkpt>
      <trkpt lat="43.77325" lon="4.77161">
        <ele>86.889709472656</ele>
        <time>2014-12-28T08:16:51.000Z</time>
      </trkpt>
      <trkpt lat="43.7732" lon="4.77161">
        <ele>86.907363891602</ele>
        <time>2014-12-28T08:16:53.000Z</time>
      </trkpt>
      <trkpt lat="43.77311" lon="4.7716">
        <ele>87.120498657227</ele>
        <time>2014-12-28T08:16:56.000Z</time>
      </trkpt>
      <trkpt lat="43.77305" lon="4.77159">
        <ele>87.463851928711</ele>
        <time>2014-12-28T08:16:58.000Z</time>
      </trkpt>
      <trkpt lat="43.77296" lon="4.77156">
        <ele>87.955017089844</ele>
        <time>2014-12-28T08:17:01.000Z</time>
      </trkpt>
      <trkpt lat="43.77287" lon="4.77151">
        <ele>88.528915405273</ele>
        <time>2014-12-28T08:17:04.000Z</time>
      </trkpt>
      <trkpt lat="43.77282" lon="4.77148">
        <ele>89.11449432373</ele>
        <time>2014-12-28T08:17:06.000Z</time>
      </trkpt>
      <trkpt lat="43.77273" lon="4.77143">
        <ele>89.673080444336</ele>
        <time>2014-12-28T08:17:09.000Z</time>
      </trkpt>
      <trkpt lat="43.77267" lon="4.7714">
        <ele>90.22509765625</ele>
        <time>2014-12-28T08:17:11.000Z</time>
      </trkpt>
      <trkpt lat="43.77259" lon="4.77136">
        <ele>90.724723815918</ele>
        <time>2014-12-28T08:17:14.000Z</time>
      </trkpt>
      <trkpt lat="43.77253" lon="4.77135">
        <ele>91.135314941406</ele>
        <time>2014-12-28T08:17:16.000Z</time>
      </trkpt>
      <trkpt lat="43.77246" lon="4.77132">
        <ele>91.533126831055</ele>
        <time>2014-12-28T08:17:18.000Z</time>
      </trkpt>
      <trkpt lat="43.7724" lon="4.7713">
        <ele>91.902984619141</ele>
        <time>2014-12-28T08:17:20.000Z</time>
      </trkpt>
      <trkpt lat="43.77234" lon="4.77129">
        <ele>92.266159057617</ele>
        <time>2014-12-28T08:17:22.000Z</time>
      </trkpt>
      <trkpt lat="43.77225" lon="4.77126">
        <ele>92.630516052246</ele>
        <time>2014-12-28T08:17:25.000Z</time>
      </trkpt>
      <trkpt lat="43.77219" lon="4.77125">
        <ele>92.983444213867</ele>
        <time>2014-12-28T08:17:27.000Z</time>
      </trkpt>
      <trkpt lat="43.77211" lon="4.77124">
        <ele>93.337715148926</ele>
        <time>2014-12-28T08:17:30.000Z</time>
      </trkpt>
      <trkpt lat="43.77202" lon="4.77121">
        <ele>93.666664123535</ele>
        <time>2014-12-28T08:17:33.000Z</time>
      </trkpt>
      <trkpt lat="43.77194" lon="4.77119">
        <ele>93.955322265625</ele>
        <time>2014-12-28T08:17:36.000Z</time>
      </trkpt>
      <trkpt lat="43.7719" lon="4.77118">
        <ele>94.169456481934</ele>
        <time>2014-12-28T08:17:38.000Z</time>
      </trkpt>
      <trkpt lat="43.77185" lon="4.77118">
        <ele>94.366821289062</ele>
        <time>2014-12-28T08:17:40.000Z</time>
      </trkpt>
      <trkpt lat="43.77178" lon="4.77116">
        <ele>94.511421203613</ele>
        <time>2014-12-28T08:17:43.000Z</time>
      </trkpt>
      <trkpt lat="43.77172" lon="4.77114">
        <ele>94.576553344727</ele>
        <time>2014-12-28T08:17:45.000Z</time>
      </trkpt>
      <trkpt lat="43.77168" lon="4.77113">
        <ele>94.606369018555</ele>
        <time>2014-12-28T08:17:47.000Z</time>
      </trkpt>
      <trkpt lat="43.77161" lon="4.77112">
        <ele>94.630264282227</ele>
        <time>2014-12-28T08:17:50.000Z</time>
      </trkpt>
      <trkpt lat="43.77157" lon="4.7711">
        <ele>94.598983764648</ele>
        <time>2014-12-28T08:17:52.000Z</time>
      </trkpt>
      <trkpt lat="43.77152" lon="4.77107">
        <ele>94.507057189941</ele>
        <time>2014-12-28T08:17:54.000Z</time>
      </trkpt>
      <trkpt lat="43.77143" lon="4.77105">
        <ele>94.43138885498</ele>
        <time>2014-12-28T08:17:57.000Z</time>
      </trkpt>
      <trkpt lat="43.77131" lon="4.77104">
        <ele>94.454048156738</ele>
        <time>2014-12-28T08:18:00.000Z</time>
      </trkpt>
      <trkpt lat="43.77119" lon="4.77106">
        <ele>94.606071472168</ele>
        <time>2014-12-28T08:18:03.000Z</time>
      </trkpt>
      <trkpt lat="43.77108" lon="4.77107">
        <ele>94.899383544922</ele>
        <time>2014-12-28T08:18:06.000Z</time>
      </trkpt>
      <trkpt lat="43.77099" lon="4.77107">
        <ele>95.316192626953</ele>
        <time>2014-12-28T08:18:09.000Z</time>
      </trkpt>
      <trkpt lat="43.77093" lon="4.77105">
        <ele>95.730918884277</ele>
        <time>2014-12-28T08:18:11.000Z</time>
      </trkpt>
      <trkpt lat="43.77088" lon="4.77105">
        <ele>96.072792053223</ele>
        <time>2014-12-28T08:18:13.000Z</time>
      </trkpt>
      <trkpt lat="43.77077" lon="4.77104">
        <ele>96.360229492188</ele>
        <time>2014-12-28T08:18:16.000Z</time>
      </trkpt>
      <trkpt lat="43.77069" lon="4.77104">
        <ele>96.607772827148</ele>
        <time>2014-12-28T08:18:19.000Z</time>
      </trkpt>
      <trkpt lat="43.77063" lon="4.77106">
        <ele>96.864471435547</ele>
        <time>2014-12-28T08:18:21.000Z</time>
      </trkpt>
      <trkpt lat="43.77057" lon="4.77107">
        <ele>97.206680297852</ele>
        <time>2014-12-28T08:18:23.000Z</time>
      </trkpt>
      <trkpt lat="43.77048" lon="4.7711">
        <ele>97.664360046387</ele>
        <time>2014-12-28T08:18:26.000Z</time>
      </trkpt>
      <trkpt lat="43.77039" lon="4.77112">
        <ele>98.136947631836</ele>
        <time>2014-12-28T08:18:29.000Z</time>
      </trkpt>
      <trkpt lat="43.77034" lon="4.77115">
        <ele>98.603118896484</ele>
        <time>2014-12-28T08:18:31.000Z</time>
      </trkpt>
      <trkpt lat="43.77026" lon="4.77119">
        <ele>99.072067260742</ele>
        <time>2014-12-28T08:18:34.000Z</time>
      </trkpt>
      <trkpt lat="43.77017" lon="4.77125">
        <ele>99.543998718262</ele>
        <time>2014-12-28T08:18:37.000Z</time>
      </trkpt>
      <trkpt lat="43.77011" lon="4.77129">
        <ele>99.920372009277</ele>
        <time>2014-12-28T08:18:39.000Z</time>
      </trkpt>
      <trkpt lat="43.77007" lon="4.77133">
        <ele>100.21720123291</ele>
        <time>2014-12-28T08:18:41.000Z</time>
      </trkpt>
      <trkpt lat="43.76999" lon="4.77141">
        <ele>100.46673583984</ele>
        <time>2014-12-28T08:18:44.000Z</time>
      </trkpt>
      <trkpt lat="43.76995" lon="4.77145">
        <ele>100.67127990723</ele>
        <time>2014-12-28T08:18:46.000Z</time>
      </trkpt>
      <trkpt lat="43.76987" lon="4.77153">
        <ele>100.85615539551</ele>
        <time>2014-12-28T08:18:49.000Z</time>
      </trkpt>
      <trkpt lat="43.76983" lon="4.77158">
        <ele>101.01710510254</ele>
        <time>2014-12-28T08:18:51.000Z</time>
      </trkpt>
      <trkpt lat="43.7698" lon="4.77162">
        <ele>101.1570892334</ele>
        <time>2014-12-28T08:18:53.000Z</time>
      </trkpt>
      <trkpt lat="43.76974" lon="4.77168">
        <ele>101.31555175781</ele>
        <time>2014-12-28T08:18:56.000Z</time>
      </trkpt>
      <trkpt lat="43.76968" lon="4.77175">
        <ele>101.63072967529</ele>
        <time>2014-12-28T08:18:59.000Z</time>
      </trkpt>
      <trkpt lat="43.76965" lon="4.7718">
        <ele>102.01713562012</ele>
        <time>2014-12-28T08:19:01.000Z</time>
      </trkpt>
      <trkpt lat="43.76958" lon="4.77185">
        <ele>102.55051422119</ele>
        <time>2014-12-28T08:19:04.000Z</time>
      </trkpt>
      <trkpt lat="43.76952" lon="4.77189">
        <ele>103.22290039062</ele>
        <time>2014-12-28T08:19:07.000Z</time>
      </trkpt>
      <trkpt lat="43.76948" lon="4.77192">
        <ele>103.93916320801</ele>
        <time>2014-12-28T08:19:09.000Z</time>
      </trkpt>
      <trkpt lat="43.76943" lon="4.77193">
        <ele>104.50656890869</ele>
        <time>2014-12-28T08:19:11.000Z</time>
      </trkpt>
      <trkpt lat="43.76938" lon="4.77195">
        <ele>105.01145172119</ele>
        <time>2014-12-28T08:19:13.000Z</time>
      </trkpt>
      <trkpt lat="43.7693" lon="4.77197">
        <ele>105.42738342285</ele>
        <time>2014-12-28T08:19:16.000Z</time>
      </trkpt>
      <trkpt lat="43.76923" lon="4.77197">
        <ele>105.72804260254</ele>
        <time>2014-12-28T08:19:19.000Z</time>
      </trkpt>
      <trkpt lat="43.76918" lon="4.77196">
        <ele>105.93040466309</ele>
        <time>2014-12-28T08:19:22.000Z</time>
      </trkpt>
      <trkpt lat="43.76912" lon="4.77195">
        <ele>106.17568206787</ele>
        <time>2014-12-28T08:19:25.000Z</time>
      </trkpt>
      <trkpt lat="43.76905" lon="4.77193">
        <ele>106.46641540527</ele>
        <time>2014-12-28T08:19:28.000Z</time>
      </trkpt>
      <trkpt lat="43.769" lon="4.77191">
        <ele>106.75810241699</ele>
        <time>2014-12-28T08:19:30.000Z</time>
      </trkpt>
      <trkpt lat="43.76896" lon="4.77188">
        <ele>107.02675628662</ele>
        <time>2014-12-28T08:19:32.000Z</time>
      </trkpt>
      <trkpt lat="43.76891" lon="4.77186">
        <ele>107.34854888916</ele>
        <time>2014-12-28T08:19:34.000Z</time>
      </trkpt>
      <trkpt lat="43.76885" lon="4.77179">
        <ele>107.50144195557</ele>
        <time>2014-12-28T08:19:37.000Z</time>
      </trkpt>
      <trkpt lat="43.76882" lon="4.77174">
        <ele>107.45877838135</ele>
        <time>2014-12-28T08:19:39.000Z</time>
      </trkpt>
      <trkpt lat="43.76878" lon="4.77168">
        <ele>107.23643493652</ele>
        <time>2014-12-28T08:19:41.000Z</time>
      </trkpt>
      <trkpt lat="43.76873" lon="4.77162">
        <ele>107.14123535156</ele>
        <time>2014-12-28T08:19:44.000Z</time>
      </trkpt>
      <trkpt lat="43.76869" lon="4.77156">
        <ele>107.16465759277</ele>
        <time>2014-12-28T08:19:47.000Z</time>
      </trkpt>
      <trkpt lat="43.76864" lon="4.77151">
        <ele>107.41540527344</ele>
        <time>2014-12-28T08:19:49.000Z</time>
      </trkpt>
      <trkpt lat="43.76857" lon="4.77142">
        <ele>107.9730682373</ele>
        <time>2014-12-28T08:19:52.000Z</time>
      </trkpt>
      <trkpt lat="43.76852" lon="4.77136">
        <ele>108.77487945557</ele>
        <time>2014-12-28T08:19:54.000Z</time>
      </trkpt>
      <trkpt lat="43.76848" lon="4.7713">
        <ele>109.55629730225</ele>
        <time>2014-12-28T08:19:56.000Z</time>
      </trkpt>
      <trkpt lat="43.76841" lon="4.77121">
        <ele>110.32354736328</ele>
        <time>2014-12-28T08:19:59.000Z</time>
      </trkpt>
      <trkpt lat="43.76835" lon="4.77113">
        <ele>111.03831481934</ele>
        <time>2014-12-28T08:20:02.000Z</time>
      </trkpt>
      <trkpt lat="43.7683" lon="4.77109">
        <ele>111.59114837646</ele>
        <time>2014-12-28T08:20:04.000Z</time>
      </trkpt>
      <trkpt lat="43.76823" lon="4.77104">
        <ele>112.10416412354</ele>
        <time>2014-12-28T08:20:07.000Z</time>
      </trkpt>
      <trkpt lat="43.76814" lon="4.77098">
        <ele>112.59295654297</ele>
        <time>2014-12-28T08:20:10.000Z</time>
      </trkpt>
      <trkpt lat="43.76809" lon="4.77094">
        <ele>112.97296142578</ele>
        <time>2014-12-28T08:20:12.000Z</time>
      </trkpt>
      <trkpt lat="43.76804" lon="4.7709">
        <ele>113.28303527832</ele>
        <time>2014-12-28T08:20:14.000Z</time>
      </trkpt>
      <trkpt lat="43.76797" lon="4.77087">
        <ele>113.56034851074</ele>
        <time>2014-12-28T08:20:17.000Z</time>
      </trkpt>
      <trkpt lat="43.76793" lon="4.77086">
        <ele>113.76509857178</ele>
        <time>2014-12-28T08:20:19.000Z</time>
      </trkpt>
      <trkpt lat="43.76786" lon="4.77084">
        <ele>113.90956878662</ele>
        <time>2014-12-28T08:20:22.000Z</time>
      </trkpt>
      <trkpt lat="43.7678" lon="4.77083">
        <ele>114.04359436035</ele>
        <time>2014-12-28T08:20:25.000Z</time>
      </trkpt>
      <trkpt lat="43.76773" lon="4.77083">
        <ele>114.18121337891</ele>
        <time>2014-12-28T08:20:28.000Z</time>
      </trkpt>
      <trkpt lat="43.76767" lon="4.77081">
        <ele>114.33653259277</ele>
        <time>2014-12-28T08:20:31.000Z</time>
      </trkpt>
      <trkpt lat="43.7676" lon="4.77079">
        <ele>114.51995849609</ele>
        <time>2014-12-28T08:20:34.000Z</time>
      </trkpt>
      <trkpt lat="43.76754" lon="4.77078">
        <ele>114.71598052979</ele>
        <time>2014-12-28T08:20:37.000Z</time>
      </trkpt>
      <trkpt lat="43.76748" lon="4.77077">
        <ele>114.94725036621</ele>
        <time>2014-12-28T08:20:40.000Z</time>
      </trkpt>
      <trkpt lat="43.76744" lon="4.77075">
        <ele>115.24062347412</ele>
        <time>2014-12-28T08:20:42.000Z</time>
      </trkpt>
      <trkpt lat="43.76741" lon="4.77074">
        <ele>115.55702209473</ele>
        <time>2014-12-28T08:20:44.000Z</time>
      </trkpt>
      <trkpt lat="43.76735" lon="4.77075">
        <ele>115.93316650391</ele>
        <time>2014-12-28T08:20:46.000Z</time>
      </trkpt>
      <trkpt lat="43.76728" lon="4.77073">
        <ele>116.43115234375</ele>
        <time>2014-12-28T08:20:49.000Z</time>
      </trkpt>
      <trkpt lat="43.7672" lon="4.77072">
        <ele>117.05513000488</ele>
        <time>2014-12-28T08:20:52.000Z</time>
      </trkpt>
      <trkpt lat="43.76714" lon="4.7707">
        <ele>117.71778869629</ele>
        <time>2014-12-28T08:20:55.000Z</time>
      </trkpt>
      <trkpt lat="43.76709" lon="4.77067">
        <ele>118.43015289307</ele>
        <time>2014-12-28T08:20:57.000Z</time>
      </trkpt>
      <trkpt lat="43.76702" lon="4.77067">
        <ele>119.16285705566</ele>
        <time>2014-12-28T08:21:00.000Z</time>
      </trkpt>
      <trkpt lat="43.76698" lon="4.77066">
        <ele>119.83205413818</ele>
        <time>2014-12-28T08:21:02.000Z</time>
      </trkpt>
      <trkpt lat="43.7669" lon="4.77064">
        <ele>120.49090576172</ele>
        <time>2014-12-28T08:21:05.000Z</time>
      </trkpt>
      <trkpt lat="43.76683" lon="4.77064">
        <ele>121.15988922119</ele>
        <time>2014-12-28T08:21:08.000Z</time>
      </trkpt>
      <trkpt lat="43.76674" lon="4.77062">
        <ele>121.88901519775</ele>
        <time>2014-12-28T08:21:11.000Z</time>
      </trkpt>
      <trkpt lat="43.76669" lon="4.77061">
        <ele>122.59854888916</ele>
        <time>2014-12-28T08:21:13.000Z</time>
      </trkpt>
      <trkpt lat="43.76665" lon="4.77062">
        <ele>123.25459289551</ele>
        <time>2014-12-28T08:21:15.000Z</time>
      </trkpt>
      <trkpt lat="43.76657" lon="4.77062">
        <ele>123.74179840088</ele>
        <time>2014-12-28T08:21:18.000Z</time>
      </trkpt>
      <trkpt lat="43.76651" lon="4.77062">
        <ele>124.08085632324</ele>
        <time>2014-12-28T08:21:20.000Z</time>
      </trkpt>
      <trkpt lat="43.76645" lon="4.77064">
        <ele>124.23902893066</ele>
        <time>2014-12-28T08:21:23.000Z</time>
      </trkpt>
      <trkpt lat="43.76638" lon="4.77066">
        <ele>124.28369140625</ele>
        <time>2014-12-28T08:21:26.000Z</time>
      </trkpt>
      <trkpt lat="43.76632" lon="4.77066">
        <ele>124.2904510498</ele>
        <time>2014-12-28T08:21:28.000Z</time>
      </trkpt>
      <trkpt lat="43.76627" lon="4.77067">
        <ele>124.29234313965</ele>
        <time>2014-12-28T08:21:30.000Z</time>
      </trkpt>
      <trkpt lat="43.76619" lon="4.77067">
        <ele>124.29323577881</ele>
        <time>2014-12-28T08:21:33.000Z</time>
      </trkpt>
      <trkpt lat="43.76613" lon="4.77069">
        <ele>124.29008483887</ele>
        <time>2014-12-28T08:21:36.000Z</time>
      </trkpt>
      <trkpt lat="43.76606" lon="4.77071">
        <ele>124.28425598145</ele>
        <time>2014-12-28T08:21:39.000Z</time>
      </trkpt>
      <trkpt lat="43.766" lon="4.77073">
        <ele>124.27223205566</ele>
        <time>2014-12-28T08:21:42.000Z</time>
      </trkpt>
      <trkpt lat="43.76595" lon="4.77075">
        <ele>124.2501373291</ele>
        <time>2014-12-28T08:21:44.000Z</time>
      </trkpt>
      <trkpt lat="43.76587" lon="4.7708">
        <ele>124.20323181152</ele>
        <time>2014-12-28T08:21:47.000Z</time>
      </trkpt>
      <trkpt lat="43.76583" lon="4.77085">
        <ele>124.20275878906</ele>
        <time>2014-12-28T08:21:49.000Z</time>
      </trkpt>
      <trkpt lat="43.76579" lon="4.7709">
        <ele>124.51463317871</ele>
        <time>2014-12-28T08:21:51.000Z</time>
      </trkpt>
      <trkpt lat="43.76575" lon="4.77094">
        <ele>125.09572601318</ele>
        <time>2014-12-28T08:21:53.000Z</time>
      </trkpt>
      <trkpt lat="43.7657" lon="4.77101">
        <ele>126.00248718262</ele>
        <time>2014-12-28T08:21:56.000Z</time>
      </trkpt>
      <trkpt lat="43.76565" lon="4.77108">
        <ele>127.24289703369</ele>
        <time>2014-12-28T08:21:59.000Z</time>
      </trkpt>
      <trkpt lat="43.76559" lon="4.77113">
        <ele>128.65257263184</ele>
        <time>2014-12-28T08:22:02.000Z</time>
      </trkpt>
      <trkpt lat="43.76556" lon="4.77117">
        <ele>129.88505554199</ele>
        <time>2014-12-28T08:22:04.000Z</time>
      </trkpt>
      <trkpt lat="43.76553" lon="4.7712">
        <ele>130.95942687988</ele>
        <time>2014-12-28T08:22:06.000Z</time>
      </trkpt>
      <trkpt lat="43.76547" lon="4.77125">
        <ele>131.85696411133</ele>
        <time>2014-12-28T08:22:09.000Z</time>
      </trkpt>
      <trkpt lat="43.76543" lon="4.77128">
        <ele>132.53012084961</ele>
        <time>2014-12-28T08:22:11.000Z</time>
      </trkpt>
      <trkpt lat="43.76538" lon="4.77134">
        <ele>133.08578491211</ele>
        <time>2014-12-28T08:22:14.000Z</time>
      </trkpt>
      <trkpt lat="43.76535" lon="4.77137">
        <ele>133.55081176758</ele>
        <time>2014-12-28T08:22:16.000Z</time>
      </trkpt>
      <trkpt lat="43.7653" lon="4.77143">
        <ele>133.95809936523</ele>
        <time>2014-12-28T08:22:19.000Z</time>
      </trkpt>
      <trkpt lat="43.76527" lon="4.7715">
        <ele>134.24795532227</ele>
        <time>2014-12-28T08:22:22.000Z</time>
      </trkpt>
      <trkpt lat="43.76524" lon="4.77156">
        <ele>134.44857788086</ele>
        <time>2014-12-28T08:22:24.000Z</time>
      </trkpt>
      <trkpt lat="43.76521" lon="4.77164">
        <ele>134.52958679199</ele>
        <time>2014-12-28T08:22:27.000Z</time>
      </trkpt>
      <trkpt lat="43.76519" lon="4.7717">
        <ele>134.61703491211</ele>
        <time>2014-12-28T08:22:29.000Z</time>
      </trkpt>
      <trkpt lat="43.76514" lon="4.77176">
        <ele>134.75738525391</ele>
        <time>2014-12-28T08:22:32.000Z</time>
      </trkpt>
      <trkpt lat="43.76511" lon="4.7718">
        <ele>134.92205810547</ele>
        <time>2014-12-28T08:22:34.000Z</time>
      </trkpt>
      <trkpt lat="43.76505" lon="4.77186">
        <ele>135.15008544922</ele>
        <time>2014-12-28T08:22:37.000Z</time>
      </trkpt>
      <trkpt lat="43.76503" lon="4.7719">
        <ele>135.46850585938</ele>
        <time>2014-12-28T08:22:39.000Z</time>
      </trkpt>
      <trkpt lat="43.76499" lon="4.77196">
        <ele>135.85185241699</ele>
        <time>2014-12-28T08:22:42.000Z</time>
      </trkpt>
      <trkpt lat="43.76495" lon="4.772">
        <ele>136.26052856445</ele>
        <time>2014-12-28T08:22:44.000Z</time>
      </trkpt>
      <trkpt lat="43.76493" lon="4.77205">
        <ele>136.76219177246</ele>
        <time>2014-12-28T08:22:46.000Z</time>
      </trkpt>
      <trkpt lat="43.76489" lon="4.77211">
        <ele>137.35942077637</ele>
        <time>2014-12-28T08:22:49.000Z</time>
      </trkpt>
      <trkpt lat="43.76485" lon="4.77214">
        <ele>137.98280334473</ele>
        <time>2014-12-28T08:22:52.000Z</time>
      </trkpt>
      <trkpt lat="43.76482" lon="4.77218">
        <ele>138.56846618652</ele>
        <time>2014-12-28T08:22:54.000Z</time>
      </trkpt>
      <trkpt lat="43.76482" lon="4.77224">
        <ele>139.11747741699</ele>
        <time>2014-12-28T08:22:56.000Z</time>
      </trkpt>
      <trkpt lat="43.76482" lon="4.77232">
        <ele>139.63793945312</ele>
        <time>2014-12-28T08:22:59.000Z</time>
      </trkpt>
      <trkpt lat="43.7648" lon="4.77235">
        <ele>140.03851318359</ele>
        <time>2014-12-28T08:23:01.000Z</time>
      </trkpt>
      <trkpt lat="43.76479" lon="4.77238">
        <ele>140.38610839844</ele>
        <time>2014-12-28T08:23:03.000Z</time>
      </trkpt>
      <trkpt lat="43.76476" lon="4.77242">
        <ele>140.6907043457</ele>
        <time>2014-12-28T08:23:06.000Z</time>
      </trkpt>
      <trkpt lat="43.76473" lon="4.77244">
        <ele>140.89680480957</ele>
        <time>2014-12-28T08:23:09.000Z</time>
      </trkpt>
      <trkpt lat="43.76471" lon="4.77245">
        <ele>140.98669433594</ele>
        <time>2014-12-28T08:23:11.000Z</time>
      </trkpt>
      <trkpt lat="43.76469" lon="4.77245">
        <ele>141.01704406738</ele>
        <time>2014-12-28T08:23:13.000Z</time>
      </trkpt>
      <trkpt lat="43.76467" lon="4.77246">
        <ele>141.00793457031</ele>
        <time>2014-12-28T08:23:15.000Z</time>
      </trkpt>
      <trkpt lat="43.76466" lon="4.77248">
        <ele>140.96563720703</ele>
        <time>2014-12-28T08:23:17.000Z</time>
      </trkpt>
      <trkpt lat="43.76464" lon="4.7725">
        <ele>140.92144775391</ele>
        <time>2014-12-28T08:23:19.000Z</time>
      </trkpt>
      <trkpt lat="43.76461" lon="4.77253">
        <ele>140.9146270752</ele>
        <time>2014-12-28T08:23:22.000Z</time>
      </trkpt>
      <trkpt lat="43.76457" lon="4.77257">
        <ele>140.98825073242</ele>
        <time>2014-12-28T08:23:25.000Z</time>
      </trkpt>
      <trkpt lat="43.76454" lon="4.7726">
        <ele>141.1314239502</ele>
        <time>2014-12-28T08:23:27.000Z</time>
      </trkpt>
      <trkpt lat="43.76448" lon="4.77266">
        <ele>141.33450317383</ele>
        <time>2014-12-28T08:23:30.000Z</time>
      </trkpt>
      <trkpt lat="43.76445" lon="4.77268">
        <ele>141.56968688965</ele>
        <time>2014-12-28T08:23:34.000Z</time>
      </trkpt>
      <trkpt lat="43.7644" lon="4.7727">
        <ele>141.76069641113</ele>
        <time>2014-12-28T08:23:35.000Z</time>
      </trkpt>
      <trkpt lat="43.76435" lon="4.77275">
        <ele>141.95028686523</ele>
        <time>2014-12-28T08:23:37.000Z</time>
      </trkpt>
      <trkpt lat="43.76428" lon="4.77278">
        <ele>142.04861450195</ele>
        <time>2014-12-28T08:23:40.000Z</time>
      </trkpt>
      <trkpt lat="43.76422" lon="4.77277">
        <ele>141.98844909668</ele>
        <time>2014-12-28T08:23:43.000Z</time>
      </trkpt>
      <trkpt lat="43.76419" lon="4.77276">
        <ele>141.84146118164</ele>
        <time>2014-12-28T08:23:45.000Z</time>
      </trkpt>
      <trkpt lat="43.76414" lon="4.77275">
        <ele>141.69064331055</ele>
        <time>2014-12-28T08:23:47.000Z</time>
      </trkpt>
      <trkpt lat="43.76411" lon="4.7727">
        <ele>141.44259643555</ele>
        <time>2014-12-28T08:23:50.000Z</time>
      </trkpt>
      <trkpt lat="43.7641" lon="4.77266">
        <ele>141.16229248047</ele>
        <time>2014-12-28T08:23:52.000Z</time>
      </trkpt>
      <trkpt lat="43.76404" lon="4.77259">
        <ele>140.95162963867</ele>
        <time>2014-12-28T08:23:55.000Z</time>
      </trkpt>
      <trkpt lat="43.764" lon="4.77256">
        <ele>140.81523132324</ele>
        <time>2014-12-28T08:23:57.000Z</time>
      </trkpt>
      <trkpt lat="43.76396" lon="4.77252">
        <ele>140.71969604492</ele>
        <time>2014-12-28T08:23:59.000Z</time>
      </trkpt>
      <trkpt lat="43.76389" lon="4.77245">
        <ele>140.88410949707</ele>
        <time>2014-12-28T08:24:02.000Z</time>
      </trkpt>
      <trkpt lat="43.76384" lon="4.77241">
        <ele>141.2917175293</ele>
        <time>2014-12-28T08:24:04.000Z</time>
      </trkpt>
      <trkpt lat="43.7638" lon="4.77241">
        <ele>141.85749816895</ele>
        <time>2014-12-28T08:24:07.000Z</time>
      </trkpt>
      <trkpt lat="43.76377" lon="4.77242">
        <ele>142.45031738281</ele>
        <time>2014-12-28T08:24:09.000Z</time>
      </trkpt>
      <trkpt lat="43.76373" lon="4.77245">
        <ele>143.05192565918</ele>
        <time>2014-12-28T08:24:12.000Z</time>
      </trkpt>
      <trkpt lat="43.76372" lon="4.77253">
        <ele>143.40916442871</ele>
        <time>2014-12-28T08:24:15.000Z</time>
      </trkpt>
      <trkpt lat="43.76374" lon="4.7726">
        <ele>143.65315246582</ele>
        <time>2014-12-28T08:24:18.000Z</time>
      </trkpt>
      <trkpt lat="43.76375" lon="4.77264">
        <ele>143.82261657715</ele>
        <time>2014-12-28T08:24:20.000Z</time>
      </trkpt>
      <trkpt lat="43.76374" lon="4.7727">
        <ele>144.0899810791</ele>
        <time>2014-12-28T08:24:23.000Z</time>
      </trkpt>
      <trkpt lat="43.76371" lon="4.77274">
        <ele>144.45930480957</ele>
        <time>2014-12-28T08:24:25.000Z</time>
      </trkpt>
      <trkpt lat="43.76366" lon="4.77281">
        <ele>145.06958007812</ele>
        <time>2014-12-28T08:24:28.000Z</time>
      </trkpt>
      <trkpt lat="43.76363" lon="4.77287">
        <ele>145.76272583008</ele>
        <time>2014-12-28T08:24:31.000Z</time>
      </trkpt>
      <trkpt lat="43.76362" lon="4.77293">
        <ele>146.52743530273</ele>
        <time>2014-12-28T08:24:34.000Z</time>
      </trkpt>
      <trkpt lat="43.76361" lon="4.77297">
        <ele>147.24571228027</ele>
        <time>2014-12-28T08:24:36.000Z</time>
      </trkpt>
      <trkpt lat="43.76357" lon="4.77303">
        <ele>147.97798156738</ele>
        <time>2014-12-28T08:24:39.000Z</time>
      </trkpt>
      <trkpt lat="43.76356" lon="4.77306">
        <ele>148.56369018555</ele>
        <time>2014-12-28T08:24:41.000Z</time>
      </trkpt>
      <trkpt lat="43.76353" lon="4.77312">
        <ele>149.12155151367</ele>
        <time>2014-12-28T08:24:44.000Z</time>
      </trkpt>
      <trkpt lat="43.76351" lon="4.77319">
        <ele>149.69604492188</ele>
        <time>2014-12-28T08:24:47.000Z</time>
      </trkpt>
      <trkpt lat="43.76349" lon="4.77326">
        <ele>150.29745483398</ele>
        <time>2014-12-28T08:24:50.000Z</time>
      </trkpt>
      <trkpt lat="43.76347" lon="4.7733">
        <ele>150.83508300781</ele>
        <time>2014-12-28T08:24:52.000Z</time>
      </trkpt>
      <trkpt lat="43.76345" lon="4.77336">
        <ele>151.42018127441</ele>
        <time>2014-12-28T08:24:55.000Z</time>
      </trkpt>
      <trkpt lat="43.76343" lon="4.77344">
        <ele>152.00234985352</ele>
        <time>2014-12-28T08:24:58.000Z</time>
      </trkpt>
      <trkpt lat="43.76342" lon="4.77348">
        <ele>152.51751708984</ele>
        <time>2014-12-28T08:25:00.000Z</time>
      </trkpt>
      <trkpt lat="43.7634" lon="4.77356">
        <ele>153.03202819824</ele>
        <time>2014-12-28T08:25:03.000Z</time>
      </trkpt>
      <trkpt lat="43.76337" lon="4.77364">
        <ele>153.54983520508</ele>
        <time>2014-12-28T08:25:06.000Z</time>
      </trkpt>
      <trkpt lat="43.76332" lon="4.77373">
        <ele>154.08251953125</ele>
        <time>2014-12-28T08:25:09.000Z</time>
      </trkpt>
      <trkpt lat="43.76331" lon="4.77376">
        <ele>154.59162902832</ele>
        <time>2014-12-28T08:25:11.000Z</time>
      </trkpt>
      <trkpt lat="43.76328" lon="4.77379">
        <ele>155.16952514648</ele>
        <time>2014-12-28T08:25:13.000Z</time>
      </trkpt>
      <trkpt lat="43.76323" lon="4.77382">
        <ele>155.8733215332</ele>
        <time>2014-12-28T08:25:16.000Z</time>
      </trkpt>
      <trkpt lat="43.76324" lon="4.77392">
        <ele>156.56350708008</ele>
        <time>2014-12-28T08:25:18.000Z</time>
      </trkpt>
      <trkpt lat="43.7632" lon="4.77423">
        <ele>157.58953857422</ele>
        <time>2014-12-28T08:25:27.000Z</time>
      </trkpt>
      <trkpt lat="43.76322" lon="4.77429">
        <ele>158.54922485352</ele>
        <time>2014-12-28T08:25:29.000Z</time>
      </trkpt>
      <trkpt lat="43.76323" lon="4.77439">
        <ele>159.46022033691</ele>
        <time>2014-12-28T08:25:32.000Z</time>
      </trkpt>
      <trkpt lat="43.76322" lon="4.77442">
        <ele>160.21508789062</ele>
        <time>2014-12-28T08:25:34.000Z</time>
      </trkpt>
      <trkpt lat="43.76322" lon="4.77447">
        <ele>160.97634887695</ele>
        <time>2014-12-28T08:25:37.000Z</time>
      </trkpt>
      <trkpt lat="43.76322" lon="4.77452">
        <ele>161.34910583496</ele>
        <time>2014-12-28T08:25:39.000Z</time>
      </trkpt>
      <trkpt lat="43.76321" lon="4.77455">
        <ele>161.73342895508</ele>
        <time>2014-12-28T08:25:41.000Z</time>
      </trkpt>
      <trkpt lat="43.76321" lon="4.77459">
        <ele>162.11177062988</ele>
        <time>2014-12-28T08:25:44.000Z</time>
      </trkpt>
      <trkpt lat="43.76321" lon="4.77464">
        <ele>162.4880065918</ele>
        <time>2014-12-28T08:25:46.000Z</time>
      </trkpt>
      <trkpt lat="43.76319" lon="4.77472">
        <ele>162.9701385498</ele>
        <time>2014-12-28T08:25:49.000Z</time>
      </trkpt>
      <trkpt lat="43.76317" lon="4.77477">
        <ele>163.50309753418</ele>
        <time>2014-12-28T08:25:51.000Z</time>
      </trkpt>
      <trkpt lat="43.76316" lon="4.77481">
        <ele>164.10034179688</ele>
        <time>2014-12-28T08:25:53.000Z</time>
      </trkpt>
      <trkpt lat="43.76314" lon="4.77487">
        <ele>164.74270629883</ele>
        <time>2014-12-28T08:25:56.000Z</time>
      </trkpt>
      <trkpt lat="43.76313" lon="4.77494">
        <ele>165.4494934082</ele>
        <time>2014-12-28T08:25:59.000Z</time>
      </trkpt>
      <trkpt lat="43.76313" lon="4.77498">
        <ele>166.02549743652</ele>
        <time>2014-12-28T08:26:01.000Z</time>
      </trkpt>
      <trkpt lat="43.76313" lon="4.77505">
        <ele>166.55424499512</ele>
        <time>2014-12-28T08:26:04.000Z</time>
      </trkpt>
      <trkpt lat="43.76313" lon="4.77509">
        <ele>167.02856445312</ele>
        <time>2014-12-28T08:26:06.000Z</time>
      </trkpt>
      <trkpt lat="43.76315" lon="4.77517">
        <ele>167.4176940918</ele>
        <time>2014-12-28T08:26:09.000Z</time>
      </trkpt>
      <trkpt lat="43.76317" lon="4.77525">
        <ele>167.70825195312</ele>
        <time>2014-12-28T08:26:12.000Z</time>
      </trkpt>
      <trkpt lat="43.76316" lon="4.7753">
        <ele>168.0466003418</ele>
        <time>2014-12-28T08:26:14.000Z</time>
      </trkpt>
      <trkpt lat="43.76315" lon="4.77538">
        <ele>168.46281433105</ele>
        <time>2014-12-28T08:26:17.000Z</time>
      </trkpt>
      <trkpt lat="43.76314" lon="4.77546">
        <ele>168.93862915039</ele>
        <time>2014-12-28T08:26:19.000Z</time>
      </trkpt>
      <trkpt lat="43.76314" lon="4.77555">
        <ele>169.48921203613</ele>
        <time>2014-12-28T08:26:22.000Z</time>
      </trkpt>
      <trkpt lat="43.76312" lon="4.77564">
        <ele>170.18110656738</ele>
        <time>2014-12-28T08:26:25.000Z</time>
      </trkpt>
      <trkpt lat="43.7631" lon="4.77571">
        <ele>170.95156860352</ele>
        <time>2014-12-28T08:26:28.000Z</time>
      </trkpt>
      <trkpt lat="43.76307" lon="4.77576">
        <ele>171.69352722168</ele>
        <time>2014-12-28T08:26:30.000Z</time>
      </trkpt>
      <trkpt lat="43.76305" lon="4.77581">
        <ele>172.46572875977</ele>
        <time>2014-12-28T08:26:33.000Z</time>
      </trkpt>
      <trkpt lat="43.76304" lon="4.77589">
        <ele>173.24446105957</ele>
        <time>2014-12-28T08:26:36.000Z</time>
      </trkpt>
      <trkpt lat="43.76303" lon="4.77595">
        <ele>173.96783447266</ele>
        <time>2014-12-28T08:26:38.000Z</time>
      </trkpt>
      <trkpt lat="43.763" lon="4.77601">
        <ele>174.66159057617</ele>
        <time>2014-12-28T08:26:41.000Z</time>
      </trkpt>
      <trkpt lat="43.76298" lon="4.77608">
        <ele>175.38217163086</ele>
        <time>2014-12-28T08:26:44.000Z</time>
      </trkpt>
      <trkpt lat="43.76295" lon="4.77616">
        <ele>176.11135864258</ele>
        <time>2014-12-28T08:26:47.000Z</time>
      </trkpt>
      <trkpt lat="43.76292" lon="4.77621">
        <ele>176.82434082031</ele>
        <time>2014-12-28T08:26:49.000Z</time>
      </trkpt>
      <trkpt lat="43.76291" lon="4.77627">
        <ele>177.49954223633</ele>
        <time>2014-12-28T08:26:51.000Z</time>
      </trkpt>
      <trkpt lat="43.76289" lon="4.77631">
        <ele>178.08573913574</ele>
        <time>2014-12-28T08:26:53.000Z</time>
      </trkpt>
      <trkpt lat="43.76287" lon="4.77637">
        <ele>178.61184692383</ele>
        <time>2014-12-28T08:26:56.000Z</time>
      </trkpt>
      <trkpt lat="43.76283" lon="4.77641">
        <ele>179.0484161377</ele>
        <time>2014-12-28T08:26:59.000Z</time>
      </trkpt>
      <trkpt lat="43.76281" lon="4.77643">
        <ele>179.41386413574</ele>
        <time>2014-12-28T08:27:01.000Z</time>
      </trkpt>
      <trkpt lat="43.76276" lon="4.77646">
        <ele>179.73361206055</ele>
        <time>2014-12-28T08:27:04.000Z</time>
      </trkpt>
      <trkpt lat="43.76273" lon="4.77648">
        <ele>180.02523803711</ele>
        <time>2014-12-28T08:27:06.000Z</time>
      </trkpt>
      <trkpt lat="43.7627" lon="4.77653">
        <ele>180.2615814209</ele>
        <time>2014-12-28T08:27:09.000Z</time>
      </trkpt>
      <trkpt lat="43.76268" lon="4.77658">
        <ele>180.46078491211</ele>
        <time>2014-12-28T08:27:12.000Z</time>
      </trkpt>
      <trkpt lat="43.76267" lon="4.77661">
        <ele>180.63455200195</ele>
        <time>2014-12-28T08:27:14.000Z</time>
      </trkpt>
      <trkpt lat="43.76265" lon="4.77664">
        <ele>180.7693939209</ele>
        <time>2014-12-28T08:27:17.000Z</time>
      </trkpt>
      <trkpt lat="43.76263" lon="4.77665">
        <ele>180.87185668945</ele>
        <time>2014-12-28T08:27:20.000Z</time>
      </trkpt>
      <trkpt lat="43.76263" lon="4.77669">
        <ele>180.98251342773</ele>
        <time>2014-12-28T08:27:22.000Z</time>
      </trkpt>
      <trkpt lat="43.76262" lon="4.77675">
        <ele>181.17074584961</ele>
        <time>2014-12-28T08:27:25.000Z</time>
      </trkpt>
      <trkpt lat="43.76262" lon="4.77681">
        <ele>181.46775817871</ele>
        <time>2014-12-28T08:27:28.000Z</time>
      </trkpt>
      <trkpt lat="43.76263" lon="4.77688">
        <ele>181.90689086914</ele>
        <time>2014-12-28T08:27:31.000Z</time>
      </trkpt>
      <trkpt lat="43.76263" lon="4.77691">
        <ele>182.40756225586</ele>
        <time>2014-12-28T08:27:33.000Z</time>
      </trkpt>
      <trkpt lat="43.76263" lon="4.77696">
        <ele>182.95797729492</ele>
        <time>2014-12-28T08:27:36.000Z</time>
      </trkpt>
      <trkpt lat="43.76262" lon="4.77705">
        <ele>183.54934692383</ele>
        <time>2014-12-28T08:27:39.000Z</time>
      </trkpt>
      <trkpt lat="43.76263" lon="4.77712">
        <ele>184.16969299316</ele>
        <time>2014-12-28T08:27:42.000Z</time>
      </trkpt>
      <trkpt lat="43.76263" lon="4.77721">
        <ele>184.82695007324</ele>
        <time>2014-12-28T08:27:45.000Z</time>
      </trkpt>
      <trkpt lat="43.76263" lon="4.77728">
        <ele>185.55953979492</ele>
        <time>2014-12-28T08:27:47.000Z</time>
      </trkpt>
      <trkpt lat="43.76262" lon="4.77734">
        <ele>186.29553222656</ele>
        <time>2014-12-28T08:27:50.000Z</time>
      </trkpt>
      <trkpt lat="43.76261" lon="4.7774">
        <ele>186.94943237305</ele>
        <time>2014-12-28T08:27:52.000Z</time>
      </trkpt>
      <trkpt lat="43.7626" lon="4.77746">
        <ele>187.53648376465</ele>
        <time>2014-12-28T08:27:55.000Z</time>
      </trkpt>
      <trkpt lat="43.76259" lon="4.77748">
        <ele>187.92495727539</ele>
        <time>2014-12-28T08:27:57.000Z</time>
      </trkpt>
      <trkpt lat="43.76257" lon="4.77748">
        <ele>188.13066101074</ele>
        <time>2014-12-28T08:28:00.000Z</time>
      </trkpt>
      <trkpt lat="43.76256" lon="4.77751">
        <ele>188.24369812012</ele>
        <time>2014-12-28T08:28:02.000Z</time>
      </trkpt>
      <trkpt lat="43.76253" lon="4.77758">
        <ele>188.36669921875</ele>
        <time>2014-12-28T08:28:05.000Z</time>
      </trkpt>
      <trkpt lat="43.76251" lon="4.77765">
        <ele>188.50173950195</ele>
        <time>2014-12-28T08:28:08.000Z</time>
      </trkpt>
      <trkpt lat="43.76249" lon="4.77769">
        <ele>188.76573181152</ele>
        <time>2014-12-28T08:28:10.000Z</time>
      </trkpt>
      <trkpt lat="43.76248" lon="4.77775">
        <ele>189.24349975586</ele>
        <time>2014-12-28T08:28:13.000Z</time>
      </trkpt>
      <trkpt lat="43.76252" lon="4.77779">
        <ele>189.83737182617</ele>
        <time>2014-12-28T08:28:15.000Z</time>
      </trkpt>
      <trkpt lat="43.76259" lon="4.77781">
        <ele>190.68231201172</ele>
        <time>2014-12-28T08:28:18.000Z</time>
      </trkpt>
      <trkpt lat="43.76264" lon="4.77778">
        <ele>191.54621887207</ele>
        <time>2014-12-28T08:28:20.000Z</time>
      </trkpt>
      <trkpt lat="43.76268" lon="4.77773">
        <ele>192.3062286377</ele>
        <time>2014-12-28T08:28:23.000Z</time>
      </trkpt>
      <trkpt lat="43.7627" lon="4.77765">
        <ele>192.72245788574</ele>
        <time>2014-12-28T08:28:26.000Z</time>
      </trkpt>
      <trkpt lat="43.76271" lon="4.77762">
        <ele>192.98568725586</ele>
        <time>2014-12-28T08:28:28.000Z</time>
      </trkpt>
      <trkpt lat="43.76278" lon="4.77761">
        <ele>193.12699890137</ele>
        <time>2014-12-28T08:28:31.000Z</time>
      </trkpt>
      <trkpt lat="43.76282" lon="4.77759">
        <ele>193.25155639648</ele>
        <time>2014-12-28T08:28:33.000Z</time>
      </trkpt>
      <trkpt lat="43.76288" lon="4.77755">
        <ele>193.45597839355</ele>
        <time>2014-12-28T08:28:36.000Z</time>
      </trkpt>
      <trkpt lat="43.76291" lon="4.77751">
        <ele>193.82551574707</ele>
        <time>2014-12-28T08:28:38.000Z</time>
      </trkpt>
      <trkpt lat="43.76294" lon="4.77746">
        <ele>194.1630859375</ele>
        <time>2014-12-28T08:28:41.000Z</time>
      </trkpt>
      <trkpt lat="43.76299" lon="4.77741">
        <ele>194.28857421875</ele>
        <time>2014-12-28T08:28:44.000Z</time>
      </trkpt>
      <trkpt lat="43.76302" lon="4.77738">
        <ele>194.31575012207</ele>
        <time>2014-12-28T08:28:46.000Z</time>
      </trkpt>
      <trkpt lat="43.76306" lon="4.77732">
        <ele>194.13706970215</ele>
        <time>2014-12-28T08:28:49.000Z</time>
      </trkpt>
      <trkpt lat="43.76309" lon="4.77729">
        <ele>193.91130065918</ele>
        <time>2014-12-28T08:28:51.000Z</time>
      </trkpt>
      <trkpt lat="43.76313" lon="4.77724">
        <ele>193.65127563477</ele>
        <time>2014-12-28T08:28:54.000Z</time>
      </trkpt>
      <trkpt lat="43.76316" lon="4.77721">
        <ele>193.37141418457</ele>
        <time>2014-12-28T08:28:56.000Z</time>
      </trkpt>
      <trkpt lat="43.76321" lon="4.77721">
        <ele>193.20150756836</ele>
        <time>2014-12-28T08:28:59.000Z</time>
      </trkpt>
      <trkpt lat="43.76323" lon="4.77719">
        <ele>193.07991027832</ele>
        <time>2014-12-28T08:29:01.000Z</time>
      </trkpt>
      <trkpt lat="43.76324" lon="4.77714">
        <ele>192.78828430176</ele>
        <time>2014-12-28T08:29:04.000Z</time>
      </trkpt>
      <trkpt lat="43.76325" lon="4.77712">
        <ele>192.53352355957</ele>
        <time>2014-12-28T08:29:06.000Z</time>
      </trkpt>
      <trkpt lat="43.76326" lon="4.77709">
        <ele>192.21156311035</ele>
        <time>2014-12-28T08:29:09.000Z</time>
      </trkpt>
      <trkpt lat="43.76327" lon="4.77708">
        <ele>191.72302246094</ele>
        <time>2014-12-28T08:29:11.000Z</time>
      </trkpt>
      <trkpt lat="43.76329" lon="4.77708">
        <ele>191.34060668945</ele>
        <time>2014-12-28T08:29:13.000Z</time>
      </trkpt>
      <trkpt lat="43.76331" lon="4.77708">
        <ele>191.18826293945</ele>
        <time>2014-12-28T08:29:15.000Z</time>
      </trkpt>
      <trkpt lat="43.76336" lon="4.77705">
        <ele>191.08888244629</ele>
        <time>2014-12-28T08:29:18.000Z</time>
      </trkpt>
      <trkpt lat="43.76341" lon="4.77704">
        <ele>191.26895141602</ele>
        <time>2014-12-28T08:29:21.000Z</time>
      </trkpt>
      <trkpt lat="43.76345" lon="4.77704">
        <ele>191.65463256836</ele>
        <time>2014-12-28T08:29:23.000Z</time>
      </trkpt>
      <trkpt lat="43.7635" lon="4.77704">
        <ele>192.20985412598</ele>
        <time>2014-12-28T08:29:25.000Z</time>
      </trkpt>
      <trkpt lat="43.76358" lon="4.77703">
        <ele>193.0514831543</ele>
        <time>2014-12-28T08:29:28.000Z</time>
      </trkpt>
      <trkpt lat="43.76362" lon="4.77702">
        <ele>194.0378112793</ele>
        <time>2014-12-28T08:29:30.000Z</time>
      </trkpt>
      <trkpt lat="43.76366" lon="4.777">
        <ele>194.94024658203</ele>
        <time>2014-12-28T08:29:32.000Z</time>
      </trkpt>
      <trkpt lat="43.76372" lon="4.77694">
        <ele>195.73091125488</ele>
        <time>2014-12-28T08:29:35.000Z</time>
      </trkpt>
      <trkpt lat="43.76375" lon="4.77689">
        <ele>196.27026367188</ele>
        <time>2014-12-28T08:29:37.000Z</time>
      </trkpt>
      <trkpt lat="43.76377" lon="4.77684">
        <ele>196.45425415039</ele>
        <time>2014-12-28T08:29:39.000Z</time>
      </trkpt>
      <trkpt lat="43.76379" lon="4.77674">
        <ele>196.24906921387</ele>
        <time>2014-12-28T08:29:42.000Z</time>
      </trkpt>
      <trkpt lat="43.76384" lon="4.77668">
        <ele>195.93864440918</ele>
        <time>2014-12-28T08:29:45.000Z</time>
      </trkpt>
      <trkpt lat="43.76388" lon="4.77665">
        <ele>195.76698303223</ele>
        <time>2014-12-28T08:29:47.000Z</time>
      </trkpt>
      <trkpt lat="43.76392" lon="4.77662">
        <ele>195.78637695312</ele>
        <time>2014-12-28T08:29:50.000Z</time>
      </trkpt>
      <trkpt lat="43.76394" lon="4.77659">
        <ele>195.92083740234</ele>
        <time>2014-12-28T08:29:52.000Z</time>
      </trkpt>
      <trkpt lat="43.76396" lon="4.77653">
        <ele>196.22523498535</ele>
        <time>2014-12-28T08:29:54.000Z</time>
      </trkpt>
      <trkpt lat="43.76399" lon="4.77645">
        <ele>196.51054382324</ele>
        <time>2014-12-28T08:29:57.000Z</time>
      </trkpt>
      <trkpt lat="43.76401" lon="4.77639">
        <ele>196.58181762695</ele>
        <time>2014-12-28T08:30:00.000Z</time>
      </trkpt>
      <trkpt lat="43.76403" lon="4.77635">
        <ele>196.4893951416</ele>
        <time>2014-12-28T08:30:02.000Z</time>
      </trkpt>
      <trkpt lat="43.76405" lon="4.77631">
        <ele>196.35589599609</ele>
        <time>2014-12-28T08:30:04.000Z</time>
      </trkpt>
      <trkpt lat="43.76408" lon="4.77624">
        <ele>196.33004760742</ele>
        <time>2014-12-28T08:30:07.000Z</time>
      </trkpt>
      <trkpt lat="43.7641" lon="4.7762">
        <ele>196.34036254883</ele>
        <time>2014-12-28T08:30:09.000Z</time>
      </trkpt>
      <trkpt lat="43.76412" lon="4.77615">
        <ele>196.37004089355</ele>
        <time>2014-12-28T08:30:11.000Z</time>
      </trkpt>
      <trkpt lat="43.76414" lon="4.77606">
        <ele>196.30410766602</ele>
        <time>2014-12-28T08:30:14.000Z</time>
      </trkpt>
      <trkpt lat="43.76415" lon="4.77602">
        <ele>196.18374633789</ele>
        <time>2014-12-28T08:30:16.000Z</time>
      </trkpt>
      <trkpt lat="43.76417" lon="4.77598">
        <ele>196.0690612793</ele>
        <time>2014-12-28T08:30:18.000Z</time>
      </trkpt>
      <trkpt lat="43.7642" lon="4.77594">
        <ele>195.92457580566</ele>
        <time>2014-12-28T08:30:20.000Z</time>
      </trkpt>
      <trkpt lat="43.76424" lon="4.77587">
        <ele>195.76736450195</ele>
        <time>2014-12-28T08:30:23.000Z</time>
      </trkpt>
      <trkpt lat="43.76425" lon="4.77581">
        <ele>195.63484191895</ele>
        <time>2014-12-28T08:30:25.000Z</time>
      </trkpt>
      <trkpt lat="43.76427" lon="4.77572">
        <ele>195.38009643555</ele>
        <time>2014-12-28T08:30:28.000Z</time>
      </trkpt>
      <trkpt lat="43.76429" lon="4.77567">
        <ele>194.9921875</ele>
        <time>2014-12-28T08:30:30.000Z</time>
      </trkpt>
      <trkpt lat="43.76431" lon="4.7756">
        <ele>194.51718139648</ele>
        <time>2014-12-28T08:30:33.000Z</time>
      </trkpt>
      <trkpt lat="43.76433" lon="4.77555">
        <ele>194.02076721191</ele>
        <time>2014-12-28T08:30:35.000Z</time>
      </trkpt>
      <trkpt lat="43.76438" lon="4.77549">
        <ele>193.56924438477</ele>
        <time>2014-12-28T08:30:38.000Z</time>
      </trkpt>
      <trkpt lat="43.76439" lon="4.77544">
        <ele>193.21151733398</ele>
        <time>2014-12-28T08:30:40.000Z</time>
      </trkpt>
      <trkpt lat="43.76443" lon="4.77538">
        <ele>192.89727783203</ele>
        <time>2014-12-28T08:30:43.000Z</time>
      </trkpt>
      <trkpt lat="43.76446" lon="4.77534">
        <ele>192.6861114502</ele>
        <time>2014-12-28T08:30:45.000Z</time>
      </trkpt>
      <trkpt lat="43.7645" lon="4.77529">
        <ele>192.5241394043</ele>
        <time>2014-12-28T08:30:48.000Z</time>
      </trkpt>
      <trkpt lat="43.76455" lon="4.77527">
        <ele>192.49885559082</ele>
        <time>2014-12-28T08:30:51.000Z</time>
      </trkpt>
      <trkpt lat="43.76458" lon="4.77525">
        <ele>192.59315490723</ele>
        <time>2014-12-28T08:30:53.000Z</time>
      </trkpt>
      <trkpt lat="43.76463" lon="4.77523">
        <ele>192.8180847168</ele>
        <time>2014-12-28T08:30:56.000Z</time>
      </trkpt>
      <trkpt lat="43.76469" lon="4.77522">
        <ele>193.2027130127</ele>
        <time>2014-12-28T08:30:59.000Z</time>
      </trkpt>
      <trkpt lat="43.76473" lon="4.7752">
        <ele>193.70143127441</ele>
        <time>2014-12-28T08:31:01.000Z</time>
      </trkpt>
      <trkpt lat="43.76477" lon="4.77518">
        <ele>194.17001342773</ele>
        <time>2014-12-28T08:31:03.000Z</time>
      </trkpt>
      <trkpt lat="43.76483" lon="4.77515">
        <ele>194.67498779297</ele>
        <time>2014-12-28T08:31:06.000Z</time>
      </trkpt>
      <trkpt lat="43.76487" lon="4.77513">
        <ele>195.16098022461</ele>
        <time>2014-12-28T08:31:09.000Z</time>
      </trkpt>
      <trkpt lat="43.76491" lon="4.77512">
        <ele>195.57823181152</ele>
        <time>2014-12-28T08:31:12.000Z</time>
      </trkpt>
      <trkpt lat="43.76494" lon="4.77511">
        <ele>195.95462036133</ele>
        <time>2014-12-28T08:31:14.000Z</time>
      </trkpt>
      <trkpt lat="43.765" lon="4.77508">
        <ele>196.36524963379</ele>
        <time>2014-12-28T08:31:17.000Z</time>
      </trkpt>
      <trkpt lat="43.76505" lon="4.77507">
        <ele>196.55819702148</ele>
        <time>2014-12-28T08:31:20.000Z</time>
      </trkpt>
      <trkpt lat="43.76509" lon="4.77505">
        <ele>196.55305480957</ele>
        <time>2014-12-28T08:31:23.000Z</time>
      </trkpt>
      <trkpt lat="43.76512" lon="4.77502">
        <ele>196.34066772461</ele>
        <time>2014-12-28T08:31:26.000Z</time>
      </trkpt>
      <trkpt lat="43.76518" lon="4.775">
        <ele>195.91220092773</ele>
        <time>2014-12-28T08:31:29.000Z</time>
      </trkpt>
      <trkpt lat="43.76524" lon="4.775">
        <ele>195.25807189941</ele>
        <time>2014-12-28T08:31:32.000Z</time>
      </trkpt>
      <trkpt lat="43.76529" lon="4.775">
        <ele>194.66079711914</ele>
        <time>2014-12-28T08:31:34.000Z</time>
      </trkpt>
      <trkpt lat="43.76534" lon="4.77502">
        <ele>194.14091491699</ele>
        <time>2014-12-28T08:31:37.000Z</time>
      </trkpt>
      <trkpt lat="43.76537" lon="4.77504">
        <ele>193.70854187012</ele>
        <time>2014-12-28T08:31:39.000Z</time>
      </trkpt>
      <trkpt lat="43.76542" lon="4.77507">
        <ele>193.36514282227</ele>
        <time>2014-12-28T08:31:42.000Z</time>
      </trkpt>
      <trkpt lat="43.76545" lon="4.77509">
        <ele>193.0954284668</ele>
        <time>2014-12-28T08:31:44.000Z</time>
      </trkpt>
      <trkpt lat="43.7655" lon="4.77513">
        <ele>192.8464050293</ele>
        <time>2014-12-28T08:31:47.000Z</time>
      </trkpt>
      <trkpt lat="43.76556" lon="4.7752">
        <ele>192.54963684082</ele>
        <time>2014-12-28T08:31:50.000Z</time>
      </trkpt>
      <trkpt lat="43.76558" lon="4.77531">
        <ele>192.27291870117</ele>
        <time>2014-12-28T08:31:53.000Z</time>
      </trkpt>
      <trkpt lat="43.76556" lon="4.77538">
        <ele>192.15219116211</ele>
        <time>2014-12-28T08:31:55.000Z</time>
      </trkpt>
      <trkpt lat="43.76553" lon="4.77542">
        <ele>192.23403930664</ele>
        <time>2014-12-28T08:31:57.000Z</time>
      </trkpt>
      <trkpt lat="43.76547" lon="4.77547">
        <ele>192.62460327148</ele>
        <time>2014-12-28T08:32:00.000Z</time>
      </trkpt>
      <trkpt lat="43.76542" lon="4.77554">
        <ele>193.43211364746</ele>
        <time>2014-12-28T08:32:03.000Z</time>
      </trkpt>
      <trkpt lat="43.76537" lon="4.77558">
        <ele>194.47067260742</ele>
        <time>2014-12-28T08:32:05.000Z</time>
      </trkpt>
      <trkpt lat="43.76535" lon="4.77562">
        <ele>195.55305480957</ele>
        <time>2014-12-28T08:32:07.000Z</time>
      </trkpt>
      <trkpt lat="43.7653" lon="4.77568">
        <ele>196.81210327148</ele>
        <time>2014-12-28T08:32:10.000Z</time>
      </trkpt>
      <trkpt lat="43.76526" lon="4.77575">
        <ele>198.16159057617</ele>
        <time>2014-12-28T08:32:13.000Z</time>
      </trkpt>
      <trkpt lat="43.76518" lon="4.77578">
        <ele>199.6678314209</ele>
        <time>2014-12-28T08:32:16.000Z</time>
      </trkpt>
      <trkpt lat="43.76515" lon="4.77583">
        <ele>201.24935913086</ele>
        <time>2014-12-28T08:32:18.000Z</time>
      </trkpt>
      <trkpt lat="43.76511" lon="4.77591">
        <ele>202.75009155273</ele>
        <time>2014-12-28T08:32:21.000Z</time>
      </trkpt>
      <trkpt lat="43.76507" lon="4.776">
        <ele>203.85946655273</ele>
        <time>2014-12-28T08:32:24.000Z</time>
      </trkpt>
      <trkpt lat="43.76504" lon="4.77609">
        <ele>204.59494018555</ele>
        <time>2014-12-28T08:32:27.000Z</time>
      </trkpt>
      <trkpt lat="43.76499" lon="4.77616">
        <ele>204.91088867188</ele>
        <time>2014-12-28T08:32:30.000Z</time>
      </trkpt>
      <trkpt lat="43.76494" lon="4.7762">
        <ele>204.76174926758</ele>
        <time>2014-12-28T08:32:32.000Z</time>
      </trkpt>
      <trkpt lat="43.76487" lon="4.77626">
        <ele>204.35852050781</ele>
        <time>2014-12-28T08:32:35.000Z</time>
      </trkpt>
      <trkpt lat="43.76483" lon="4.7763">
        <ele>203.9016418457</ele>
        <time>2014-12-28T08:32:37.000Z</time>
      </trkpt>
      <trkpt lat="43.76478" lon="4.77634">
        <ele>203.38911437988</ele>
        <time>2014-12-28T08:32:39.000Z</time>
      </trkpt>
      <trkpt lat="43.76471" lon="4.7764">
        <ele>202.74136352539</ele>
        <time>2014-12-28T08:32:42.000Z</time>
      </trkpt>
      <trkpt lat="43.76467" lon="4.77646">
        <ele>202.2205657959</ele>
        <time>2014-12-28T08:32:44.000Z</time>
      </trkpt>
      <trkpt lat="43.76462" lon="4.77655">
        <ele>201.87229919434</ele>
        <time>2014-12-28T08:32:47.000Z</time>
      </trkpt>
      <trkpt lat="43.7646" lon="4.7766">
        <ele>201.63696289062</ele>
        <time>2014-12-28T08:32:49.000Z</time>
      </trkpt>
      <trkpt lat="43.76456" lon="4.77666">
        <ele>201.52885437012</ele>
        <time>2014-12-28T08:32:51.000Z</time>
      </trkpt>
      <trkpt lat="43.76451" lon="4.77676">
        <ele>201.61909484863</ele>
        <time>2014-12-28T08:32:54.000Z</time>
      </trkpt>
      <trkpt lat="43.76446" lon="4.77685">
        <ele>201.8911895752</ele>
        <time>2014-12-28T08:32:57.000Z</time>
      </trkpt>
      <trkpt lat="43.76443" lon="4.77691">
        <ele>202.27777099609</ele>
        <time>2014-12-28T08:32:59.000Z</time>
      </trkpt>
      <trkpt lat="43.76441" lon="4.77701">
        <ele>202.81764221191</ele>
        <time>2014-12-28T08:33:02.000Z</time>
      </trkpt>
      <trkpt lat="43.76439" lon="4.7771">
        <ele>203.45216369629</ele>
        <time>2014-12-28T08:33:05.000Z</time>
      </trkpt>
      <trkpt lat="43.76438" lon="4.77716">
        <ele>204.09805297852</ele>
        <time>2014-12-28T08:33:07.000Z</time>
      </trkpt>
      <trkpt lat="43.76436" lon="4.77727">
        <ele>204.78909301758</ele>
        <time>2014-12-28T08:33:10.000Z</time>
      </trkpt>
      <trkpt lat="43.76435" lon="4.77734">
        <ele>205.50581359863</ele>
        <time>2014-12-28T08:33:12.000Z</time>
      </trkpt>
      <trkpt lat="43.76433" lon="4.77745">
        <ele>206.30424499512</ele>
        <time>2014-12-28T08:33:15.000Z</time>
      </trkpt>
      <trkpt lat="43.76431" lon="4.77755">
        <ele>207.15209960938</ele>
        <time>2014-12-28T08:33:18.000Z</time>
      </trkpt>
      <trkpt lat="43.7643" lon="4.77762">
        <ele>207.98913574219</ele>
        <time>2014-12-28T08:33:20.000Z</time>
      </trkpt>
      <trkpt lat="43.7643" lon="4.77771">
        <ele>208.70510864258</ele>
        <time>2014-12-28T08:33:22.000Z</time>
      </trkpt>
      <trkpt lat="43.76428" lon="4.77784">
        <ele>209.45840454102</ele>
        <time>2014-12-28T08:33:25.000Z</time>
      </trkpt>
      <trkpt lat="43.76427" lon="4.77791">
        <ele>210.09831237793</ele>
        <time>2014-12-28T08:33:27.000Z</time>
      </trkpt>
      <trkpt lat="43.76424" lon="4.77801">
        <ele>210.75512695312</ele>
        <time>2014-12-28T08:33:30.000Z</time>
      </trkpt>
      <trkpt lat="43.76418" lon="4.7781">
        <ele>211.67631530762</ele>
        <time>2014-12-28T08:33:33.000Z</time>
      </trkpt>
      <trkpt lat="43.76413" lon="4.77818">
        <ele>212.61982727051</ele>
        <time>2014-12-28T08:33:36.000Z</time>
      </trkpt>
      <trkpt lat="43.76407" lon="4.77825">
        <ele>213.45959472656</ele>
        <time>2014-12-28T08:33:39.000Z</time>
      </trkpt>
      <trkpt lat="43.764" lon="4.77832">
        <ele>214.26786804199</ele>
        <time>2014-12-28T08:33:42.000Z</time>
      </trkpt>
      <trkpt lat="43.76396" lon="4.77836">
        <ele>214.91549682617</ele>
        <time>2014-12-28T08:33:44.000Z</time>
      </trkpt>
      <trkpt lat="43.76389" lon="4.77842">
        <ele>215.25509643555</ele>
        <time>2014-12-28T08:33:47.000Z</time>
      </trkpt>
      <trkpt lat="43.76385" lon="4.77852">
        <ele>215.587890625</ele>
        <time>2014-12-28T08:33:50.000Z</time>
      </trkpt>
      <trkpt lat="43.7638" lon="4.77863">
        <ele>215.970703125</ele>
        <time>2014-12-28T08:33:53.000Z</time>
      </trkpt>
      <trkpt lat="43.76376" lon="4.77873">
        <ele>216.3752746582</ele>
        <time>2014-12-28T08:33:56.000Z</time>
      </trkpt>
      <trkpt lat="43.76372" lon="4.77884">
        <ele>216.86845397949</ele>
        <time>2014-12-28T08:33:59.000Z</time>
      </trkpt>
      <trkpt lat="43.7637" lon="4.77891">
        <ele>217.38607788086</ele>
        <time>2014-12-28T08:34:01.000Z</time>
      </trkpt>
      <trkpt lat="43.76366" lon="4.77901">
        <ele>217.96366882324</ele>
        <time>2014-12-28T08:34:04.000Z</time>
      </trkpt>
      <trkpt lat="43.76363" lon="4.77907">
        <ele>218.54489135742</ele>
        <time>2014-12-28T08:34:06.000Z</time>
      </trkpt>
      <trkpt lat="43.76357" lon="4.77915">
        <ele>219.20309448242</ele>
        <time>2014-12-28T08:34:09.000Z</time>
      </trkpt>
      <trkpt lat="43.76353" lon="4.77923">
        <ele>219.84622192383</ele>
        <time>2014-12-28T08:34:12.000Z</time>
      </trkpt>
      <trkpt lat="43.76351" lon="4.77931">
        <ele>220.47891235352</ele>
        <time>2014-12-28T08:34:15.000Z</time>
      </trkpt>
      <trkpt lat="43.7635" lon="4.77943">
        <ele>221.04577636719</ele>
        <time>2014-12-28T08:34:18.000Z</time>
      </trkpt>
      <trkpt lat="43.7635" lon="4.77951">
        <ele>221.5541229248</ele>
        <time>2014-12-28T08:34:20.000Z</time>
      </trkpt>
      <trkpt lat="43.76347" lon="4.77961">
        <ele>221.95852661133</ele>
        <time>2014-12-28T08:34:23.000Z</time>
      </trkpt>
      <trkpt lat="43.76344" lon="4.77969">
        <ele>222.31900024414</ele>
        <time>2014-12-28T08:34:26.000Z</time>
      </trkpt>
      <trkpt lat="43.76338" lon="4.77975">
        <ele>222.68627929688</ele>
        <time>2014-12-28T08:34:29.000Z</time>
      </trkpt>
      <trkpt lat="43.76334" lon="4.77981">
        <ele>223.03202819824</ele>
        <time>2014-12-28T08:34:32.000Z</time>
      </trkpt>
      <trkpt lat="43.76331" lon="4.77985">
        <ele>223.37275695801</ele>
        <time>2014-12-28T08:34:34.000Z</time>
      </trkpt>
      <trkpt lat="43.76325" lon="4.77987">
        <ele>223.70364379883</ele>
        <time>2014-12-28T08:34:37.000Z</time>
      </trkpt>
      <trkpt lat="43.7632" lon="4.77986">
        <ele>224.01977539062</ele>
        <time>2014-12-28T08:34:39.000Z</time>
      </trkpt>
      <trkpt lat="43.76314" lon="4.77985">
        <ele>224.31225585938</ele>
        <time>2014-12-28T08:34:42.000Z</time>
      </trkpt>
      <trkpt lat="43.7631" lon="4.77985">
        <ele>224.60336303711</ele>
        <time>2014-12-28T08:34:44.000Z</time>
      </trkpt>
      <trkpt lat="43.76302" lon="4.77983">
        <ele>224.9027557373</ele>
        <time>2014-12-28T08:34:47.000Z</time>
      </trkpt>
      <trkpt lat="43.76298" lon="4.77981">
        <ele>225.15347290039</ele>
        <time>2014-12-28T08:34:49.000Z</time>
      </trkpt>
      <trkpt lat="43.76294" lon="4.77979">
        <ele>225.36108398438</ele>
        <time>2014-12-28T08:34:51.000Z</time>
      </trkpt>
      <trkpt lat="43.76289" lon="4.77977">
        <ele>225.52206420898</ele>
        <time>2014-12-28T08:34:54.000Z</time>
      </trkpt>
      <trkpt lat="43.76284" lon="4.77975">
        <ele>225.62585449219</ele>
        <time>2014-12-28T08:34:57.000Z</time>
      </trkpt>
      <trkpt lat="43.76278" lon="4.77974">
        <ele>225.70178222656</ele>
        <time>2014-12-28T08:34:59.000Z</time>
      </trkpt>
      <trkpt lat="43.76269" lon="4.77973">
        <ele>225.80697631836</ele>
        <time>2014-12-28T08:35:02.000Z</time>
      </trkpt>
      <trkpt lat="43.76261" lon="4.77971">
        <ele>225.88607788086</ele>
        <time>2014-12-28T08:35:04.000Z</time>
      </trkpt>
      <trkpt lat="43.76244" lon="4.7797">
        <ele>226.15141296387</ele>
        <time>2014-12-28T08:35:07.000Z</time>
      </trkpt>
      <trkpt lat="43.76231" lon="4.77967">
        <ele>226.63150024414</ele>
        <time>2014-12-28T08:35:10.000Z</time>
      </trkpt>
      <trkpt lat="43.76213" lon="4.77957">
        <ele>227.17965698242</ele>
        <time>2014-12-28T08:35:13.000Z</time>
      </trkpt>
      <trkpt lat="43.76197" lon="4.77949">
        <ele>227.72122192383</ele>
        <time>2014-12-28T08:35:16.000Z</time>
      </trkpt>
      <trkpt lat="43.7618" lon="4.7794">
        <ele>228.26069641113</ele>
        <time>2014-12-28T08:35:19.000Z</time>
      </trkpt>
      <trkpt lat="43.76167" lon="4.77934">
        <ele>228.58499145508</ele>
        <time>2014-12-28T08:35:21.000Z</time>
      </trkpt>
      <trkpt lat="43.76159" lon="4.7793">
        <ele>228.71896362305</ele>
        <time>2014-12-28T08:35:23.000Z</time>
      </trkpt>
      <trkpt lat="43.76143" lon="4.7792">
        <ele>228.75280761719</ele>
        <time>2014-12-28T08:35:26.000Z</time>
      </trkpt>
      <trkpt lat="43.76136" lon="4.77917">
        <ele>228.79565429688</ele>
        <time>2014-12-28T08:35:28.000Z</time>
      </trkpt>
      <trkpt lat="43.76123" lon="4.77909">
        <ele>228.89260864258</ele>
        <time>2014-12-28T08:35:31.000Z</time>
      </trkpt>
      <trkpt lat="43.76115" lon="4.77904">
        <ele>229.04972839355</ele>
        <time>2014-12-28T08:35:33.000Z</time>
      </trkpt>
      <trkpt lat="43.76104" lon="4.779">
        <ele>229.3757019043</ele>
        <time>2014-12-28T08:35:36.000Z</time>
      </trkpt>
      <trkpt lat="43.76097" lon="4.77897">
        <ele>229.82455444336</ele>
        <time>2014-12-28T08:35:38.000Z</time>
      </trkpt>
      <trkpt lat="43.76087" lon="4.77897">
        <ele>230.49374389648</ele>
        <time>2014-12-28T08:35:41.000Z</time>
      </trkpt>
      <trkpt lat="43.7608" lon="4.77897">
        <ele>231.20527648926</ele>
        <time>2014-12-28T08:35:44.000Z</time>
      </trkpt>
      <trkpt lat="43.76073" lon="4.77898">
        <ele>231.79898071289</ele>
        <time>2014-12-28T08:35:47.000Z</time>
      </trkpt>
      <trkpt lat="43.76066" lon="4.77898">
        <ele>232.09811401367</ele>
        <time>2014-12-28T08:35:50.000Z</time>
      </trkpt>
      <trkpt lat="43.76059" lon="4.77897">
        <ele>232.17053222656</ele>
        <time>2014-12-28T08:35:52.000Z</time>
      </trkpt>
      <trkpt lat="43.76053" lon="4.77897">
        <ele>231.88107299805</ele>
        <time>2014-12-28T08:35:55.000Z</time>
      </trkpt>
      <trkpt lat="43.7605" lon="4.77896">
        <ele>231.45910644531</ele>
        <time>2014-12-28T08:35:58.000Z</time>
      </trkpt>
      <trkpt lat="43.76048" lon="4.77896">
        <ele>231.07231140137</ele>
        <time>2014-12-28T08:36:00.000Z</time>
      </trkpt>
      <trkpt lat="43.76042" lon="4.77893">
        <ele>230.68022155762</ele>
        <time>2014-12-28T08:36:03.000Z</time>
      </trkpt>
      <trkpt lat="43.76038" lon="4.77891">
        <ele>230.33773803711</ele>
        <time>2014-12-28T08:36:06.000Z</time>
      </trkpt>
      <trkpt lat="43.76037" lon="4.77892">
        <ele>230.07905578613</ele>
        <time>2014-12-28T08:36:14.000Z</time>
      </trkpt>
      <trkpt lat="43.76038" lon="4.77893">
        <ele>229.89138793945</ele>
        <time>2014-12-28T08:36:19.000Z</time>
      </trkpt>
      <trkpt lat="43.7604" lon="4.7789">
        <ele>229.72399902344</ele>
        <time>2014-12-28T08:36:22.000Z</time>
      </trkpt>
      <trkpt lat="43.7604" lon="4.77889">
        <ele>229.65351867676</ele>
        <time>2014-12-28T08:36:34.000Z</time>
      </trkpt>
      <trkpt lat="43.7604" lon="4.77889">
        <ele>229.65351867676</ele>
        <time>2014-12-28T08:36:54.000Z</time>
      </trkpt>
      <trkpt lat="43.76041" lon="4.77888">
        <ele>229.63969421387</ele>
        <time>2014-12-28T08:37:06.000Z</time>
      </trkpt>
      <trkpt lat="43.76041" lon="4.77888">
        <ele>229.63969421387</ele>
        <time>2014-12-28T08:37:26.000Z</time>
      </trkpt>
      <trkpt lat="43.76042" lon="4.77889">
        <ele>229.64614868164</ele>
        <time>2014-12-28T08:37:32.000Z</time>
      </trkpt>
      <trkpt lat="43.76042" lon="4.77889">
        <ele>229.64614868164</ele>
        <time>2014-12-28T08:37:52.000Z</time>
      </trkpt>
      <trkpt lat="43.76041" lon="4.77889">
        <ele>229.62544250488</ele>
        <time>2014-12-28T08:37:52.000Z</time>
      </trkpt>
      <trkpt lat="43.76035" lon="4.77894">
        <ele>229.61776733398</ele>
        <time>2014-12-28T08:37:55.000Z</time>
      </trkpt>
      <trkpt lat="43.76027" lon="4.77907">
        <ele>229.62773132324</ele>
        <time>2014-12-28T08:37:58.000Z</time>
      </trkpt>
      <trkpt lat="43.76022" lon="4.7792">
        <ele>229.62873840332</ele>
        <time>2014-12-28T08:38:00.000Z</time>
      </trkpt>
      <trkpt lat="43.76014" lon="4.77934">
        <ele>229.54895019531</ele>
        <time>2014-12-28T08:38:02.000Z</time>
      </trkpt>
      <trkpt lat="43.76002" lon="4.77965">
        <ele>229.31649780273</ele>
        <time>2014-12-28T08:38:05.000Z</time>
      </trkpt>
      <trkpt lat="43.75997" lon="4.77991">
        <ele>229.08251953125</ele>
        <time>2014-12-28T08:38:08.000Z</time>
      </trkpt>
      <trkpt lat="43.75991" lon="4.78015">
        <ele>228.80191040039</ele>
        <time>2014-12-28T08:38:11.000Z</time>
      </trkpt>
      <trkpt lat="43.75994" lon="4.78037">
        <ele>228.66665649414</ele>
        <time>2014-12-28T08:38:13.000Z</time>
      </trkpt>
      <trkpt lat="43.75983" lon="4.78057">
        <ele>228.26937866211</ele>
        <time>2014-12-28T08:38:16.000Z</time>
      </trkpt>
      <trkpt lat="43.75971" lon="4.78059">
        <ele>227.61123657227</ele>
        <time>2014-12-28T08:38:18.000Z</time>
      </trkpt>
      <trkpt lat="43.75959" lon="4.78044">
        <ele>226.59936523438</ele>
        <time>2014-12-28T08:38:20.000Z</time>
      </trkpt>
      <trkpt lat="43.75952" lon="4.78021">
        <ele>225.50289916992</ele>
        <time>2014-12-28T08:38:23.000Z</time>
      </trkpt>
      <trkpt lat="43.75944" lon="4.77996">
        <ele>224.13464355469</ele>
        <time>2014-12-28T08:38:26.000Z</time>
      </trkpt>
      <trkpt lat="43.75937" lon="4.77982">
        <ele>222.77641296387</ele>
        <time>2014-12-28T08:38:28.000Z</time>
      </trkpt>
      <trkpt lat="43.75941" lon="4.77952">
        <ele>221.64990234375</ele>
        <time>2014-12-28T08:38:31.000Z</time>
      </trkpt>
      <trkpt lat="43.75938" lon="4.77929">
        <ele>220.55529785156</ele>
        <time>2014-12-28T08:38:34.000Z</time>
      </trkpt>
      <trkpt lat="43.75933" lon="4.77914">
        <ele>219.29501342773</ele>
        <time>2014-12-28T08:38:36.000Z</time>
      </trkpt>
      <trkpt lat="43.75927" lon="4.77891">
        <ele>217.89868164062</ele>
        <time>2014-12-28T08:38:39.000Z</time>
      </trkpt>
      <trkpt lat="43.75923" lon="4.77876">
        <ele>216.62446594238</ele>
        <time>2014-12-28T08:38:41.000Z</time>
      </trkpt>
      <trkpt lat="43.75918" lon="4.77848">
        <ele>215.2484588623</ele>
        <time>2014-12-28T08:38:44.000Z</time>
      </trkpt>
      <trkpt lat="43.75912" lon="4.7782">
        <ele>214.18142700195</ele>
        <time>2014-12-28T08:38:47.000Z</time>
      </trkpt>
      <trkpt lat="43.75898" lon="4.77807">
        <ele>213.41232299805</ele>
        <time>2014-12-28T08:38:49.000Z</time>
      </trkpt>
      <trkpt lat="43.75887" lon="4.77801">
        <ele>212.85647583008</ele>
        <time>2014-12-28T08:38:52.000Z</time>
      </trkpt>
      <trkpt lat="43.75875" lon="4.77802">
        <ele>212.2639465332</ele>
        <time>2014-12-28T08:38:55.000Z</time>
      </trkpt>
      <trkpt lat="43.75868" lon="4.778">
        <ele>211.89785766602</ele>
        <time>2014-12-28T08:38:57.000Z</time>
      </trkpt>
      <trkpt lat="43.75856" lon="4.77794">
        <ele>211.54875183105</ele>
        <time>2014-12-28T08:39:00.000Z</time>
      </trkpt>
      <trkpt lat="43.75848" lon="4.77791">
        <ele>211.15628051758</ele>
        <time>2014-12-28T08:39:02.000Z</time>
      </trkpt>
      <trkpt lat="43.75837" lon="4.77794">
        <ele>210.57109069824</ele>
        <time>2014-12-28T08:39:05.000Z</time>
      </trkpt>
      <trkpt lat="43.75827" lon="4.77798">
        <ele>209.88882446289</ele>
        <time>2014-12-28T08:39:08.000Z</time>
      </trkpt>
      <trkpt lat="43.7582" lon="4.77804">
        <ele>208.9287109375</ele>
        <time>2014-12-28T08:39:11.000Z</time>
      </trkpt>
      <trkpt lat="43.75811" lon="4.77806">
        <ele>207.701171875</ele>
        <time>2014-12-28T08:39:14.000Z</time>
      </trkpt>
      <trkpt lat="43.75803" lon="4.77804">
        <ele>206.45063781738</ele>
        <time>2014-12-28T08:39:16.000Z</time>
      </trkpt>
      <trkpt lat="43.75793" lon="4.77799">
        <ele>205.44128417969</ele>
        <time>2014-12-28T08:39:19.000Z</time>
      </trkpt>
      <trkpt lat="43.75784" lon="4.77792">
        <ele>204.81408691406</ele>
        <time>2014-12-28T08:39:22.000Z</time>
      </trkpt>
      <trkpt lat="43.75776" lon="4.77784">
        <ele>204.68395996094</ele>
        <time>2014-12-28T08:39:25.000Z</time>
      </trkpt>
      <trkpt lat="43.75769" lon="4.77775">
        <ele>205.02233886719</ele>
        <time>2014-12-28T08:39:28.000Z</time>
      </trkpt>
      <trkpt lat="43.75765" lon="4.77768">
        <ele>205.58483886719</ele>
        <time>2014-12-28T08:39:30.000Z</time>
      </trkpt>
      <trkpt lat="43.7576" lon="4.7776">
        <ele>206.36926269531</ele>
        <time>2014-12-28T08:39:32.000Z</time>
      </trkpt>
      <trkpt lat="43.75748" lon="4.77753">
        <ele>207.0853729248</ele>
        <time>2014-12-28T08:39:35.000Z</time>
      </trkpt>
      <trkpt lat="43.75743" lon="4.7775">
        <ele>207.60537719727</ele>
        <time>2014-12-28T08:39:37.000Z</time>
      </trkpt>
      <trkpt lat="43.75736" lon="4.77745">
        <ele>207.72644042969</ele>
        <time>2014-12-28T08:39:39.000Z</time>
      </trkpt>
      <trkpt lat="43.75732" lon="4.77741">
        <ele>207.59005737305</ele>
        <time>2014-12-28T08:39:41.000Z</time>
      </trkpt>
      <trkpt lat="43.75721" lon="4.77737">
        <ele>206.92610168457</ele>
        <time>2014-12-28T08:39:44.000Z</time>
      </trkpt>
      <trkpt lat="43.75713" lon="4.77735">
        <ele>206.04235839844</ele>
        <time>2014-12-28T08:39:46.000Z</time>
      </trkpt>
      <trkpt lat="43.75706" lon="4.77729">
        <ele>205.02624511719</ele>
        <time>2014-12-28T08:39:48.000Z</time>
      </trkpt>
      <trkpt lat="43.75695" lon="4.77722">
        <ele>203.921875</ele>
        <time>2014-12-28T08:39:51.000Z</time>
      </trkpt>
      <trkpt lat="43.7569" lon="4.77716">
        <ele>202.77563476562</ele>
        <time>2014-12-28T08:39:53.000Z</time>
      </trkpt>
      <trkpt lat="43.75688" lon="4.77707">
        <ele>201.91125488281</ele>
        <time>2014-12-28T08:39:55.000Z</time>
      </trkpt>
      <trkpt lat="43.75693" lon="4.77691">
        <ele>201.44152832031</ele>
        <time>2014-12-28T08:39:58.000Z</time>
      </trkpt>
      <trkpt lat="43.75697" lon="4.7768">
        <ele>201.28869628906</ele>
        <time>2014-12-28T08:40:00.000Z</time>
      </trkpt>
      <trkpt lat="43.75697" lon="4.77667">
        <ele>201.46765136719</ele>
        <time>2014-12-28T08:40:02.000Z</time>
      </trkpt>
      <trkpt lat="43.75695" lon="4.77653">
        <ele>201.39181518555</ele>
        <time>2014-12-28T08:40:04.000Z</time>
      </trkpt>
      <trkpt lat="43.75694" lon="4.77631">
        <ele>200.77516174316</ele>
        <time>2014-12-28T08:40:07.000Z</time>
      </trkpt>
      <trkpt lat="43.75697" lon="4.77617">
        <ele>199.71047973633</ele>
        <time>2014-12-28T08:40:09.000Z</time>
      </trkpt>
      <trkpt lat="43.75705" lon="4.77607">
        <ele>198.41539001465</ele>
        <time>2014-12-28T08:40:11.000Z</time>
      </trkpt>
      <trkpt lat="43.75723" lon="4.77603">
        <ele>197.35504150391</ele>
        <time>2014-12-28T08:40:14.000Z</time>
      </trkpt>
      <trkpt lat="43.75739" lon="4.77613">
        <ele>197.34915161133</ele>
        <time>2014-12-28T08:40:17.000Z</time>
      </trkpt>
      <trkpt lat="43.75755" lon="4.7762">
        <ele>198.51591491699</ele>
        <time>2014-12-28T08:40:20.000Z</time>
      </trkpt>
      <trkpt lat="43.7577" lon="4.77612">
        <ele>200.16195678711</ele>
        <time>2014-12-28T08:40:23.000Z</time>
      </trkpt>
      <trkpt lat="43.75782" lon="4.77612">
        <ele>202.23617553711</ele>
        <time>2014-12-28T08:40:25.000Z</time>
      </trkpt>
      <trkpt lat="43.75793" lon="4.77601">
        <ele>204.10749816895</ele>
        <time>2014-12-28T08:40:27.000Z</time>
      </trkpt>
      <trkpt lat="43.75809" lon="4.77586">
        <ele>205.48001098633</ele>
        <time>2014-12-28T08:40:30.000Z</time>
      </trkpt>
      <trkpt lat="43.75809" lon="4.77564">
        <ele>206.38851928711</ele>
        <time>2014-12-28T08:40:33.000Z</time>
      </trkpt>
      <trkpt lat="43.758" lon="4.77559">
        <ele>206.78398132324</ele>
        <time>2014-12-28T08:40:35.000Z</time>
      </trkpt>
      <trkpt lat="43.75785" lon="4.77552">
        <ele>206.30776977539</ele>
        <time>2014-12-28T08:40:38.000Z</time>
      </trkpt>
      <trkpt lat="43.75778" lon="4.77543">
        <ele>205.49478149414</ele>
        <time>2014-12-28T08:40:40.000Z</time>
      </trkpt>
      <trkpt lat="43.75764" lon="4.77525">
        <ele>203.96742248535</ele>
        <time>2014-12-28T08:40:43.000Z</time>
      </trkpt>
      <trkpt lat="43.75751" lon="4.77505">
        <ele>201.67709350586</ele>
        <time>2014-12-28T08:40:46.000Z</time>
      </trkpt>
      <trkpt lat="43.7574" lon="4.77484">
        <ele>199.41264343262</ele>
        <time>2014-12-28T08:40:49.000Z</time>
      </trkpt>
      <trkpt lat="43.75731" lon="4.77472">
        <ele>197.44625854492</ele>
        <time>2014-12-28T08:40:51.000Z</time>
      </trkpt>
      <trkpt lat="43.75718" lon="4.77458">
        <ele>195.40715026855</ele>
        <time>2014-12-28T08:40:54.000Z</time>
      </trkpt>
      <trkpt lat="43.75718" lon="4.77444">
        <ele>194.06311035156</ele>
        <time>2014-12-28T08:40:56.000Z</time>
      </trkpt>
      <trkpt lat="43.75732" lon="4.77431">
        <ele>193.978515625</ele>
        <time>2014-12-28T08:40:59.000Z</time>
      </trkpt>
      <trkpt lat="43.75746" lon="4.77426">
        <ele>194.73681640625</ele>
        <time>2014-12-28T08:41:02.000Z</time>
      </trkpt>
      <trkpt lat="43.75758" lon="4.77422">
        <ele>196.27433776855</ele>
        <time>2014-12-28T08:41:05.000Z</time>
      </trkpt>
      <trkpt lat="43.75765" lon="4.77417">
        <ele>198.48893737793</ele>
        <time>2014-12-28T08:41:07.000Z</time>
      </trkpt>
      <trkpt lat="43.75767" lon="4.77409">
        <ele>200.80470275879</ele>
        <time>2014-12-28T08:41:09.000Z</time>
      </trkpt>
      <trkpt lat="43.75753" lon="4.77396">
        <ele>202.18753051758</ele>
        <time>2014-12-28T08:41:12.000Z</time>
      </trkpt>
      <trkpt lat="43.75739" lon="4.77387">
        <ele>202.61450195312</ele>
        <time>2014-12-28T08:41:15.000Z</time>
      </trkpt>
      <trkpt lat="43.75729" lon="4.77382">
        <ele>202.20729064941</ele>
        <time>2014-12-28T08:41:17.000Z</time>
      </trkpt>
      <trkpt lat="43.7572" lon="4.77377">
        <ele>201.1569519043</ele>
        <time>2014-12-28T08:41:19.000Z</time>
      </trkpt>
      <trkpt lat="43.75706" lon="4.77373">
        <ele>199.34338378906</ele>
        <time>2014-12-28T08:41:22.000Z</time>
      </trkpt>
      <trkpt lat="43.75695" lon="4.77363">
        <ele>197.52534484863</ele>
        <time>2014-12-28T08:41:25.000Z</time>
      </trkpt>
      <trkpt lat="43.75688" lon="4.77361">
        <ele>195.80505371094</ele>
        <time>2014-12-28T08:41:27.000Z</time>
      </trkpt>
      <trkpt lat="43.7568" lon="4.77353">
        <ele>194.13578796387</ele>
        <time>2014-12-28T08:41:29.000Z</time>
      </trkpt>
      <trkpt lat="43.75678" lon="4.77336">
        <ele>192.86233520508</ele>
        <time>2014-12-28T08:41:32.000Z</time>
      </trkpt>
      <trkpt lat="43.75678" lon="4.77324">
        <ele>192.03968811035</ele>
        <time>2014-12-28T08:41:34.000Z</time>
      </trkpt>
      <trkpt lat="43.75682" lon="4.77304">
        <ele>191.48452758789</ele>
        <time>2014-12-28T08:41:37.000Z</time>
      </trkpt>
      <trkpt lat="43.7569" lon="4.77285">
        <ele>191.45275878906</ele>
        <time>2014-12-28T08:41:40.000Z</time>
      </trkpt>
      <trkpt lat="43.7569" lon="4.7726">
        <ele>191.36741638184</ele>
        <time>2014-12-28T08:41:43.000Z</time>
      </trkpt>
      <trkpt lat="43.75693" lon="4.77233">
        <ele>190.89337158203</ele>
        <time>2014-12-28T08:41:46.000Z</time>
      </trkpt>
      <trkpt lat="43.75696" lon="4.77209">
        <ele>190.15405273438</ele>
        <time>2014-12-28T08:41:49.000Z</time>
      </trkpt>
      <trkpt lat="43.75702" lon="4.77187">
        <ele>189.19078063965</ele>
        <time>2014-12-28T08:41:52.000Z</time>
      </trkpt>
      <trkpt lat="43.75699" lon="4.77169">
        <ele>187.54211425781</ele>
        <time>2014-12-28T08:41:54.000Z</time>
      </trkpt>
      <trkpt lat="43.75699" lon="4.77151">
        <ele>185.75997924805</ele>
        <time>2014-12-28T08:41:56.000Z</time>
      </trkpt>
      <trkpt lat="43.75703" lon="4.77137">
        <ele>184.00393676758</ele>
        <time>2014-12-28T08:41:58.000Z</time>
      </trkpt>
      <trkpt lat="43.75726" lon="4.77142">
        <ele>183.32522583008</ele>
        <time>2014-12-28T08:42:01.000Z</time>
      </trkpt>
      <trkpt lat="43.75738" lon="4.77137">
        <ele>183.10772705078</ele>
        <time>2014-12-28T08:42:04.000Z</time>
      </trkpt>
      <trkpt lat="43.75741" lon="4.77132">
        <ele>183.30361938477</ele>
        <time>2014-12-28T08:42:07.000Z</time>
      </trkpt>
      <trkpt lat="43.75735" lon="4.77129">
        <ele>183.67233276367</ele>
        <time>2014-12-28T08:42:09.000Z</time>
      </trkpt>
      <trkpt lat="43.7572" lon="4.77126">
        <ele>183.85322570801</ele>
        <time>2014-12-28T08:42:12.000Z</time>
      </trkpt>
      <trkpt lat="43.75709" lon="4.77124">
        <ele>182.95236206055</ele>
        <time>2014-12-28T08:42:14.000Z</time>
      </trkpt>
      <trkpt lat="43.75692" lon="4.7712">
        <ele>181.33946228027</ele>
        <time>2014-12-28T08:42:17.000Z</time>
      </trkpt>
      <trkpt lat="43.7568" lon="4.77119">
        <ele>179.46893310547</ele>
        <time>2014-12-28T08:42:19.000Z</time>
      </trkpt>
      <trkpt lat="43.75667" lon="4.77121">
        <ele>177.56805419922</ele>
        <time>2014-12-28T08:42:21.000Z</time>
      </trkpt>
      <trkpt lat="43.75652" lon="4.77138">
        <ele>175.845703125</ele>
        <time>2014-12-28T08:42:24.000Z</time>
      </trkpt>
      <trkpt lat="43.75655" lon="4.77183">
        <ele>175.33143615723</ele>
        <time>2014-12-28T08:42:27.000Z</time>
      </trkpt>
      <trkpt lat="43.75643" lon="4.77214">
        <ele>175.1711730957</ele>
        <time>2014-12-28T08:42:30.000Z</time>
      </trkpt>
      <trkpt lat="43.75633" lon="4.77234">
        <ele>175.12724304199</ele>
        <time>2014-12-28T08:42:32.000Z</time>
      </trkpt>
      <trkpt lat="43.7561" lon="4.77234">
        <ele>174.31262207031</ele>
        <time>2014-12-28T08:42:35.000Z</time>
      </trkpt>
      <trkpt lat="43.7559" lon="4.77241">
        <ele>172.93411254883</ele>
        <time>2014-12-28T08:42:38.000Z</time>
      </trkpt>
      <trkpt lat="43.7558" lon="4.77266">
        <ele>170.7220916748</ele>
        <time>2014-12-28T08:42:41.000Z</time>
      </trkpt>
      <trkpt lat="43.75569" lon="4.77287">
        <ele>168.77554321289</ele>
        <time>2014-12-28T08:42:43.000Z</time>
      </trkpt>
      <trkpt lat="43.75559" lon="4.7731">
        <ele>167.13575744629</ele>
        <time>2014-12-28T08:42:45.000Z</time>
      </trkpt>
      <trkpt lat="43.75549" lon="4.7733">
        <ele>166.58706665039</ele>
        <time>2014-12-28T08:42:47.000Z</time>
      </trkpt>
      <trkpt lat="43.75535" lon="4.77365">
        <ele>166.55114746094</ele>
        <time>2014-12-28T08:42:50.000Z</time>
      </trkpt>
      <trkpt lat="43.75528" lon="4.77391">
        <ele>166.29733276367</ele>
        <time>2014-12-28T08:42:53.000Z</time>
      </trkpt>
      <trkpt lat="43.75523" lon="4.77408">
        <ele>165.8392791748</ele>
        <time>2014-12-28T08:42:55.000Z</time>
      </trkpt>
      <trkpt lat="43.75513" lon="4.77427">
        <ele>165.0804901123</ele>
        <time>2014-12-28T08:42:58.000Z</time>
      </trkpt>
      <trkpt lat="43.75507" lon="4.77435">
        <ele>164.19120788574</ele>
        <time>2014-12-28T08:43:01.000Z</time>
      </trkpt>
      <trkpt lat="43.75502" lon="4.77433">
        <ele>163.45819091797</ele>
        <time>2014-12-28T08:43:03.000Z</time>
      </trkpt>
      <trkpt lat="43.755" lon="4.77442">
        <ele>162.94136047363</ele>
        <time>2014-12-28T08:43:06.000Z</time>
      </trkpt>
      <trkpt lat="43.75497" lon="4.7745">
        <ele>162.55001831055</ele>
        <time>2014-12-28T08:43:09.000Z</time>
      </trkpt>
      <trkpt lat="43.75496" lon="4.77454">
        <ele>162.35389709473</ele>
        <time>2014-12-28T08:43:11.000Z</time>
      </trkpt>
      <trkpt lat="43.75492" lon="4.77459">
        <ele>162.20834350586</ele>
        <time>2014-12-28T08:43:14.000Z</time>
      </trkpt>
      <trkpt lat="43.75491" lon="4.77462">
        <ele>162.25332641602</ele>
        <time>2014-12-28T08:43:16.000Z</time>
      </trkpt>
      <trkpt lat="43.75491" lon="4.77465">
        <ele>162.29426574707</ele>
        <time>2014-12-28T08:43:18.000Z</time>
      </trkpt>
      <trkpt lat="43.75489" lon="4.77469">
        <ele>162.31251525879</ele>
        <time>2014-12-28T08:43:21.000Z</time>
      </trkpt>
      <trkpt lat="43.75488" lon="4.77471">
        <ele>162.31478881836</ele>
        <time>2014-12-28T08:43:23.000Z</time>
      </trkpt>
      <trkpt lat="43.75488" lon="4.77475">
        <ele>162.37377929688</ele>
        <time>2014-12-28T08:43:25.000Z</time>
      </trkpt>
      <trkpt lat="43.75488" lon="4.7748">
        <ele>162.4638671875</ele>
        <time>2014-12-28T08:43:27.000Z</time>
      </trkpt>
      <trkpt lat="43.7549" lon="4.77486">
        <ele>162.61891174316</ele>
        <time>2014-12-28T08:43:30.000Z</time>
      </trkpt>
      <trkpt lat="43.75492" lon="4.77493">
        <ele>162.8883972168</ele>
        <time>2014-12-28T08:43:33.000Z</time>
      </trkpt>
      <trkpt lat="43.75493" lon="4.775">
        <ele>163.24429321289</ele>
        <time>2014-12-28T08:43:36.000Z</time>
      </trkpt>
      <trkpt lat="43.75494" lon="4.77508">
        <ele>163.6540222168</ele>
        <time>2014-12-28T08:43:39.000Z</time>
      </trkpt>
      <trkpt lat="43.75494" lon="4.77515">
        <ele>164.03910827637</ele>
        <time>2014-12-28T08:43:42.000Z</time>
      </trkpt>
      <trkpt lat="43.75493" lon="4.77519">
        <ele>164.32791137695</ele>
        <time>2014-12-28T08:43:44.000Z</time>
      </trkpt>
      <trkpt lat="43.75492" lon="4.77525">
        <ele>164.51641845703</ele>
        <time>2014-12-28T08:43:47.000Z</time>
      </trkpt>
      <trkpt lat="43.75491" lon="4.7753">
        <ele>164.64125061035</ele>
        <time>2014-12-28T08:43:49.000Z</time>
      </trkpt>
      <trkpt lat="43.7549" lon="4.77537">
        <ele>164.7004699707</ele>
        <time>2014-12-28T08:43:51.000Z</time>
      </trkpt>
      <trkpt lat="43.75486" lon="4.77551">
        <ele>164.7225189209</ele>
        <time>2014-12-28T08:43:53.000Z</time>
      </trkpt>
      <trkpt lat="43.75484" lon="4.77576">
        <ele>164.85350036621</ele>
        <time>2014-12-28T08:43:56.000Z</time>
      </trkpt>
      <trkpt lat="43.75474" lon="4.77613">
        <ele>165.20393371582</ele>
        <time>2014-12-28T08:43:59.000Z</time>
      </trkpt>
      <trkpt lat="43.7547" lon="4.7763">
        <ele>165.66816711426</ele>
        <time>2014-12-28T08:44:01.000Z</time>
      </trkpt>
      <trkpt lat="43.75463" lon="4.7765">
        <ele>166.20425415039</ele>
        <time>2014-12-28T08:44:04.000Z</time>
      </trkpt>
      <trkpt lat="43.7546" lon="4.77664">
        <ele>166.88497924805</ele>
        <time>2014-12-28T08:44:07.000Z</time>
      </trkpt>
      <trkpt lat="43.75461" lon="4.7767">
        <ele>167.50523376465</ele>
        <time>2014-12-28T08:44:09.000Z</time>
      </trkpt>
      <trkpt lat="43.75461" lon="4.7768">
        <ele>167.92977905273</ele>
        <time>2014-12-28T08:44:11.000Z</time>
      </trkpt>
      <trkpt lat="43.75457" lon="4.77695">
        <ele>168.19021606445</ele>
        <time>2014-12-28T08:44:14.000Z</time>
      </trkpt>
      <trkpt lat="43.75457" lon="4.77704">
        <ele>168.38427734375</ele>
        <time>2014-12-28T08:44:16.000Z</time>
      </trkpt>
      <trkpt lat="43.75457" lon="4.77718">
        <ele>168.49722290039</ele>
        <time>2014-12-28T08:44:19.000Z</time>
      </trkpt>
      <trkpt lat="43.75457" lon="4.77729">
        <ele>168.60018920898</ele>
        <time>2014-12-28T08:44:21.000Z</time>
      </trkpt>
      <trkpt lat="43.75455" lon="4.77742">
        <ele>168.67887878418</ele>
        <time>2014-12-28T08:44:23.000Z</time>
      </trkpt>
      <trkpt lat="43.75454" lon="4.77766">
        <ele>168.78297424316</ele>
        <time>2014-12-28T08:44:26.000Z</time>
      </trkpt>
      <trkpt lat="43.75454" lon="4.77785">
        <ele>168.88201904297</ele>
        <time>2014-12-28T08:44:28.000Z</time>
      </trkpt>
      <trkpt lat="43.7545" lon="4.77807">
        <ele>168.84942626953</ele>
        <time>2014-12-28T08:44:30.000Z</time>
      </trkpt>
      <trkpt lat="43.75439" lon="4.77832">
        <ele>168.55120849609</ele>
        <time>2014-12-28T08:44:33.000Z</time>
      </trkpt>
      <trkpt lat="43.75429" lon="4.77842">
        <ele>168.13740539551</ele>
        <time>2014-12-28T08:44:35.000Z</time>
      </trkpt>
      <trkpt lat="43.75416" lon="4.77838">
        <ele>167.42277526855</ele>
        <time>2014-12-28T08:44:37.000Z</time>
      </trkpt>
      <trkpt lat="43.75394" lon="4.77817">
        <ele>166.18283081055</ele>
        <time>2014-12-28T08:44:40.000Z</time>
      </trkpt>
      <trkpt lat="43.75375" lon="4.77795">
        <ele>164.54536437988</ele>
        <time>2014-12-28T08:44:43.000Z</time>
      </trkpt>
      <trkpt lat="43.75353" lon="4.77776">
        <ele>162.54458618164</ele>
        <time>2014-12-28T08:44:46.000Z</time>
      </trkpt>
      <trkpt lat="43.7534" lon="4.77766">
        <ele>160.2551574707</ele>
        <time>2014-12-28T08:44:48.000Z</time>
      </trkpt>
      <trkpt lat="43.75322" lon="4.77771">
        <ele>158.01025390625</ele>
        <time>2014-12-28T08:44:51.000Z</time>
      </trkpt>
      <trkpt lat="43.75314" lon="4.77797">
        <ele>156.40873718262</ele>
        <time>2014-12-28T08:44:54.000Z</time>
      </trkpt>
      <trkpt lat="43.75298" lon="4.77816">
        <ele>155.19348144531</ele>
        <time>2014-12-28T08:44:57.000Z</time>
      </trkpt>
      <trkpt lat="43.75291" lon="4.77832">
        <ele>154.58837890625</ele>
        <time>2014-12-28T08:44:59.000Z</time>
      </trkpt>
      <trkpt lat="43.75281" lon="4.77854">
        <ele>154.39851379395</ele>
        <time>2014-12-28T08:45:02.000Z</time>
      </trkpt>
      <trkpt lat="43.75276" lon="4.77886">
        <ele>154.68481445312</ele>
        <time>2014-12-28T08:45:05.000Z</time>
      </trkpt>
      <trkpt lat="43.75255" lon="4.77881">
        <ele>154.47724914551</ele>
        <time>2014-12-28T08:45:08.000Z</time>
      </trkpt>
      <trkpt lat="43.75241" lon="4.77894">
        <ele>154.35231018066</ele>
        <time>2014-12-28T08:45:11.000Z</time>
      </trkpt>
      <trkpt lat="43.75233" lon="4.77901">
        <ele>154.22068786621</ele>
        <time>2014-12-28T08:45:13.000Z</time>
      </trkpt>
      <trkpt lat="43.75224" lon="4.77911">
        <ele>154.09158325195</ele>
        <time>2014-12-28T08:45:16.000Z</time>
      </trkpt>
      <trkpt lat="43.75218" lon="4.77919">
        <ele>153.77394104004</ele>
        <time>2014-12-28T08:45:18.000Z</time>
      </trkpt>
      <trkpt lat="43.75209" lon="4.77931">
        <ele>153.89628601074</ele>
        <time>2014-12-28T08:45:21.000Z</time>
      </trkpt>
      <trkpt lat="43.75202" lon="4.77939">
        <ele>154.05554199219</ele>
        <time>2014-12-28T08:45:23.000Z</time>
      </trkpt>
      <trkpt lat="43.75196" lon="4.77948">
        <ele>154.2211151123</ele>
        <time>2014-12-28T08:45:25.000Z</time>
      </trkpt>
      <trkpt lat="43.75182" lon="4.77959">
        <ele>154.31478881836</ele>
        <time>2014-12-28T08:45:28.000Z</time>
      </trkpt>
      <trkpt lat="43.75172" lon="4.7798">
        <ele>154.44844055176</ele>
        <time>2014-12-28T08:45:31.000Z</time>
      </trkpt>
      <trkpt lat="43.75164" lon="4.77991">
        <ele>154.5481262207</ele>
        <time>2014-12-28T08:45:33.000Z</time>
      </trkpt>
      <trkpt lat="43.75153" lon="4.78008">
        <ele>154.83682250977</ele>
        <time>2014-12-28T08:45:36.000Z</time>
      </trkpt>
      <trkpt lat="43.75146" lon="4.78018">
        <ele>155.23974609375</ele>
        <time>2014-12-28T08:45:38.000Z</time>
      </trkpt>
      <trkpt lat="43.75143" lon="4.78032">
        <ele>155.79925537109</ele>
        <time>2014-12-28T08:45:40.000Z</time>
      </trkpt>
      <trkpt lat="43.75138" lon="4.78041">
        <ele>156.41778564453</ele>
        <time>2014-12-28T08:45:42.000Z</time>
      </trkpt>
      <trkpt lat="43.7513" lon="4.78056">
        <ele>157.19319152832</ele>
        <time>2014-12-28T08:45:45.000Z</time>
      </trkpt>
      <trkpt lat="43.75127" lon="4.7807">
        <ele>157.89419555664</ele>
        <time>2014-12-28T08:45:48.000Z</time>
      </trkpt>
      <trkpt lat="43.75126" lon="4.7808">
        <ele>158.55233764648</ele>
        <time>2014-12-28T08:45:50.000Z</time>
      </trkpt>
      <trkpt lat="43.75123" lon="4.78089">
        <ele>159.18037414551</ele>
        <time>2014-12-28T08:45:52.000Z</time>
      </trkpt>
      <trkpt lat="43.75119" lon="4.78101">
        <ele>159.80587768555</ele>
        <time>2014-12-28T08:45:55.000Z</time>
      </trkpt>
      <trkpt lat="43.75116" lon="4.7811">
        <ele>160.31268310547</ele>
        <time>2014-12-28T08:45:57.000Z</time>
      </trkpt>
      <trkpt lat="43.75113" lon="4.78118">
        <ele>160.7462310791</ele>
        <time>2014-12-28T08:45:59.000Z</time>
      </trkpt>
      <trkpt lat="43.75111" lon="4.7813">
        <ele>161.16777038574</ele>
        <time>2014-12-28T08:46:02.000Z</time>
      </trkpt>
      <trkpt lat="43.75109" lon="4.78138">
        <ele>161.56155395508</ele>
        <time>2014-12-28T08:46:04.000Z</time>
      </trkpt>
      <trkpt lat="43.75107" lon="4.78146">
        <ele>161.88700866699</ele>
        <time>2014-12-28T08:46:06.000Z</time>
      </trkpt>
      <trkpt lat="43.75106" lon="4.78156">
        <ele>162.18667602539</ele>
        <time>2014-12-28T08:46:09.000Z</time>
      </trkpt>
      <trkpt lat="43.75105" lon="4.78165">
        <ele>162.46115112305</ele>
        <time>2014-12-28T08:46:11.000Z</time>
      </trkpt>
      <trkpt lat="43.75105" lon="4.78176">
        <ele>162.6982421875</ele>
        <time>2014-12-28T08:46:14.000Z</time>
      </trkpt>
      <trkpt lat="43.75102" lon="4.78187">
        <ele>162.95869445801</ele>
        <time>2014-12-28T08:46:17.000Z</time>
      </trkpt>
      <trkpt lat="43.75099" lon="4.78196">
        <ele>163.22421264648</ele>
        <time>2014-12-28T08:46:19.000Z</time>
      </trkpt>
      <trkpt lat="43.75096" lon="4.78204">
        <ele>163.49082946777</ele>
        <time>2014-12-28T08:46:21.000Z</time>
      </trkpt>
      <trkpt lat="43.75094" lon="4.78212">
        <ele>163.75016784668</ele>
        <time>2014-12-28T08:46:23.000Z</time>
      </trkpt>
      <trkpt lat="43.75089" lon="4.78223">
        <ele>164.02885437012</ele>
        <time>2014-12-28T08:46:26.000Z</time>
      </trkpt>
      <trkpt lat="43.75087" lon="4.78231">
        <ele>164.2638092041</ele>
        <time>2014-12-28T08:46:28.000Z</time>
      </trkpt>
      <trkpt lat="43.75085" lon="4.78238">
        <ele>164.4674987793</ele>
        <time>2014-12-28T08:46:30.000Z</time>
      </trkpt>
      <trkpt lat="43.75084" lon="4.78242">
        <ele>164.63845825195</ele>
        <time>2014-12-28T08:46:32.000Z</time>
      </trkpt>
      <trkpt lat="43.7508" lon="4.78251">
        <ele>164.8182220459</ele>
        <time>2014-12-28T08:46:35.000Z</time>
      </trkpt>
      <trkpt lat="43.75079" lon="4.78258">
        <ele>164.9644317627</ele>
        <time>2014-12-28T08:46:37.000Z</time>
      </trkpt>
      <trkpt lat="43.75077" lon="4.78268">
        <ele>165.12155151367</ele>
        <time>2014-12-28T08:46:40.000Z</time>
      </trkpt>
      <trkpt lat="43.75076" lon="4.78277">
        <ele>165.28610229492</ele>
        <time>2014-12-28T08:46:42.000Z</time>
      </trkpt>
      <trkpt lat="43.75073" lon="4.78283">
        <ele>165.48182678223</ele>
        <time>2014-12-28T08:46:44.000Z</time>
      </trkpt>
      <trkpt lat="43.75067" lon="4.78291">
        <ele>165.71411132812</ele>
        <time>2014-12-28T08:46:47.000Z</time>
      </trkpt>
      <trkpt lat="43.75064" lon="4.78297">
        <ele>165.96136474609</ele>
        <time>2014-12-28T08:46:49.000Z</time>
      </trkpt>
      <trkpt lat="43.7506" lon="4.78309">
        <ele>166.25720214844</ele>
        <time>2014-12-28T08:46:52.000Z</time>
      </trkpt>
      <trkpt lat="43.75058" lon="4.78316">
        <ele>166.56745910645</ele>
        <time>2014-12-28T08:46:56.000Z</time>
      </trkpt>
      <trkpt lat="43.75054" lon="4.78325">
        <ele>166.91221618652</ele>
        <time>2014-12-28T08:46:57.000Z</time>
      </trkpt>
      <trkpt lat="43.75051" lon="4.78331">
        <ele>167.2230682373</ele>
        <time>2014-12-28T08:46:59.000Z</time>
      </trkpt>
      <trkpt lat="43.75049" lon="4.78341">
        <ele>167.60659790039</ele>
        <time>2014-12-28T08:47:02.000Z</time>
      </trkpt>
      <trkpt lat="43.75048" lon="4.78347">
        <ele>167.97285461426</ele>
        <time>2014-12-28T08:47:04.000Z</time>
      </trkpt>
      <trkpt lat="43.75046" lon="4.78356">
        <ele>168.39929199219</ele>
        <time>2014-12-28T08:47:07.000Z</time>
      </trkpt>
      <trkpt lat="43.75043" lon="4.78364">
        <ele>168.85054016113</ele>
        <time>2014-12-28T08:47:10.000Z</time>
      </trkpt>
      <trkpt lat="43.75041" lon="4.78369">
        <ele>169.33984375</ele>
        <time>2014-12-28T08:47:12.000Z</time>
      </trkpt>
      <trkpt lat="43.75034" lon="4.78371">
        <ele>169.814453125</ele>
        <time>2014-12-28T08:47:15.000Z</time>
      </trkpt>
      <trkpt lat="43.7503" lon="4.78365">
        <ele>170.19189453125</ele>
        <time>2014-12-28T08:47:17.000Z</time>
      </trkpt>
      <trkpt lat="43.75029" lon="4.78356">
        <ele>170.40087890625</ele>
        <time>2014-12-28T08:47:19.000Z</time>
      </trkpt>
      <trkpt lat="43.75029" lon="4.78344">
        <ele>170.38232421875</ele>
        <time>2014-12-28T08:47:22.000Z</time>
      </trkpt>
      <trkpt lat="43.75028" lon="4.78333">
        <ele>170.18453979492</ele>
        <time>2014-12-28T08:47:25.000Z</time>
      </trkpt>
      <trkpt lat="43.75028" lon="4.78327">
        <ele>169.8543548584</ele>
        <time>2014-12-28T08:47:27.000Z</time>
      </trkpt>
      <trkpt lat="43.75029" lon="4.78318">
        <ele>169.49116516113</ele>
        <time>2014-12-28T08:47:30.000Z</time>
      </trkpt>
      <trkpt lat="43.75031" lon="4.78309">
        <ele>169.12048339844</ele>
        <time>2014-12-28T08:47:33.000Z</time>
      </trkpt>
      <trkpt lat="43.75033" lon="4.78301">
        <ele>168.80265808105</ele>
        <time>2014-12-28T08:47:36.000Z</time>
      </trkpt>
      <trkpt lat="43.75035" lon="4.78292">
        <ele>168.51063537598</ele>
        <time>2014-12-28T08:47:39.000Z</time>
      </trkpt>
      <trkpt lat="43.75035" lon="4.78286">
        <ele>168.21138000488</ele>
        <time>2014-12-28T08:47:41.000Z</time>
      </trkpt>
      <trkpt lat="43.75036" lon="4.78282">
        <ele>167.94215393066</ele>
        <time>2014-12-28T08:47:43.000Z</time>
      </trkpt>
      <trkpt lat="43.75033" lon="4.78275">
        <ele>167.72964477539</ele>
        <time>2014-12-28T08:47:46.000Z</time>
      </trkpt>
      <trkpt lat="43.75027" lon="4.78268">
        <ele>167.60154724121</ele>
        <time>2014-12-28T08:47:49.000Z</time>
      </trkpt>
      <trkpt lat="43.75021" lon="4.78264">
        <ele>167.56634521484</ele>
        <time>2014-12-28T08:47:51.000Z</time>
      </trkpt>
      <trkpt lat="43.75011" lon="4.78264">
        <ele>167.65222167969</ele>
        <time>2014-12-28T08:47:54.000Z</time>
      </trkpt>
      <trkpt lat="43.74999" lon="4.78276">
        <ele>167.88591003418</ele>
        <time>2014-12-28T08:47:57.000Z</time>
      </trkpt>
      <trkpt lat="43.74986" lon="4.78299">
        <ele>167.86380004883</ele>
        <time>2014-12-28T08:48:00.000Z</time>
      </trkpt>
      <trkpt lat="43.74979" lon="4.78316">
        <ele>167.73388671875</ele>
        <time>2014-12-28T08:48:02.000Z</time>
      </trkpt>
      <trkpt lat="43.74961" lon="4.7834">
        <ele>167.26643371582</ele>
        <time>2014-12-28T08:48:05.000Z</time>
      </trkpt>
      <trkpt lat="43.74939" lon="4.78363">
        <ele>166.42895507812</ele>
        <time>2014-12-28T08:48:08.000Z</time>
      </trkpt>
      <trkpt lat="43.74919" lon="4.78386">
        <ele>165.35336303711</ele>
        <time>2014-12-28T08:48:11.000Z</time>
      </trkpt>
      <trkpt lat="43.74905" lon="4.784">
        <ele>164.54170227051</ele>
        <time>2014-12-28T08:48:13.000Z</time>
      </trkpt>
      <trkpt lat="43.74889" lon="4.78412">
        <ele>163.69577026367</ele>
        <time>2014-12-28T08:48:15.000Z</time>
      </trkpt>
      <trkpt lat="43.7487" lon="4.78432">
        <ele>163.13966369629</ele>
        <time>2014-12-28T08:48:18.000Z</time>
      </trkpt>
      <trkpt lat="43.74855" lon="4.78443">
        <ele>162.71897888184</ele>
        <time>2014-12-28T08:48:20.000Z</time>
      </trkpt>
      <trkpt lat="43.74846" lon="4.78457">
        <ele>162.37985229492</ele>
        <time>2014-12-28T08:48:22.000Z</time>
      </trkpt>
      <trkpt lat="43.74834" lon="4.78462">
        <ele>161.7954864502</ele>
        <time>2014-12-28T08:48:24.000Z</time>
      </trkpt>
      <trkpt lat="43.74823" lon="4.78463">
        <ele>161.42520141602</ele>
        <time>2014-12-28T08:48:26.000Z</time>
      </trkpt>
      <trkpt lat="43.74811" lon="4.78462">
        <ele>161.17456054688</ele>
        <time>2014-12-28T08:48:29.000Z</time>
      </trkpt>
      <trkpt lat="43.74805" lon="4.78459">
        <ele>161.1266784668</ele>
        <time>2014-12-28T08:48:31.000Z</time>
      </trkpt>
      <trkpt lat="43.74806" lon="4.78447">
        <ele>161.06173706055</ele>
        <time>2014-12-28T08:48:34.000Z</time>
      </trkpt>
      <trkpt lat="43.74807" lon="4.78435">
        <ele>161.19338989258</ele>
        <time>2014-12-28T08:48:36.000Z</time>
      </trkpt>
      <trkpt lat="43.74812" lon="4.78422">
        <ele>161.0846862793</ele>
        <time>2014-12-28T08:48:39.000Z</time>
      </trkpt>
      <trkpt lat="43.7481" lon="4.78407">
        <ele>160.86703491211</ele>
        <time>2014-12-28T08:48:42.000Z</time>
      </trkpt>
      <trkpt lat="43.74808" lon="4.78394">
        <ele>160.6240234375</ele>
        <time>2014-12-28T08:48:44.000Z</time>
      </trkpt>
      <trkpt lat="43.74811" lon="4.78377">
        <ele>160.26858520508</ele>
        <time>2014-12-28T08:48:47.000Z</time>
      </trkpt>
      <trkpt lat="43.74812" lon="4.78361">
        <ele>159.89768981934</ele>
        <time>2014-12-28T08:48:50.000Z</time>
      </trkpt>
      <trkpt lat="43.74814" lon="4.78351">
        <ele>159.54943847656</ele>
        <time>2014-12-28T08:48:52.000Z</time>
      </trkpt>
      <trkpt lat="43.74816" lon="4.78335">
        <ele>159.0578918457</ele>
        <time>2014-12-28T08:48:55.000Z</time>
      </trkpt>
      <trkpt lat="43.74819" lon="4.78316">
        <ele>158.44786071777</ele>
        <time>2014-12-28T08:48:58.000Z</time>
      </trkpt>
      <trkpt lat="43.74822" lon="4.78305">
        <ele>157.90078735352</ele>
        <time>2014-12-28T08:49:00.000Z</time>
      </trkpt>
      <trkpt lat="43.74823" lon="4.78289">
        <ele>157.40682983398</ele>
        <time>2014-12-28T08:49:03.000Z</time>
      </trkpt>
      <trkpt lat="43.74827" lon="4.7827">
        <ele>156.93237304688</ele>
        <time>2014-12-28T08:49:06.000Z</time>
      </trkpt>
      <trkpt lat="43.74829" lon="4.78255">
        <ele>156.52592468262</ele>
        <time>2014-12-28T08:49:08.000Z</time>
      </trkpt>
      <trkpt lat="43.74834" lon="4.78246">
        <ele>156.04902648926</ele>
        <time>2014-12-28T08:49:10.000Z</time>
      </trkpt>
      <trkpt lat="43.74837" lon="4.78235">
        <ele>155.61360168457</ele>
        <time>2014-12-28T08:49:12.000Z</time>
      </trkpt>
      <trkpt lat="43.74835" lon="4.78211">
        <ele>155.15267944336</ele>
        <time>2014-12-28T08:49:15.000Z</time>
      </trkpt>
      <trkpt lat="43.74833" lon="4.78199">
        <ele>154.84223937988</ele>
        <time>2014-12-28T08:49:17.000Z</time>
      </trkpt>
      <trkpt lat="43.74826" lon="4.78188">
        <ele>154.86819458008</ele>
        <time>2014-12-28T08:49:19.000Z</time>
      </trkpt>
      <trkpt lat="43.74823" lon="4.7817">
        <ele>155.15998840332</ele>
        <time>2014-12-28T08:49:22.000Z</time>
      </trkpt>
      <trkpt lat="43.74821" lon="4.78162">
        <ele>155.54333496094</ele>
        <time>2014-12-28T08:49:24.000Z</time>
      </trkpt>
      <trkpt lat="43.74814" lon="4.78152">
        <ele>156.2633972168</ele>
        <time>2014-12-28T08:49:26.000Z</time>
      </trkpt>
      <trkpt lat="43.74812" lon="4.78142">
        <ele>157.02479553223</ele>
        <time>2014-12-28T08:49:28.000Z</time>
      </trkpt>
      <trkpt lat="43.74812" lon="4.78123">
        <ele>157.47091674805</ele>
        <time>2014-12-28T08:49:31.000Z</time>
      </trkpt>
      <trkpt lat="43.74816" lon="4.78105">
        <ele>157.59643554688</ele>
        <time>2014-12-28T08:49:34.000Z</time>
      </trkpt>
      <trkpt lat="43.74812" lon="4.78094">
        <ele>157.81958007812</ele>
        <time>2014-12-28T08:49:36.000Z</time>
      </trkpt>
      <trkpt lat="43.74808" lon="4.78084">
        <ele>157.91918945312</ele>
        <time>2014-12-28T08:49:38.000Z</time>
      </trkpt>
      <trkpt lat="43.74807" lon="4.78069">
        <ele>157.96061706543</ele>
        <time>2014-12-28T08:49:41.000Z</time>
      </trkpt>
      <trkpt lat="43.74812" lon="4.78054">
        <ele>157.83041381836</ele>
        <time>2014-12-28T08:49:44.000Z</time>
      </trkpt>
      <trkpt lat="43.74818" lon="4.78039">
        <ele>157.6883392334</ele>
        <time>2014-12-28T08:49:47.000Z</time>
      </trkpt>
      <trkpt lat="43.74819" lon="4.78033">
        <ele>157.34454345703</ele>
        <time>2014-12-28T08:49:49.000Z</time>
      </trkpt>
      <trkpt lat="43.74818" lon="4.78027">
        <ele>156.8627166748</ele>
        <time>2014-12-28T08:49:51.000Z</time>
      </trkpt>
      <trkpt lat="43.74817" lon="4.78021">
        <ele>156.42189025879</ele>
        <time>2014-12-28T08:49:53.000Z</time>
      </trkpt>
      <trkpt lat="43.74813" lon="4.78011">
        <ele>156.37893676758</ele>
        <time>2014-12-28T08:49:56.000Z</time>
      </trkpt>
      <trkpt lat="43.7481" lon="4.78002">
        <ele>156.66177368164</ele>
        <time>2014-12-28T08:49:58.000Z</time>
      </trkpt>
      <trkpt lat="43.74807" lon="4.7799">
        <ele>157.07333374023</ele>
        <time>2014-12-28T08:50:01.000Z</time>
      </trkpt>
      <trkpt lat="43.74807" lon="4.77975">
        <ele>157.29800415039</ele>
        <time>2014-12-28T08:50:04.000Z</time>
      </trkpt>
      <trkpt lat="43.74807" lon="4.77964">
        <ele>157.39044189453</ele>
        <time>2014-12-28T08:50:07.000Z</time>
      </trkpt>
      <trkpt lat="43.74804" lon="4.7796">
        <ele>157.40528869629</ele>
        <time>2014-12-28T08:50:10.000Z</time>
      </trkpt>
      <trkpt lat="43.748" lon="4.77959">
        <ele>157.41635131836</ele>
        <time>2014-12-28T08:50:12.000Z</time>
      </trkpt>
      <trkpt lat="43.74797" lon="4.77959">
        <ele>157.47555541992</ele>
        <time>2014-12-28T08:50:14.000Z</time>
      </trkpt>
      <trkpt lat="43.74793" lon="4.77958">
        <ele>157.83805847168</ele>
        <time>2014-12-28T08:50:16.000Z</time>
      </trkpt>
      <trkpt lat="43.74787" lon="4.77954">
        <ele>158.41836547852</ele>
        <time>2014-12-28T08:50:19.000Z</time>
      </trkpt>
      <trkpt lat="43.74783" lon="4.7795">
        <ele>159.02114868164</ele>
        <time>2014-12-28T08:50:21.000Z</time>
      </trkpt>
      <trkpt lat="43.74775" lon="4.77944">
        <ele>159.73190307617</ele>
        <time>2014-12-28T08:50:24.000Z</time>
      </trkpt>
      <trkpt lat="43.7477" lon="4.77943">
        <ele>160.46908569336</ele>
        <time>2014-12-28T08:50:26.000Z</time>
      </trkpt>
      <trkpt lat="43.74766" lon="4.77944">
        <ele>161.19937133789</ele>
        <time>2014-12-28T08:50:28.000Z</time>
      </trkpt>
      <trkpt lat="43.74768" lon="4.77945">
        <ele>161.73489379883</ele>
        <time>2014-12-28T08:50:36.000Z</time>
      </trkpt>
      <trkpt lat="43.74769" lon="4.77944">
        <ele>162.09545898438</ele>
        <time>2014-12-28T08:50:44.000Z</time>
      </trkpt>
      <trkpt lat="43.74767" lon="4.77943">
        <ele>162.32104492188</ele>
        <time>2014-12-28T08:50:46.000Z</time>
      </trkpt>
      <trkpt lat="43.74767" lon="4.77947">
        <ele>162.49272155762</ele>
        <time>2014-12-28T08:50:49.000Z</time>
      </trkpt>
      <trkpt lat="43.74768" lon="4.77954">
        <ele>162.58303833008</ele>
        <time>2014-12-28T08:50:51.000Z</time>
      </trkpt>
      <trkpt lat="43.74765" lon="4.77957">
        <ele>162.84072875977</ele>
        <time>2014-12-28T08:50:54.000Z</time>
      </trkpt>
      <trkpt lat="43.74763" lon="4.77961">
        <ele>163.31289672852</ele>
        <time>2014-12-28T08:50:57.000Z</time>
      </trkpt>
      <trkpt lat="43.74761" lon="4.77961">
        <ele>163.78494262695</ele>
        <time>2014-12-28T08:50:59.000Z</time>
      </trkpt>
      <trkpt lat="43.7476" lon="4.77963">
        <ele>164.26313781738</ele>
        <time>2014-12-28T08:51:02.000Z</time>
      </trkpt>
      <trkpt lat="43.74759" lon="4.77965">
        <ele>164.72608947754</ele>
        <time>2014-12-28T08:51:08.000Z</time>
      </trkpt>
      <trkpt lat="43.74759" lon="4.77963">
        <ele>165.05708312988</ele>
        <time>2014-12-28T08:51:20.000Z</time>
      </trkpt>
      <trkpt lat="43.74757" lon="4.77963">
        <ele>165.29989624023</ele>
        <time>2014-12-28T08:51:23.000Z</time>
      </trkpt>
      <trkpt lat="43.74756" lon="4.7796">
        <ele>165.45736694336</ele>
        <time>2014-12-28T08:51:26.000Z</time>
      </trkpt>
      <trkpt lat="43.74752" lon="4.77956">
        <ele>165.60409545898</ele>
        <time>2014-12-28T08:51:29.000Z</time>
      </trkpt>
      <trkpt lat="43.74749" lon="4.77954">
        <ele>165.76364135742</ele>
        <time>2014-12-28T08:51:31.000Z</time>
      </trkpt>
      <trkpt lat="43.74746" lon="4.7795">
        <ele>165.96684265137</ele>
        <time>2014-12-28T08:51:34.000Z</time>
      </trkpt>
      <trkpt lat="43.74744" lon="4.77946">
        <ele>166.11730957031</ele>
        <time>2014-12-28T08:51:36.000Z</time>
      </trkpt>
      <trkpt lat="43.74739" lon="4.77942">
        <ele>166.3483581543</ele>
        <time>2014-12-28T08:51:38.000Z</time>
      </trkpt>
      <trkpt lat="43.74735" lon="4.77943">
        <ele>166.64202880859</ele>
        <time>2014-12-28T08:51:40.000Z</time>
      </trkpt>
      <trkpt lat="43.74734" lon="4.77952">
        <ele>167.07730102539</ele>
        <time>2014-12-28T08:51:43.000Z</time>
      </trkpt>
      <trkpt lat="43.7473" lon="4.77951">
        <ele>167.60098266602</ele>
        <time>2014-12-28T08:51:45.000Z</time>
      </trkpt>
      <trkpt lat="43.74726" lon="4.7795">
        <ele>168.21083068848</ele>
        <time>2014-12-28T08:51:47.000Z</time>
      </trkpt>
      <trkpt lat="43.74723" lon="4.77949">
        <ele>168.84048461914</ele>
        <time>2014-12-28T08:51:49.000Z</time>
      </trkpt>
      <trkpt lat="43.74719" lon="4.77947">
        <ele>169.41241455078</ele>
        <time>2014-12-28T08:51:51.000Z</time>
      </trkpt>
      <trkpt lat="43.74715" lon="4.77944">
        <ele>169.85632324219</ele>
        <time>2014-12-28T08:51:53.000Z</time>
      </trkpt>
      <trkpt lat="43.74712" lon="4.77943">
        <ele>170.23341369629</ele>
        <time>2014-12-28T08:51:56.000Z</time>
      </trkpt>
      <trkpt lat="43.7471" lon="4.77943">
        <ele>170.58416748047</ele>
        <time>2014-12-28T08:51:58.000Z</time>
      </trkpt>
      <trkpt lat="43.74705" lon="4.77942">
        <ele>170.9997253418</ele>
        <time>2014-12-28T08:52:01.000Z</time>
      </trkpt>
      <trkpt lat="43.747" lon="4.7794">
        <ele>171.42813110352</ele>
        <time>2014-12-28T08:52:04.000Z</time>
      </trkpt>
      <trkpt lat="43.74697" lon="4.77941">
        <ele>171.87089538574</ele>
        <time>2014-12-28T08:52:06.000Z</time>
      </trkpt>
      <trkpt lat="43.74695" lon="4.77943">
        <ele>172.39807128906</ele>
        <time>2014-12-28T08:52:09.000Z</time>
      </trkpt>
      <trkpt lat="43.74692" lon="4.77947">
        <ele>173.06170654297</ele>
        <time>2014-12-28T08:52:12.000Z</time>
      </trkpt>
      <trkpt lat="43.74689" lon="4.77951">
        <ele>173.74746704102</ele>
        <time>2014-12-28T08:52:15.000Z</time>
      </trkpt>
      <trkpt lat="43.74688" lon="4.77952">
        <ele>174.41729736328</ele>
        <time>2014-12-28T08:52:17.000Z</time>
      </trkpt>
      <trkpt lat="43.74684" lon="4.77951">
        <ele>175.09097290039</ele>
        <time>2014-12-28T08:52:20.000Z</time>
      </trkpt>
      <trkpt lat="43.74683" lon="4.77951">
        <ele>175.67791748047</ele>
        <time>2014-12-28T08:52:22.000Z</time>
      </trkpt>
      <trkpt lat="43.7468" lon="4.77953">
        <ele>176.20190429688</ele>
        <time>2014-12-28T08:52:25.000Z</time>
      </trkpt>
      <trkpt lat="43.74677" lon="4.77953">
        <ele>176.64651489258</ele>
        <time>2014-12-28T08:52:27.000Z</time>
      </trkpt>
      <trkpt lat="43.74675" lon="4.77952">
        <ele>177.0629119873</ele>
        <time>2014-12-28T08:52:29.000Z</time>
      </trkpt>
      <trkpt lat="43.74671" lon="4.77949">
        <ele>177.41667175293</ele>
        <time>2014-12-28T08:52:32.000Z</time>
      </trkpt>
      <trkpt lat="43.74665" lon="4.77945">
        <ele>177.77618408203</ele>
        <time>2014-12-28T08:52:35.000Z</time>
      </trkpt>
      <trkpt lat="43.74662" lon="4.77943">
        <ele>178.07646179199</ele>
        <time>2014-12-28T08:52:37.000Z</time>
      </trkpt>
      <trkpt lat="43.74659" lon="4.77942">
        <ele>178.36366271973</ele>
        <time>2014-12-28T08:52:39.000Z</time>
      </trkpt>
      <trkpt lat="43.74656" lon="4.7794">
        <ele>178.66879272461</ele>
        <time>2014-12-28T08:52:41.000Z</time>
      </trkpt>
      <trkpt lat="43.74652" lon="4.77939">
        <ele>179.05731201172</ele>
        <time>2014-12-28T08:52:43.000Z</time>
      </trkpt>
      <trkpt lat="43.74645" lon="4.77938">
        <ele>179.58798217773</ele>
        <time>2014-12-28T08:52:46.000Z</time>
      </trkpt>
      <trkpt lat="43.7464" lon="4.77937">
        <ele>180.18283081055</ele>
        <time>2014-12-28T08:52:49.000Z</time>
      </trkpt>
      <trkpt lat="43.7463" lon="4.77932">
        <ele>180.80696105957</ele>
        <time>2014-12-28T08:52:52.000Z</time>
      </trkpt>
      <trkpt lat="43.7462" lon="4.77928">
        <ele>181.52481079102</ele>
        <time>2014-12-28T08:52:54.000Z</time>
      </trkpt>
      <trkpt lat="43.74612" lon="4.77923">
        <ele>182.21528625488</ele>
        <time>2014-12-28T08:52:56.000Z</time>
      </trkpt>
      <trkpt lat="43.74604" lon="4.77919">
        <ele>182.75105285645</ele>
        <time>2014-12-28T08:52:58.000Z</time>
      </trkpt>
      <trkpt lat="43.74596" lon="4.77918">
        <ele>183.32102966309</ele>
        <time>2014-12-28T08:53:01.000Z</time>
      </trkpt>
      <trkpt lat="43.74592" lon="4.77922">
        <ele>184.10575866699</ele>
        <time>2014-12-28T08:53:04.000Z</time>
      </trkpt>
      <trkpt lat="43.74591" lon="4.77928">
        <ele>185.08250427246</ele>
        <time>2014-12-28T08:53:07.000Z</time>
      </trkpt>
      <trkpt lat="43.74588" lon="4.77929">
        <ele>186.12094116211</ele>
        <time>2014-12-28T08:53:09.000Z</time>
      </trkpt>
      <trkpt lat="43.74584" lon="4.77929">
        <ele>187.21499633789</ele>
        <time>2014-12-28T08:53:11.000Z</time>
      </trkpt>
      <trkpt lat="43.74581" lon="4.77928">
        <ele>188.1770324707</ele>
        <time>2014-12-28T08:53:13.000Z</time>
      </trkpt>
      <trkpt lat="43.74576" lon="4.77924">
        <ele>188.85140991211</ele>
        <time>2014-12-28T08:53:16.000Z</time>
      </trkpt>
      <trkpt lat="43.74572" lon="4.77922">
        <ele>189.22909545898</ele>
        <time>2014-12-28T08:53:18.000Z</time>
      </trkpt>
      <trkpt lat="43.74568" lon="4.77918">
        <ele>189.43367004395</ele>
        <time>2014-12-28T08:53:20.000Z</time>
      </trkpt>
      <trkpt lat="43.74565" lon="4.77916">
        <ele>189.5700378418</ele>
        <time>2014-12-28T08:53:23.000Z</time>
      </trkpt>
      <trkpt lat="43.74559" lon="4.77913">
        <ele>189.79216003418</ele>
        <time>2014-12-28T08:53:26.000Z</time>
      </trkpt>
      <trkpt lat="43.74556" lon="4.77911">
        <ele>190.05529785156</ele>
        <time>2014-12-28T08:53:28.000Z</time>
      </trkpt>
      <trkpt lat="43.74549" lon="4.7791">
        <ele>190.51399230957</ele>
        <time>2014-12-28T08:53:31.000Z</time>
      </trkpt>
      <trkpt lat="43.74545" lon="4.77908">
        <ele>191.11811828613</ele>
        <time>2014-12-28T08:53:34.000Z</time>
      </trkpt>
      <trkpt lat="43.74541" lon="4.77909">
        <ele>191.87382507324</ele>
        <time>2014-12-28T08:53:37.000Z</time>
      </trkpt>
      <trkpt lat="43.74539" lon="4.77911">
        <ele>192.6244354248</ele>
        <time>2014-12-28T08:53:39.000Z</time>
      </trkpt>
      <trkpt lat="43.74535" lon="4.77913">
        <ele>193.53378295898</ele>
        <time>2014-12-28T08:53:42.000Z</time>
      </trkpt>
      <trkpt lat="43.74532" lon="4.77914">
        <ele>194.33203125</ele>
        <time>2014-12-28T08:53:45.000Z</time>
      </trkpt>
      <trkpt lat="43.74527" lon="4.77913">
        <ele>195.19277954102</ele>
        <time>2014-12-28T08:53:48.000Z</time>
      </trkpt>
      <trkpt lat="43.74526" lon="4.77913">
        <ele>195.91226196289</ele>
        <time>2014-12-28T08:53:50.000Z</time>
      </trkpt>
      <trkpt lat="43.74524" lon="4.77915">
        <ele>196.64071655273</ele>
        <time>2014-12-28T08:53:52.000Z</time>
      </trkpt>
      <trkpt lat="43.74519" lon="4.77914">
        <ele>197.3225402832</ele>
        <time>2014-12-28T08:53:55.000Z</time>
      </trkpt>
      <trkpt lat="43.74516" lon="4.77912">
        <ele>197.94860839844</ele>
        <time>2014-12-28T08:53:57.000Z</time>
      </trkpt>
      <trkpt lat="43.74512" lon="4.77908">
        <ele>198.38066101074</ele>
        <time>2014-12-28T08:54:01.000Z</time>
      </trkpt>
      <trkpt lat="43.74511" lon="4.77896">
        <ele>198.49504089355</ele>
        <time>2014-12-28T08:54:02.000Z</time>
      </trkpt>
      <trkpt lat="43.74507" lon="4.77894">
        <ele>198.53666687012</ele>
        <time>2014-12-28T08:54:04.000Z</time>
      </trkpt>
      <trkpt lat="43.74503" lon="4.77888">
        <ele>198.38468933105</ele>
        <time>2014-12-28T08:54:07.000Z</time>
      </trkpt>
      <trkpt lat="43.74502" lon="4.77886">
        <ele>198.10940551758</ele>
        <time>2014-12-28T08:54:09.000Z</time>
      </trkpt>
      <trkpt lat="43.74501" lon="4.77882">
        <ele>197.78024291992</ele>
        <time>2014-12-28T08:54:12.000Z</time>
      </trkpt>
      <trkpt lat="43.745" lon="4.77876">
        <ele>197.57919311523</ele>
        <time>2014-12-28T08:54:15.000Z</time>
      </trkpt>
      <trkpt lat="43.74499" lon="4.7787">
        <ele>197.15869140625</ele>
        <time>2014-12-28T08:54:18.000Z</time>
      </trkpt>
      <trkpt lat="43.74495" lon="4.77859">
        <ele>196.52444458008</ele>
        <time>2014-12-28T08:54:21.000Z</time>
      </trkpt>
      <trkpt lat="43.74492" lon="4.77847">
        <ele>195.6566619873</ele>
        <time>2014-12-28T08:54:23.000Z</time>
      </trkpt>
      <trkpt lat="43.7449" lon="4.77837">
        <ele>194.65747070312</ele>
        <time>2014-12-28T08:54:25.000Z</time>
      </trkpt>
      <trkpt lat="43.74485" lon="4.77833">
        <ele>193.84069824219</ele>
        <time>2014-12-28T08:54:28.000Z</time>
      </trkpt>
      <trkpt lat="43.74482" lon="4.77831">
        <ele>193.24227905273</ele>
        <time>2014-12-28T08:54:31.000Z</time>
      </trkpt>
      <trkpt lat="43.74479" lon="4.7783">
        <ele>192.9345703125</ele>
        <time>2014-12-28T08:54:33.000Z</time>
      </trkpt>
      <trkpt lat="43.74476" lon="4.77829">
        <ele>192.98112487793</ele>
        <time>2014-12-28T08:54:36.000Z</time>
      </trkpt>
      <trkpt lat="43.74472" lon="4.77826">
        <ele>193.27864074707</ele>
        <time>2014-12-28T08:54:39.000Z</time>
      </trkpt>
      <trkpt lat="43.7447" lon="4.77821">
        <ele>193.47317504883</ele>
        <time>2014-12-28T08:54:41.000Z</time>
      </trkpt>
      <trkpt lat="43.74466" lon="4.77813">
        <ele>193.51327514648</ele>
        <time>2014-12-28T08:54:43.000Z</time>
      </trkpt>
      <trkpt lat="43.74457" lon="4.77798">
        <ele>193.30448913574</ele>
        <time>2014-12-28T08:54:46.000Z</time>
      </trkpt>
      <trkpt lat="43.74449" lon="4.77788">
        <ele>192.9462890625</ele>
        <time>2014-12-28T08:54:48.000Z</time>
      </trkpt>
      <trkpt lat="43.74438" lon="4.77765">
        <ele>192.1056060791</ele>
        <time>2014-12-28T08:54:51.000Z</time>
      </trkpt>
      <trkpt lat="43.74427" lon="4.77751">
        <ele>191.12423706055</ele>
        <time>2014-12-28T08:54:53.000Z</time>
      </trkpt>
      <trkpt lat="43.74412" lon="4.77734">
        <ele>190.07263183594</ele>
        <time>2014-12-28T08:54:56.000Z</time>
      </trkpt>
      <trkpt lat="43.744" lon="4.7772">
        <ele>188.85304260254</ele>
        <time>2014-12-28T08:54:59.000Z</time>
      </trkpt>
      <trkpt lat="43.74392" lon="4.77719">
        <ele>187.67492675781</ele>
        <time>2014-12-28T08:55:01.000Z</time>
      </trkpt>
      <trkpt lat="43.74382" lon="4.77711">
        <ele>186.70808410645</ele>
        <time>2014-12-28T08:55:04.000Z</time>
      </trkpt>
      <trkpt lat="43.74377" lon="4.77709">
        <ele>185.90260314941</ele>
        <time>2014-12-28T08:55:06.000Z</time>
      </trkpt>
      <trkpt lat="43.74365" lon="4.77703">
        <ele>185.06645202637</ele>
        <time>2014-12-28T08:55:09.000Z</time>
      </trkpt>
      <trkpt lat="43.74356" lon="4.77692">
        <ele>184.15270996094</ele>
        <time>2014-12-28T08:55:12.000Z</time>
      </trkpt>
      <trkpt lat="43.74354" lon="4.77689">
        <ele>183.15467834473</ele>
        <time>2014-12-28T08:55:14.000Z</time>
      </trkpt>
      <trkpt lat="43.74348" lon="4.77688">
        <ele>182.30224609375</ele>
        <time>2014-12-28T08:55:16.000Z</time>
      </trkpt>
      <trkpt lat="43.74339" lon="4.77688">
        <ele>181.48515319824</ele>
        <time>2014-12-28T08:55:19.000Z</time>
      </trkpt>
      <trkpt lat="43.74332" lon="4.77685">
        <ele>180.7113494873</ele>
        <time>2014-12-28T08:55:22.000Z</time>
      </trkpt>
      <trkpt lat="43.74328" lon="4.77682">
        <ele>180.19180297852</ele>
        <time>2014-12-28T08:55:24.000Z</time>
      </trkpt>
      <trkpt lat="43.74327" lon="4.77673">
        <ele>179.40112304688</ele>
        <time>2014-12-28T08:55:27.000Z</time>
      </trkpt>
      <trkpt lat="43.74338" lon="4.77667">
        <ele>178.51985168457</ele>
        <time>2014-12-28T08:55:30.000Z</time>
      </trkpt>
      <trkpt lat="43.7435" lon="4.77662">
        <ele>177.47622680664</ele>
        <time>2014-12-28T08:55:33.000Z</time>
      </trkpt>
      <trkpt lat="43.7436" lon="4.77661">
        <ele>176.54273986816</ele>
        <time>2014-12-28T08:55:35.000Z</time>
      </trkpt>
      <trkpt lat="43.74369" lon="4.77661">
        <ele>175.86651611328</ele>
        <time>2014-12-28T08:55:37.000Z</time>
      </trkpt>
      <trkpt lat="43.74378" lon="4.77662">
        <ele>175.6572265625</ele>
        <time>2014-12-28T08:55:39.000Z</time>
      </trkpt>
      <trkpt lat="43.74387" lon="4.77658">
        <ele>175.46153259277</ele>
        <time>2014-12-28T08:55:42.000Z</time>
      </trkpt>
      <trkpt lat="43.74394" lon="4.7765">
        <ele>175.08178710938</ele>
        <time>2014-12-28T08:55:45.000Z</time>
      </trkpt>
      <trkpt lat="43.744" lon="4.77641">
        <ele>174.30793762207</ele>
        <time>2014-12-28T08:55:48.000Z</time>
      </trkpt>
      <trkpt lat="43.74403" lon="4.77636">
        <ele>173.23446655273</ele>
        <time>2014-12-28T08:55:50.000Z</time>
      </trkpt>
      <trkpt lat="43.7441" lon="4.77627">
        <ele>171.67012023926</ele>
        <time>2014-12-28T08:55:53.000Z</time>
      </trkpt>
      <trkpt lat="43.74414" lon="4.77623">
        <ele>170.11837768555</ele>
        <time>2014-12-28T08:55:55.000Z</time>
      </trkpt>
      <trkpt lat="43.74425" lon="4.77619">
        <ele>168.65502929688</ele>
        <time>2014-12-28T08:55:58.000Z</time>
      </trkpt>
      <trkpt lat="43.74434" lon="4.77614">
        <ele>167.3609161377</ele>
        <time>2014-12-28T08:56:00.000Z</time>
      </trkpt>
      <trkpt lat="43.74441" lon="4.7761">
        <ele>166.04252624512</ele>
        <time>2014-12-28T08:56:02.000Z</time>
      </trkpt>
      <trkpt lat="43.74454" lon="4.77609">
        <ele>165.00956726074</ele>
        <time>2014-12-28T08:56:05.000Z</time>
      </trkpt>
      <trkpt lat="43.74471" lon="4.7761">
        <ele>164.04927062988</ele>
        <time>2014-12-28T08:56:08.000Z</time>
      </trkpt>
      <trkpt lat="43.74481" lon="4.77609">
        <ele>163.28044128418</ele>
        <time>2014-12-28T08:56:10.000Z</time>
      </trkpt>
      <trkpt lat="43.74496" lon="4.77607">
        <ele>162.6155090332</ele>
        <time>2014-12-28T08:56:13.000Z</time>
      </trkpt>
      <trkpt lat="43.74504" lon="4.77607">
        <ele>162.12223815918</ele>
        <time>2014-12-28T08:56:15.000Z</time>
      </trkpt>
      <trkpt lat="43.74506" lon="4.77596">
        <ele>161.42483520508</ele>
        <time>2014-12-28T08:56:18.000Z</time>
      </trkpt>
      <trkpt lat="43.74496" lon="4.77578">
        <ele>160.30940246582</ele>
        <time>2014-12-28T08:56:21.000Z</time>
      </trkpt>
      <trkpt lat="43.74488" lon="4.77565">
        <ele>158.86192321777</ele>
        <time>2014-12-28T08:56:23.000Z</time>
      </trkpt>
      <trkpt lat="43.74482" lon="4.77548">
        <ele>156.97700500488</ele>
        <time>2014-12-28T08:56:26.000Z</time>
      </trkpt>
      <trkpt lat="43.74481" lon="4.77542">
        <ele>154.96859741211</ele>
        <time>2014-12-28T08:56:29.000Z</time>
      </trkpt>
      <trkpt lat="43.74482" lon="4.77542">
        <ele>153.29284667969</ele>
        <time>2014-12-28T08:56:36.000Z</time>
      </trkpt>
      <trkpt lat="43.74483" lon="4.77536">
        <ele>151.9130859375</ele>
        <time>2014-12-28T08:56:39.000Z</time>
      </trkpt>
      <trkpt lat="43.74486" lon="4.77516">
        <ele>150.287109375</ele>
        <time>2014-12-28T08:56:42.000Z</time>
      </trkpt>
      <trkpt lat="43.74495" lon="4.775">
        <ele>148.82901000977</ele>
        <time>2014-12-28T08:56:45.000Z</time>
      </trkpt>
      <trkpt lat="43.74505" lon="4.77487">
        <ele>147.2541809082</ele>
        <time>2014-12-28T08:56:48.000Z</time>
      </trkpt>
      <trkpt lat="43.74511" lon="4.77476">
        <ele>145.36906433105</ele>
        <time>2014-12-28T08:56:50.000Z</time>
      </trkpt>
      <trkpt lat="43.74522" lon="4.77458">
        <ele>143.23937988281</ele>
        <time>2014-12-28T08:56:53.000Z</time>
      </trkpt>
      <trkpt lat="43.74531" lon="4.77444">
        <ele>141.47547912598</ele>
        <time>2014-12-28T08:56:55.000Z</time>
      </trkpt>
      <trkpt lat="43.74546" lon="4.77427">
        <ele>139.82089233398</ele>
        <time>2014-12-28T08:56:58.000Z</time>
      </trkpt>
      <trkpt lat="43.74561" lon="4.77413">
        <ele>138.27462768555</ele>
        <time>2014-12-28T08:57:01.000Z</time>
      </trkpt>
      <trkpt lat="43.74572" lon="4.774">
        <ele>136.87553405762</ele>
        <time>2014-12-28T08:57:03.000Z</time>
      </trkpt>
      <trkpt lat="43.74585" lon="4.77383">
        <ele>135.70901489258</ele>
        <time>2014-12-28T08:57:06.000Z</time>
      </trkpt>
      <trkpt lat="43.7458" lon="4.77371">
        <ele>134.56271362305</ele>
        <time>2014-12-28T08:57:08.000Z</time>
      </trkpt>
      <trkpt lat="43.74563" lon="4.77374">
        <ele>133.54048156738</ele>
        <time>2014-12-28T08:57:11.000Z</time>
      </trkpt>
      <trkpt lat="43.7455" lon="4.7739">
        <ele>132.91354370117</ele>
        <time>2014-12-28T08:57:14.000Z</time>
      </trkpt>
      <trkpt lat="43.74533" lon="4.77403">
        <ele>132.53311157227</ele>
        <time>2014-12-28T08:57:17.000Z</time>
      </trkpt>
      <trkpt lat="43.74517" lon="4.77413">
        <ele>132.44999694824</ele>
        <time>2014-12-28T08:57:20.000Z</time>
      </trkpt>
      <trkpt lat="43.74503" lon="4.77408">
        <ele>132.35437011719</ele>
        <time>2014-12-28T08:57:22.000Z</time>
      </trkpt>
      <trkpt lat="43.74491" lon="4.77402">
        <ele>132.16040039062</ele>
        <time>2014-12-28T08:57:24.000Z</time>
      </trkpt>
      <trkpt lat="43.74469" lon="4.77383">
        <ele>131.06817626953</ele>
        <time>2014-12-28T08:57:27.000Z</time>
      </trkpt>
      <trkpt lat="43.74458" lon="4.77367">
        <ele>129.41149902344</ele>
        <time>2014-12-28T08:57:29.000Z</time>
      </trkpt>
      <trkpt lat="43.74433" lon="4.77349">
        <ele>127.1272354126</ele>
        <time>2014-12-28T08:57:32.000Z</time>
      </trkpt>
      <trkpt lat="43.74417" lon="4.7734">
        <ele>124.87143707275</ele>
        <time>2014-12-28T08:57:34.000Z</time>
      </trkpt>
      <trkpt lat="43.74392" lon="4.77325">
        <ele>122.71112060547</ele>
        <time>2014-12-28T08:57:37.000Z</time>
      </trkpt>
      <trkpt lat="43.74369" lon="4.77311">
        <ele>121.12963867188</ele>
        <time>2014-12-28T08:57:40.000Z</time>
      </trkpt>
      <trkpt lat="43.74353" lon="4.77306">
        <ele>120.01712799072</ele>
        <time>2014-12-28T08:57:42.000Z</time>
      </trkpt>
      <trkpt lat="43.74331" lon="4.77291">
        <ele>119.35038757324</ele>
        <time>2014-12-28T08:57:45.000Z</time>
      </trkpt>
      <trkpt lat="43.7431" lon="4.77278">
        <ele>118.98978424072</ele>
        <time>2014-12-28T08:57:48.000Z</time>
      </trkpt>
      <trkpt lat="43.74294" lon="4.77267">
        <ele>118.81301116943</ele>
        <time>2014-12-28T08:57:51.000Z</time>
      </trkpt>
      <trkpt lat="43.74284" lon="4.77265">
        <ele>118.81098937988</ele>
        <time>2014-12-28T08:57:53.000Z</time>
      </trkpt>
      <trkpt lat="43.74274" lon="4.77258">
        <ele>118.78224182129</ele>
        <time>2014-12-28T08:57:55.000Z</time>
      </trkpt>
      <trkpt lat="43.74258" lon="4.77252">
        <ele>118.84597015381</ele>
        <time>2014-12-28T08:57:58.000Z</time>
      </trkpt>
      <trkpt lat="43.74247" lon="4.77248">
        <ele>118.87797546387</ele>
        <time>2014-12-28T08:58:01.000Z</time>
      </trkpt>
      <trkpt lat="43.74237" lon="4.77244">
        <ele>118.94233703613</ele>
        <time>2014-12-28T08:58:03.000Z</time>
      </trkpt>
      <trkpt lat="43.74221" lon="4.77236">
        <ele>118.93880462646</ele>
        <time>2014-12-28T08:58:06.000Z</time>
      </trkpt>
      <trkpt lat="43.74213" lon="4.77231">
        <ele>118.94582366943</ele>
        <time>2014-12-28T08:58:08.000Z</time>
      </trkpt>
      <trkpt lat="43.74202" lon="4.77228">
        <ele>118.96594238281</ele>
        <time>2014-12-28T08:58:11.000Z</time>
      </trkpt>
      <trkpt lat="43.7419" lon="4.77222">
        <ele>118.95524597168</ele>
        <time>2014-12-28T08:58:14.000Z</time>
      </trkpt>
      <trkpt lat="43.74181" lon="4.77219">
        <ele>118.9312286377</ele>
        <time>2014-12-28T08:58:16.000Z</time>
      </trkpt>
      <trkpt lat="43.7417" lon="4.77208">
        <ele>118.81644439697</ele>
        <time>2014-12-28T08:58:19.000Z</time>
      </trkpt>
      <trkpt lat="43.74157" lon="4.77197">
        <ele>118.74078369141</ele>
        <time>2014-12-28T08:58:22.000Z</time>
      </trkpt>
      <trkpt lat="43.74148" lon="4.77189">
        <ele>118.64183044434</ele>
        <time>2014-12-28T08:58:24.000Z</time>
      </trkpt>
      <trkpt lat="43.74135" lon="4.7718">
        <ele>118.56162261963</ele>
        <time>2014-12-28T08:58:27.000Z</time>
      </trkpt>
      <trkpt lat="43.74127" lon="4.77176">
        <ele>118.4888458252</ele>
        <time>2014-12-28T08:58:30.000Z</time>
      </trkpt>
      <trkpt lat="43.74121" lon="4.77173">
        <ele>118.51723480225</ele>
        <time>2014-12-28T08:58:32.000Z</time>
      </trkpt>
      <trkpt lat="43.74117" lon="4.77169">
        <ele>118.4979095459</ele>
        <time>2014-12-28T08:58:34.000Z</time>
      </trkpt>
      <trkpt lat="43.74111" lon="4.7717">
        <ele>118.57261657715</ele>
        <time>2014-12-28T08:58:37.000Z</time>
      </trkpt>
      <trkpt lat="43.74108" lon="4.77168">
        <ele>118.59718322754</ele>
        <time>2014-12-28T08:58:39.000Z</time>
      </trkpt>
      <trkpt lat="43.74103" lon="4.77163">
        <ele>118.57873535156</ele>
        <time>2014-12-28T08:58:41.000Z</time>
      </trkpt>
      <trkpt lat="43.74094" lon="4.77156">
        <ele>118.5511932373</ele>
        <time>2014-12-28T08:58:44.000Z</time>
      </trkpt>
      <trkpt lat="43.74084" lon="4.77149">
        <ele>118.53248596191</ele>
        <time>2014-12-28T08:58:47.000Z</time>
      </trkpt>
      <trkpt lat="43.74078" lon="4.77141">
        <ele>118.32865905762</ele>
        <time>2014-12-28T08:58:49.000Z</time>
      </trkpt>
      <trkpt lat="43.7407" lon="4.77137">
        <ele>118.16870117188</ele>
        <time>2014-12-28T08:58:52.000Z</time>
      </trkpt>
      <trkpt lat="43.74063" lon="4.77134">
        <ele>118.03446960449</ele>
        <time>2014-12-28T08:58:55.000Z</time>
      </trkpt>
      <trkpt lat="43.74059" lon="4.77132">
        <ele>117.92923736572</ele>
        <time>2014-12-28T08:58:57.000Z</time>
      </trkpt>
      <trkpt lat="43.74053" lon="4.77129">
        <ele>117.849609375</ele>
        <time>2014-12-28T08:59:00.000Z</time>
      </trkpt>
      <trkpt lat="43.7405" lon="4.77128">
        <ele>117.8544921875</ele>
        <time>2014-12-28T08:59:02.000Z</time>
      </trkpt>
      <trkpt lat="43.74051" lon="4.7713">
        <ele>117.8974609375</ele>
        <time>2014-12-28T08:59:04.000Z</time>
      </trkpt>
      <trkpt lat="43.74054" lon="4.77133">
        <ele>117.9716796875</ele>
        <time>2014-12-28T08:59:07.000Z</time>
      </trkpt>
      <trkpt lat="43.74058" lon="4.77132">
        <ele>117.986328125</ele>
        <time>2014-12-28T08:59:10.000Z</time>
      </trkpt>
      <trkpt lat="43.74059" lon="4.77136">
        <ele>118.0498046875</ele>
        <time>2014-12-28T08:59:13.000Z</time>
      </trkpt>
      <trkpt lat="43.74058" lon="4.77138">
        <ele>118.1708984375</ele>
        <time>2014-12-28T08:59:15.000Z</time>
      </trkpt>
      <trkpt lat="43.74051" lon="4.77135">
        <ele>118.265625</ele>
        <time>2014-12-28T08:59:18.000Z</time>
      </trkpt>
      <trkpt lat="43.74044" lon="4.7713">
        <ele>118.310546875</ele>
        <time>2014-12-28T08:59:20.000Z</time>
      </trkpt>
      <trkpt lat="43.74036" lon="4.77126">
        <ele>118.4033203125</ele>
        <time>2014-12-28T08:59:22.000Z</time>
      </trkpt>
      <trkpt lat="43.74025" lon="4.77121">
        <ele>118.44140625</ele>
        <time>2014-12-28T08:59:25.000Z</time>
      </trkpt>
      <trkpt lat="43.74015" lon="4.77114">
        <ele>118.388671875</ele>
        <time>2014-12-28T08:59:28.000Z</time>
      </trkpt>
      <trkpt lat="43.74009" lon="4.77109">
        <ele>118.3037109375</ele>
        <time>2014-12-28T08:59:30.000Z</time>
      </trkpt>
      <trkpt lat="43.73998" lon="4.77102">
        <ele>118.21376037598</ele>
        <time>2014-12-28T08:59:33.000Z</time>
      </trkpt>
      <trkpt lat="43.73994" lon="4.77097">
        <ele>118.06107330322</ele>
        <time>2014-12-28T08:59:35.000Z</time>
      </trkpt>
      <trkpt lat="43.73993" lon="4.77098">
        <ele>117.94285583496</ele>
        <time>2014-12-28T08:59:38.000Z</time>
      </trkpt>
      <trkpt lat="43.73999" lon="4.77104">
        <ele>117.9217300415</ele>
        <time>2014-12-28T08:59:41.000Z</time>
      </trkpt>
      <trkpt lat="43.74011" lon="4.77113">
        <ele>117.957862854</ele>
        <time>2014-12-28T08:59:44.000Z</time>
      </trkpt>
      <trkpt lat="43.74023" lon="4.77119">
        <ele>118.02732086182</ele>
        <time>2014-12-28T08:59:47.000Z</time>
      </trkpt>
      <trkpt lat="43.74034" lon="4.77123">
        <ele>118.13604736328</ele>
        <time>2014-12-28T08:59:49.000Z</time>
      </trkpt>
      <trkpt lat="43.74044" lon="4.77127">
        <ele>118.18981933594</ele>
        <time>2014-12-28T08:59:52.000Z</time>
      </trkpt>
      <trkpt lat="43.74058" lon="4.77133">
        <ele>118.166015625</ele>
        <time>2014-12-28T08:59:55.000Z</time>
      </trkpt>
      <trkpt lat="43.74071" lon="4.77142">
        <ele>118.1484375</ele>
        <time>2014-12-28T08:59:58.000Z</time>
      </trkpt>
      <trkpt lat="43.74081" lon="4.77148">
        <ele>118.150390625</ele>
        <time>2014-12-28T09:00:00.000Z</time>
      </trkpt>
      <trkpt lat="43.74092" lon="4.77155">
        <ele>118.18414306641</ele>
        <time>2014-12-28T09:00:03.000Z</time>
      </trkpt>
      <trkpt lat="43.74099" lon="4.77163">
        <ele>118.31056976318</ele>
        <time>2014-12-28T09:00:05.000Z</time>
      </trkpt>
      <trkpt lat="43.74112" lon="4.77171">
        <ele>118.50551605225</ele>
        <time>2014-12-28T09:00:08.000Z</time>
      </trkpt>
      <trkpt lat="43.74126" lon="4.77179">
        <ele>118.69480895996</ele>
        <time>2014-12-28T09:00:11.000Z</time>
      </trkpt>
      <trkpt lat="43.74139" lon="4.77188">
        <ele>118.84384918213</ele>
        <time>2014-12-28T09:00:14.000Z</time>
      </trkpt>
      <trkpt lat="43.74154" lon="4.77196">
        <ele>118.91296386719</ele>
        <time>2014-12-28T09:00:17.000Z</time>
      </trkpt>
      <trkpt lat="43.74162" lon="4.77204">
        <ele>118.90114593506</ele>
        <time>2014-12-28T09:00:19.000Z</time>
      </trkpt>
      <trkpt lat="43.74168" lon="4.77209">
        <ele>118.8145904541</ele>
        <time>2014-12-28T09:00:21.000Z</time>
      </trkpt>
      <trkpt lat="43.74179" lon="4.77212">
        <ele>118.67928314209</ele>
        <time>2014-12-28T09:00:24.000Z</time>
      </trkpt>
      <trkpt lat="43.74186" lon="4.77216">
        <ele>118.57069396973</ele>
        <time>2014-12-28T09:00:26.000Z</time>
      </trkpt>
      <trkpt lat="43.74195" lon="4.77223">
        <ele>118.58853912354</ele>
        <time>2014-12-28T09:00:28.000Z</time>
      </trkpt>
      <trkpt lat="43.7421" lon="4.77229">
        <ele>118.61376953125</ele>
        <time>2014-12-28T09:00:31.000Z</time>
      </trkpt>
      <trkpt lat="43.74222" lon="4.77235">
        <ele>118.69120025635</ele>
        <time>2014-12-28T09:00:34.000Z</time>
      </trkpt>
      <trkpt lat="43.74232" lon="4.77243">
        <ele>118.82382965088</ele>
        <time>2014-12-28T09:00:36.000Z</time>
      </trkpt>
      <trkpt lat="43.74245" lon="4.77252">
        <ele>119.00122070312</ele>
        <time>2014-12-28T09:00:39.000Z</time>
      </trkpt>
      <trkpt lat="43.74252" lon="4.77253">
        <ele>119.0902557373</ele>
        <time>2014-12-28T09:00:41.000Z</time>
      </trkpt>
      <trkpt lat="43.74265" lon="4.77259">
        <ele>119.18424224854</ele>
        <time>2014-12-28T09:00:44.000Z</time>
      </trkpt>
      <trkpt lat="43.74273" lon="4.77259">
        <ele>119.20112609863</ele>
        <time>2014-12-28T09:00:46.000Z</time>
      </trkpt>
      <trkpt lat="43.74279" lon="4.77265">
        <ele>119.20973968506</ele>
        <time>2014-12-28T09:00:48.000Z</time>
      </trkpt>
      <trkpt lat="43.74289" lon="4.77265">
        <ele>119.09175109863</ele>
        <time>2014-12-28T09:00:51.000Z</time>
      </trkpt>
      <trkpt lat="43.74295" lon="4.77271">
        <ele>119.03636169434</ele>
        <time>2014-12-28T09:00:53.000Z</time>
      </trkpt>
      <trkpt lat="43.74306" lon="4.77281">
        <ele>119.01847839355</ele>
        <time>2014-12-28T09:00:56.000Z</time>
      </trkpt>
      <trkpt lat="43.74319" lon="4.77289">
        <ele>119.0379486084</ele>
        <time>2014-12-28T09:00:59.000Z</time>
      </trkpt>
      <trkpt lat="43.74326" lon="4.77292">
        <ele>118.98710632324</ele>
        <time>2014-12-28T09:01:01.000Z</time>
      </trkpt>
      <trkpt lat="43.74334" lon="4.77297">
        <ele>118.99178314209</ele>
        <time>2014-12-28T09:01:03.000Z</time>
      </trkpt>
      <trkpt lat="43.74344" lon="4.77302">
        <ele>118.9774017334</ele>
        <time>2014-12-28T09:01:06.000Z</time>
      </trkpt>
      <trkpt lat="43.74358" lon="4.77313">
        <ele>119.01208496094</ele>
        <time>2014-12-28T09:01:09.000Z</time>
      </trkpt>
      <trkpt lat="43.74367" lon="4.77317">
        <ele>119.08876037598</ele>
        <time>2014-12-28T09:01:11.000Z</time>
      </trkpt>
      <trkpt lat="43.74374" lon="4.77319">
        <ele>119.20394134521</ele>
        <time>2014-12-28T09:01:13.000Z</time>
      </trkpt>
      <trkpt lat="43.74386" lon="4.77323">
        <ele>119.3536529541</ele>
        <time>2014-12-28T09:01:16.000Z</time>
      </trkpt>
      <trkpt lat="43.74392" lon="4.77327">
        <ele>119.5311126709</ele>
        <time>2014-12-28T09:01:18.000Z</time>
      </trkpt>
      <trkpt lat="43.74403" lon="4.77332">
        <ele>119.68227386475</ele>
        <time>2014-12-28T09:01:21.000Z</time>
      </trkpt>
      <trkpt lat="43.7441" lon="4.77336">
        <ele>119.85831451416</ele>
        <time>2014-12-28T09:01:23.000Z</time>
      </trkpt>
      <trkpt lat="43.74416" lon="4.77339">
        <ele>120.07608795166</ele>
        <time>2014-12-28T09:01:25.000Z</time>
      </trkpt>
      <trkpt lat="43.74425" lon="4.77344">
        <ele>120.39418792725</ele>
        <time>2014-12-28T09:01:28.000Z</time>
      </trkpt>
      <trkpt lat="43.7443" lon="4.77348">
        <ele>120.7654800415</ele>
        <time>2014-12-28T09:01:30.000Z</time>
      </trkpt>
      <trkpt lat="43.74435" lon="4.7735">
        <ele>121.15277099609</ele>
        <time>2014-12-28T09:01:32.000Z</time>
      </trkpt>
      <trkpt lat="43.74442" lon="4.77354">
        <ele>121.60498046875</ele>
        <time>2014-12-28T09:01:35.000Z</time>
      </trkpt>
      <trkpt lat="43.74447" lon="4.77357">
        <ele>122.09706115723</ele>
        <time>2014-12-28T09:01:37.000Z</time>
      </trkpt>
      <trkpt lat="43.74454" lon="4.77362">
        <ele>122.63374328613</ele>
        <time>2014-12-28T09:01:40.000Z</time>
      </trkpt>
      <trkpt lat="43.74459" lon="4.77366">
        <ele>123.19956207275</ele>
        <time>2014-12-28T09:01:42.000Z</time>
      </trkpt>
      <trkpt lat="43.74464" lon="4.7737">
        <ele>123.8118057251</ele>
        <time>2014-12-28T09:01:44.000Z</time>
      </trkpt>
      <trkpt lat="43.7447" lon="4.77376">
        <ele>124.51271820068</ele>
        <time>2014-12-28T09:01:47.000Z</time>
      </trkpt>
      <trkpt lat="43.74474" lon="4.77381">
        <ele>125.25971984863</ele>
        <time>2014-12-28T09:01:49.000Z</time>
      </trkpt>
      <trkpt lat="43.74479" lon="4.77388">
        <ele>126.0818862915</ele>
        <time>2014-12-28T09:01:52.000Z</time>
      </trkpt>
      <trkpt lat="43.74484" lon="4.77394">
        <ele>126.99223327637</ele>
        <time>2014-12-28T09:01:55.000Z</time>
      </trkpt>
      <trkpt lat="43.74488" lon="4.774">
        <ele>127.97747802734</ele>
        <time>2014-12-28T09:01:58.000Z</time>
      </trkpt>
      <trkpt lat="43.7449" lon="4.77405">
        <ele>128.9165802002</ele>
        <time>2014-12-28T09:02:00.000Z</time>
      </trkpt>
      <trkpt lat="43.74495" lon="4.7741">
        <ele>129.9231262207</ele>
        <time>2014-12-28T09:02:03.000Z</time>
      </trkpt>
      <trkpt lat="43.745" lon="4.77416">
        <ele>130.91732788086</ele>
        <time>2014-12-28T09:02:06.000Z</time>
      </trkpt>
      <trkpt lat="43.74504" lon="4.7742">
        <ele>131.85974121094</ele>
        <time>2014-12-28T09:02:09.000Z</time>
      </trkpt>
      <trkpt lat="43.74506" lon="4.77422">
        <ele>132.66452026367</ele>
        <time>2014-12-28T09:02:11.000Z</time>
      </trkpt>
      <trkpt lat="43.74502" lon="4.77429">
        <ele>133.48092651367</ele>
        <time>2014-12-28T09:02:14.000Z</time>
      </trkpt>
      <trkpt lat="43.74496" lon="4.7744">
        <ele>134.33212280273</ele>
        <time>2014-12-28T09:02:17.000Z</time>
      </trkpt>
      <trkpt lat="43.74489" lon="4.77446">
        <ele>135.06805419922</ele>
        <time>2014-12-28T09:02:20.000Z</time>
      </trkpt>
      <trkpt lat="43.74485" lon="4.77449">
        <ele>135.67546081543</ele>
        <time>2014-12-28T09:02:22.000Z</time>
      </trkpt>
      <trkpt lat="43.74479" lon="4.77447">
        <ele>136.08679199219</ele>
        <time>2014-12-28T09:02:24.000Z</time>
      </trkpt>
      <trkpt lat="43.74476" lon="4.77449">
        <ele>136.37573242188</ele>
        <time>2014-12-28T09:02:26.000Z</time>
      </trkpt>
      <trkpt lat="43.74471" lon="4.77452">
        <ele>136.47564697266</ele>
        <time>2014-12-28T09:02:29.000Z</time>
      </trkpt>
      <trkpt lat="43.74468" lon="4.77455">
        <ele>136.51031494141</ele>
        <time>2014-12-28T09:02:31.000Z</time>
      </trkpt>
      <trkpt lat="43.74464" lon="4.77456">
        <ele>136.5124206543</ele>
        <time>2014-12-28T09:02:33.000Z</time>
      </trkpt>
      <trkpt lat="43.74461" lon="4.77459">
        <ele>136.69062805176</ele>
        <time>2014-12-28T09:02:36.000Z</time>
      </trkpt>
      <trkpt lat="43.74457" lon="4.77463">
        <ele>136.90684509277</ele>
        <time>2014-12-28T09:02:39.000Z</time>
      </trkpt>
      <trkpt lat="43.74454" lon="4.77468">
        <ele>137.17602539062</ele>
        <time>2014-12-28T09:02:42.000Z</time>
      </trkpt>
      <trkpt lat="43.74451" lon="4.77469">
        <ele>137.41108703613</ele>
        <time>2014-12-28T09:02:45.000Z</time>
      </trkpt>
      <trkpt lat="43.74448" lon="4.77469">
        <ele>137.62019348145</ele>
        <time>2014-12-28T09:02:47.000Z</time>
      </trkpt>
      <trkpt lat="43.74445" lon="4.77472">
        <ele>137.84188842773</ele>
        <time>2014-12-28T09:02:49.000Z</time>
      </trkpt>
      <trkpt lat="43.7444" lon="4.77477">
        <ele>138.0739440918</ele>
        <time>2014-12-28T09:02:52.000Z</time>
      </trkpt>
      <trkpt lat="43.74437" lon="4.77479">
        <ele>138.25527954102</ele>
        <time>2014-12-28T09:02:54.000Z</time>
      </trkpt>
      <trkpt lat="43.74433" lon="4.77484">
        <ele>138.53744506836</ele>
        <time>2014-12-28T09:02:57.000Z</time>
      </trkpt>
      <trkpt lat="43.74431" lon="4.77489">
        <ele>138.96868896484</ele>
        <time>2014-12-28T09:02:59.000Z</time>
      </trkpt>
      <trkpt lat="43.74429" lon="4.77492">
        <ele>139.42501831055</ele>
        <time>2014-12-28T09:03:01.000Z</time>
      </trkpt>
      <trkpt lat="43.74426" lon="4.77495">
        <ele>139.84443664551</ele>
        <time>2014-12-28T09:03:04.000Z</time>
      </trkpt>
      <trkpt lat="43.74421" lon="4.77496">
        <ele>140.20585632324</ele>
        <time>2014-12-28T09:03:07.000Z</time>
      </trkpt>
      <trkpt lat="43.74416" lon="4.77498">
        <ele>140.45767211914</ele>
        <time>2014-12-28T09:03:09.000Z</time>
      </trkpt>
      <trkpt lat="43.74408" lon="4.77496">
        <ele>140.4953918457</ele>
        <time>2014-12-28T09:03:12.000Z</time>
      </trkpt>
      <trkpt lat="43.74406" lon="4.77501">
        <ele>140.59301757812</ele>
        <time>2014-12-28T09:03:14.000Z</time>
      </trkpt>
      <trkpt lat="43.74405" lon="4.77507">
        <ele>140.88415527344</ele>
        <time>2014-12-28T09:03:17.000Z</time>
      </trkpt>
      <trkpt lat="43.74403" lon="4.7751">
        <ele>141.28132629395</ele>
        <time>2014-12-28T09:03:20.000Z</time>
      </trkpt>
      <trkpt lat="43.74399" lon="4.77515">
        <ele>141.86744689941</ele>
        <time>2014-12-28T09:03:23.000Z</time>
      </trkpt>
      <trkpt lat="43.74396" lon="4.77517">
        <ele>142.6109161377</ele>
        <time>2014-12-28T09:03:25.000Z</time>
      </trkpt>
      <trkpt lat="43.74394" lon="4.77518">
        <ele>143.24829101562</ele>
        <time>2014-12-28T09:03:27.000Z</time>
      </trkpt>
      <trkpt lat="43.7439" lon="4.77521">
        <ele>143.72686767578</ele>
        <time>2014-12-28T09:03:30.000Z</time>
      </trkpt>
      <trkpt lat="43.74388" lon="4.77522">
        <ele>144.14637756348</ele>
        <time>2014-12-28T09:03:32.000Z</time>
      </trkpt>
      <trkpt lat="43.74385" lon="4.77524">
        <ele>144.43522644043</ele>
        <time>2014-12-28T09:03:35.000Z</time>
      </trkpt>
      <trkpt lat="43.74383" lon="4.77524">
        <ele>144.66021728516</ele>
        <time>2014-12-28T09:03:37.000Z</time>
      </trkpt>
      <trkpt lat="43.74381" lon="4.77524">
        <ele>144.82559204102</ele>
        <time>2014-12-28T09:03:40.000Z</time>
      </trkpt>
      <trkpt lat="43.7438" lon="4.77523">
        <ele>144.87580871582</ele>
        <time>2014-12-28T09:03:42.000Z</time>
      </trkpt>
      <trkpt lat="43.74376" lon="4.77518">
        <ele>144.64422607422</ele>
        <time>2014-12-28T09:03:45.000Z</time>
      </trkpt>
      <trkpt lat="43.74372" lon="4.77516">
        <ele>144.279296875</ele>
        <time>2014-12-28T09:04:03.000Z</time>
      </trkpt>
      <trkpt lat="43.74369" lon="4.77517">
        <ele>143.93046569824</ele>
        <time>2014-12-28T09:04:06.000Z</time>
      </trkpt>
      <trkpt lat="43.74366" lon="4.77519">
        <ele>143.6498260498</ele>
        <time>2014-12-28T09:04:09.000Z</time>
      </trkpt>
      <trkpt lat="43.74364" lon="4.77522">
        <ele>143.50080871582</ele>
        <time>2014-12-28T09:04:11.000Z</time>
      </trkpt>
      <trkpt lat="43.74361" lon="4.77524">
        <ele>143.66860961914</ele>
        <time>2014-12-28T09:04:13.000Z</time>
      </trkpt>
      <trkpt lat="43.74359" lon="4.77526">
        <ele>143.95803833008</ele>
        <time>2014-12-28T09:04:15.000Z</time>
      </trkpt>
      <trkpt lat="43.74356" lon="4.7753">
        <ele>144.38175964355</ele>
        <time>2014-12-28T09:04:17.000Z</time>
      </trkpt>
      <trkpt lat="43.74354" lon="4.77536">
        <ele>144.99340820312</ele>
        <time>2014-12-28T09:04:20.000Z</time>
      </trkpt>
      <trkpt lat="43.74352" lon="4.7754">
        <ele>145.64373779297</ele>
        <time>2014-12-28T09:04:22.000Z</time>
      </trkpt>
      <trkpt lat="43.74345" lon="4.77545">
        <ele>146.37019348145</ele>
        <time>2014-12-28T09:04:25.000Z</time>
      </trkpt>
      <trkpt lat="43.74341" lon="4.77551">
        <ele>147.24969482422</ele>
        <time>2014-12-28T09:04:28.000Z</time>
      </trkpt>
      <trkpt lat="43.74337" lon="4.77555">
        <ele>148.1188659668</ele>
        <time>2014-12-28T09:04:30.000Z</time>
      </trkpt>
      <trkpt lat="43.74331" lon="4.77559">
        <ele>148.87924194336</ele>
        <time>2014-12-28T09:04:33.000Z</time>
      </trkpt>
      <trkpt lat="43.74328" lon="4.77563">
        <ele>149.60234069824</ele>
        <time>2014-12-28T09:04:35.000Z</time>
      </trkpt>
      <trkpt lat="43.74327" lon="4.77568">
        <ele>150.37924194336</ele>
        <time>2014-12-28T09:04:37.000Z</time>
      </trkpt>
      <trkpt lat="43.74324" lon="4.77575">
        <ele>151.18098449707</ele>
        <time>2014-12-28T09:04:40.000Z</time>
      </trkpt>
      <trkpt lat="43.74323" lon="4.77577">
        <ele>151.91677856445</ele>
        <time>2014-12-28T09:04:42.000Z</time>
      </trkpt>
      <trkpt lat="43.7432" lon="4.77578">
        <ele>152.55633544922</ele>
        <time>2014-12-28T09:04:44.000Z</time>
      </trkpt>
      <trkpt lat="43.74316" lon="4.77583">
        <ele>153.22062683105</ele>
        <time>2014-12-28T09:04:47.000Z</time>
      </trkpt>
      <trkpt lat="43.7431" lon="4.77587">
        <ele>153.83323669434</ele>
        <time>2014-12-28T09:04:50.000Z</time>
      </trkpt>
      <trkpt lat="43.74306" lon="4.7759">
        <ele>154.34436035156</ele>
        <time>2014-12-28T09:04:52.000Z</time>
      </trkpt>
      <trkpt lat="43.74303" lon="4.77592">
        <ele>154.86845397949</ele>
        <time>2014-12-28T09:04:54.000Z</time>
      </trkpt>
      <trkpt lat="43.743" lon="4.77596">
        <ele>155.56033325195</ele>
        <time>2014-12-28T09:04:56.000Z</time>
      </trkpt>
      <trkpt lat="43.74299" lon="4.77599">
        <ele>156.2526550293</ele>
        <time>2014-12-28T09:04:59.000Z</time>
      </trkpt>
      <trkpt lat="43.74297" lon="4.77597">
        <ele>156.66738891602</ele>
        <time>2014-12-28T09:05:02.000Z</time>
      </trkpt>
      <trkpt lat="43.74296" lon="4.77596">
        <ele>156.86772155762</ele>
        <time>2014-12-28T09:05:04.000Z</time>
      </trkpt>
      <trkpt lat="43.74295" lon="4.77589">
        <ele>156.66416931152</ele>
        <time>2014-12-28T09:05:09.000Z</time>
      </trkpt>
      <trkpt lat="43.74295" lon="4.77587">
        <ele>156.17172241211</ele>
        <time>2014-12-28T09:05:23.000Z</time>
      </trkpt>
      <trkpt lat="43.74294" lon="4.77587">
        <ele>155.54141235352</ele>
        <time>2014-12-28T09:05:25.000Z</time>
      </trkpt>
      <trkpt lat="43.74291" lon="4.77591">
        <ele>155.20303344727</ele>
        <time>2014-12-28T09:05:27.000Z</time>
      </trkpt>
      <trkpt lat="43.74284" lon="4.77595">
        <ele>155.0654296875</ele>
        <time>2014-12-28T09:05:30.000Z</time>
      </trkpt>
      <trkpt lat="43.74279" lon="4.77597">
        <ele>155.31637573242</ele>
        <time>2014-12-28T09:05:32.000Z</time>
      </trkpt>
      <trkpt lat="43.74275" lon="4.776">
        <ele>155.76837158203</ele>
        <time>2014-12-28T09:05:34.000Z</time>
      </trkpt>
      <trkpt lat="43.74269" lon="4.77607">
        <ele>156.50274658203</ele>
        <time>2014-12-28T09:05:37.000Z</time>
      </trkpt>
      <trkpt lat="43.74267" lon="4.77614">
        <ele>157.40200805664</ele>
        <time>2014-12-28T09:05:39.000Z</time>
      </trkpt>
      <trkpt lat="43.74264" lon="4.77625">
        <ele>158.66860961914</ele>
        <time>2014-12-28T09:05:42.000Z</time>
      </trkpt>
      <trkpt lat="43.7426" lon="4.77629">
        <ele>159.99981689453</ele>
        <time>2014-12-28T09:05:44.000Z</time>
      </trkpt>
      <trkpt lat="43.74253" lon="4.77634">
        <ele>161.37051391602</ele>
        <time>2014-12-28T09:05:47.000Z</time>
      </trkpt>
      <trkpt lat="43.7425" lon="4.7764">
        <ele>162.71081542969</ele>
        <time>2014-12-28T09:05:49.000Z</time>
      </trkpt>
      <trkpt lat="43.74245" lon="4.77647">
        <ele>164.0524597168</ele>
        <time>2014-12-28T09:05:52.000Z</time>
      </trkpt>
      <trkpt lat="43.74239" lon="4.77654">
        <ele>165.17367553711</ele>
        <time>2014-12-28T09:05:55.000Z</time>
      </trkpt>
      <trkpt lat="43.74233" lon="4.77659">
        <ele>166.33659362793</ele>
        <time>2014-12-28T09:05:58.000Z</time>
      </trkpt>
      <trkpt lat="43.7423" lon="4.77661">
        <ele>167.45114135742</ele>
        <time>2014-12-28T09:06:00.000Z</time>
      </trkpt>
      <trkpt lat="43.74224" lon="4.77661">
        <ele>168.2523651123</ele>
        <time>2014-12-28T09:06:03.000Z</time>
      </trkpt>
      <trkpt lat="43.74218" lon="4.77662">
        <ele>168.72192382812</ele>
        <time>2014-12-28T09:06:06.000Z</time>
      </trkpt>
      <trkpt lat="43.74213" lon="4.77663">
        <ele>168.93859863281</ele>
        <time>2014-12-28T09:06:09.000Z</time>
      </trkpt>
      <trkpt lat="43.74206" lon="4.77662">
        <ele>168.91184997559</ele>
        <time>2014-12-28T09:06:12.000Z</time>
      </trkpt>
      <trkpt lat="43.74201" lon="4.77667">
        <ele>168.91606140137</ele>
        <time>2014-12-28T09:06:14.000Z</time>
      </trkpt>
      <trkpt lat="43.74197" lon="4.77672">
        <ele>169.10087585449</ele>
        <time>2014-12-28T09:06:16.000Z</time>
      </trkpt>
      <trkpt lat="43.74192" lon="4.77678">
        <ele>169.40219116211</ele>
        <time>2014-12-28T09:06:19.000Z</time>
      </trkpt>
      <trkpt lat="43.74185" lon="4.77683">
        <ele>169.77897644043</ele>
        <time>2014-12-28T09:06:22.000Z</time>
      </trkpt>
      <trkpt lat="43.74179" lon="4.77685">
        <ele>170.20635986328</ele>
        <time>2014-12-28T09:06:25.000Z</time>
      </trkpt>
      <trkpt lat="43.74174" lon="4.77688">
        <ele>170.51504516602</ele>
        <time>2014-12-28T09:06:28.000Z</time>
      </trkpt>
      <trkpt lat="43.74171" lon="4.77695">
        <ele>170.82070922852</ele>
        <time>2014-12-28T09:06:31.000Z</time>
      </trkpt>
      <trkpt lat="43.7417" lon="4.777">
        <ele>171.10394287109</ele>
        <time>2014-12-28T09:06:33.000Z</time>
      </trkpt>
      <trkpt lat="43.74172" lon="4.77705">
        <ele>171.4423828125</ele>
        <time>2014-12-28T09:06:36.000Z</time>
      </trkpt>
      <trkpt lat="43.74171" lon="4.77708">
        <ele>171.86991882324</ele>
        <time>2014-12-28T09:06:38.000Z</time>
      </trkpt>
      <trkpt lat="43.74171" lon="4.77716">
        <ele>172.4712677002</ele>
        <time>2014-12-28T09:06:41.000Z</time>
      </trkpt>
      <trkpt lat="43.74176" lon="4.77727">
        <ele>173.3125</ele>
        <time>2014-12-28T09:06:44.000Z</time>
      </trkpt>
      <trkpt lat="43.74175" lon="4.77731">
        <ele>174.12619018555</ele>
        <time>2014-12-28T09:06:46.000Z</time>
      </trkpt>
      <trkpt lat="43.74172" lon="4.77735">
        <ele>174.83183288574</ele>
        <time>2014-12-28T09:06:49.000Z</time>
      </trkpt>
      <trkpt lat="43.74168" lon="4.77738">
        <ele>175.41830444336</ele>
        <time>2014-12-28T09:06:52.000Z</time>
      </trkpt>
      <trkpt lat="43.74168" lon="4.77738">
        <ele>175.41830444336</ele>
        <time>2014-12-28T09:07:12.000Z</time>
      </trkpt>
      <trkpt lat="43.74163" lon="4.77737">
        <ele>175.7414855957</ele>
        <time>2014-12-28T09:09:19.000Z</time>
      </trkpt>
      <trkpt lat="43.74163" lon="4.77737">
        <ele>175.7414855957</ele>
        <time>2014-12-28T09:09:39.000Z</time>
      </trkpt>
      <trkpt lat="43.74162" lon="4.77737">
        <ele>175.69631958008</ele>
        <time>2014-12-28T09:10:18.000Z</time>
      </trkpt>
      <trkpt lat="43.74162" lon="4.77737">
        <ele>175.69631958008</ele>
        <time>2014-12-28T09:10:38.000Z</time>
      </trkpt>
      <trkpt lat="43.74162" lon="4.77735">
        <ele>175.55606079102</ele>
        <time>2014-12-28T09:10:39.000Z</time>
      </trkpt>
      <trkpt lat="43.74162" lon="4.77735">
        <ele>175.55606079102</ele>
        <time>2014-12-28T09:10:59.000Z</time>
      </trkpt>
      <trkpt lat="43.74162" lon="4.77737">
        <ele>175.40872192383</ele>
        <time>2014-12-28T09:11:24.000Z</time>
      </trkpt>
      <trkpt lat="43.74159" lon="4.77738">
        <ele>175.30416870117</ele>
        <time>2014-12-28T09:11:26.000Z</time>
      </trkpt>
      <trkpt lat="43.74158" lon="4.77738">
        <ele>175.26321411133</ele>
        <time>2014-12-28T09:11:29.000Z</time>
      </trkpt>
      <trkpt lat="43.74155" lon="4.77743">
        <ele>175.30587768555</ele>
        <time>2014-12-28T09:11:32.000Z</time>
      </trkpt>
      <trkpt lat="43.74154" lon="4.77748">
        <ele>175.43850708008</ele>
        <time>2014-12-28T09:11:34.000Z</time>
      </trkpt>
      <trkpt lat="43.7415" lon="4.77749">
        <ele>175.51234436035</ele>
        <time>2014-12-28T09:11:37.000Z</time>
      </trkpt>
      <trkpt lat="43.74145" lon="4.77749">
        <ele>175.52163696289</ele>
        <time>2014-12-28T09:11:40.000Z</time>
      </trkpt>
      <trkpt lat="43.7414" lon="4.77751">
        <ele>175.51577758789</ele>
        <time>2014-12-28T09:11:43.000Z</time>
      </trkpt>
      <trkpt lat="43.74136" lon="4.77756">
        <ele>175.4295501709</ele>
        <time>2014-12-28T09:11:46.000Z</time>
      </trkpt>
      <trkpt lat="43.74128" lon="4.77753">
        <ele>175.13516235352</ele>
        <time>2014-12-28T09:11:49.000Z</time>
      </trkpt>
      <trkpt lat="43.74126" lon="4.77753">
        <ele>174.83804321289</ele>
        <time>2014-12-28T09:11:51.000Z</time>
      </trkpt>
      <trkpt lat="43.74124" lon="4.77751">
        <ele>174.56632995605</ele>
        <time>2014-12-28T09:11:53.000Z</time>
      </trkpt>
      <trkpt lat="43.7412" lon="4.77751">
        <ele>174.26063537598</ele>
        <time>2014-12-28T09:11:55.000Z</time>
      </trkpt>
      <trkpt lat="43.74115" lon="4.77748">
        <ele>173.88021850586</ele>
        <time>2014-12-28T09:11:57.000Z</time>
      </trkpt>
      <trkpt lat="43.74105" lon="4.77742">
        <ele>173.49642944336</ele>
        <time>2014-12-28T09:12:00.000Z</time>
      </trkpt>
      <trkpt lat="43.74098" lon="4.77739">
        <ele>173.07580566406</ele>
        <time>2014-12-28T09:12:02.000Z</time>
      </trkpt>
      <trkpt lat="43.74087" lon="4.77735">
        <ele>172.5892791748</ele>
        <time>2014-12-28T09:12:05.000Z</time>
      </trkpt>
      <trkpt lat="43.74081" lon="4.77731">
        <ele>172.0708770752</ele>
        <time>2014-12-28T09:12:07.000Z</time>
      </trkpt>
      <trkpt lat="43.74069" lon="4.77729">
        <ele>171.27182006836</ele>
        <time>2014-12-28T09:12:10.000Z</time>
      </trkpt>
      <trkpt lat="43.74063" lon="4.77728">
        <ele>170.44223022461</ele>
        <time>2014-12-28T09:12:12.000Z</time>
      </trkpt>
      <trkpt lat="43.74059" lon="4.77727">
        <ele>169.57681274414</ele>
        <time>2014-12-28T09:12:15.000Z</time>
      </trkpt>
      <trkpt lat="43.74051" lon="4.77722">
        <ele>168.65278625488</ele>
        <time>2014-12-28T09:12:18.000Z</time>
      </trkpt>
      <trkpt lat="43.74041" lon="4.7772">
        <ele>167.56015014648</ele>
        <time>2014-12-28T09:12:21.000Z</time>
      </trkpt>
      <trkpt lat="43.74036" lon="4.77723">
        <ele>166.62033081055</ele>
        <time>2014-12-28T09:12:23.000Z</time>
      </trkpt>
      <trkpt lat="43.74028" lon="4.77728">
        <ele>165.52255249023</ele>
        <time>2014-12-28T09:12:26.000Z</time>
      </trkpt>
      <trkpt lat="43.74025" lon="4.77732">
        <ele>164.33163452148</ele>
        <time>2014-12-28T09:12:28.000Z</time>
      </trkpt>
      <trkpt lat="43.74022" lon="4.77737">
        <ele>163.09790039062</ele>
        <time>2014-12-28T09:12:31.000Z</time>
      </trkpt>
      <trkpt lat="43.74019" lon="4.7774">
        <ele>161.97035217285</ele>
        <time>2014-12-28T09:12:33.000Z</time>
      </trkpt>
      <trkpt lat="43.74015" lon="4.77742">
        <ele>160.83961486816</ele>
        <time>2014-12-28T09:12:35.000Z</time>
      </trkpt>
      <trkpt lat="43.74007" lon="4.77743">
        <ele>159.75857543945</ele>
        <time>2014-12-28T09:12:38.000Z</time>
      </trkpt>
      <trkpt lat="43.74002" lon="4.77743">
        <ele>158.70040893555</ele>
        <time>2014-12-28T09:12:40.000Z</time>
      </trkpt>
      <trkpt lat="43.73999" lon="4.77744">
        <ele>157.68884277344</ele>
        <time>2014-12-28T09:12:43.000Z</time>
      </trkpt>
      <trkpt lat="43.73993" lon="4.77746">
        <ele>156.59983825684</ele>
        <time>2014-12-28T09:12:46.000Z</time>
      </trkpt>
      <trkpt lat="43.73992" lon="4.77749">
        <ele>155.61543273926</ele>
        <time>2014-12-28T09:12:48.000Z</time>
      </trkpt>
      <trkpt lat="43.73991" lon="4.77751">
        <ele>154.83349609375</ele>
        <time>2014-12-28T09:12:50.000Z</time>
      </trkpt>
      <trkpt lat="43.7399" lon="4.77752">
        <ele>154.1953125</ele>
        <time>2014-12-28T09:12:53.000Z</time>
      </trkpt>
      <trkpt lat="43.73989" lon="4.77749">
        <ele>153.75930786133</ele>
        <time>2014-12-28T09:13:07.000Z</time>
      </trkpt>
      <trkpt lat="43.73989" lon="4.77749">
        <ele>153.75930786133</ele>
        <time>2014-12-28T09:13:27.000Z</time>
      </trkpt>
      <trkpt lat="43.73989" lon="4.7775">
        <ele>153.51992797852</ele>
        <time>2014-12-28T09:13:39.000Z</time>
      </trkpt>
      <trkpt lat="43.73987" lon="4.77756">
        <ele>153.24758911133</ele>
        <time>2014-12-28T09:13:41.000Z</time>
      </trkpt>
      <trkpt lat="43.73983" lon="4.77765">
        <ele>152.83828735352</ele>
        <time>2014-12-28T09:13:44.000Z</time>
      </trkpt>
      <trkpt lat="43.73979" lon="4.77769">
        <ele>152.30435180664</ele>
        <time>2014-12-28T09:13:46.000Z</time>
      </trkpt>
      <trkpt lat="43.73975" lon="4.77778">
        <ele>151.5173034668</ele>
        <time>2014-12-28T09:13:49.000Z</time>
      </trkpt>
      <trkpt lat="43.73972" lon="4.77783">
        <ele>150.59336853027</ele>
        <time>2014-12-28T09:13:51.000Z</time>
      </trkpt>
      <trkpt lat="43.73969" lon="4.77787">
        <ele>149.70080566406</ele>
        <time>2014-12-28T09:13:53.000Z</time>
      </trkpt>
      <trkpt lat="43.73965" lon="4.77791">
        <ele>148.86628723145</ele>
        <time>2014-12-28T09:13:56.000Z</time>
      </trkpt>
      <trkpt lat="43.73963" lon="4.77793">
        <ele>148.10729980469</ele>
        <time>2014-12-28T09:13:58.000Z</time>
      </trkpt>
      <trkpt lat="43.73956" lon="4.77796">
        <ele>147.33651733398</ele>
        <time>2014-12-28T09:14:01.000Z</time>
      </trkpt>
      <trkpt lat="43.73949" lon="4.778">
        <ele>146.47798156738</ele>
        <time>2014-12-28T09:14:04.000Z</time>
      </trkpt>
      <trkpt lat="43.7394" lon="4.77804">
        <ele>145.44148254395</ele>
        <time>2014-12-28T09:14:07.000Z</time>
      </trkpt>
      <trkpt lat="43.73938" lon="4.77804">
        <ele>144.49406433105</ele>
        <time>2014-12-28T09:14:09.000Z</time>
      </trkpt>
      <trkpt lat="43.73936" lon="4.77804">
        <ele>143.58522033691</ele>
        <time>2014-12-28T09:14:12.000Z</time>
      </trkpt>
      <trkpt lat="43.73935" lon="4.77806">
        <ele>142.84884643555</ele>
        <time>2014-12-28T09:14:14.000Z</time>
      </trkpt>
      <trkpt lat="43.73934" lon="4.77806">
        <ele>142.34390258789</ele>
        <time>2014-12-28T09:14:20.000Z</time>
      </trkpt>
      <trkpt lat="43.73929" lon="4.77807">
        <ele>141.97473144531</ele>
        <time>2014-12-28T09:14:22.000Z</time>
      </trkpt>
      <trkpt lat="43.73922" lon="4.77809">
        <ele>141.46771240234</ele>
        <time>2014-12-28T09:14:25.000Z</time>
      </trkpt>
      <trkpt lat="43.73923" lon="4.7781">
        <ele>141.01754760742</ele>
        <time>2014-12-28T09:14:30.000Z</time>
      </trkpt>
      <trkpt lat="43.73922" lon="4.77809">
        <ele>140.60104370117</ele>
        <time>2014-12-28T09:14:38.000Z</time>
      </trkpt>
      <trkpt lat="43.73917" lon="4.77813">
        <ele>140.03988647461</ele>
        <time>2014-12-28T09:14:41.000Z</time>
      </trkpt>
      <trkpt lat="43.73914" lon="4.77814">
        <ele>139.45141601562</ele>
        <time>2014-12-28T09:14:43.000Z</time>
      </trkpt>
      <trkpt lat="43.73913" lon="4.77816">
        <ele>138.94171142578</ele>
        <time>2014-12-28T09:14:46.000Z</time>
      </trkpt>
      <trkpt lat="43.73912" lon="4.7782">
        <ele>138.33139038086</ele>
        <time>2014-12-28T09:14:49.000Z</time>
      </trkpt>
      <trkpt lat="43.73912" lon="4.77824">
        <ele>137.7290802002</ele>
        <time>2014-12-28T09:14:58.000Z</time>
      </trkpt>
      <trkpt lat="43.73908" lon="4.77824">
        <ele>137.01643371582</ele>
        <time>2014-12-28T09:15:00.000Z</time>
      </trkpt>
      <trkpt lat="43.73902" lon="4.77822">
        <ele>136.05155944824</ele>
        <time>2014-12-28T09:15:03.000Z</time>
      </trkpt>
      <trkpt lat="43.73897" lon="4.77824">
        <ele>134.89624023438</ele>
        <time>2014-12-28T09:15:05.000Z</time>
      </trkpt>
      <trkpt lat="43.73894" lon="4.77825">
        <ele>133.59527587891</ele>
        <time>2014-12-28T09:15:07.000Z</time>
      </trkpt>
      <trkpt lat="43.73891" lon="4.77827">
        <ele>132.08752441406</ele>
        <time>2014-12-28T09:15:09.000Z</time>
      </trkpt>
      <trkpt lat="43.73887" lon="4.77835">
        <ele>130.59629821777</ele>
        <time>2014-12-28T09:15:12.000Z</time>
      </trkpt>
      <trkpt lat="43.73884" lon="4.77843">
        <ele>129.5984954834</ele>
        <time>2014-12-28T09:15:14.000Z</time>
      </trkpt>
      <trkpt lat="43.7388" lon="4.7785">
        <ele>128.86643981934</ele>
        <time>2014-12-28T09:15:16.000Z</time>
      </trkpt>
      <trkpt lat="43.73876" lon="4.77859">
        <ele>128.30966186523</ele>
        <time>2014-12-28T09:15:18.000Z</time>
      </trkpt>
      <trkpt lat="43.73867" lon="4.7787">
        <ele>127.67614746094</ele>
        <time>2014-12-28T09:15:21.000Z</time>
      </trkpt>
      <trkpt lat="43.73862" lon="4.77878">
        <ele>127.12099456787</ele>
        <time>2014-12-28T09:15:23.000Z</time>
      </trkpt>
      <trkpt lat="43.73854" lon="4.77884">
        <ele>126.13913726807</ele>
        <time>2014-12-28T09:15:26.000Z</time>
      </trkpt>
      <trkpt lat="43.73851" lon="4.77886">
        <ele>124.94732666016</ele>
        <time>2014-12-28T09:15:28.000Z</time>
      </trkpt>
      <trkpt lat="43.73845" lon="4.77891">
        <ele>123.52339935303</ele>
        <time>2014-12-28T09:15:31.000Z</time>
      </trkpt>
      <trkpt lat="43.73838" lon="4.77896">
        <ele>121.97100830078</ele>
        <time>2014-12-28T09:15:34.000Z</time>
      </trkpt>
      <trkpt lat="43.73829" lon="4.77896">
        <ele>119.99642181396</ele>
        <time>2014-12-28T09:15:37.000Z</time>
      </trkpt>
      <trkpt lat="43.73826" lon="4.77902">
        <ele>118.37919616699</ele>
        <time>2014-12-28T09:15:39.000Z</time>
      </trkpt>
      <trkpt lat="43.73826" lon="4.77908">
        <ele>117.15872955322</ele>
        <time>2014-12-28T09:15:42.000Z</time>
      </trkpt>
      <trkpt lat="43.73826" lon="4.7791">
        <ele>116.27648925781</ele>
        <time>2014-12-28T09:15:44.000Z</time>
      </trkpt>
      <trkpt lat="43.73824" lon="4.7792">
        <ele>115.96923828125</ele>
        <time>2014-12-28T09:15:47.000Z</time>
      </trkpt>
      <trkpt lat="43.73825" lon="4.77928">
        <ele>116.44979095459</ele>
        <time>2014-12-28T09:15:49.000Z</time>
      </trkpt>
      <trkpt lat="43.73825" lon="4.77934">
        <ele>117.05937194824</ele>
        <time>2014-12-28T09:15:52.000Z</time>
      </trkpt>
      <trkpt lat="43.73825" lon="4.77941">
        <ele>117.67378234863</ele>
        <time>2014-12-28T09:15:55.000Z</time>
      </trkpt>
      <trkpt lat="43.73823" lon="4.77947">
        <ele>118.22922515869</ele>
        <time>2014-12-28T09:15:57.000Z</time>
      </trkpt>
      <trkpt lat="43.73823" lon="4.77956">
        <ele>118.8291015625</ele>
        <time>2014-12-28T09:15:59.000Z</time>
      </trkpt>
      <trkpt lat="43.73822" lon="4.77971">
        <ele>119.49369049072</ele>
        <time>2014-12-28T09:16:02.000Z</time>
      </trkpt>
      <trkpt lat="43.73817" lon="4.77995">
        <ele>120.16023254395</ele>
        <time>2014-12-28T09:16:05.000Z</time>
      </trkpt>
      <trkpt lat="43.73809" lon="4.78007">
        <ele>120.4603729248</ele>
        <time>2014-12-28T09:16:08.000Z</time>
      </trkpt>
      <trkpt lat="43.73804" lon="4.78016">
        <ele>120.62615966797</ele>
        <time>2014-12-28T09:16:10.000Z</time>
      </trkpt>
      <trkpt lat="43.73802" lon="4.78025">
        <ele>120.66298675537</ele>
        <time>2014-12-28T09:16:12.000Z</time>
      </trkpt>
      <trkpt lat="43.73804" lon="4.78035">
        <ele>120.75443267822</ele>
        <time>2014-12-28T09:16:14.000Z</time>
      </trkpt>
      <trkpt lat="43.73803" lon="4.78045">
        <ele>120.90352630615</ele>
        <time>2014-12-28T09:16:17.000Z</time>
      </trkpt>
      <trkpt lat="43.73805" lon="4.78051">
        <ele>121.52722167969</ele>
        <time>2014-12-28T09:16:19.000Z</time>
      </trkpt>
      <trkpt lat="43.73807" lon="4.78057">
        <ele>122.51914215088</ele>
        <time>2014-12-28T09:16:21.000Z</time>
      </trkpt>
      <trkpt lat="43.73806" lon="4.78066">
        <ele>123.57651519775</ele>
        <time>2014-12-28T09:16:24.000Z</time>
      </trkpt>
      <trkpt lat="43.73803" lon="4.78075">
        <ele>124.31064605713</ele>
        <time>2014-12-28T09:16:27.000Z</time>
      </trkpt>
      <trkpt lat="43.73803" lon="4.7808">
        <ele>125.02503967285</ele>
        <time>2014-12-28T09:16:30.000Z</time>
      </trkpt>
      <trkpt lat="43.73803" lon="4.78089">
        <ele>125.53625488281</ele>
        <time>2014-12-28T09:16:33.000Z</time>
      </trkpt>
      <trkpt lat="43.73802" lon="4.78097">
        <ele>125.78165435791</ele>
        <time>2014-12-28T09:16:35.000Z</time>
      </trkpt>
      <trkpt lat="43.73803" lon="4.78107">
        <ele>125.96453857422</ele>
        <time>2014-12-28T09:16:38.000Z</time>
      </trkpt>
      <trkpt lat="43.73804" lon="4.78113">
        <ele>126.2035369873</ele>
        <time>2014-12-28T09:16:40.000Z</time>
      </trkpt>
      <trkpt lat="43.73804" lon="4.78117">
        <ele>126.33390808105</ele>
        <time>2014-12-28T09:16:43.000Z</time>
      </trkpt>
      <trkpt lat="43.73807" lon="4.78117">
        <ele>126.57362365723</ele>
        <time>2014-12-28T09:16:47.000Z</time>
      </trkpt>
      <trkpt lat="43.73808" lon="4.78118">
        <ele>126.91247558594</ele>
        <time>2014-12-28T09:16:49.000Z</time>
      </trkpt>
      <trkpt lat="43.73808" lon="4.78126">
        <ele>127.18293762207</ele>
        <time>2014-12-28T09:16:52.000Z</time>
      </trkpt>
      <trkpt lat="43.73804" lon="4.78133">
        <ele>127.20506286621</ele>
        <time>2014-12-28T09:16:54.000Z</time>
      </trkpt>
      <trkpt lat="43.73798" lon="4.78134">
        <ele>126.82497406006</ele>
        <time>2014-12-28T09:16:56.000Z</time>
      </trkpt>
      <trkpt lat="43.7379" lon="4.78134">
        <ele>125.76792144775</ele>
        <time>2014-12-28T09:16:59.000Z</time>
      </trkpt>
      <trkpt lat="43.73785" lon="4.78133">
        <ele>124.33585357666</ele>
        <time>2014-12-28T09:17:01.000Z</time>
      </trkpt>
      <trkpt lat="43.7378" lon="4.78134">
        <ele>122.64845275879</ele>
        <time>2014-12-28T09:17:03.000Z</time>
      </trkpt>
      <trkpt lat="43.73779" lon="4.78134">
        <ele>121.08353424072</ele>
        <time>2014-12-28T09:17:06.000Z</time>
      </trkpt>
      <trkpt lat="43.73779" lon="4.78134">
        <ele>121.08353424072</ele>
        <time>2014-12-28T09:17:26.000Z</time>
      </trkpt>
      <trkpt lat="43.7378" lon="4.78136">
        <ele>119.9186630249</ele>
        <time>2014-12-28T09:17:32.000Z</time>
      </trkpt>
      <trkpt lat="43.73781" lon="4.78138">
        <ele>119.3801651001</ele>
        <time>2014-12-28T09:17:42.000Z</time>
      </trkpt>
      <trkpt lat="43.73781" lon="4.78138">
        <ele>119.3801651001</ele>
        <time>2014-12-28T09:18:02.000Z</time>
      </trkpt>
      <trkpt lat="43.73782" lon="4.78137">
        <ele>119.19557952881</ele>
        <time>2014-12-28T09:18:28.000Z</time>
      </trkpt>
      <trkpt lat="43.73782" lon="4.78134">
        <ele>119.2950668335</ele>
        <time>2014-12-28T09:18:32.000Z</time>
      </trkpt>
      <trkpt lat="43.73783" lon="4.78132">
        <ele>119.57773590088</ele>
        <time>2014-12-28T09:18:35.000Z</time>
      </trkpt>
      <trkpt lat="43.73781" lon="4.78125">
        <ele>119.70224761963</ele>
        <time>2014-12-28T09:18:37.000Z</time>
      </trkpt>
      <trkpt lat="43.73782" lon="4.78116">
        <ele>119.82353210449</ele>
        <time>2014-12-28T09:18:40.000Z</time>
      </trkpt>
      <trkpt lat="43.73781" lon="4.78109">
        <ele>119.83178710938</ele>
        <time>2014-12-28T09:18:43.000Z</time>
      </trkpt>
      <trkpt lat="43.73779" lon="4.78106">
        <ele>119.71875</ele>
        <time>2014-12-28T09:18:45.000Z</time>
      </trkpt>
      <trkpt lat="43.7378" lon="4.78099">
        <ele>119.58949279785</ele>
        <time>2014-12-28T09:18:48.000Z</time>
      </trkpt>
      <trkpt lat="43.73783" lon="4.78091">
        <ele>119.78043365479</ele>
        <time>2014-12-28T09:18:51.000Z</time>
      </trkpt>
      <trkpt lat="43.73784" lon="4.78083">
        <ele>119.91381835938</ele>
        <time>2014-12-28T09:18:53.000Z</time>
      </trkpt>
      <trkpt lat="43.7378" lon="4.78077">
        <ele>119.81270599365</ele>
        <time>2014-12-28T09:18:55.000Z</time>
      </trkpt>
      <trkpt lat="43.73772" lon="4.78069">
        <ele>119.15208435059</ele>
        <time>2014-12-28T09:18:58.000Z</time>
      </trkpt>
      <trkpt lat="43.73764" lon="4.78064">
        <ele>117.84196472168</ele>
        <time>2014-12-28T09:19:01.000Z</time>
      </trkpt>
      <trkpt lat="43.73763" lon="4.78054">
        <ele>116.03955078125</ele>
        <time>2014-12-28T09:19:04.000Z</time>
      </trkpt>
      <trkpt lat="43.73758" lon="4.78041">
        <ele>113.63814544678</ele>
        <time>2014-12-28T09:19:07.000Z</time>
      </trkpt>
      <trkpt lat="43.73753" lon="4.78027">
        <ele>110.9787979126</ele>
        <time>2014-12-28T09:19:10.000Z</time>
      </trkpt>
      <trkpt lat="43.73748" lon="4.78013">
        <ele>108.44716644287</ele>
        <time>2014-12-28T09:19:12.000Z</time>
      </trkpt>
      <trkpt lat="43.73735" lon="4.77986">
        <ele>105.94303894043</ele>
        <time>2014-12-28T09:19:15.000Z</time>
      </trkpt>
      <trkpt lat="43.73734" lon="4.7796">
        <ele>103.37174987793</ele>
        <time>2014-12-28T09:19:17.000Z</time>
      </trkpt>
      <trkpt lat="43.73728" lon="4.77938">
        <ele>100.99095153809</ele>
        <time>2014-12-28T09:19:19.000Z</time>
      </trkpt>
      <trkpt lat="43.73712" lon="4.77909">
        <ele>98.578247070312</ele>
        <time>2014-12-28T09:19:22.000Z</time>
      </trkpt>
      <trkpt lat="43.73706" lon="4.77889">
        <ele>96.343612670898</ele>
        <time>2014-12-28T09:19:24.000Z</time>
      </trkpt>
      <trkpt lat="43.737" lon="4.77871">
        <ele>94.341026306152</ele>
        <time>2014-12-28T09:19:26.000Z</time>
      </trkpt>
      <trkpt lat="43.73692" lon="4.77843">
        <ele>92.230758666992</ele>
        <time>2014-12-28T09:19:29.000Z</time>
      </trkpt>
      <trkpt lat="43.73691" lon="4.77824">
        <ele>90.320770263672</ele>
        <time>2014-12-28T09:19:31.000Z</time>
      </trkpt>
      <trkpt lat="43.73689" lon="4.77806">
        <ele>88.914794921875</ele>
        <time>2014-12-28T09:19:33.000Z</time>
      </trkpt>
      <trkpt lat="43.73689" lon="4.77781">
        <ele>87.762741088867</ele>
        <time>2014-12-28T09:19:35.000Z</time>
      </trkpt>
      <trkpt lat="43.73689" lon="4.77753">
        <ele>86.820823669434</ele>
        <time>2014-12-28T09:19:38.000Z</time>
      </trkpt>
      <trkpt lat="43.73687" lon="4.77738">
        <ele>86.454139709473</ele>
        <time>2014-12-28T09:19:40.000Z</time>
      </trkpt>
      <trkpt lat="43.73688" lon="4.77712">
        <ele>86.611656188965</ele>
        <time>2014-12-28T09:19:43.000Z</time>
      </trkpt>
      <trkpt lat="43.73686" lon="4.77697">
        <ele>87.037582397461</ele>
        <time>2014-12-28T09:19:45.000Z</time>
      </trkpt>
      <trkpt lat="43.73682" lon="4.77688">
        <ele>87.615646362305</ele>
        <time>2014-12-28T09:19:47.000Z</time>
      </trkpt>
      <trkpt lat="43.73678" lon="4.7768">
        <ele>88.317481994629</ele>
        <time>2014-12-28T09:19:49.000Z</time>
      </trkpt>
      <trkpt lat="43.73672" lon="4.77666">
        <ele>88.985984802246</ele>
        <time>2014-12-28T09:19:52.000Z</time>
      </trkpt>
      <trkpt lat="43.73669" lon="4.77655">
        <ele>89.332046508789</ele>
        <time>2014-12-28T09:19:54.000Z</time>
      </trkpt>
      <trkpt lat="43.73664" lon="4.77647">
        <ele>89.556739807129</ele>
        <time>2014-12-28T09:19:56.000Z</time>
      </trkpt>
      <trkpt lat="43.73663" lon="4.77632">
        <ele>89.864028930664</ele>
        <time>2014-12-28T09:19:59.000Z</time>
      </trkpt>
      <trkpt lat="43.73669" lon="4.77621">
        <ele>90.330863952637</ele>
        <time>2014-12-28T09:20:02.000Z</time>
      </trkpt>
      <trkpt lat="43.73673" lon="4.77615">
        <ele>90.874298095703</ele>
        <time>2014-12-28T09:20:04.000Z</time>
      </trkpt>
      <trkpt lat="43.73676" lon="4.77608">
        <ele>91.563888549805</ele>
        <time>2014-12-28T09:20:07.000Z</time>
      </trkpt>
      <trkpt lat="43.73678" lon="4.77604">
        <ele>92.324577331543</ele>
        <time>2014-12-28T09:20:09.000Z</time>
      </trkpt>
      <trkpt lat="43.7368" lon="4.77597">
        <ele>93.099159240723</ele>
        <time>2014-12-28T09:20:12.000Z</time>
      </trkpt>
      <trkpt lat="43.73682" lon="4.7759">
        <ele>93.849380493164</ele>
        <time>2014-12-28T09:20:15.000Z</time>
      </trkpt>
      <trkpt lat="43.73684" lon="4.77583">
        <ele>94.594047546387</ele>
        <time>2014-12-28T09:20:18.000Z</time>
      </trkpt>
      <trkpt lat="43.73685" lon="4.77575">
        <ele>95.336326599121</ele>
        <time>2014-12-28T09:20:21.000Z</time>
      </trkpt>
      <trkpt lat="43.73687" lon="4.77566">
        <ele>96.155227661133</ele>
        <time>2014-12-28T09:20:24.000Z</time>
      </trkpt>
      <trkpt lat="43.73687" lon="4.77561">
        <ele>96.92081451416</ele>
        <time>2014-12-28T09:20:26.000Z</time>
      </trkpt>
      <trkpt lat="43.73688" lon="4.77557">
        <ele>97.630187988281</ele>
        <time>2014-12-28T09:20:28.000Z</time>
      </trkpt>
      <trkpt lat="43.73688" lon="4.77555">
        <ele>98.203468322754</ele>
        <time>2014-12-28T09:20:31.000Z</time>
      </trkpt>
      <trkpt lat="43.73687" lon="4.77557">
        <ele>98.540870666504</ele>
        <time>2014-12-28T09:20:35.000Z</time>
      </trkpt>
      <trkpt lat="43.73685" lon="4.77558">
        <ele>98.61181640625</ele>
        <time>2014-12-28T09:20:38.000Z</time>
      </trkpt>
      <trkpt lat="43.73685" lon="4.77557">
        <ele>98.578483581543</ele>
        <time>2014-12-28T09:20:43.000Z</time>
      </trkpt>
      <trkpt lat="43.73682" lon="4.77556">
        <ele>98.364242553711</ele>
        <time>2014-12-28T09:20:47.000Z</time>
      </trkpt>
      <trkpt lat="43.7368" lon="4.77559">
        <ele>97.994003295898</ele>
        <time>2014-12-28T09:20:49.000Z</time>
      </trkpt>
      <trkpt lat="43.73682" lon="4.77559">
        <ele>97.772109985352</ele>
        <time>2014-12-28T09:20:51.000Z</time>
      </trkpt>
      <trkpt lat="43.73683" lon="4.77558">
        <ele>97.68327331543</ele>
        <time>2014-12-28T09:20:54.000Z</time>
      </trkpt>
      <trkpt lat="43.73683" lon="4.77556">
        <ele>97.609466552734</ele>
        <time>2014-12-28T09:20:56.000Z</time>
      </trkpt>
      <trkpt lat="43.73679" lon="4.77554">
        <ele>97.47705078125</ele>
        <time>2014-12-28T09:20:59.000Z</time>
      </trkpt>
      <trkpt lat="43.7368" lon="4.77556">
        <ele>97.508934020996</ele>
        <time>2014-12-28T09:21:01.000Z</time>
      </trkpt>
      <trkpt lat="43.73681" lon="4.77557">
        <ele>97.492088317871</ele>
        <time>2014-12-28T09:21:04.000Z</time>
      </trkpt>
      <trkpt lat="43.73682" lon="4.77551">
        <ele>97.564376831055</ele>
        <time>2014-12-28T09:21:06.000Z</time>
      </trkpt>
      <trkpt lat="43.73684" lon="4.77548">
        <ele>97.743476867676</ele>
        <time>2014-12-28T09:21:08.000Z</time>
      </trkpt>
      <trkpt lat="43.73685" lon="4.77544">
        <ele>98.14737701416</ele>
        <time>2014-12-28T09:21:11.000Z</time>
      </trkpt>
      <trkpt lat="43.73686" lon="4.77539">
        <ele>98.65608215332</ele>
        <time>2014-12-28T09:21:14.000Z</time>
      </trkpt>
      <trkpt lat="43.73687" lon="4.77535">
        <ele>99.205131530762</ele>
        <time>2014-12-28T09:21:16.000Z</time>
      </trkpt>
      <trkpt lat="43.73688" lon="4.77531">
        <ele>99.7431640625</ele>
        <time>2014-12-28T09:21:19.000Z</time>
      </trkpt>
      <trkpt lat="43.73689" lon="4.77524">
        <ele>100.30714416504</ele>
        <time>2014-12-28T09:21:22.000Z</time>
      </trkpt>
      <trkpt lat="43.7369" lon="4.7752">
        <ele>100.92206573486</ele>
        <time>2014-12-28T09:21:24.000Z</time>
      </trkpt>
      <trkpt lat="43.73692" lon="4.77513">
        <ele>101.56561279297</ele>
        <time>2014-12-28T09:21:27.000Z</time>
      </trkpt>
      <trkpt lat="43.73693" lon="4.77509">
        <ele>102.27665710449</ele>
        <time>2014-12-28T09:21:29.000Z</time>
      </trkpt>
      <trkpt lat="43.73695" lon="4.77505">
        <ele>102.96574401855</ele>
        <time>2014-12-28T09:21:31.000Z</time>
      </trkpt>
      <trkpt lat="43.73696" lon="4.77501">
        <ele>103.64579772949</ele>
        <time>2014-12-28T09:21:33.000Z</time>
      </trkpt>
      <trkpt lat="43.73697" lon="4.77493">
        <ele>104.35781097412</ele>
        <time>2014-12-28T09:21:36.000Z</time>
      </trkpt>
      <trkpt lat="43.73697" lon="4.77487">
        <ele>104.98254394531</ele>
        <time>2014-12-28T09:21:38.000Z</time>
      </trkpt>
      <trkpt lat="43.73698" lon="4.7748">
        <ele>105.56960296631</ele>
        <time>2014-12-28T09:21:41.000Z</time>
      </trkpt>
      <trkpt lat="43.73698" lon="4.77474">
        <ele>106.16314697266</ele>
        <time>2014-12-28T09:21:44.000Z</time>
      </trkpt>
      <trkpt lat="43.73697" lon="4.77466">
        <ele>106.66237640381</ele>
        <time>2014-12-28T09:21:47.000Z</time>
      </trkpt>
      <trkpt lat="43.73696" lon="4.77462">
        <ele>107.01344299316</ele>
        <time>2014-12-28T09:21:49.000Z</time>
      </trkpt>
      <trkpt lat="43.73694" lon="4.77455">
        <ele>107.28369140625</ele>
        <time>2014-12-28T09:21:52.000Z</time>
      </trkpt>
      <trkpt lat="43.73693" lon="4.77449">
        <ele>107.48232269287</ele>
        <time>2014-12-28T09:21:54.000Z</time>
      </trkpt>
      <trkpt lat="43.73694" lon="4.7744">
        <ele>107.7161026001</ele>
        <time>2014-12-28T09:21:57.000Z</time>
      </trkpt>
      <trkpt lat="43.73695" lon="4.77434">
        <ele>108.02457427979</ele>
        <time>2014-12-28T09:21:59.000Z</time>
      </trkpt>
      <trkpt lat="43.73695" lon="4.77428">
        <ele>108.42445373535</ele>
        <time>2014-12-28T09:22:01.000Z</time>
      </trkpt>
      <trkpt lat="43.73696" lon="4.77419">
        <ele>108.98628234863</ele>
        <time>2014-12-28T09:22:04.000Z</time>
      </trkpt>
      <trkpt lat="43.73696" lon="4.77414">
        <ele>109.55234527588</ele>
        <time>2014-12-28T09:22:06.000Z</time>
      </trkpt>
      <trkpt lat="43.73695" lon="4.77408">
        <ele>109.9549407959</ele>
        <time>2014-12-28T09:22:08.000Z</time>
      </trkpt>
      <trkpt lat="43.73693" lon="4.77402">
        <ele>110.22645568848</ele>
        <time>2014-12-28T09:22:10.000Z</time>
      </trkpt>
      <trkpt lat="43.73693" lon="4.77394">
        <ele>110.43161773682</ele>
        <time>2014-12-28T09:22:13.000Z</time>
      </trkpt>
      <trkpt lat="43.7369" lon="4.77387">
        <ele>110.42995452881</ele>
        <time>2014-12-28T09:22:16.000Z</time>
      </trkpt>
      <trkpt lat="43.73687" lon="4.77379">
        <ele>110.31665039062</ele>
        <time>2014-12-28T09:22:19.000Z</time>
      </trkpt>
      <trkpt lat="43.73684" lon="4.77373">
        <ele>110.162940979</ele>
        <time>2014-12-28T09:22:21.000Z</time>
      </trkpt>
      <trkpt lat="43.73681" lon="4.77366">
        <ele>109.92667388916</ele>
        <time>2014-12-28T09:22:23.000Z</time>
      </trkpt>
      <trkpt lat="43.73677" lon="4.77354">
        <ele>109.60202789307</ele>
        <time>2014-12-28T09:22:26.000Z</time>
      </trkpt>
      <trkpt lat="43.73675" lon="4.77343">
        <ele>109.38618469238</ele>
        <time>2014-12-28T09:22:29.000Z</time>
      </trkpt>
      <trkpt lat="43.73673" lon="4.77332">
        <ele>109.2692489624</ele>
        <time>2014-12-28T09:22:32.000Z</time>
      </trkpt>
      <trkpt lat="43.73672" lon="4.77322">
        <ele>109.2359161377</ele>
        <time>2014-12-28T09:22:35.000Z</time>
      </trkpt>
      <trkpt lat="43.73669" lon="4.77314">
        <ele>109.24278259277</ele>
        <time>2014-12-28T09:22:38.000Z</time>
      </trkpt>
      <trkpt lat="43.73665" lon="4.77306">
        <ele>109.25520324707</ele>
        <time>2014-12-28T09:22:41.000Z</time>
      </trkpt>
      <trkpt lat="43.73663" lon="4.77301">
        <ele>109.24841308594</ele>
        <time>2014-12-28T09:22:43.000Z</time>
      </trkpt>
      <trkpt lat="43.7366" lon="4.77291">
        <ele>109.28315734863</ele>
        <time>2014-12-28T09:22:46.000Z</time>
      </trkpt>
      <trkpt lat="43.73658" lon="4.77282">
        <ele>109.35318756104</ele>
        <time>2014-12-28T09:22:49.000Z</time>
      </trkpt>
      <trkpt lat="43.73657" lon="4.77275">
        <ele>109.53269195557</ele>
        <time>2014-12-28T09:22:51.000Z</time>
      </trkpt>
      <trkpt lat="43.73656" lon="4.77265">
        <ele>109.84477233887</ele>
        <time>2014-12-28T09:22:54.000Z</time>
      </trkpt>
      <trkpt lat="43.73654" lon="4.77259">
        <ele>110.16835784912</ele>
        <time>2014-12-28T09:22:56.000Z</time>
      </trkpt>
      <trkpt lat="43.73652" lon="4.77254">
        <ele>110.46933746338</ele>
        <time>2014-12-28T09:22:58.000Z</time>
      </trkpt>
      <trkpt lat="43.7365" lon="4.7725">
        <ele>110.73736572266</ele>
        <time>2014-12-28T09:23:00.000Z</time>
      </trkpt>
      <trkpt lat="43.73647" lon="4.77246">
        <ele>110.97660827637</ele>
        <time>2014-12-28T09:23:02.000Z</time>
      </trkpt>
      <trkpt lat="43.73647" lon="4.77237">
        <ele>111.17881011963</ele>
        <time>2014-12-28T09:23:05.000Z</time>
      </trkpt>
      <trkpt lat="43.73646" lon="4.77227">
        <ele>111.37776184082</ele>
        <time>2014-12-28T09:23:08.000Z</time>
      </trkpt>
      <trkpt lat="43.73646" lon="4.77221">
        <ele>111.56278991699</ele>
        <time>2014-12-28T09:23:10.000Z</time>
      </trkpt>
      <trkpt lat="43.73646" lon="4.77211">
        <ele>111.7568359375</ele>
        <time>2014-12-28T09:23:13.000Z</time>
      </trkpt>
      <trkpt lat="43.73644" lon="4.77206">
        <ele>111.96366119385</ele>
        <time>2014-12-28T09:23:15.000Z</time>
      </trkpt>
      <trkpt lat="43.7364" lon="4.77201">
        <ele>112.17900085449</ele>
        <time>2014-12-28T09:23:18.000Z</time>
      </trkpt>
      <trkpt lat="43.73637" lon="4.77198">
        <ele>112.39515686035</ele>
        <time>2014-12-28T09:23:20.000Z</time>
      </trkpt>
      <trkpt lat="43.73633" lon="4.77196">
        <ele>112.62599945068</ele>
        <time>2014-12-28T09:23:22.000Z</time>
      </trkpt>
      <trkpt lat="43.73631" lon="4.77194">
        <ele>112.84047698975</ele>
        <time>2014-12-28T09:23:24.000Z</time>
      </trkpt>
      <trkpt lat="43.7363" lon="4.77194">
        <ele>113.03133392334</ele>
        <time>2014-12-28T09:23:26.000Z</time>
      </trkpt>
      <trkpt lat="43.73626" lon="4.77191">
        <ele>113.2205581665</ele>
        <time>2014-12-28T09:23:29.000Z</time>
      </trkpt>
      <trkpt lat="43.73624" lon="4.77187">
        <ele>113.4112701416</ele>
        <time>2014-12-28T09:23:31.000Z</time>
      </trkpt>
      <trkpt lat="43.73621" lon="4.77182">
        <ele>113.62477874756</ele>
        <time>2014-12-28T09:23:34.000Z</time>
      </trkpt>
      <trkpt lat="43.73618" lon="4.77178">
        <ele>113.86961364746</ele>
        <time>2014-12-28T09:23:36.000Z</time>
      </trkpt>
      <trkpt lat="43.73616" lon="4.77174">
        <ele>114.15395355225</ele>
        <time>2014-12-28T09:23:38.000Z</time>
      </trkpt>
      <trkpt lat="43.73613" lon="4.77168">
        <ele>114.4806137085</ele>
        <time>2014-12-28T09:23:41.000Z</time>
      </trkpt>
      <trkpt lat="43.73608" lon="4.77162">
        <ele>114.87082672119</ele>
        <time>2014-12-28T09:23:44.000Z</time>
      </trkpt>
      <trkpt lat="43.73604" lon="4.77157">
        <ele>115.31756591797</ele>
        <time>2014-12-28T09:23:47.000Z</time>
      </trkpt>
      <trkpt lat="43.73606" lon="4.77148">
        <ele>115.79243469238</ele>
        <time>2014-12-28T09:23:50.000Z</time>
      </trkpt>
      <trkpt lat="43.73608" lon="4.77139">
        <ele>116.28886413574</ele>
        <time>2014-12-28T09:23:53.000Z</time>
      </trkpt>
      <trkpt lat="43.73608" lon="4.77133">
        <ele>116.77787780762</ele>
        <time>2014-12-28T09:23:56.000Z</time>
      </trkpt>
      <trkpt lat="43.73608" lon="4.77129">
        <ele>117.19898986816</ele>
        <time>2014-12-28T09:23:58.000Z</time>
      </trkpt>
      <trkpt lat="43.73608" lon="4.77125">
        <ele>117.54374694824</ele>
        <time>2014-12-28T09:24:00.000Z</time>
      </trkpt>
      <trkpt lat="43.73608" lon="4.77119">
        <ele>117.89033508301</ele>
        <time>2014-12-28T09:24:03.000Z</time>
      </trkpt>
      <trkpt lat="43.73607" lon="4.77114">
        <ele>118.22637939453</ele>
        <time>2014-12-28T09:24:05.000Z</time>
      </trkpt>
      <trkpt lat="43.73606" lon="4.77111">
        <ele>118.5365447998</ele>
        <time>2014-12-28T09:24:07.000Z</time>
      </trkpt>
      <trkpt lat="43.73605" lon="4.77106">
        <ele>118.90647888184</ele>
        <time>2014-12-28T09:24:10.000Z</time>
      </trkpt>
      <trkpt lat="43.73602" lon="4.77099">
        <ele>119.36669921875</ele>
        <time>2014-12-28T09:24:13.000Z</time>
      </trkpt>
      <trkpt lat="43.736" lon="4.77094">
        <ele>119.8604888916</ele>
        <time>2014-12-28T09:24:16.000Z</time>
      </trkpt>
      <trkpt lat="43.73598" lon="4.77087">
        <ele>120.41872406006</ele>
        <time>2014-12-28T09:24:19.000Z</time>
      </trkpt>
      <trkpt lat="43.73597" lon="4.77079">
        <ele>121.07135009766</ele>
        <time>2014-12-28T09:24:22.000Z</time>
      </trkpt>
      <trkpt lat="43.73592" lon="4.77074">
        <ele>121.81158447266</ele>
        <time>2014-12-28T09:24:25.000Z</time>
      </trkpt>
      <trkpt lat="43.7359" lon="4.7707">
        <ele>122.50355529785</ele>
        <time>2014-12-28T09:24:27.000Z</time>
      </trkpt>
      <trkpt lat="43.73586" lon="4.77068">
        <ele>123.19505310059</ele>
        <time>2014-12-28T09:24:29.000Z</time>
      </trkpt>
      <trkpt lat="43.73584" lon="4.77059">
        <ele>123.912940979</ele>
        <time>2014-12-28T09:24:32.000Z</time>
      </trkpt>
      <trkpt lat="43.73581" lon="4.77055">
        <ele>124.55954742432</ele>
        <time>2014-12-28T09:24:34.000Z</time>
      </trkpt>
      <trkpt lat="43.73576" lon="4.77052">
        <ele>125.05168151855</ele>
        <time>2014-12-28T09:24:36.000Z</time>
      </trkpt>
      <trkpt lat="43.73566" lon="4.7705">
        <ele>125.46290588379</ele>
        <time>2014-12-28T09:24:39.000Z</time>
      </trkpt>
      <trkpt lat="43.73561" lon="4.77045">
        <ele>125.82237243652</ele>
        <time>2014-12-28T09:24:41.000Z</time>
      </trkpt>
      <trkpt lat="43.73556" lon="4.77039">
        <ele>126.09620666504</ele>
        <time>2014-12-28T09:24:44.000Z</time>
      </trkpt>
      <trkpt lat="43.73546" lon="4.77034">
        <ele>126.36938476562</ele>
        <time>2014-12-28T09:24:47.000Z</time>
      </trkpt>
      <trkpt lat="43.7354" lon="4.7703">
        <ele>126.659034729</ele>
        <time>2014-12-28T09:24:50.000Z</time>
      </trkpt>
      <trkpt lat="43.73532" lon="4.77024">
        <ele>127.03726959229</ele>
        <time>2014-12-28T09:24:53.000Z</time>
      </trkpt>
      <trkpt lat="43.73527" lon="4.7702">
        <ele>127.4103012085</ele>
        <time>2014-12-28T09:24:55.000Z</time>
      </trkpt>
      <trkpt lat="43.73519" lon="4.7702">
        <ele>127.72763824463</ele>
        <time>2014-12-28T09:24:58.000Z</time>
      </trkpt>
      <trkpt lat="43.73509" lon="4.77015">
        <ele>128.0461730957</ele>
        <time>2014-12-28T09:25:01.000Z</time>
      </trkpt>
      <trkpt lat="43.73503" lon="4.7701">
        <ele>128.40567016602</ele>
        <time>2014-12-28T09:25:04.000Z</time>
      </trkpt>
      <trkpt lat="43.73493" lon="4.77005">
        <ele>128.67199707031</ele>
        <time>2014-12-28T09:25:06.000Z</time>
      </trkpt>
      <trkpt lat="43.73483" lon="4.77001">
        <ele>128.80810546875</ele>
        <time>2014-12-28T09:25:09.000Z</time>
      </trkpt>
      <trkpt lat="43.73475" lon="4.76998">
        <ele>128.93258666992</ele>
        <time>2014-12-28T09:25:11.000Z</time>
      </trkpt>
      <trkpt lat="43.73465" lon="4.76994">
        <ele>128.95278930664</ele>
        <time>2014-12-28T09:25:13.000Z</time>
      </trkpt>
      <trkpt lat="43.73451" lon="4.7699">
        <ele>128.78262329102</ele>
        <time>2014-12-28T09:25:16.000Z</time>
      </trkpt>
      <trkpt lat="43.73443" lon="4.76986">
        <ele>128.56356811523</ele>
        <time>2014-12-28T09:25:19.000Z</time>
      </trkpt>
      <trkpt lat="43.73436" lon="4.76982">
        <ele>128.36904907227</ele>
        <time>2014-12-28T09:25:21.000Z</time>
      </trkpt>
      <trkpt lat="43.73424" lon="4.76977">
        <ele>128.05749511719</ele>
        <time>2014-12-28T09:25:24.000Z</time>
      </trkpt>
      <trkpt lat="43.73417" lon="4.76974">
        <ele>127.68469238281</ele>
        <time>2014-12-28T09:25:26.000Z</time>
      </trkpt>
      <trkpt lat="43.73401" lon="4.76967">
        <ele>127.1227645874</ele>
        <time>2014-12-28T09:25:29.000Z</time>
      </trkpt>
      <trkpt lat="43.73387" lon="4.76961">
        <ele>126.32559967041</ele>
        <time>2014-12-28T09:25:31.000Z</time>
      </trkpt>
      <trkpt lat="43.73371" lon="4.76952">
        <ele>125.24221038818</ele>
        <time>2014-12-28T09:25:33.000Z</time>
      </trkpt>
      <trkpt lat="43.73342" lon="4.76942">
        <ele>123.55621337891</ele>
        <time>2014-12-28T09:25:36.000Z</time>
      </trkpt>
      <trkpt lat="43.7332" lon="4.76928">
        <ele>121.57038879395</ele>
        <time>2014-12-28T09:25:38.000Z</time>
      </trkpt>
      <trkpt lat="43.733" lon="4.76921">
        <ele>119.64701080322</ele>
        <time>2014-12-28T09:25:40.000Z</time>
      </trkpt>
      <trkpt lat="43.73279" lon="4.76893">
        <ele>117.68476867676</ele>
        <time>2014-12-28T09:25:43.000Z</time>
      </trkpt>
      <trkpt lat="43.73264" lon="4.76865">
        <ele>115.67144775391</ele>
        <time>2014-12-28T09:25:46.000Z</time>
      </trkpt>
      <trkpt lat="43.73257" lon="4.7683">
        <ele>114.03381347656</ele>
        <time>2014-12-28T09:25:49.000Z</time>
      </trkpt>
      <trkpt lat="43.73262" lon="4.76802">
        <ele>112.84001159668</ele>
        <time>2014-12-28T09:25:51.000Z</time>
      </trkpt>
      <trkpt lat="43.73268" lon="4.76787">
        <ele>111.99798583984</ele>
        <time>2014-12-28T09:25:53.000Z</time>
      </trkpt>
      <trkpt lat="43.7327" lon="4.76768">
        <ele>111.53482818604</ele>
        <time>2014-12-28T09:25:56.000Z</time>
      </trkpt>
      <trkpt lat="43.73264" lon="4.76748">
        <ele>111.19075775146</ele>
        <time>2014-12-28T09:25:59.000Z</time>
      </trkpt>
      <trkpt lat="43.73254" lon="4.7675">
        <ele>110.82275390625</ele>
        <time>2014-12-28T09:26:01.000Z</time>
      </trkpt>
      <trkpt lat="43.73243" lon="4.76743">
        <ele>110.13890075684</ele>
        <time>2014-12-28T09:26:03.000Z</time>
      </trkpt>
      <trkpt lat="43.73238" lon="4.76732">
        <ele>109.32651519775</ele>
        <time>2014-12-28T09:26:06.000Z</time>
      </trkpt>
      <trkpt lat="43.73232" lon="4.76732">
        <ele>108.29921722412</ele>
        <time>2014-12-28T09:26:08.000Z</time>
      </trkpt>
      <trkpt lat="43.73221" lon="4.76734">
        <ele>107.22639465332</ele>
        <time>2014-12-28T09:26:11.000Z</time>
      </trkpt>
      <trkpt lat="43.73217" lon="4.76736">
        <ele>106.41446685791</ele>
        <time>2014-12-28T09:26:13.000Z</time>
      </trkpt>
      <trkpt lat="43.73212" lon="4.76733">
        <ele>105.74501800537</ele>
        <time>2014-12-28T09:26:16.000Z</time>
      </trkpt>
      <trkpt lat="43.7321" lon="4.76729">
        <ele>105.02548980713</ele>
        <time>2014-12-28T09:26:18.000Z</time>
      </trkpt>
      <trkpt lat="43.73208" lon="4.76724">
        <ele>104.42678070068</ele>
        <time>2014-12-28T09:26:20.000Z</time>
      </trkpt>
      <trkpt lat="43.73207" lon="4.76713">
        <ele>104.10865783691</ele>
        <time>2014-12-28T09:26:23.000Z</time>
      </trkpt>
      <trkpt lat="43.73203" lon="4.76703">
        <ele>103.76847076416</ele>
        <time>2014-12-28T09:26:26.000Z</time>
      </trkpt>
      <trkpt lat="43.732" lon="4.76698">
        <ele>103.46171569824</ele>
        <time>2014-12-28T09:26:28.000Z</time>
      </trkpt>
      <trkpt lat="43.73196" lon="4.76688">
        <ele>103.06449127197</ele>
        <time>2014-12-28T09:26:31.000Z</time>
      </trkpt>
      <trkpt lat="43.73193" lon="4.76683">
        <ele>102.59083557129</ele>
        <time>2014-12-28T09:26:33.000Z</time>
      </trkpt>
      <trkpt lat="43.73189" lon="4.76673">
        <ele>101.98338317871</ele>
        <time>2014-12-28T09:26:36.000Z</time>
      </trkpt>
      <trkpt lat="43.73187" lon="4.76664">
        <ele>101.35096740723</ele>
        <time>2014-12-28T09:26:38.000Z</time>
      </trkpt>
      <trkpt lat="43.73193" lon="4.76637">
        <ele>100.55220031738</ele>
        <time>2014-12-28T09:26:41.000Z</time>
      </trkpt>
      <trkpt lat="43.73197" lon="4.76605">
        <ele>99.51114654541</ele>
        <time>2014-12-28T09:26:44.000Z</time>
      </trkpt>
      <trkpt lat="43.7319" lon="4.76577">
        <ele>97.792640686035</ele>
        <time>2014-12-28T09:26:47.000Z</time>
      </trkpt>
      <trkpt lat="43.73187" lon="4.76555">
        <ele>95.740409851074</ele>
        <time>2014-12-28T09:26:49.000Z</time>
      </trkpt>
      <trkpt lat="43.73184" lon="4.76518">
        <ele>93.179969787598</ele>
        <time>2014-12-28T09:26:52.000Z</time>
      </trkpt>
      <trkpt lat="43.73188" lon="4.76495">
        <ele>90.690490722656</ele>
        <time>2014-12-28T09:26:54.000Z</time>
      </trkpt>
      <trkpt lat="43.7319" lon="4.7648">
        <ele>88.643661499023</ele>
        <time>2014-12-28T09:26:56.000Z</time>
      </trkpt>
      <trkpt lat="43.73196" lon="4.76464">
        <ele>87.525253295898</ele>
        <time>2014-12-28T09:26:59.000Z</time>
      </trkpt>
      <trkpt lat="43.73194" lon="4.76453">
        <ele>86.817649841309</ele>
        <time>2014-12-28T09:27:01.000Z</time>
      </trkpt>
      <trkpt lat="43.73195" lon="4.76439">
        <ele>86.764488220215</ele>
        <time>2014-12-28T09:27:04.000Z</time>
      </trkpt>
      <trkpt lat="43.73194" lon="4.76426">
        <ele>86.855140686035</ele>
        <time>2014-12-28T09:27:06.000Z</time>
      </trkpt>
      <trkpt lat="43.73194" lon="4.76411">
        <ele>86.898178100586</ele>
        <time>2014-12-28T09:27:09.000Z</time>
      </trkpt>
      <trkpt lat="43.73192" lon="4.76401">
        <ele>86.800003051758</ele>
        <time>2014-12-28T09:27:11.000Z</time>
      </trkpt>
      <trkpt lat="43.73191" lon="4.76386">
        <ele>86.836776733398</ele>
        <time>2014-12-28T09:27:14.000Z</time>
      </trkpt>
      <trkpt lat="43.73192" lon="4.76374">
        <ele>86.952819824219</ele>
        <time>2014-12-28T09:27:17.000Z</time>
      </trkpt>
      <trkpt lat="43.73195" lon="4.76367">
        <ele>87.185791015625</ele>
        <time>2014-12-28T09:27:19.000Z</time>
      </trkpt>
      <trkpt lat="43.73202" lon="4.76365">
        <ele>87.554931640625</ele>
        <time>2014-12-28T09:27:22.000Z</time>
      </trkpt>
      <trkpt lat="43.73206" lon="4.76367">
        <ele>87.986083984375</ele>
        <time>2014-12-28T09:27:24.000Z</time>
      </trkpt>
      <trkpt lat="43.73211" lon="4.7637">
        <ele>88.45556640625</ele>
        <time>2014-12-28T09:27:27.000Z</time>
      </trkpt>
      <trkpt lat="43.73217" lon="4.76372">
        <ele>88.942138671875</ele>
        <time>2014-12-28T09:27:30.000Z</time>
      </trkpt>
      <trkpt lat="43.73221" lon="4.76373">
        <ele>89.41796875</ele>
        <time>2014-12-28T09:27:32.000Z</time>
      </trkpt>
      <trkpt lat="43.73228" lon="4.76381">
        <ele>89.85107421875</ele>
        <time>2014-12-28T09:27:35.000Z</time>
      </trkpt>
      <trkpt lat="43.73235" lon="4.76385">
        <ele>90.31591796875</ele>
        <time>2014-12-28T09:27:38.000Z</time>
      </trkpt>
      <trkpt lat="43.73239" lon="4.76387">
        <ele>90.765380859375</ele>
        <time>2014-12-28T09:27:40.000Z</time>
      </trkpt>
      <trkpt lat="43.73244" lon="4.76389">
        <ele>91.219970703125</ele>
        <time>2014-12-28T09:27:42.000Z</time>
      </trkpt>
      <trkpt lat="43.73249" lon="4.7639">
        <ele>91.687744140625</ele>
        <time>2014-12-28T09:27:44.000Z</time>
      </trkpt>
      <trkpt lat="43.73257" lon="4.76391">
        <ele>92.249549865723</ele>
        <time>2014-12-28T09:27:47.000Z</time>
      </trkpt>
      <trkpt lat="43.73264" lon="4.76389">
        <ele>92.915786743164</ele>
        <time>2014-12-28T09:27:50.000Z</time>
      </trkpt>
      <trkpt lat="43.73267" lon="4.76388">
        <ele>93.577659606934</ele>
        <time>2014-12-28T09:27:52.000Z</time>
      </trkpt>
      <trkpt lat="43.7327" lon="4.76383">
        <ele>94.27220916748</ele>
        <time>2014-12-28T09:27:54.000Z</time>
      </trkpt>
      <trkpt lat="43.73275" lon="4.76376">
        <ele>95.054176330566</ele>
        <time>2014-12-28T09:27:56.000Z</time>
      </trkpt>
      <trkpt lat="43.73277" lon="4.76365">
        <ele>95.795791625977</ele>
        <time>2014-12-28T09:27:59.000Z</time>
      </trkpt>
      <trkpt lat="43.73283" lon="4.76354">
        <ele>96.587882995605</ele>
        <time>2014-12-28T09:28:02.000Z</time>
      </trkpt>
      <trkpt lat="43.73283" lon="4.76346">
        <ele>97.386978149414</ele>
        <time>2014-12-28T09:28:04.000Z</time>
      </trkpt>
      <trkpt lat="43.73283" lon="4.76341">
        <ele>98.112915039062</ele>
        <time>2014-12-28T09:28:06.000Z</time>
      </trkpt>
      <trkpt lat="43.73287" lon="4.76333">
        <ele>98.842613220215</ele>
        <time>2014-12-28T09:28:09.000Z</time>
      </trkpt>
      <trkpt lat="43.73288" lon="4.76325">
        <ele>99.33366394043</ele>
        <time>2014-12-28T09:28:11.000Z</time>
      </trkpt>
      <trkpt lat="43.7329" lon="4.76318">
        <ele>99.508590698242</ele>
        <time>2014-12-28T09:28:14.000Z</time>
      </trkpt>
      <trkpt lat="43.73293" lon="4.76316">
        <ele>99.676513671875</ele>
        <time>2014-12-28T09:28:16.000Z</time>
      </trkpt>
      <trkpt lat="43.73297" lon="4.76307">
        <ele>99.745719909668</ele>
        <time>2014-12-28T09:28:19.000Z</time>
      </trkpt>
      <trkpt lat="43.73299" lon="4.76302">
        <ele>99.612380981445</ele>
        <time>2014-12-28T09:28:22.000Z</time>
      </trkpt>
      <trkpt lat="43.73301" lon="4.76296">
        <ele>99.50163269043</ele>
        <time>2014-12-28T09:28:24.000Z</time>
      </trkpt>
      <trkpt lat="43.73306" lon="4.76286">
        <ele>99.418022155762</ele>
        <time>2014-12-28T09:28:27.000Z</time>
      </trkpt>
      <trkpt lat="43.7331" lon="4.76276">
        <ele>99.174049377441</ele>
        <time>2014-12-28T09:28:29.000Z</time>
      </trkpt>
      <trkpt lat="43.73321" lon="4.76259">
        <ele>98.931259155273</ele>
        <time>2014-12-28T09:28:32.000Z</time>
      </trkpt>
      <trkpt lat="43.73326" lon="4.76246">
        <ele>98.537185668945</ele>
        <time>2014-12-28T09:28:34.000Z</time>
      </trkpt>
      <trkpt lat="43.7334" lon="4.76228">
        <ele>98.195236206055</ele>
        <time>2014-12-28T09:28:37.000Z</time>
      </trkpt>
      <trkpt lat="43.73349" lon="4.7621">
        <ele>97.825759887695</ele>
        <time>2014-12-28T09:28:40.000Z</time>
      </trkpt>
      <trkpt lat="43.73362" lon="4.76196">
        <ele>97.798538208008</ele>
        <time>2014-12-28T09:28:43.000Z</time>
      </trkpt>
      <trkpt lat="43.73366" lon="4.76189">
        <ele>97.794090270996</ele>
        <time>2014-12-28T09:28:45.000Z</time>
      </trkpt>
      <trkpt lat="43.73377" lon="4.76167">
        <ele>97.687461853027</ele>
        <time>2014-12-28T09:28:48.000Z</time>
      </trkpt>
      <trkpt lat="43.73389" lon="4.76138">
        <ele>97.338493347168</ele>
        <time>2014-12-28T09:28:51.000Z</time>
      </trkpt>
      <trkpt lat="43.73402" lon="4.76108">
        <ele>96.673294067383</ele>
        <time>2014-12-28T09:28:54.000Z</time>
      </trkpt>
      <trkpt lat="43.73411" lon="4.76092">
        <ele>95.505844116211</ele>
        <time>2014-12-28T09:28:56.000Z</time>
      </trkpt>
      <trkpt lat="43.73421" lon="4.7608">
        <ele>94.372604370117</ele>
        <time>2014-12-28T09:28:58.000Z</time>
      </trkpt>
      <trkpt lat="43.73433" lon="4.76063">
        <ele>93.554176330566</ele>
        <time>2014-12-28T09:29:01.000Z</time>
      </trkpt>
      <trkpt lat="43.73439" lon="4.76048">
        <ele>92.693969726562</ele>
        <time>2014-12-28T09:29:03.000Z</time>
      </trkpt>
      <trkpt lat="43.7345" lon="4.76022">
        <ele>91.72403717041</ele>
        <time>2014-12-28T09:29:06.000Z</time>
      </trkpt>
      <trkpt lat="43.73467" lon="4.76003">
        <ele>90.770484924316</ele>
        <time>2014-12-28T09:29:09.000Z</time>
      </trkpt>
      <trkpt lat="43.73479" lon="4.75983">
        <ele>89.515197753906</ele>
        <time>2014-12-28T09:29:12.000Z</time>
      </trkpt>
      <trkpt lat="43.73491" lon="4.75962">
        <ele>87.950569152832</ele>
        <time>2014-12-28T09:29:15.000Z</time>
      </trkpt>
      <trkpt lat="43.73502" lon="4.75956">
        <ele>86.746810913086</ele>
        <time>2014-12-28T09:29:17.000Z</time>
      </trkpt>
      <trkpt lat="43.73515" lon="4.75947">
        <ele>86.156951904297</ele>
        <time>2014-12-28T09:29:20.000Z</time>
      </trkpt>
      <trkpt lat="43.73523" lon="4.75938">
        <ele>85.761192321777</ele>
        <time>2014-12-28T09:29:22.000Z</time>
      </trkpt>
      <trkpt lat="43.73526" lon="4.75922">
        <ele>85.25968170166</ele>
        <time>2014-12-28T09:29:25.000Z</time>
      </trkpt>
      <trkpt lat="43.73529" lon="4.75912">
        <ele>84.899024963379</ele>
        <time>2014-12-28T09:29:27.000Z</time>
      </trkpt>
      <trkpt lat="43.73537" lon="4.75904">
        <ele>84.59098815918</ele>
        <time>2014-12-28T09:29:30.000Z</time>
      </trkpt>
      <trkpt lat="43.73542" lon="4.75899">
        <ele>84.212768554688</ele>
        <time>2014-12-28T09:29:32.000Z</time>
      </trkpt>
      <trkpt lat="43.73547" lon="4.75893">
        <ele>83.936782836914</ele>
        <time>2014-12-28T09:29:35.000Z</time>
      </trkpt>
      <trkpt lat="43.7355" lon="4.7589">
        <ele>84.085388183594</ele>
        <time>2014-12-28T09:29:37.000Z</time>
      </trkpt>
      <trkpt lat="43.73556" lon="4.75886">
        <ele>84.444625854492</ele>
        <time>2014-12-28T09:29:40.000Z</time>
      </trkpt>
      <trkpt lat="43.73563" lon="4.75879">
        <ele>84.733612060547</ele>
        <time>2014-12-28T09:29:43.000Z</time>
      </trkpt>
      <trkpt lat="43.73571" lon="4.75874">
        <ele>85.061225891113</ele>
        <time>2014-12-28T09:29:46.000Z</time>
      </trkpt>
      <trkpt lat="43.73576" lon="4.7587">
        <ele>85.367485046387</ele>
        <time>2014-12-28T09:29:48.000Z</time>
      </trkpt>
      <trkpt lat="43.73583" lon="4.75865">
        <ele>85.712898254395</ele>
        <time>2014-12-28T09:29:51.000Z</time>
      </trkpt>
      <trkpt lat="43.7359" lon="4.75858">
        <ele>86.092880249023</ele>
        <time>2014-12-28T09:29:54.000Z</time>
      </trkpt>
      <trkpt lat="43.73597" lon="4.75851">
        <ele>86.498390197754</ele>
        <time>2014-12-28T09:29:57.000Z</time>
      </trkpt>
      <trkpt lat="43.73605" lon="4.75843">
        <ele>86.864219665527</ele>
        <time>2014-12-28T09:30:00.000Z</time>
      </trkpt>
      <trkpt lat="43.7361" lon="4.75839">
        <ele>87.252113342285</ele>
        <time>2014-12-28T09:30:02.000Z</time>
      </trkpt>
      <trkpt lat="43.73614" lon="4.75836">
        <ele>87.609336853027</ele>
        <time>2014-12-28T09:30:04.000Z</time>
      </trkpt>
      <trkpt lat="43.73618" lon="4.75828">
        <ele>87.846786499023</ele>
        <time>2014-12-28T09:30:07.000Z</time>
      </trkpt>
      <trkpt lat="43.73624" lon="4.75821">
        <ele>88.096000671387</ele>
        <time>2014-12-28T09:30:10.000Z</time>
      </trkpt>
      <trkpt lat="43.73627" lon="4.75818">
        <ele>88.361892700195</ele>
        <time>2014-12-28T09:30:12.000Z</time>
      </trkpt>
      <trkpt lat="43.73631" lon="4.75814">
        <ele>88.601684570312</ele>
        <time>2014-12-28T09:30:14.000Z</time>
      </trkpt>
      <trkpt lat="43.73633" lon="4.75807">
        <ele>88.779396057129</ele>
        <time>2014-12-28T09:30:17.000Z</time>
      </trkpt>
      <trkpt lat="43.73632" lon="4.75797">
        <ele>88.812217712402</ele>
        <time>2014-12-28T09:30:19.000Z</time>
      </trkpt>
      <trkpt lat="43.73625" lon="4.75778">
        <ele>88.326797485352</ele>
        <time>2014-12-28T09:30:22.000Z</time>
      </trkpt>
      <trkpt lat="43.73613" lon="4.75756">
        <ele>87.200057983398</ele>
        <time>2014-12-28T09:30:25.000Z</time>
      </trkpt>
      <trkpt lat="43.73608" lon="4.75745">
        <ele>85.797317504883</ele>
        <time>2014-12-28T09:30:27.000Z</time>
      </trkpt>
      <trkpt lat="43.73603" lon="4.75735">
        <ele>84.210006713867</ele>
        <time>2014-12-28T09:30:29.000Z</time>
      </trkpt>
      <trkpt lat="43.736" lon="4.75726">
        <ele>82.618881225586</ele>
        <time>2014-12-28T09:30:31.000Z</time>
      </trkpt>
      <trkpt lat="43.73603" lon="4.75708">
        <ele>81.436630249023</ele>
        <time>2014-12-28T09:30:34.000Z</time>
      </trkpt>
      <trkpt lat="43.73609" lon="4.75693">
        <ele>80.879821777344</ele>
        <time>2014-12-28T09:30:36.000Z</time>
      </trkpt>
      <trkpt lat="43.73611" lon="4.75681">
        <ele>80.548156738281</ele>
        <time>2014-12-28T09:30:39.000Z</time>
      </trkpt>
      <trkpt lat="43.73614" lon="4.75676">
        <ele>80.468467712402</ele>
        <time>2014-12-28T09:30:41.000Z</time>
      </trkpt>
      <trkpt lat="43.73619" lon="4.75666">
        <ele>80.599609375</ele>
        <time>2014-12-28T09:30:44.000Z</time>
      </trkpt>
      <trkpt lat="43.73622" lon="4.75657">
        <ele>80.719604492188</ele>
        <time>2014-12-28T09:30:46.000Z</time>
      </trkpt>
      <trkpt lat="43.73625" lon="4.7565">
        <ele>80.763404846191</ele>
        <time>2014-12-28T09:30:48.000Z</time>
      </trkpt>
      <trkpt lat="43.73631" lon="4.75645">
        <ele>80.904907226562</ele>
        <time>2014-12-28T09:30:51.000Z</time>
      </trkpt>
      <trkpt lat="43.73635" lon="4.75641">
        <ele>81.040756225586</ele>
        <time>2014-12-28T09:30:53.000Z</time>
      </trkpt>
      <trkpt lat="43.73641" lon="4.75634">
        <ele>81.173469543457</ele>
        <time>2014-12-28T09:30:56.000Z</time>
      </trkpt>
      <trkpt lat="43.73645" lon="4.75629">
        <ele>81.33332824707</ele>
        <time>2014-12-28T09:30:58.000Z</time>
      </trkpt>
      <trkpt lat="43.73647" lon="4.75622">
        <ele>81.464965820312</ele>
        <time>2014-12-28T09:31:00.000Z</time>
      </trkpt>
      <trkpt lat="43.73653" lon="4.7561">
        <ele>81.455520629883</ele>
        <time>2014-12-28T09:31:03.000Z</time>
      </trkpt>
      <trkpt lat="43.73658" lon="4.75583">
        <ele>81.009719848633</ele>
        <time>2014-12-28T09:31:06.000Z</time>
      </trkpt>
      <trkpt lat="43.73664" lon="4.75574">
        <ele>80.476097106934</ele>
        <time>2014-12-28T09:31:08.000Z</time>
      </trkpt>
      <trkpt lat="43.73677" lon="4.75569">
        <ele>80.211685180664</ele>
        <time>2014-12-28T09:31:11.000Z</time>
      </trkpt>
      <trkpt lat="43.73685" lon="4.75564">
        <ele>80.147834777832</ele>
        <time>2014-12-28T09:31:13.000Z</time>
      </trkpt>
      <trkpt lat="43.737" lon="4.7555">
        <ele>80.310447692871</ele>
        <time>2014-12-28T09:31:16.000Z</time>
      </trkpt>
      <trkpt lat="43.7371" lon="4.75531">
        <ele>80.836387634277</ele>
        <time>2014-12-28T09:31:19.000Z</time>
      </trkpt>
      <trkpt lat="43.73721" lon="4.75527">
        <ele>81.643188476562</ele>
        <time>2014-12-28T09:31:21.000Z</time>
      </trkpt>
      <trkpt lat="43.73726" lon="4.7552">
        <ele>82.217407226562</ele>
        <time>2014-12-28T09:31:23.000Z</time>
      </trkpt>
      <trkpt lat="43.73733" lon="4.75512">
        <ele>82.716064453125</ele>
        <time>2014-12-28T09:31:25.000Z</time>
      </trkpt>
      <trkpt lat="43.73737" lon="4.75498">
        <ele>82.940017700195</ele>
        <time>2014-12-28T09:31:28.000Z</time>
      </trkpt>
      <trkpt lat="43.73741" lon="4.75489">
        <ele>83.241722106934</ele>
        <time>2014-12-28T09:31:31.000Z</time>
      </trkpt>
      <trkpt lat="43.73746" lon="4.7548">
        <ele>83.374977111816</ele>
        <time>2014-12-28T09:31:34.000Z</time>
      </trkpt>
      <trkpt lat="43.73748" lon="4.75472">
        <ele>83.474166870117</ele>
        <time>2014-12-28T09:31:36.000Z</time>
      </trkpt>
      <trkpt lat="43.73751" lon="4.75467">
        <ele>83.578552246094</ele>
        <time>2014-12-28T09:31:38.000Z</time>
      </trkpt>
      <trkpt lat="43.73756" lon="4.75462">
        <ele>83.956817626953</ele>
        <time>2014-12-28T09:31:41.000Z</time>
      </trkpt>
      <trkpt lat="43.73762" lon="4.75458">
        <ele>84.503135681152</ele>
        <time>2014-12-28T09:31:44.000Z</time>
      </trkpt>
      <trkpt lat="43.73765" lon="4.75457">
        <ele>85.098220825195</ele>
        <time>2014-12-28T09:31:46.000Z</time>
      </trkpt>
      <trkpt lat="43.73769" lon="4.75453">
        <ele>85.815292358398</ele>
        <time>2014-12-28T09:31:48.000Z</time>
      </trkpt>
      <trkpt lat="43.73773" lon="4.75446">
        <ele>86.557144165039</ele>
        <time>2014-12-28T09:31:51.000Z</time>
      </trkpt>
      <trkpt lat="43.73775" lon="4.75441">
        <ele>87.198303222656</ele>
        <time>2014-12-28T09:31:53.000Z</time>
      </trkpt>
      <trkpt lat="43.73777" lon="4.75436">
        <ele>87.64323425293</ele>
        <time>2014-12-28T09:31:55.000Z</time>
      </trkpt>
      <trkpt lat="43.73782" lon="4.75432">
        <ele>88.087753295898</ele>
        <time>2014-12-28T09:31:58.000Z</time>
      </trkpt>
      <trkpt lat="43.73785" lon="4.75426">
        <ele>88.475982666016</ele>
        <time>2014-12-28T09:32:01.000Z</time>
      </trkpt>
      <trkpt lat="43.73787" lon="4.75422">
        <ele>88.793083190918</ele>
        <time>2014-12-28T09:32:03.000Z</time>
      </trkpt>
      <trkpt lat="43.73789" lon="4.75412">
        <ele>89.005554199219</ele>
        <time>2014-12-28T09:32:06.000Z</time>
      </trkpt>
      <trkpt lat="43.73795" lon="4.75408">
        <ele>89.361427307129</ele>
        <time>2014-12-28T09:32:09.000Z</time>
      </trkpt>
      <trkpt lat="43.73798" lon="4.75396">
        <ele>89.578285217285</ele>
        <time>2014-12-28T09:32:12.000Z</time>
      </trkpt>
      <trkpt lat="43.73801" lon="4.75378">
        <ele>89.608963012695</ele>
        <time>2014-12-28T09:32:15.000Z</time>
      </trkpt>
      <trkpt lat="43.73808" lon="4.75354">
        <ele>89.555953979492</ele>
        <time>2014-12-28T09:32:18.000Z</time>
      </trkpt>
      <trkpt lat="43.73813" lon="4.75334">
        <ele>89.418617248535</ele>
        <time>2014-12-28T09:32:21.000Z</time>
      </trkpt>
      <trkpt lat="43.73817" lon="4.75317">
        <ele>89.026000976562</ele>
        <time>2014-12-28T09:32:23.000Z</time>
      </trkpt>
      <trkpt lat="43.7382" lon="4.75303">
        <ele>88.502296447754</ele>
        <time>2014-12-28T09:32:25.000Z</time>
      </trkpt>
      <trkpt lat="43.73827" lon="4.75285">
        <ele>88.03190612793</ele>
        <time>2014-12-28T09:32:28.000Z</time>
      </trkpt>
      <trkpt lat="43.73834" lon="4.75261">
        <ele>87.422897338867</ele>
        <time>2014-12-28T09:32:31.000Z</time>
      </trkpt>
      <trkpt lat="43.73835" lon="4.75245">
        <ele>86.686576843262</ele>
        <time>2014-12-28T09:32:33.000Z</time>
      </trkpt>
      <trkpt lat="43.73838" lon="4.75228">
        <ele>85.863883972168</ele>
        <time>2014-12-28T09:32:35.000Z</time>
      </trkpt>
      <trkpt lat="43.73844" lon="4.7521">
        <ele>85.115493774414</ele>
        <time>2014-12-28T09:32:38.000Z</time>
      </trkpt>
      <trkpt lat="43.73851" lon="4.75187">
        <ele>84.288986206055</ele>
        <time>2014-12-28T09:32:41.000Z</time>
      </trkpt>
      <trkpt lat="43.73856" lon="4.75175">
        <ele>83.638366699219</ele>
        <time>2014-12-28T09:32:43.000Z</time>
      </trkpt>
      <trkpt lat="43.73861" lon="4.75164">
        <ele>83.227012634277</ele>
        <time>2014-12-28T09:32:45.000Z</time>
      </trkpt>
      <trkpt lat="43.73867" lon="4.75147">
        <ele>82.968391418457</ele>
        <time>2014-12-28T09:32:48.000Z</time>
      </trkpt>
      <trkpt lat="43.73876" lon="4.75136">
        <ele>82.91667175293</ele>
        <time>2014-12-28T09:32:51.000Z</time>
      </trkpt>
      <trkpt lat="43.73882" lon="4.75128">
        <ele>83.079597473145</ele>
        <time>2014-12-28T09:32:53.000Z</time>
      </trkpt>
      <trkpt lat="43.73892" lon="4.75124">
        <ele>83.585983276367</ele>
        <time>2014-12-28T09:32:56.000Z</time>
      </trkpt>
      <trkpt lat="43.73903" lon="4.75117">
        <ele>84.35124206543</ele>
        <time>2014-12-28T09:32:59.000Z</time>
      </trkpt>
      <trkpt lat="43.73903" lon="4.75088">
        <ele>84.484878540039</ele>
        <time>2014-12-28T09:33:02.000Z</time>
      </trkpt>
      <trkpt lat="43.73912" lon="4.75068">
        <ele>84.387985229492</ele>
        <time>2014-12-28T09:33:05.000Z</time>
      </trkpt>
      <trkpt lat="43.73921" lon="4.75057">
        <ele>84.340774536133</ele>
        <time>2014-12-28T09:33:07.000Z</time>
      </trkpt>
      <trkpt lat="43.73928" lon="4.75043">
        <ele>83.918930053711</ele>
        <time>2014-12-28T09:33:09.000Z</time>
      </trkpt>
      <trkpt lat="43.7394" lon="4.7503">
        <ele>83.355796813965</ele>
        <time>2014-12-28T09:33:12.000Z</time>
      </trkpt>
      <trkpt lat="43.73948" lon="4.75021">
        <ele>83.447463989258</ele>
        <time>2014-12-28T09:33:14.000Z</time>
      </trkpt>
      <trkpt lat="43.73951" lon="4.75007">
        <ele>83.311096191406</ele>
        <time>2014-12-28T09:33:16.000Z</time>
      </trkpt>
      <trkpt lat="43.73951" lon="4.74982">
        <ele>82.335662841797</ele>
        <time>2014-12-28T09:33:19.000Z</time>
      </trkpt>
      <trkpt lat="43.73952" lon="4.74959">
        <ele>80.764053344727</ele>
        <time>2014-12-28T09:33:22.000Z</time>
      </trkpt>
      <trkpt lat="43.73956" lon="4.74948">
        <ele>78.814720153809</ele>
        <time>2014-12-28T09:33:24.000Z</time>
      </trkpt>
      <trkpt lat="43.73959" lon="4.74944">
        <ele>76.780128479004</ele>
        <time>2014-12-28T09:33:27.000Z</time>
      </trkpt>
      <trkpt lat="43.73967" lon="4.7494">
        <ele>75.013595581055</ele>
        <time>2014-12-28T09:33:29.000Z</time>
      </trkpt>
      <trkpt lat="43.73978" lon="4.74934">
        <ele>73.856468200684</ele>
        <time>2014-12-28T09:33:32.000Z</time>
      </trkpt>
      <trkpt lat="43.73988" lon="4.74932">
        <ele>73.317352294922</ele>
        <time>2014-12-28T09:33:35.000Z</time>
      </trkpt>
      <trkpt lat="43.73991" lon="4.74929">
        <ele>72.953880310059</ele>
        <time>2014-12-28T09:33:37.000Z</time>
      </trkpt>
      <trkpt lat="43.73994" lon="4.74923">
        <ele>72.471694946289</ele>
        <time>2014-12-28T09:33:40.000Z</time>
      </trkpt>
      <trkpt lat="43.73996" lon="4.7492">
        <ele>71.904586791992</ele>
        <time>2014-12-28T09:33:42.000Z</time>
      </trkpt>
      <trkpt lat="43.73997" lon="4.74917">
        <ele>71.341690063477</ele>
        <time>2014-12-28T09:33:44.000Z</time>
      </trkpt>
      <trkpt lat="43.73998" lon="4.74917">
        <ele>70.797592163086</ele>
        <time>2014-12-28T09:33:47.000Z</time>
      </trkpt>
      <trkpt lat="43.73999" lon="4.74916">
        <ele>70.358184814453</ele>
        <time>2014-12-28T09:33:49.000Z</time>
      </trkpt>
      <trkpt lat="43.74" lon="4.74915">
        <ele>70.140609741211</ele>
        <time>2014-12-28T09:33:53.000Z</time>
      </trkpt>
      <trkpt lat="43.73999" lon="4.74916">
        <ele>70.044082641602</ele>
        <time>2014-12-28T09:33:55.000Z</time>
      </trkpt>
      <trkpt lat="43.74" lon="4.74914">
        <ele>70.069725036621</ele>
        <time>2014-12-28T09:33:59.000Z</time>
      </trkpt>
      <trkpt lat="43.74001" lon="4.74913">
        <ele>70.129302978516</ele>
        <time>2014-12-28T09:34:01.000Z</time>
      </trkpt>
      <trkpt lat="43.74002" lon="4.74911">
        <ele>70.203125</ele>
        <time>2014-12-28T09:34:03.000Z</time>
      </trkpt>
      <trkpt lat="43.74004" lon="4.74909">
        <ele>70.308197021484</ele>
        <time>2014-12-28T09:34:06.000Z</time>
      </trkpt>
      <trkpt lat="43.74004" lon="4.74908">
        <ele>70.447914123535</ele>
        <time>2014-12-28T09:34:08.000Z</time>
      </trkpt>
      <trkpt lat="43.74005" lon="4.74907">
        <ele>70.595260620117</ele>
        <time>2014-12-28T09:34:12.000Z</time>
      </trkpt>
      <trkpt lat="43.74007" lon="4.74904">
        <ele>70.785995483398</ele>
        <time>2014-12-28T09:34:15.000Z</time>
      </trkpt>
      <trkpt lat="43.74009" lon="4.74902">
        <ele>70.993103027344</ele>
        <time>2014-12-28T09:34:18.000Z</time>
      </trkpt>
      <trkpt lat="43.7401" lon="4.74901">
        <ele>71.184631347656</ele>
        <time>2014-12-28T09:34:21.000Z</time>
      </trkpt>
      <trkpt lat="43.74011" lon="4.74901">
        <ele>71.375930786133</ele>
        <time>2014-12-28T09:34:24.000Z</time>
      </trkpt>
      <trkpt lat="43.74013" lon="4.74898">
        <ele>71.617721557617</ele>
        <time>2014-12-28T09:34:26.000Z</time>
      </trkpt>
      <trkpt lat="43.74014" lon="4.74897">
        <ele>71.827102661133</ele>
        <time>2014-12-28T09:34:29.000Z</time>
      </trkpt>
      <trkpt lat="43.74015" lon="4.74893">
        <ele>72.053230285645</ele>
        <time>2014-12-28T09:34:37.000Z</time>
      </trkpt>
      <trkpt lat="43.74018" lon="4.74889">
        <ele>72.397796630859</ele>
        <time>2014-12-28T09:34:40.000Z</time>
      </trkpt>
      <trkpt lat="43.74021" lon="4.74886">
        <ele>72.831161499023</ele>
        <time>2014-12-28T09:34:42.000Z</time>
      </trkpt>
      <trkpt lat="43.74023" lon="4.74885">
        <ele>73.259971618652</ele>
        <time>2014-12-28T09:34:44.000Z</time>
      </trkpt>
      <trkpt lat="43.74023" lon="4.74885">
        <ele>73.259971618652</ele>
        <time>2014-12-28T09:35:04.000Z</time>
      </trkpt>
      <trkpt lat="43.74024" lon="4.74883">
        <ele>73.705535888672</ele>
        <time>2014-12-28T09:35:14.000Z</time>
      </trkpt>
      <trkpt lat="43.74024" lon="4.74883">
        <ele>73.705535888672</ele>
        <time>2014-12-28T09:35:35.000Z</time>
      </trkpt>
      <trkpt lat="43.74025" lon="4.74882">
        <ele>74.124549865723</ele>
        <time>2014-12-28T09:35:38.000Z</time>
      </trkpt>
      <trkpt lat="43.74028" lon="4.74879">
        <ele>74.516929626465</ele>
        <time>2014-12-28T09:35:41.000Z</time>
      </trkpt>
      <trkpt lat="43.74032" lon="4.74877">
        <ele>74.968849182129</ele>
        <time>2014-12-28T09:35:44.000Z</time>
      </trkpt>
      <trkpt lat="43.74035" lon="4.74875">
        <ele>75.443672180176</ele>
        <time>2014-12-28T09:35:46.000Z</time>
      </trkpt>
      <trkpt lat="43.74038" lon="4.74875">
        <ele>75.95191192627</ele>
        <time>2014-12-28T09:35:48.000Z</time>
      </trkpt>
      <trkpt lat="43.74043" lon="4.74875">
        <ele>76.53360748291</ele>
        <time>2014-12-28T09:35:50.000Z</time>
      </trkpt>
      <trkpt lat="43.74052" lon="4.74874">
        <ele>77.252151489258</ele>
        <time>2014-12-28T09:35:53.000Z</time>
      </trkpt>
      <trkpt lat="43.74056" lon="4.7487">
        <ele>78.05721282959</ele>
        <time>2014-12-28T09:35:56.000Z</time>
      </trkpt>
      <trkpt lat="43.74053" lon="4.74864">
        <ele>78.88720703125</ele>
        <time>2014-12-28T09:35:59.000Z</time>
      </trkpt>
      <trkpt lat="43.74041" lon="4.74865">
        <ele>79.252563476562</ele>
        <time>2014-12-28T09:36:02.000Z</time>
      </trkpt>
      <trkpt lat="43.74036" lon="4.74863">
        <ele>79.421142578125</ele>
        <time>2014-12-28T09:36:04.000Z</time>
      </trkpt>
      <trkpt lat="43.74032" lon="4.74856">
        <ele>79.375671386719</ele>
        <time>2014-12-28T09:36:07.000Z</time>
      </trkpt>
      <trkpt lat="43.74023" lon="4.74852">
        <ele>78.869895935059</ele>
        <time>2014-12-28T09:36:10.000Z</time>
      </trkpt>
      <trkpt lat="43.74013" lon="4.7485">
        <ele>77.97087097168</ele>
        <time>2014-12-28T09:36:13.000Z</time>
      </trkpt>
      <trkpt lat="43.74006" lon="4.74846">
        <ele>77.258865356445</ele>
        <time>2014-12-28T09:36:15.000Z</time>
      </trkpt>
      <trkpt lat="43.73996" lon="4.74832">
        <ele>76.57209777832</ele>
        <time>2014-12-28T09:36:18.000Z</time>
      </trkpt>
      <trkpt lat="43.73983" lon="4.74826">
        <ele>75.782043457031</ele>
        <time>2014-12-28T09:36:20.000Z</time>
      </trkpt>
      <trkpt lat="43.73974" lon="4.74816">
        <ele>75.319984436035</ele>
        <time>2014-12-28T09:36:22.000Z</time>
      </trkpt>
      <trkpt lat="43.73961" lon="4.74806">
        <ele>75.083686828613</ele>
        <time>2014-12-28T09:36:25.000Z</time>
      </trkpt>
      <trkpt lat="43.73954" lon="4.74799">
        <ele>75.01944732666</ele>
        <time>2014-12-28T09:36:27.000Z</time>
      </trkpt>
      <trkpt lat="43.73942" lon="4.74794">
        <ele>74.759994506836</ele>
        <time>2014-12-28T09:36:29.000Z</time>
      </trkpt>
      <trkpt lat="43.73937" lon="4.74787">
        <ele>74.528823852539</ele>
        <time>2014-12-28T09:36:31.000Z</time>
      </trkpt>
      <trkpt lat="43.73925" lon="4.74776">
        <ele>73.932609558105</ele>
        <time>2014-12-28T09:36:34.000Z</time>
      </trkpt>
      <trkpt lat="43.73919" lon="4.74757">
        <ele>73.365982055664</ele>
        <time>2014-12-28T09:36:37.000Z</time>
      </trkpt>
      <trkpt lat="43.73915" lon="4.74737">
        <ele>72.956405639648</ele>
        <time>2014-12-28T09:36:40.000Z</time>
      </trkpt>
      <trkpt lat="43.73912" lon="4.74725">
        <ele>72.953620910645</ele>
        <time>2014-12-28T09:36:42.000Z</time>
      </trkpt>
      <trkpt lat="43.73911" lon="4.74713">
        <ele>73.140251159668</ele>
        <time>2014-12-28T09:36:44.000Z</time>
      </trkpt>
      <trkpt lat="43.73908" lon="4.747">
        <ele>73.705528259277</ele>
        <time>2014-12-28T09:36:46.000Z</time>
      </trkpt>
      <trkpt lat="43.73904" lon="4.7468">
        <ele>74.483856201172</ele>
        <time>2014-12-28T09:36:49.000Z</time>
      </trkpt>
      <trkpt lat="43.73904" lon="4.74665">
        <ele>75.328735351562</ele>
        <time>2014-12-28T09:36:51.000Z</time>
      </trkpt>
      <trkpt lat="43.73898" lon="4.74648">
        <ele>76.054870605469</ele>
        <time>2014-12-28T09:36:54.000Z</time>
      </trkpt>
      <trkpt lat="43.73894" lon="4.74632">
        <ele>76.675804138184</ele>
        <time>2014-12-28T09:36:57.000Z</time>
      </trkpt>
      <trkpt lat="43.73889" lon="4.74615">
        <ele>77.20043182373</ele>
        <time>2014-12-28T09:37:00.000Z</time>
      </trkpt>
      <trkpt lat="43.73886" lon="4.74598">
        <ele>77.625473022461</ele>
        <time>2014-12-28T09:37:03.000Z</time>
      </trkpt>
      <trkpt lat="43.73882" lon="4.74583">
        <ele>77.857757568359</ele>
        <time>2014-12-28T09:37:06.000Z</time>
      </trkpt>
      <trkpt lat="43.73879" lon="4.7457">
        <ele>78.132202148438</ele>
        <time>2014-12-28T09:37:09.000Z</time>
      </trkpt>
      <trkpt lat="43.73876" lon="4.74553">
        <ele>78.413101196289</ele>
        <time>2014-12-28T09:37:12.000Z</time>
      </trkpt>
      <trkpt lat="43.73874" lon="4.74541">
        <ele>78.728530883789</ele>
        <time>2014-12-28T09:37:14.000Z</time>
      </trkpt>
      <trkpt lat="43.73872" lon="4.74528">
        <ele>79.02335357666</ele>
        <time>2014-12-28T09:37:16.000Z</time>
      </trkpt>
      <trkpt lat="43.7387" lon="4.74511">
        <ele>79.373359680176</ele>
        <time>2014-12-28T09:37:19.000Z</time>
      </trkpt>
      <trkpt lat="43.73868" lon="4.74499">
        <ele>79.706085205078</ele>
        <time>2014-12-28T09:37:21.000Z</time>
      </trkpt>
      <trkpt lat="43.73866" lon="4.74486">
        <ele>79.965347290039</ele>
        <time>2014-12-28T09:37:23.000Z</time>
      </trkpt>
      <trkpt lat="43.73864" lon="4.74471">
        <ele>80.17951965332</ele>
        <time>2014-12-28T09:37:26.000Z</time>
      </trkpt>
      <trkpt lat="43.73861" lon="4.74461">
        <ele>80.247497558594</ele>
        <time>2014-12-28T09:37:28.000Z</time>
      </trkpt>
      <trkpt lat="43.73859" lon="4.74441">
        <ele>80.302024841309</ele>
        <time>2014-12-28T09:37:31.000Z</time>
      </trkpt>
      <trkpt lat="43.73854" lon="4.74427">
        <ele>80.218002319336</ele>
        <time>2014-12-28T09:37:33.000Z</time>
      </trkpt>
      <trkpt lat="43.73851" lon="4.74408">
        <ele>80.158828735352</ele>
        <time>2014-12-28T09:37:36.000Z</time>
      </trkpt>
      <trkpt lat="43.73848" lon="4.744">
        <ele>80.050521850586</ele>
        <time>2014-12-28T09:37:38.000Z</time>
      </trkpt>
      <trkpt lat="43.73846" lon="4.74386">
        <ele>80.066764831543</ele>
        <time>2014-12-28T09:37:40.000Z</time>
      </trkpt>
      <trkpt lat="43.73846" lon="4.7437">
        <ele>80.145698547363</ele>
        <time>2014-12-28T09:37:43.000Z</time>
      </trkpt>
      <trkpt lat="43.73844" lon="4.7436">
        <ele>80.3203125</ele>
        <time>2014-12-28T09:37:45.000Z</time>
      </trkpt>
      <trkpt lat="43.73842" lon="4.7435">
        <ele>80.5107421875</ele>
        <time>2014-12-28T09:37:47.000Z</time>
      </trkpt>
      <trkpt lat="43.73841" lon="4.74334">
        <ele>80.841796875</ele>
        <time>2014-12-28T09:37:50.000Z</time>
      </trkpt>
      <trkpt lat="43.73839" lon="4.74321">
        <ele>81.092758178711</ele>
        <time>2014-12-28T09:37:53.000Z</time>
      </trkpt>
      <trkpt lat="43.73835" lon="4.74305">
        <ele>81.124137878418</ele>
        <time>2014-12-28T09:37:56.000Z</time>
      </trkpt>
      <trkpt lat="43.73833" lon="4.7429">
        <ele>81.161041259766</ele>
        <time>2014-12-28T09:37:59.000Z</time>
      </trkpt>
      <trkpt lat="43.73829" lon="4.74277">
        <ele>81.138046264648</ele>
        <time>2014-12-28T09:38:01.000Z</time>
      </trkpt>
      <trkpt lat="43.73828" lon="4.74259">
        <ele>81.058792114258</ele>
        <time>2014-12-28T09:38:04.000Z</time>
      </trkpt>
      <trkpt lat="43.73829" lon="4.74241">
        <ele>80.933364868164</ele>
        <time>2014-12-28T09:38:07.000Z</time>
      </trkpt>
      <trkpt lat="43.73832" lon="4.74219">
        <ele>80.677597045898</ele>
        <time>2014-12-28T09:38:10.000Z</time>
      </trkpt>
      <trkpt lat="43.73833" lon="4.74196">
        <ele>80.097183227539</ele>
        <time>2014-12-28T09:38:13.000Z</time>
      </trkpt>
      <trkpt lat="43.73837" lon="4.7417">
        <ele>79.262817382812</ele>
        <time>2014-12-28T09:38:16.000Z</time>
      </trkpt>
      <trkpt lat="43.73841" lon="4.74137">
        <ele>78.039962768555</ele>
        <time>2014-12-28T09:38:19.000Z</time>
      </trkpt>
      <trkpt lat="43.73845" lon="4.74118">
        <ele>76.722221374512</ele>
        <time>2014-12-28T09:38:21.000Z</time>
      </trkpt>
      <trkpt lat="43.73853" lon="4.74069">
        <ele>75.271583557129</ele>
        <time>2014-12-28T09:38:25.000Z</time>
      </trkpt>
      <trkpt lat="43.73856" lon="4.74033">
        <ele>73.711303710938</ele>
        <time>2014-12-28T09:38:28.000Z</time>
      </trkpt>
      <trkpt lat="43.73861" lon="4.73994">
        <ele>72.075637817383</ele>
        <time>2014-12-28T09:38:31.000Z</time>
      </trkpt>
      <trkpt lat="43.73867" lon="4.73958">
        <ele>70.700180053711</ele>
        <time>2014-12-28T09:38:34.000Z</time>
      </trkpt>
      <trkpt lat="43.73874" lon="4.73923">
        <ele>69.38264465332</ele>
        <time>2014-12-28T09:38:37.000Z</time>
      </trkpt>
      <trkpt lat="43.73883" lon="4.73888">
        <ele>68.287803649902</ele>
        <time>2014-12-28T09:38:40.000Z</time>
      </trkpt>
      <trkpt lat="43.73887" lon="4.73857">
        <ele>67.377281188965</ele>
        <time>2014-12-28T09:38:43.000Z</time>
      </trkpt>
      <trkpt lat="43.73889" lon="4.7383">
        <ele>66.604583740234</ele>
        <time>2014-12-28T09:38:46.000Z</time>
      </trkpt>
      <trkpt lat="43.7389" lon="4.7381">
        <ele>65.823348999023</ele>
        <time>2014-12-28T09:38:48.000Z</time>
      </trkpt>
      <trkpt lat="43.7389" lon="4.73782">
        <ele>65.052520751953</ele>
        <time>2014-12-28T09:38:51.000Z</time>
      </trkpt>
      <trkpt lat="43.73891" lon="4.73755">
        <ele>64.320518493652</ele>
        <time>2014-12-28T09:38:54.000Z</time>
      </trkpt>
      <trkpt lat="43.73891" lon="4.73724">
        <ele>63.565895080566</ele>
        <time>2014-12-28T09:38:57.000Z</time>
      </trkpt>
      <trkpt lat="43.73891" lon="4.73704">
        <ele>62.840503692627</ele>
        <time>2014-12-28T09:38:59.000Z</time>
      </trkpt>
      <trkpt lat="43.73891" lon="4.73676">
        <ele>61.90486907959</ele>
        <time>2014-12-28T09:39:02.000Z</time>
      </trkpt>
      <trkpt lat="43.73892" lon="4.7364">
        <ele>60.697734832764</ele>
        <time>2014-12-28T09:39:05.000Z</time>
      </trkpt>
      <trkpt lat="43.73886" lon="4.73621">
        <ele>59.313438415527</ele>
        <time>2014-12-28T09:39:07.000Z</time>
      </trkpt>
      <trkpt lat="43.73872" lon="4.73614">
        <ele>57.988414764404</ele>
        <time>2014-12-28T09:39:10.000Z</time>
      </trkpt>
      <trkpt lat="43.73861" lon="4.73614">
        <ele>56.770690917969</ele>
        <time>2014-12-28T09:39:12.000Z</time>
      </trkpt>
      <trkpt lat="43.73853" lon="4.73612">
        <ele>55.74613571167</ele>
        <time>2014-12-28T09:39:15.000Z</time>
      </trkpt>
      <trkpt lat="43.73852" lon="4.73605">
        <ele>55.041881561279</ele>
        <time>2014-12-28T09:39:18.000Z</time>
      </trkpt>
      <trkpt lat="43.73857" lon="4.736">
        <ele>54.615333557129</ele>
        <time>2014-12-28T09:39:20.000Z</time>
      </trkpt>
      <trkpt lat="43.73867" lon="4.73593">
        <ele>54.391662597656</ele>
        <time>2014-12-28T09:39:23.000Z</time>
      </trkpt>
      <trkpt lat="43.73875" lon="4.73588">
        <ele>54.257316589355</ele>
        <time>2014-12-28T09:39:26.000Z</time>
      </trkpt>
      <trkpt lat="43.73882" lon="4.73584">
        <ele>54.200950622559</ele>
        <time>2014-12-28T09:39:28.000Z</time>
      </trkpt>
      <trkpt lat="43.73894" lon="4.73575">
        <ele>54.194713592529</ele>
        <time>2014-12-28T09:39:31.000Z</time>
      </trkpt>
      <trkpt lat="43.73903" lon="4.73562">
        <ele>54.137847900391</ele>
        <time>2014-12-28T09:39:33.000Z</time>
      </trkpt>
      <trkpt lat="43.73909" lon="4.73546">
        <ele>53.990570068359</ele>
        <time>2014-12-28T09:39:36.000Z</time>
      </trkpt>
      <trkpt lat="43.73917" lon="4.73537">
        <ele>53.813667297363</ele>
        <time>2014-12-28T09:39:38.000Z</time>
      </trkpt>
      <trkpt lat="43.73927" lon="4.73518">
        <ele>53.640460968018</ele>
        <time>2014-12-28T09:39:41.000Z</time>
      </trkpt>
      <trkpt lat="43.73932" lon="4.73506">
        <ele>53.433128356934</ele>
        <time>2014-12-28T09:39:43.000Z</time>
      </trkpt>
      <trkpt lat="43.73943" lon="4.73483">
        <ele>53.257934570312</ele>
        <time>2014-12-28T09:39:46.000Z</time>
      </trkpt>
      <trkpt lat="43.73949" lon="4.73474">
        <ele>53.182231903076</ele>
        <time>2014-12-28T09:39:48.000Z</time>
      </trkpt>
      <trkpt lat="43.73955" lon="4.73458">
        <ele>53.076606750488</ele>
        <time>2014-12-28T09:39:51.000Z</time>
      </trkpt>
      <trkpt lat="43.73962" lon="4.73445">
        <ele>52.950500488281</ele>
        <time>2014-12-28T09:39:54.000Z</time>
      </trkpt>
      <trkpt lat="43.73969" lon="4.73434">
        <ele>52.833972930908</ele>
        <time>2014-12-28T09:39:56.000Z</time>
      </trkpt>
      <trkpt lat="43.73973" lon="4.73421">
        <ele>52.668792724609</ele>
        <time>2014-12-28T09:39:59.000Z</time>
      </trkpt>
      <trkpt lat="43.73974" lon="4.73415">
        <ele>52.454261779785</ele>
        <time>2014-12-28T09:40:01.000Z</time>
      </trkpt>
      <trkpt lat="43.73978" lon="4.73398">
        <ele>52.287712097168</ele>
        <time>2014-12-28T09:40:04.000Z</time>
      </trkpt>
      <trkpt lat="43.73984" lon="4.73386">
        <ele>52.162578582764</ele>
        <time>2014-12-28T09:40:07.000Z</time>
      </trkpt>
      <trkpt lat="43.7399" lon="4.73373">
        <ele>52.077545166016</ele>
        <time>2014-12-28T09:40:10.000Z</time>
      </trkpt>
      <trkpt lat="43.73996" lon="4.73361">
        <ele>52.073120117188</ele>
        <time>2014-12-28T09:40:13.000Z</time>
      </trkpt>
      <trkpt lat="43.74002" lon="4.73348">
        <ele>52.120277404785</ele>
        <time>2014-12-28T09:40:16.000Z</time>
      </trkpt>
      <trkpt lat="43.74008" lon="4.73336">
        <ele>52.187767028809</ele>
        <time>2014-12-28T09:40:19.000Z</time>
      </trkpt>
      <trkpt lat="43.74012" lon="4.73324">
        <ele>52.266380310059</ele>
        <time>2014-12-28T09:40:22.000Z</time>
      </trkpt>
      <trkpt lat="43.74016" lon="4.73316">
        <ele>52.358909606934</ele>
        <time>2014-12-28T09:40:24.000Z</time>
      </trkpt>
      <trkpt lat="43.7402" lon="4.73308">
        <ele>52.469383239746</ele>
        <time>2014-12-28T09:40:26.000Z</time>
      </trkpt>
      <trkpt lat="43.74025" lon="4.73294">
        <ele>52.595935821533</ele>
        <time>2014-12-28T09:40:29.000Z</time>
      </trkpt>
      <trkpt lat="43.74029" lon="4.73281">
        <ele>52.73828125</ele>
        <time>2014-12-28T09:40:32.000Z</time>
      </trkpt>
      <trkpt lat="43.74031" lon="4.73272">
        <ele>52.8759765625</ele>
        <time>2014-12-28T09:40:35.000Z</time>
      </trkpt>
      <trkpt lat="43.74035" lon="4.73266">
        <ele>53.0107421875</ele>
        <time>2014-12-28T09:40:37.000Z</time>
      </trkpt>
      <trkpt lat="43.74039" lon="4.73252">
        <ele>53.1455078125</ele>
        <time>2014-12-28T09:40:40.000Z</time>
      </trkpt>
      <trkpt lat="43.74041" lon="4.73243">
        <ele>53.231224060059</ele>
        <time>2014-12-28T09:40:42.000Z</time>
      </trkpt>
      <trkpt lat="43.74043" lon="4.73229">
        <ele>53.255645751953</ele>
        <time>2014-12-28T09:40:45.000Z</time>
      </trkpt>
      <trkpt lat="43.74041" lon="4.73221">
        <ele>53.214485168457</ele>
        <time>2014-12-28T09:40:48.000Z</time>
      </trkpt>
      <trkpt lat="43.7404" lon="4.73214">
        <ele>53.121398925781</ele>
        <time>2014-12-28T09:40:50.000Z</time>
      </trkpt>
      <trkpt lat="43.74041" lon="4.73208">
        <ele>52.988147735596</ele>
        <time>2014-12-28T09:40:52.000Z</time>
      </trkpt>
      <trkpt lat="43.74043" lon="4.73197">
        <ele>52.84614944458</ele>
        <time>2014-12-28T09:40:55.000Z</time>
      </trkpt>
      <trkpt lat="43.74043" lon="4.73191">
        <ele>52.712699890137</ele>
        <time>2014-12-28T09:40:57.000Z</time>
      </trkpt>
      <trkpt lat="43.74042" lon="4.7318">
        <ele>52.575939178467</ele>
        <time>2014-12-28T09:41:00.000Z</time>
      </trkpt>
      <trkpt lat="43.74041" lon="4.73166">
        <ele>52.408790588379</ele>
        <time>2014-12-28T09:41:03.000Z</time>
      </trkpt>
      <trkpt lat="43.74041" lon="4.73151">
        <ele>52.222724914551</ele>
        <time>2014-12-28T09:41:06.000Z</time>
      </trkpt>
      <trkpt lat="43.74041" lon="4.73134">
        <ele>52.017742156982</ele>
        <time>2014-12-28T09:41:09.000Z</time>
      </trkpt>
      <trkpt lat="43.74044" lon="4.73123">
        <ele>51.828887939453</ele>
        <time>2014-12-28T09:41:11.000Z</time>
      </trkpt>
      <trkpt lat="43.7405" lon="4.73109">
        <ele>51.696342468262</ele>
        <time>2014-12-28T09:41:14.000Z</time>
      </trkpt>
      <trkpt lat="43.74055" lon="4.73102">
        <ele>51.627769470215</ele>
        <time>2014-12-28T09:41:16.000Z</time>
      </trkpt>
      <trkpt lat="43.74063" lon="4.73092">
        <ele>51.600818634033</ele>
        <time>2014-12-28T09:41:19.000Z</time>
      </trkpt>
      <trkpt lat="43.7407" lon="4.73083">
        <ele>51.613121032715</ele>
        <time>2014-12-28T09:41:22.000Z</time>
      </trkpt>
      <trkpt lat="43.74071" lon="4.73078">
        <ele>51.631774902344</ele>
        <time>2014-12-28T09:41:24.000Z</time>
      </trkpt>
      <trkpt lat="43.74075" lon="4.73076">
        <ele>51.656963348389</ele>
        <time>2014-12-28T09:41:27.000Z</time>
      </trkpt>
      <trkpt lat="43.74078" lon="4.73078">
        <ele>51.69864654541</ele>
        <time>2014-12-28T09:41:29.000Z</time>
      </trkpt>
      <trkpt lat="43.74086" lon="4.73086">
        <ele>51.792224884033</ele>
        <time>2014-12-28T09:41:32.000Z</time>
      </trkpt>
      <trkpt lat="43.74092" lon="4.73093">
        <ele>51.966419219971</ele>
        <time>2014-12-28T09:41:35.000Z</time>
      </trkpt>
      <trkpt lat="43.74097" lon="4.73099">
        <ele>52.204639434814</ele>
        <time>2014-12-28T09:41:37.000Z</time>
      </trkpt>
      <trkpt lat="43.74105" lon="4.73107">
        <ele>52.520538330078</ele>
        <time>2014-12-28T09:41:40.000Z</time>
      </trkpt>
      <trkpt lat="43.7411" lon="4.73114">
        <ele>52.872344970703</ele>
        <time>2014-12-28T09:41:42.000Z</time>
      </trkpt>
      <trkpt lat="43.74119" lon="4.73125">
        <ele>53.25821685791</ele>
        <time>2014-12-28T09:41:45.000Z</time>
      </trkpt>
      <trkpt lat="43.74125" lon="4.73133">
        <ele>53.625843048096</ele>
        <time>2014-12-28T09:41:47.000Z</time>
      </trkpt>
      <trkpt lat="43.74136" lon="4.73144">
        <ele>54.03539276123</ele>
        <time>2014-12-28T09:41:50.000Z</time>
      </trkpt>
      <trkpt lat="43.74144" lon="4.73151">
        <ele>54.423828125</ele>
        <time>2014-12-28T09:41:53.000Z</time>
      </trkpt>
      <trkpt lat="43.74152" lon="4.73159">
        <ele>54.817363739014</ele>
        <time>2014-12-28T09:41:56.000Z</time>
      </trkpt>
      <trkpt lat="43.7416" lon="4.73168">
        <ele>55.175392150879</ele>
        <time>2014-12-28T09:41:59.000Z</time>
      </trkpt>
      <trkpt lat="43.74165" lon="4.73172">
        <ele>55.506061553955</ele>
        <time>2014-12-28T09:42:01.000Z</time>
      </trkpt>
      <trkpt lat="43.74171" lon="4.73179">
        <ele>55.787586212158</ele>
        <time>2014-12-28T09:42:03.000Z</time>
      </trkpt>
      <trkpt lat="43.7418" lon="4.73189">
        <ele>56.092720031738</ele>
        <time>2014-12-28T09:42:06.000Z</time>
      </trkpt>
      <trkpt lat="43.74186" lon="4.73195">
        <ele>56.406120300293</ele>
        <time>2014-12-28T09:42:08.000Z</time>
      </trkpt>
      <trkpt lat="43.74191" lon="4.73201">
        <ele>56.732513427734</ele>
        <time>2014-12-28T09:42:10.000Z</time>
      </trkpt>
      <trkpt lat="43.74199" lon="4.73211">
        <ele>57.151256561279</ele>
        <time>2014-12-28T09:42:13.000Z</time>
      </trkpt>
      <trkpt lat="43.74206" lon="4.73219">
        <ele>57.650859832764</ele>
        <time>2014-12-28T09:42:16.000Z</time>
      </trkpt>
      <trkpt lat="43.74212" lon="4.73226">
        <ele>58.159912109375</ele>
        <time>2014-12-28T09:42:18.000Z</time>
      </trkpt>
      <trkpt lat="43.7422" lon="4.73234">
        <ele>58.76375579834</ele>
        <time>2014-12-28T09:42:21.000Z</time>
      </trkpt>
      <trkpt lat="43.74225" lon="4.7324">
        <ele>59.409698486328</ele>
        <time>2014-12-28T09:42:23.000Z</time>
      </trkpt>
      <trkpt lat="43.7423" lon="4.73246">
        <ele>60.059223175049</ele>
        <time>2014-12-28T09:42:25.000Z</time>
      </trkpt>
      <trkpt lat="43.74239" lon="4.73255">
        <ele>60.775817871094</ele>
        <time>2014-12-28T09:42:28.000Z</time>
      </trkpt>
      <trkpt lat="43.74247" lon="4.73263">
        <ele>61.527729034424</ele>
        <time>2014-12-28T09:42:31.000Z</time>
      </trkpt>
      <trkpt lat="43.74252" lon="4.73269">
        <ele>62.280540466309</ele>
        <time>2014-12-28T09:42:33.000Z</time>
      </trkpt>
      <trkpt lat="43.74257" lon="4.73274">
        <ele>63.128479003906</ele>
        <time>2014-12-28T09:42:35.000Z</time>
      </trkpt>
      <trkpt lat="43.74262" lon="4.73282">
        <ele>64.115707397461</ele>
        <time>2014-12-28T09:42:38.000Z</time>
      </trkpt>
      <trkpt lat="43.74261" lon="4.73287">
        <ele>64.875671386719</ele>
        <time>2014-12-28T09:42:40.000Z</time>
      </trkpt>
      <trkpt lat="43.74259" lon="4.7329">
        <ele>65.425369262695</ele>
        <time>2014-12-28T09:42:43.000Z</time>
      </trkpt>
      <trkpt lat="43.7426" lon="4.73291">
        <ele>65.866310119629</ele>
        <time>2014-12-28T09:42:47.000Z</time>
      </trkpt>
      <trkpt lat="43.74263" lon="4.73292">
        <ele>66.226341247559</ele>
        <time>2014-12-28T09:42:49.000Z</time>
      </trkpt>
      <trkpt lat="43.74265" lon="4.73293">
        <ele>66.428886413574</ele>
        <time>2014-12-28T09:42:51.000Z</time>
      </trkpt>
      <trkpt lat="43.74267" lon="4.73293">
        <ele>66.72566986084</ele>
        <time>2014-12-28T09:42:53.000Z</time>
      </trkpt>
      <trkpt lat="43.74269" lon="4.7329">
        <ele>67.203247070312</ele>
        <time>2014-12-28T09:42:56.000Z</time>
      </trkpt>
      <trkpt lat="43.7427" lon="4.73288">
        <ele>67.644470214844</ele>
        <time>2014-12-28T09:42:58.000Z</time>
      </trkpt>
      <trkpt lat="43.74271" lon="4.73287">
        <ele>67.964256286621</ele>
        <time>2014-12-28T09:43:01.000Z</time>
      </trkpt>
      <trkpt lat="43.7427" lon="4.73286">
        <ele>68.150955200195</ele>
        <time>2014-12-28T09:43:03.000Z</time>
      </trkpt>
      <trkpt lat="43.74269" lon="4.73286">
        <ele>68.217506408691</ele>
        <time>2014-12-28T09:43:10.000Z</time>
      </trkpt>
      <trkpt lat="43.74269" lon="4.73288">
        <ele>68.169540405273</ele>
        <time>2014-12-28T09:43:21.000Z</time>
      </trkpt>
      <trkpt lat="43.74268" lon="4.73288">
        <ele>68.066055297852</ele>
        <time>2014-12-28T09:43:26.000Z</time>
      </trkpt>
      <trkpt lat="43.74268" lon="4.73288">
        <ele>68.066055297852</ele>
        <time>2014-12-28T09:43:46.000Z</time>
      </trkpt>
      <trkpt lat="43.74268" lon="4.7329">
        <ele>67.979141235352</ele>
        <time>2014-12-28T09:43:52.000Z</time>
      </trkpt>
      <trkpt lat="43.74268" lon="4.73288">
        <ele>67.870910644531</ele>
        <time>2014-12-28T09:43:56.000Z</time>
      </trkpt>
      <trkpt lat="43.74267" lon="4.7329">
        <ele>67.787063598633</ele>
        <time>2014-12-28T09:43:59.000Z</time>
      </trkpt>
      <trkpt lat="43.74266" lon="4.73289">
        <ele>67.666900634766</ele>
        <time>2014-12-28T09:44:14.000Z</time>
      </trkpt>
      <trkpt lat="43.74264" lon="4.73291">
        <ele>67.523986816406</ele>
        <time>2014-12-28T09:44:17.000Z</time>
      </trkpt>
      <trkpt lat="43.74263" lon="4.73293">
        <ele>67.311813354492</ele>
        <time>2014-12-28T09:44:22.000Z</time>
      </trkpt>
      <trkpt lat="43.74264" lon="4.73292">
        <ele>67.171676635742</ele>
        <time>2014-12-28T09:44:27.000Z</time>
      </trkpt>
      <trkpt lat="43.74266" lon="4.73292">
        <ele>67.132705688477</ele>
        <time>2014-12-28T09:44:29.000Z</time>
      </trkpt>
      <trkpt lat="43.74266" lon="4.73292">
        <ele>67.132705688477</ele>
        <time>2014-12-28T09:44:49.000Z</time>
      </trkpt>
      <trkpt lat="43.74265" lon="4.73292">
        <ele>67.102012634277</ele>
        <time>2014-12-28T09:44:54.000Z</time>
      </trkpt>
      <trkpt lat="43.74264" lon="4.73294">
        <ele>67.10041809082</ele>
        <time>2014-12-28T09:44:57.000Z</time>
      </trkpt>
      <trkpt lat="43.74263" lon="4.73293">
        <ele>67.086463928223</ele>
        <time>2014-12-28T09:45:02.000Z</time>
      </trkpt>
      <trkpt lat="43.74265" lon="4.73294">
        <ele>67.135688781738</ele>
        <time>2014-12-28T09:45:15.000Z</time>
      </trkpt>
      <trkpt lat="43.74265" lon="4.73294">
        <ele>67.135688781738</ele>
        <time>2014-12-28T09:45:35.000Z</time>
      </trkpt>
      <trkpt lat="43.74266" lon="4.73293">
        <ele>67.14176940918</ele>
        <time>2014-12-28T09:46:06.000Z</time>
      </trkpt>
      <trkpt lat="43.74266" lon="4.73293">
        <ele>67.212455749512</ele>
        <time>2014-12-28T09:46:10.000Z</time>
      </trkpt>
      <trkpt lat="43.74267" lon="4.7329">
        <ele>67.314735412598</ele>
        <time>2014-12-28T09:46:21.000Z</time>
      </trkpt>
      <trkpt lat="43.74267" lon="4.7329">
        <ele>67.314735412598</ele>
        <time>2014-12-28T09:46:41.000Z</time>
      </trkpt>
      <trkpt lat="43.74267" lon="4.73289">
        <ele>67.483238220215</ele>
        <time>2014-12-28T09:46:54.000Z</time>
      </trkpt>
      <trkpt lat="43.74267" lon="4.7329">
        <ele>67.568130493164</ele>
        <time>2014-12-28T09:47:01.000Z</time>
      </trkpt>
      <trkpt lat="43.74266" lon="4.73292">
        <ele>67.595474243164</ele>
        <time>2014-12-28T09:47:08.000Z</time>
      </trkpt>
      <trkpt lat="43.74266" lon="4.73294">
        <ele>67.588340759277</ele>
        <time>2014-12-28T09:47:20.000Z</time>
      </trkpt>
      <trkpt lat="43.74266" lon="4.73296">
        <ele>67.569602966309</ele>
        <time>2014-12-28T09:47:28.000Z</time>
      </trkpt>
      <trkpt lat="43.74265" lon="4.73296">
        <ele>67.502426147461</ele>
        <time>2014-12-28T09:47:46.000Z</time>
      </trkpt>
      <trkpt lat="43.74263" lon="4.73296">
        <ele>67.376266479492</ele>
        <time>2014-12-28T09:47:55.000Z</time>
      </trkpt>
      <trkpt lat="43.74265" lon="4.73295">
        <ele>67.308395385742</ele>
        <time>2014-12-28T09:48:00.000Z</time>
      </trkpt>
      <trkpt lat="43.74266" lon="4.73294">
        <ele>67.289878845215</ele>
        <time>2014-12-28T09:48:05.000Z</time>
      </trkpt>
      <trkpt lat="43.74265" lon="4.73292">
        <ele>67.251426696777</ele>
        <time>2014-12-28T09:48:11.000Z</time>
      </trkpt>
      <trkpt lat="43.74267" lon="4.73292">
        <ele>67.319862365723</ele>
        <time>2014-12-28T09:48:18.000Z</time>
      </trkpt>
      <trkpt lat="43.74268" lon="4.73291">
        <ele>67.468002319336</ele>
        <time>2014-12-28T09:48:26.000Z</time>
      </trkpt>
      <trkpt lat="43.74267" lon="4.73292">
        <ele>67.574264526367</ele>
        <time>2014-12-28T09:48:30.000Z</time>
      </trkpt>
      <trkpt lat="43.74266" lon="4.73293">
        <ele>67.585517883301</ele>
        <time>2014-12-28T09:48:33.000Z</time>
      </trkpt>
      <trkpt lat="43.74264" lon="4.73293">
        <ele>67.553176879883</ele>
        <time>2014-12-28T09:48:36.000Z</time>
      </trkpt>
      <trkpt lat="43.74261" lon="4.73293">
        <ele>67.307968139648</ele>
        <time>2014-12-28T09:48:39.000Z</time>
      </trkpt>
      <trkpt lat="43.74258" lon="4.73292">
        <ele>66.910118103027</ele>
        <time>2014-12-28T09:48:42.000Z</time>
      </trkpt>
      <trkpt lat="43.74257" lon="4.73291">
        <ele>66.448226928711</ele>
        <time>2014-12-28T09:48:45.000Z</time>
      </trkpt>
      <trkpt lat="43.74254" lon="4.73289">
        <ele>65.915451049805</ele>
        <time>2014-12-28T09:48:48.000Z</time>
      </trkpt>
      <trkpt lat="43.74256" lon="4.73289">
        <ele>65.523216247559</ele>
        <time>2014-12-28T09:49:04.000Z</time>
      </trkpt>
      <trkpt lat="43.74256" lon="4.73289">
        <ele>65.523216247559</ele>
        <time>2014-12-28T09:49:24.000Z</time>
      </trkpt>
      <trkpt lat="43.74257" lon="4.73289">
        <ele>65.326599121094</ele>
        <time>2014-12-28T09:49:31.000Z</time>
      </trkpt>
      <trkpt lat="43.74257" lon="4.7329">
        <ele>65.262435913086</ele>
        <time>2014-12-28T09:49:38.000Z</time>
      </trkpt>
      <trkpt lat="43.74258" lon="4.7329">
        <ele>65.327621459961</ele>
        <time>2014-12-28T09:49:40.000Z</time>
      </trkpt>
      <trkpt lat="43.74263" lon="4.73293">
        <ele>65.735427856445</ele>
        <time>2014-12-28T09:49:43.000Z</time>
      </trkpt>
      <trkpt lat="43.74267" lon="4.73296">
        <ele>66.268287658691</ele>
        <time>2014-12-28T09:49:45.000Z</time>
      </trkpt>
      <trkpt lat="43.74269" lon="4.73301">
        <ele>66.883644104004</ele>
        <time>2014-12-28T09:49:47.000Z</time>
      </trkpt>
      <trkpt lat="43.74269" lon="4.73315">
        <ele>67.555015563965</ele>
        <time>2014-12-28T09:49:50.000Z</time>
      </trkpt>
      <trkpt lat="43.74269" lon="4.73327">
        <ele>68.223754882812</ele>
        <time>2014-12-28T09:49:52.000Z</time>
      </trkpt>
      <trkpt lat="43.74273" lon="4.73338">
        <ele>68.950927734375</ele>
        <time>2014-12-28T09:49:54.000Z</time>
      </trkpt>
      <trkpt lat="43.74278" lon="4.73345">
        <ele>69.816276550293</ele>
        <time>2014-12-28T09:49:56.000Z</time>
      </trkpt>
      <trkpt lat="43.74287" lon="4.73355">
        <ele>71.020370483398</ele>
        <time>2014-12-28T09:49:59.000Z</time>
      </trkpt>
      <trkpt lat="43.74294" lon="4.73362">
        <ele>72.45524597168</ele>
        <time>2014-12-28T09:50:01.000Z</time>
      </trkpt>
      <trkpt lat="43.743" lon="4.7337">
        <ele>74.061500549316</ele>
        <time>2014-12-28T09:50:03.000Z</time>
      </trkpt>
      <trkpt lat="43.74306" lon="4.73377">
        <ele>75.596054077148</ele>
        <time>2014-12-28T09:50:05.000Z</time>
      </trkpt>
      <trkpt lat="43.74316" lon="4.73388">
        <ele>77.040382385254</ele>
        <time>2014-12-28T09:50:08.000Z</time>
      </trkpt>
      <trkpt lat="43.74326" lon="4.73399">
        <ele>78.157218933105</ele>
        <time>2014-12-28T09:50:11.000Z</time>
      </trkpt>
      <trkpt lat="43.74338" lon="4.73408">
        <ele>79.141975402832</ele>
        <time>2014-12-28T09:50:14.000Z</time>
      </trkpt>
      <trkpt lat="43.74347" lon="4.73417">
        <ele>80.005630493164</ele>
        <time>2014-12-28T09:50:17.000Z</time>
      </trkpt>
      <trkpt lat="43.74353" lon="4.73423">
        <ele>80.985633850098</ele>
        <time>2014-12-28T09:50:19.000Z</time>
      </trkpt>
      <trkpt lat="43.74363" lon="4.7343">
        <ele>82.065422058105</ele>
        <time>2014-12-28T09:50:22.000Z</time>
      </trkpt>
      <trkpt lat="43.74372" lon="4.73436">
        <ele>83.259536743164</ele>
        <time>2014-12-28T09:50:25.000Z</time>
      </trkpt>
      <trkpt lat="43.74379" lon="4.73439">
        <ele>84.423316955566</ele>
        <time>2014-12-28T09:50:27.000Z</time>
      </trkpt>
      <trkpt lat="43.74389" lon="4.73445">
        <ele>85.625755310059</ele>
        <time>2014-12-28T09:50:30.000Z</time>
      </trkpt>
      <trkpt lat="43.74395" lon="4.73448">
        <ele>86.568260192871</ele>
        <time>2014-12-28T09:50:32.000Z</time>
      </trkpt>
      <trkpt lat="43.74404" lon="4.73453">
        <ele>87.218330383301</ele>
        <time>2014-12-28T09:50:35.000Z</time>
      </trkpt>
      <trkpt lat="43.74409" lon="4.73457">
        <ele>87.622856140137</ele>
        <time>2014-12-28T09:50:37.000Z</time>
      </trkpt>
      <trkpt lat="43.74418" lon="4.73461">
        <ele>87.886184692383</ele>
        <time>2014-12-28T09:50:40.000Z</time>
      </trkpt>
      <trkpt lat="43.74424" lon="4.73463">
        <ele>88.068389892578</ele>
        <time>2014-12-28T09:50:42.000Z</time>
      </trkpt>
      <trkpt lat="43.7443" lon="4.73466">
        <ele>88.227401733398</ele>
        <time>2014-12-28T09:50:44.000Z</time>
      </trkpt>
      <trkpt lat="43.74439" lon="4.7347">
        <ele>88.369613647461</ele>
        <time>2014-12-28T09:50:47.000Z</time>
      </trkpt>
      <trkpt lat="43.74448" lon="4.73474">
        <ele>88.495559692383</ele>
        <time>2014-12-28T09:50:50.000Z</time>
      </trkpt>
      <trkpt lat="43.74453" lon="4.73476">
        <ele>88.604629516602</ele>
        <time>2014-12-28T09:50:52.000Z</time>
      </trkpt>
      <trkpt lat="43.74461" lon="4.7348">
        <ele>88.593994140625</ele>
        <time>2014-12-28T09:50:55.000Z</time>
      </trkpt>
      <trkpt lat="43.74466" lon="4.73482">
        <ele>88.47966003418</ele>
        <time>2014-12-28T09:50:57.000Z</time>
      </trkpt>
      <trkpt lat="43.74471" lon="4.73485">
        <ele>88.24641418457</ele>
        <time>2014-12-28T09:50:59.000Z</time>
      </trkpt>
      <trkpt lat="43.74479" lon="4.73486">
        <ele>87.991897583008</ele>
        <time>2014-12-28T09:51:02.000Z</time>
      </trkpt>
      <trkpt lat="43.74488" lon="4.73488">
        <ele>87.653244018555</ele>
        <time>2014-12-28T09:51:05.000Z</time>
      </trkpt>
      <trkpt lat="43.74494" lon="4.7349">
        <ele>87.273849487305</ele>
        <time>2014-12-28T09:51:07.000Z</time>
      </trkpt>
      <trkpt lat="43.745" lon="4.73493">
        <ele>86.822822570801</ele>
        <time>2014-12-28T09:51:09.000Z</time>
      </trkpt>
      <trkpt lat="43.74509" lon="4.73498">
        <ele>86.590072631836</ele>
        <time>2014-12-28T09:51:12.000Z</time>
      </trkpt>
      <trkpt lat="43.74517" lon="4.73505">
        <ele>86.726760864258</ele>
        <time>2014-12-28T09:51:15.000Z</time>
      </trkpt>
      <trkpt lat="43.74525" lon="4.73513">
        <ele>87.352470397949</ele>
        <time>2014-12-28T09:51:18.000Z</time>
      </trkpt>
      <trkpt lat="43.7453" lon="4.73518">
        <ele>88.256141662598</ele>
        <time>2014-12-28T09:51:20.000Z</time>
      </trkpt>
      <trkpt lat="43.74537" lon="4.73527">
        <ele>89.494743347168</ele>
        <time>2014-12-28T09:51:23.000Z</time>
      </trkpt>
      <trkpt lat="43.74543" lon="4.73536">
        <ele>90.709182739258</ele>
        <time>2014-12-28T09:51:26.000Z</time>
      </trkpt>
      <trkpt lat="43.74548" lon="4.73543">
        <ele>91.584602355957</ele>
        <time>2014-12-28T09:51:28.000Z</time>
      </trkpt>
      <trkpt lat="43.74552" lon="4.7355">
        <ele>92.041641235352</ele>
        <time>2014-12-28T09:51:30.000Z</time>
      </trkpt>
      <trkpt lat="43.74557" lon="4.73561">
        <ele>92.175170898438</ele>
        <time>2014-12-28T09:51:33.000Z</time>
      </trkpt>
      <trkpt lat="43.74561" lon="4.73567">
        <ele>91.975769042969</ele>
        <time>2014-12-28T09:51:35.000Z</time>
      </trkpt>
      <trkpt lat="43.74566" lon="4.73572">
        <ele>91.514602661133</ele>
        <time>2014-12-28T09:51:37.000Z</time>
      </trkpt>
      <trkpt lat="43.74573" lon="4.7358">
        <ele>90.736122131348</ele>
        <time>2014-12-28T09:51:40.000Z</time>
      </trkpt>
      <trkpt lat="43.74577" lon="4.73585">
        <ele>89.823547363281</ele>
        <time>2014-12-28T09:51:42.000Z</time>
      </trkpt>
      <trkpt lat="43.74582" lon="4.7359">
        <ele>88.991333007812</ele>
        <time>2014-12-28T09:51:44.000Z</time>
      </trkpt>
      <trkpt lat="43.74586" lon="4.73594">
        <ele>88.464820861816</ele>
        <time>2014-12-28T09:51:46.000Z</time>
      </trkpt>
      <trkpt lat="43.74595" lon="4.73603">
        <ele>88.580299377441</ele>
        <time>2014-12-28T09:51:49.000Z</time>
      </trkpt>
      <trkpt lat="43.74602" lon="4.73611">
        <ele>89.337692260742</ele>
        <time>2014-12-28T09:51:52.000Z</time>
      </trkpt>
      <trkpt lat="43.74608" lon="4.7362">
        <ele>90.501983642578</ele>
        <time>2014-12-28T09:51:55.000Z</time>
      </trkpt>
      <trkpt lat="43.74612" lon="4.73626">
        <ele>91.85270690918</ele>
        <time>2014-12-28T09:51:57.000Z</time>
      </trkpt>
      <trkpt lat="43.74617" lon="4.73634">
        <ele>93.12476348877</ele>
        <time>2014-12-28T09:52:00.000Z</time>
      </trkpt>
      <trkpt lat="43.74621" lon="4.73639">
        <ele>93.966529846191</ele>
        <time>2014-12-28T09:52:02.000Z</time>
      </trkpt>
      <trkpt lat="43.74627" lon="4.73647">
        <ele>94.545425415039</ele>
        <time>2014-12-28T09:52:05.000Z</time>
      </trkpt>
      <trkpt lat="43.74631" lon="4.73652">
        <ele>94.902908325195</ele>
        <time>2014-12-28T09:52:07.000Z</time>
      </trkpt>
      <trkpt lat="43.74639" lon="4.73658">
        <ele>95.194511413574</ele>
        <time>2014-12-28T09:52:10.000Z</time>
      </trkpt>
      <trkpt lat="43.74643" lon="4.73664">
        <ele>95.317611694336</ele>
        <time>2014-12-28T09:52:12.000Z</time>
      </trkpt>
      <trkpt lat="43.74648" lon="4.73674">
        <ele>95.400978088379</ele>
        <time>2014-12-28T09:52:15.000Z</time>
      </trkpt>
      <trkpt lat="43.74656" lon="4.73682">
        <ele>95.455001831055</ele>
        <time>2014-12-28T09:52:18.000Z</time>
      </trkpt>
      <trkpt lat="43.7466" lon="4.73688">
        <ele>95.491142272949</ele>
        <time>2014-12-28T09:52:20.000Z</time>
      </trkpt>
      <trkpt lat="43.74666" lon="4.73694">
        <ele>95.432426452637</ele>
        <time>2014-12-28T09:52:23.000Z</time>
      </trkpt>
      <trkpt lat="43.74673" lon="4.73701">
        <ele>95.715614318848</ele>
        <time>2014-12-28T09:52:26.000Z</time>
      </trkpt>
      <trkpt lat="43.74677" lon="4.73705">
        <ele>96.117210388184</ele>
        <time>2014-12-28T09:52:28.000Z</time>
      </trkpt>
      <trkpt lat="43.74681" lon="4.73711">
        <ele>96.587440490723</ele>
        <time>2014-12-28T09:52:31.000Z</time>
      </trkpt>
      <trkpt lat="43.74683" lon="4.73715">
        <ele>97.124877929688</ele>
        <time>2014-12-28T09:52:33.000Z</time>
      </trkpt>
      <trkpt lat="43.74686" lon="4.73719">
        <ele>97.747604370117</ele>
        <time>2014-12-28T09:52:35.000Z</time>
      </trkpt>
      <trkpt lat="43.74689" lon="4.73723">
        <ele>98.175422668457</ele>
        <time>2014-12-28T09:52:38.000Z</time>
      </trkpt>
      <trkpt lat="43.74692" lon="4.73726">
        <ele>98.508865356445</ele>
        <time>2014-12-28T09:52:40.000Z</time>
      </trkpt>
      <trkpt lat="43.74696" lon="4.73729">
        <ele>98.844306945801</ele>
        <time>2014-12-28T09:52:43.000Z</time>
      </trkpt>
      <trkpt lat="43.74699" lon="4.73731">
        <ele>99.182540893555</ele>
        <time>2014-12-28T09:52:45.000Z</time>
      </trkpt>
      <trkpt lat="43.74702" lon="4.73732">
        <ele>99.561965942383</ele>
        <time>2014-12-28T09:52:47.000Z</time>
      </trkpt>
      <trkpt lat="43.74706" lon="4.73734">
        <ele>99.986373901367</ele>
        <time>2014-12-28T09:52:50.000Z</time>
      </trkpt>
      <trkpt lat="43.7471" lon="4.73738">
        <ele>100.40853118896</ele>
        <time>2014-12-28T09:52:53.000Z</time>
      </trkpt>
      <trkpt lat="43.74714" lon="4.73742">
        <ele>100.73271179199</ele>
        <time>2014-12-28T09:52:56.000Z</time>
      </trkpt>
      <trkpt lat="43.74718" lon="4.73746">
        <ele>100.99833679199</ele>
        <time>2014-12-28T09:52:59.000Z</time>
      </trkpt>
      <trkpt lat="43.7472" lon="4.73749">
        <ele>101.18732452393</ele>
        <time>2014-12-28T09:53:01.000Z</time>
      </trkpt>
      <trkpt lat="43.74724" lon="4.73754">
        <ele>101.27400970459</ele>
        <time>2014-12-28T09:53:04.000Z</time>
      </trkpt>
      <trkpt lat="43.74728" lon="4.73756">
        <ele>101.43171691895</ele>
        <time>2014-12-28T09:53:06.000Z</time>
      </trkpt>
      <trkpt lat="43.74733" lon="4.73759">
        <ele>101.69857025146</ele>
        <time>2014-12-28T09:53:09.000Z</time>
      </trkpt>
      <trkpt lat="43.74739" lon="4.73764">
        <ele>102.04079437256</ele>
        <time>2014-12-28T09:53:12.000Z</time>
      </trkpt>
      <trkpt lat="43.74744" lon="4.73767">
        <ele>102.4552230835</ele>
        <time>2014-12-28T09:53:15.000Z</time>
      </trkpt>
      <trkpt lat="43.74748" lon="4.7377">
        <ele>102.90085601807</ele>
        <time>2014-12-28T09:53:17.000Z</time>
      </trkpt>
      <trkpt lat="43.74754" lon="4.73775">
        <ele>103.30632019043</ele>
        <time>2014-12-28T09:53:20.000Z</time>
      </trkpt>
      <trkpt lat="43.74757" lon="4.73782">
        <ele>103.58827209473</ele>
        <time>2014-12-28T09:53:22.000Z</time>
      </trkpt>
      <trkpt lat="43.74763" lon="4.73796">
        <ele>103.67686462402</ele>
        <time>2014-12-28T09:53:25.000Z</time>
      </trkpt>
      <trkpt lat="43.74768" lon="4.73805">
        <ele>103.58311462402</ele>
        <time>2014-12-28T09:53:27.000Z</time>
      </trkpt>
      <trkpt lat="43.74776" lon="4.73819">
        <ele>103.31880950928</ele>
        <time>2014-12-28T09:53:30.000Z</time>
      </trkpt>
      <trkpt lat="43.74782" lon="4.73827">
        <ele>102.88935852051</ele>
        <time>2014-12-28T09:53:32.000Z</time>
      </trkpt>
      <trkpt lat="43.74786" lon="4.73834">
        <ele>102.36089324951</ele>
        <time>2014-12-28T09:53:34.000Z</time>
      </trkpt>
      <trkpt lat="43.74791" lon="4.73841">
        <ele>102.07761383057</ele>
        <time>2014-12-28T09:53:37.000Z</time>
      </trkpt>
      <trkpt lat="43.74794" lon="4.73846">
        <ele>101.99136352539</ele>
        <time>2014-12-28T09:53:39.000Z</time>
      </trkpt>
      <trkpt lat="43.748" lon="4.7385">
        <ele>102.16555786133</ele>
        <time>2014-12-28T09:53:42.000Z</time>
      </trkpt>
      <trkpt lat="43.7481" lon="4.73854">
        <ele>102.61385345459</ele>
        <time>2014-12-28T09:53:45.000Z</time>
      </trkpt>
      <trkpt lat="43.74814" lon="4.73861">
        <ele>103.21584320068</ele>
        <time>2014-12-28T09:53:47.000Z</time>
      </trkpt>
      <trkpt lat="43.7482" lon="4.73865">
        <ele>103.77311706543</ele>
        <time>2014-12-28T09:53:50.000Z</time>
      </trkpt>
      <trkpt lat="43.74827" lon="4.73867">
        <ele>104.33193206787</ele>
        <time>2014-12-28T09:53:53.000Z</time>
      </trkpt>
      <trkpt lat="43.74834" lon="4.7387">
        <ele>104.84616851807</ele>
        <time>2014-12-28T09:53:56.000Z</time>
      </trkpt>
      <trkpt lat="43.74843" lon="4.73876">
        <ele>105.2925567627</ele>
        <time>2014-12-28T09:53:59.000Z</time>
      </trkpt>
      <trkpt lat="43.74849" lon="4.7388">
        <ele>105.72745513916</ele>
        <time>2014-12-28T09:54:01.000Z</time>
      </trkpt>
      <trkpt lat="43.74854" lon="4.73889">
        <ele>106.04080963135</ele>
        <time>2014-12-28T09:54:04.000Z</time>
      </trkpt>
      <trkpt lat="43.74862" lon="4.73893">
        <ele>106.2911529541</ele>
        <time>2014-12-28T09:54:07.000Z</time>
      </trkpt>
      <trkpt lat="43.74868" lon="4.73897">
        <ele>106.45185852051</ele>
        <time>2014-12-28T09:54:10.000Z</time>
      </trkpt>
      <trkpt lat="43.74872" lon="4.73903">
        <ele>106.42482757568</ele>
        <time>2014-12-28T09:54:13.000Z</time>
      </trkpt>
      <trkpt lat="43.74876" lon="4.73908">
        <ele>106.2845916748</ele>
        <time>2014-12-28T09:54:15.000Z</time>
      </trkpt>
      <trkpt lat="43.74881" lon="4.73917">
        <ele>106.04487609863</ele>
        <time>2014-12-28T09:54:18.000Z</time>
      </trkpt>
      <trkpt lat="43.74884" lon="4.73922">
        <ele>105.79573059082</ele>
        <time>2014-12-28T09:54:20.000Z</time>
      </trkpt>
      <trkpt lat="43.74891" lon="4.73929">
        <ele>105.57717132568</ele>
        <time>2014-12-28T09:54:23.000Z</time>
      </trkpt>
      <trkpt lat="43.74896" lon="4.73933">
        <ele>105.45323181152</ele>
        <time>2014-12-28T09:54:25.000Z</time>
      </trkpt>
      <trkpt lat="43.74902" lon="4.73941">
        <ele>105.41186523438</ele>
        <time>2014-12-28T09:54:28.000Z</time>
      </trkpt>
      <trkpt lat="43.74906" lon="4.73944">
        <ele>105.50640869141</ele>
        <time>2014-12-28T09:54:30.000Z</time>
      </trkpt>
      <trkpt lat="43.74912" lon="4.73949">
        <ele>105.57149505615</ele>
        <time>2014-12-28T09:54:33.000Z</time>
      </trkpt>
      <trkpt lat="43.74918" lon="4.73952">
        <ele>105.61981201172</ele>
        <time>2014-12-28T09:54:36.000Z</time>
      </trkpt>
      <trkpt lat="43.74923" lon="4.73955">
        <ele>105.76792907715</ele>
        <time>2014-12-28T09:54:38.000Z</time>
      </trkpt>
      <trkpt lat="43.74928" lon="4.73957">
        <ele>105.99418640137</ele>
        <time>2014-12-28T09:54:40.000Z</time>
      </trkpt>
      <trkpt lat="43.74932" lon="4.73958">
        <ele>106.30904388428</ele>
        <time>2014-12-28T09:54:42.000Z</time>
      </trkpt>
      <trkpt lat="43.7494" lon="4.73958">
        <ele>106.79649353027</ele>
        <time>2014-12-28T09:54:45.000Z</time>
      </trkpt>
      <trkpt lat="43.74944" lon="4.73959">
        <ele>107.34696960449</ele>
        <time>2014-12-28T09:54:47.000Z</time>
      </trkpt>
      <trkpt lat="43.74949" lon="4.73959">
        <ele>107.88163757324</ele>
        <time>2014-12-28T09:54:49.000Z</time>
      </trkpt>
      <trkpt lat="43.74957" lon="4.73963">
        <ele>108.4532623291</ele>
        <time>2014-12-28T09:54:52.000Z</time>
      </trkpt>
      <trkpt lat="43.74965" lon="4.73965">
        <ele>109.08262634277</ele>
        <time>2014-12-28T09:54:55.000Z</time>
      </trkpt>
      <trkpt lat="43.7497" lon="4.73965">
        <ele>109.64571380615</ele>
        <time>2014-12-28T09:54:57.000Z</time>
      </trkpt>
      <trkpt lat="43.74976" lon="4.73968">
        <ele>110.21152496338</ele>
        <time>2014-12-28T09:55:00.000Z</time>
      </trkpt>
      <trkpt lat="43.74981" lon="4.73969">
        <ele>110.74922180176</ele>
        <time>2014-12-28T09:55:02.000Z</time>
      </trkpt>
      <trkpt lat="43.74987" lon="4.7397">
        <ele>111.27486419678</ele>
        <time>2014-12-28T09:55:05.000Z</time>
      </trkpt>
      <trkpt lat="43.74993" lon="4.73974">
        <ele>111.7108001709</ele>
        <time>2014-12-28T09:55:08.000Z</time>
      </trkpt>
      <trkpt lat="43.74998" lon="4.73977">
        <ele>112.09387207031</ele>
        <time>2014-12-28T09:55:11.000Z</time>
      </trkpt>
      <trkpt lat="43.75003" lon="4.73978">
        <ele>112.44004058838</ele>
        <time>2014-12-28T09:55:13.000Z</time>
      </trkpt>
      <trkpt lat="43.75007" lon="4.73979">
        <ele>112.75242614746</ele>
        <time>2014-12-28T09:55:15.000Z</time>
      </trkpt>
      <trkpt lat="43.75011" lon="4.73981">
        <ele>112.97225189209</ele>
        <time>2014-12-28T09:55:17.000Z</time>
      </trkpt>
      <trkpt lat="43.75016" lon="4.73981">
        <ele>113.18625640869</ele>
        <time>2014-12-28T09:55:19.000Z</time>
      </trkpt>
      <trkpt lat="43.75022" lon="4.73982">
        <ele>113.41506195068</ele>
        <time>2014-12-28T09:55:22.000Z</time>
      </trkpt>
      <trkpt lat="43.75028" lon="4.73986">
        <ele>113.60646057129</ele>
        <time>2014-12-28T09:55:25.000Z</time>
      </trkpt>
      <trkpt lat="43.75033" lon="4.73988">
        <ele>113.79472351074</ele>
        <time>2014-12-28T09:55:28.000Z</time>
      </trkpt>
      <trkpt lat="43.7504" lon="4.73991">
        <ele>113.97995758057</ele>
        <time>2014-12-28T09:55:31.000Z</time>
      </trkpt>
      <trkpt lat="43.75048" lon="4.73994">
        <ele>114.16719818115</ele>
        <time>2014-12-28T09:55:34.000Z</time>
      </trkpt>
      <trkpt lat="43.75053" lon="4.73995">
        <ele>114.31539154053</ele>
        <time>2014-12-28T09:55:36.000Z</time>
      </trkpt>
      <trkpt lat="43.75061" lon="4.73999">
        <ele>114.48356628418</ele>
        <time>2014-12-28T09:55:39.000Z</time>
      </trkpt>
      <trkpt lat="43.75066" lon="4.74">
        <ele>114.6396484375</ele>
        <time>2014-12-28T09:55:41.000Z</time>
      </trkpt>
      <trkpt lat="43.75074" lon="4.74004">
        <ele>114.81600189209</ele>
        <time>2014-12-28T09:55:44.000Z</time>
      </trkpt>
      <trkpt lat="43.75079" lon="4.74006">
        <ele>114.96528625488</ele>
        <time>2014-12-28T09:55:46.000Z</time>
      </trkpt>
      <trkpt lat="43.75085" lon="4.74007">
        <ele>115.13981628418</ele>
        <time>2014-12-28T09:55:48.000Z</time>
      </trkpt>
      <trkpt lat="43.75094" lon="4.74009">
        <ele>115.34635162354</ele>
        <time>2014-12-28T09:55:51.000Z</time>
      </trkpt>
      <trkpt lat="43.75098" lon="4.74013">
        <ele>115.52181243896</ele>
        <time>2014-12-28T09:55:53.000Z</time>
      </trkpt>
      <trkpt lat="43.75105" lon="4.74019">
        <ele>115.61600494385</ele>
        <time>2014-12-28T09:55:56.000Z</time>
      </trkpt>
      <trkpt lat="43.75108" lon="4.74022">
        <ele>115.66691589355</ele>
        <time>2014-12-28T09:55:58.000Z</time>
      </trkpt>
      <trkpt lat="43.75113" lon="4.74026">
        <ele>115.66551208496</ele>
        <time>2014-12-28T09:56:00.000Z</time>
      </trkpt>
      <trkpt lat="43.75121" lon="4.7403">
        <ele>115.60679626465</ele>
        <time>2014-12-28T09:56:03.000Z</time>
      </trkpt>
      <trkpt lat="43.75129" lon="4.74033">
        <ele>115.60152435303</ele>
        <time>2014-12-28T09:56:06.000Z</time>
      </trkpt>
      <trkpt lat="43.75137" lon="4.74034">
        <ele>115.70727539062</ele>
        <time>2014-12-28T09:56:08.000Z</time>
      </trkpt>
      <trkpt lat="43.75146" lon="4.74033">
        <ele>115.93469238281</ele>
        <time>2014-12-28T09:56:11.000Z</time>
      </trkpt>
      <trkpt lat="43.75151" lon="4.74035">
        <ele>116.18857574463</ele>
        <time>2014-12-28T09:56:14.000Z</time>
      </trkpt>
      <trkpt lat="43.75149" lon="4.74041">
        <ele>116.29727935791</ele>
        <time>2014-12-28T09:56:16.000Z</time>
      </trkpt>
      <trkpt lat="43.75148" lon="4.74041">
        <ele>116.35007476807</ele>
        <time>2014-12-28T09:56:34.000Z</time>
      </trkpt>
      <trkpt lat="43.75149" lon="4.74039">
        <ele>116.38610839844</ele>
        <time>2014-12-28T09:56:41.000Z</time>
      </trkpt>
      <trkpt lat="43.7515" lon="4.74038">
        <ele>116.34413909912</ele>
        <time>2014-12-28T09:56:45.000Z</time>
      </trkpt>
      <trkpt lat="43.75153" lon="4.74039">
        <ele>116.29508209229</ele>
        <time>2014-12-28T09:56:47.000Z</time>
      </trkpt>
      <trkpt lat="43.75156" lon="4.74041">
        <ele>116.38426208496</ele>
        <time>2014-12-28T09:56:50.000Z</time>
      </trkpt>
      <trkpt lat="43.75163" lon="4.74043">
        <ele>116.51930999756</ele>
        <time>2014-12-28T09:56:52.000Z</time>
      </trkpt>
      <trkpt lat="43.75172" lon="4.74043">
        <ele>116.63276672363</ele>
        <time>2014-12-28T09:56:55.000Z</time>
      </trkpt>
      <trkpt lat="43.75182" lon="4.74037">
        <ele>116.85932922363</ele>
        <time>2014-12-28T09:56:58.000Z</time>
      </trkpt>
      <trkpt lat="43.75188" lon="4.74033">
        <ele>117.13822937012</ele>
        <time>2014-12-28T09:57:00.000Z</time>
      </trkpt>
      <trkpt lat="43.75195" lon="4.74027">
        <ele>117.55965423584</ele>
        <time>2014-12-28T09:57:03.000Z</time>
      </trkpt>
      <trkpt lat="43.75203" lon="4.74027">
        <ele>117.95871734619</ele>
        <time>2014-12-28T09:57:06.000Z</time>
      </trkpt>
      <trkpt lat="43.75207" lon="4.7403">
        <ele>118.26224517822</ele>
        <time>2014-12-28T09:57:09.000Z</time>
      </trkpt>
      <trkpt lat="43.75221" lon="4.74033">
        <ele>118.3872833252</ele>
        <time>2014-12-28T09:57:12.000Z</time>
      </trkpt>
      <trkpt lat="43.75228" lon="4.74033">
        <ele>118.45053863525</ele>
        <time>2014-12-28T09:57:14.000Z</time>
      </trkpt>
      <trkpt lat="43.75238" lon="4.74036">
        <ele>118.31901550293</ele>
        <time>2014-12-28T09:57:17.000Z</time>
      </trkpt>
      <trkpt lat="43.75244" lon="4.74037">
        <ele>118.15775299072</ele>
        <time>2014-12-28T09:57:19.000Z</time>
      </trkpt>
      <trkpt lat="43.75254" lon="4.74039">
        <ele>118.07169342041</ele>
        <time>2014-12-28T09:57:22.000Z</time>
      </trkpt>
      <trkpt lat="43.75259" lon="4.74041">
        <ele>118.03485107422</ele>
        <time>2014-12-28T09:57:24.000Z</time>
      </trkpt>
      <trkpt lat="43.75266" lon="4.7404">
        <ele>118.06229400635</ele>
        <time>2014-12-28T09:57:26.000Z</time>
      </trkpt>
      <trkpt lat="43.75274" lon="4.74041">
        <ele>118.20796203613</ele>
        <time>2014-12-28T09:57:29.000Z</time>
      </trkpt>
      <trkpt lat="43.75281" lon="4.74041">
        <ele>118.43007659912</ele>
        <time>2014-12-28T09:57:31.000Z</time>
      </trkpt>
      <trkpt lat="43.75289" lon="4.74039">
        <ele>118.7599105835</ele>
        <time>2014-12-28T09:57:33.000Z</time>
      </trkpt>
      <trkpt lat="43.753" lon="4.74026">
        <ele>119.3770904541</ele>
        <time>2014-12-28T09:57:36.000Z</time>
      </trkpt>
      <trkpt lat="43.75306" lon="4.74023">
        <ele>120.02070617676</ele>
        <time>2014-12-28T09:57:38.000Z</time>
      </trkpt>
      <trkpt lat="43.7531" lon="4.74021">
        <ele>120.65110778809</ele>
        <time>2014-12-28T09:57:40.000Z</time>
      </trkpt>
      <trkpt lat="43.75317" lon="4.74019">
        <ele>121.31038665771</ele>
        <time>2014-12-28T09:57:43.000Z</time>
      </trkpt>
      <trkpt lat="43.75323" lon="4.74016">
        <ele>121.92572021484</ele>
        <time>2014-12-28T09:57:45.000Z</time>
      </trkpt>
      <trkpt lat="43.75328" lon="4.74014">
        <ele>122.30047607422</ele>
        <time>2014-12-28T09:57:47.000Z</time>
      </trkpt>
      <trkpt lat="43.75336" lon="4.74006">
        <ele>122.7318572998</ele>
        <time>2014-12-28T09:57:50.000Z</time>
      </trkpt>
      <trkpt lat="43.75339" lon="4.74002">
        <ele>123.18872070312</ele>
        <time>2014-12-28T09:57:52.000Z</time>
      </trkpt>
      <trkpt lat="43.75343" lon="4.73996">
        <ele>123.69388580322</ele>
        <time>2014-12-28T09:57:55.000Z</time>
      </trkpt>
      <trkpt lat="43.75342" lon="4.73989">
        <ele>124.21876525879</ele>
        <time>2014-12-28T09:57:57.000Z</time>
      </trkpt>
      <trkpt lat="43.75347" lon="4.73978">
        <ele>124.88820648193</ele>
        <time>2014-12-28T09:58:00.000Z</time>
      </trkpt>
      <trkpt lat="43.75352" lon="4.73968">
        <ele>125.57747650146</ele>
        <time>2014-12-28T09:58:03.000Z</time>
      </trkpt>
      <trkpt lat="43.75357" lon="4.73959">
        <ele>126.30660247803</ele>
        <time>2014-12-28T09:58:05.000Z</time>
      </trkpt>
      <trkpt lat="43.75364" lon="4.73954">
        <ele>126.9510345459</ele>
        <time>2014-12-28T09:58:07.000Z</time>
      </trkpt>
      <trkpt lat="43.7537" lon="4.73941">
        <ele>127.61213684082</ele>
        <time>2014-12-28T09:58:10.000Z</time>
      </trkpt>
      <trkpt lat="43.75379" lon="4.73929">
        <ele>128.10469055176</ele>
        <time>2014-12-28T09:58:13.000Z</time>
      </trkpt>
      <trkpt lat="43.75385" lon="4.73913">
        <ele>128.46762084961</ele>
        <time>2014-12-28T09:58:16.000Z</time>
      </trkpt>
      <trkpt lat="43.75391" lon="4.739">
        <ele>128.68769836426</ele>
        <time>2014-12-28T09:58:19.000Z</time>
      </trkpt>
      <trkpt lat="43.75396" lon="4.73891">
        <ele>128.82083129883</ele>
        <time>2014-12-28T09:58:21.000Z</time>
      </trkpt>
      <trkpt lat="43.75402" lon="4.73875">
        <ele>128.76892089844</ele>
        <time>2014-12-28T09:58:24.000Z</time>
      </trkpt>
      <trkpt lat="43.75408" lon="4.73854">
        <ele>128.60339355469</ele>
        <time>2014-12-28T09:58:27.000Z</time>
      </trkpt>
      <trkpt lat="43.75422" lon="4.73834">
        <ele>128.18562316895</ele>
        <time>2014-12-28T09:58:30.000Z</time>
      </trkpt>
      <trkpt lat="43.75428" lon="4.73821">
        <ele>127.76876068115</ele>
        <time>2014-12-28T09:58:32.000Z</time>
      </trkpt>
      <trkpt lat="43.75438" lon="4.73801">
        <ele>127.26513671875</ele>
        <time>2014-12-28T09:58:35.000Z</time>
      </trkpt>
      <trkpt lat="43.75445" lon="4.73787">
        <ele>126.69264984131</ele>
        <time>2014-12-28T09:58:37.000Z</time>
      </trkpt>
      <trkpt lat="43.75455" lon="4.73768">
        <ele>125.90537261963</ele>
        <time>2014-12-28T09:58:40.000Z</time>
      </trkpt>
      <trkpt lat="43.75467" lon="4.73746">
        <ele>124.89585113525</ele>
        <time>2014-12-28T09:58:43.000Z</time>
      </trkpt>
      <trkpt lat="43.75476" lon="4.73731">
        <ele>123.66017913818</ele>
        <time>2014-12-28T09:58:45.000Z</time>
      </trkpt>
      <trkpt lat="43.75484" lon="4.73714">
        <ele>122.29878997803</ele>
        <time>2014-12-28T09:58:47.000Z</time>
      </trkpt>
      <trkpt lat="43.75492" lon="4.73693">
        <ele>120.85356140137</ele>
        <time>2014-12-28T09:58:50.000Z</time>
      </trkpt>
      <trkpt lat="43.75494" lon="4.73686">
        <ele>119.63525390625</ele>
        <time>2014-12-28T09:58:52.000Z</time>
      </trkpt>
      <trkpt lat="43.75491" lon="4.73691">
        <ele>118.93603515625</ele>
        <time>2014-12-28T09:58:55.000Z</time>
      </trkpt>
      <trkpt lat="43.75492" lon="4.73698">
        <ele>118.47644042969</ele>
        <time>2014-12-28T09:58:57.000Z</time>
      </trkpt>
      <trkpt lat="43.75498" lon="4.73707">
        <ele>118.13806152344</ele>
        <time>2014-12-28T09:59:00.000Z</time>
      </trkpt>
      <trkpt lat="43.75504" lon="4.73713">
        <ele>118.00639343262</ele>
        <time>2014-12-28T09:59:02.000Z</time>
      </trkpt>
      <trkpt lat="43.75512" lon="4.73723">
        <ele>117.99940490723</ele>
        <time>2014-12-28T09:59:05.000Z</time>
      </trkpt>
      <trkpt lat="43.75521" lon="4.7373">
        <ele>117.97660827637</ele>
        <time>2014-12-28T09:59:08.000Z</time>
      </trkpt>
      <trkpt lat="43.75526" lon="4.73728">
        <ele>117.98140716553</ele>
        <time>2014-12-28T09:59:10.000Z</time>
      </trkpt>
      <trkpt lat="43.75534" lon="4.73726">
        <ele>118.1302947998</ele>
        <time>2014-12-28T09:59:13.000Z</time>
      </trkpt>
      <trkpt lat="43.75539" lon="4.73724">
        <ele>118.30499267578</ele>
        <time>2014-12-28T09:59:15.000Z</time>
      </trkpt>
      <trkpt lat="43.75549" lon="4.73721">
        <ele>118.43923187256</ele>
        <time>2014-12-28T09:59:18.000Z</time>
      </trkpt>
      <trkpt lat="43.75557" lon="4.73721">
        <ele>118.5305557251</ele>
        <time>2014-12-28T09:59:20.000Z</time>
      </trkpt>
      <trkpt lat="43.75563" lon="4.73723">
        <ele>118.65627288818</ele>
        <time>2014-12-28T09:59:22.000Z</time>
      </trkpt>
      <trkpt lat="43.75572" lon="4.73729">
        <ele>118.86086273193</ele>
        <time>2014-12-28T09:59:25.000Z</time>
      </trkpt>
      <trkpt lat="43.75579" lon="4.73732">
        <ele>119.11749267578</ele>
        <time>2014-12-28T09:59:27.000Z</time>
      </trkpt>
      <trkpt lat="43.75585" lon="4.73735">
        <ele>119.43046569824</ele>
        <time>2014-12-28T09:59:29.000Z</time>
      </trkpt>
      <trkpt lat="43.75591" lon="4.73743">
        <ele>119.83506011963</ele>
        <time>2014-12-28T09:59:32.000Z</time>
      </trkpt>
      <trkpt lat="43.75594" lon="4.73749">
        <ele>120.2794342041</ele>
        <time>2014-12-28T09:59:34.000Z</time>
      </trkpt>
      <trkpt lat="43.75599" lon="4.73757">
        <ele>120.76037597656</ele>
        <time>2014-12-28T09:59:37.000Z</time>
      </trkpt>
      <trkpt lat="43.75603" lon="4.73762">
        <ele>121.27317047119</ele>
        <time>2014-12-28T09:59:39.000Z</time>
      </trkpt>
      <trkpt lat="43.75613" lon="4.73765">
        <ele>121.80727386475</ele>
        <time>2014-12-28T09:59:42.000Z</time>
      </trkpt>
      <trkpt lat="43.75623" lon="4.73767">
        <ele>122.29428863525</ele>
        <time>2014-12-28T09:59:45.000Z</time>
      </trkpt>
      <trkpt lat="43.75629" lon="4.7377">
        <ele>122.76049804688</ele>
        <time>2014-12-28T09:59:47.000Z</time>
      </trkpt>
      <trkpt lat="43.75639" lon="4.73773">
        <ele>123.17993164062</ele>
        <time>2014-12-28T09:59:50.000Z</time>
      </trkpt>
      <trkpt lat="43.75648" lon="4.73777">
        <ele>123.61279296875</ele>
        <time>2014-12-28T09:59:53.000Z</time>
      </trkpt>
      <trkpt lat="43.75654" lon="4.73779">
        <ele>124.00366210938</ele>
        <time>2014-12-28T09:59:55.000Z</time>
      </trkpt>
      <trkpt lat="43.75661" lon="4.73773">
        <ele>124.26806640625</ele>
        <time>2014-12-28T09:59:58.000Z</time>
      </trkpt>
      <trkpt lat="43.75665" lon="4.73765">
        <ele>124.36303710938</ele>
        <time>2014-12-28T10:00:01.000Z</time>
      </trkpt>
      <trkpt lat="43.75665" lon="4.7376">
        <ele>124.29370117188</ele>
        <time>2014-12-28T10:00:03.000Z</time>
      </trkpt>
      <trkpt lat="43.75665" lon="4.73757">
        <ele>124.08154296875</ele>
        <time>2014-12-28T10:00:05.000Z</time>
      </trkpt>
      <trkpt lat="43.75668" lon="4.73748">
        <ele>123.73545074463</ele>
        <time>2014-12-28T10:00:08.000Z</time>
      </trkpt>
      <trkpt lat="43.7567" lon="4.73744">
        <ele>123.4393157959</ele>
        <time>2014-12-28T10:00:11.000Z</time>
      </trkpt>
      <trkpt lat="43.75671" lon="4.73742">
        <ele>123.24538421631</ele>
        <time>2014-12-28T10:00:13.000Z</time>
      </trkpt>
      <trkpt lat="43.75673" lon="4.73738">
        <ele>123.12131500244</ele>
        <time>2014-12-28T10:00:15.000Z</time>
      </trkpt>
      <trkpt lat="43.75675" lon="4.73733">
        <ele>123.02563476562</ele>
        <time>2014-12-28T10:00:18.000Z</time>
      </trkpt>
      <trkpt lat="43.75682" lon="4.73728">
        <ele>123.0958404541</ele>
        <time>2014-12-28T10:00:21.000Z</time>
      </trkpt>
      <trkpt lat="43.75685" lon="4.73727">
        <ele>123.19514465332</ele>
        <time>2014-12-28T10:00:23.000Z</time>
      </trkpt>
      <trkpt lat="43.75689" lon="4.73719">
        <ele>123.30439758301</ele>
        <time>2014-12-28T10:00:26.000Z</time>
      </trkpt>
      <trkpt lat="43.75696" lon="4.73702">
        <ele>123.42087554932</ele>
        <time>2014-12-28T10:00:29.000Z</time>
      </trkpt>
      <trkpt lat="43.757" lon="4.73698">
        <ele>123.58123779297</ele>
        <time>2014-12-28T10:00:31.000Z</time>
      </trkpt>
      <trkpt lat="43.75706" lon="4.73692">
        <ele>123.70774078369</ele>
        <time>2014-12-28T10:00:33.000Z</time>
      </trkpt>
      <trkpt lat="43.75711" lon="4.73688">
        <ele>123.87623596191</ele>
        <time>2014-12-28T10:00:35.000Z</time>
      </trkpt>
      <trkpt lat="43.75714" lon="4.73672">
        <ele>123.99284362793</ele>
        <time>2014-12-28T10:00:38.000Z</time>
      </trkpt>
      <trkpt lat="43.75711" lon="4.73655">
        <ele>124.02461242676</ele>
        <time>2014-12-28T10:00:41.000Z</time>
      </trkpt>
      <trkpt lat="43.75711" lon="4.73636">
        <ele>124.02280426025</ele>
        <time>2014-12-28T10:00:44.000Z</time>
      </trkpt>
      <trkpt lat="43.7571" lon="4.73618">
        <ele>123.94626617432</ele>
        <time>2014-12-28T10:00:46.000Z</time>
      </trkpt>
      <trkpt lat="43.75709" lon="4.73591">
        <ele>123.79278564453</ele>
        <time>2014-12-28T10:00:49.000Z</time>
      </trkpt>
      <trkpt lat="43.75711" lon="4.73578">
        <ele>123.75241851807</ele>
        <time>2014-12-28T10:00:51.000Z</time>
      </trkpt>
      <trkpt lat="43.75714" lon="4.73567">
        <ele>123.89593505859</ele>
        <time>2014-12-28T10:00:53.000Z</time>
      </trkpt>
      <trkpt lat="43.75719" lon="4.73552">
        <ele>124.19023132324</ele>
        <time>2014-12-28T10:00:56.000Z</time>
      </trkpt>
      <trkpt lat="43.75723" lon="4.73535">
        <ele>124.6294708252</ele>
        <time>2014-12-28T10:00:59.000Z</time>
      </trkpt>
      <trkpt lat="43.75731" lon="4.7352">
        <ele>125.22967529297</ele>
        <time>2014-12-28T10:01:02.000Z</time>
      </trkpt>
      <trkpt lat="43.75739" lon="4.73509">
        <ele>125.88865661621</ele>
        <time>2014-12-28T10:01:05.000Z</time>
      </trkpt>
      <trkpt lat="43.75746" lon="4.73499">
        <ele>126.54040527344</ele>
        <time>2014-12-28T10:01:08.000Z</time>
      </trkpt>
      <trkpt lat="43.75751" lon="4.73492">
        <ele>127.14384460449</ele>
        <time>2014-12-28T10:01:11.000Z</time>
      </trkpt>
      <trkpt lat="43.75754" lon="4.73483">
        <ele>127.77101898193</ele>
        <time>2014-12-28T10:01:13.000Z</time>
      </trkpt>
      <trkpt lat="43.7576" lon="4.73473">
        <ele>128.49365234375</ele>
        <time>2014-12-28T10:01:16.000Z</time>
      </trkpt>
      <trkpt lat="43.75763" lon="4.73466">
        <ele>129.21298217773</ele>
        <time>2014-12-28T10:01:18.000Z</time>
      </trkpt>
      <trkpt lat="43.75767" lon="4.73459">
        <ele>129.96194458008</ele>
        <time>2014-12-28T10:01:20.000Z</time>
      </trkpt>
      <trkpt lat="43.75771" lon="4.73449">
        <ele>130.78549194336</ele>
        <time>2014-12-28T10:01:23.000Z</time>
      </trkpt>
      <trkpt lat="43.75774" lon="4.73443">
        <ele>131.53170776367</ele>
        <time>2014-12-28T10:01:25.000Z</time>
      </trkpt>
      <trkpt lat="43.75776" lon="4.73437">
        <ele>132.1213684082</ele>
        <time>2014-12-28T10:01:27.000Z</time>
      </trkpt>
      <trkpt lat="43.7578" lon="4.73428">
        <ele>132.70947265625</ele>
        <time>2014-12-28T10:01:30.000Z</time>
      </trkpt>
      <trkpt lat="43.75783" lon="4.73423">
        <ele>133.24617004395</ele>
        <time>2014-12-28T10:01:32.000Z</time>
      </trkpt>
      <trkpt lat="43.75787" lon="4.73417">
        <ele>133.71340942383</ele>
        <time>2014-12-28T10:01:34.000Z</time>
      </trkpt>
      <trkpt lat="43.75791" lon="4.73411">
        <ele>134.21147155762</ele>
        <time>2014-12-28T10:01:37.000Z</time>
      </trkpt>
      <trkpt lat="43.75793" lon="4.73408">
        <ele>134.67529296875</ele>
        <time>2014-12-28T10:01:39.000Z</time>
      </trkpt>
      <trkpt lat="43.75796" lon="4.73404">
        <ele>135.08010864258</ele>
        <time>2014-12-28T10:01:42.000Z</time>
      </trkpt>
      <trkpt lat="43.75798" lon="4.73396">
        <ele>135.39698791504</ele>
        <time>2014-12-28T10:01:45.000Z</time>
      </trkpt>
      <trkpt lat="43.75798" lon="4.7339">
        <ele>135.57534790039</ele>
        <time>2014-12-28T10:01:48.000Z</time>
      </trkpt>
      <trkpt lat="43.75803" lon="4.73384">
        <ele>135.72749328613</ele>
        <time>2014-12-28T10:01:51.000Z</time>
      </trkpt>
      <trkpt lat="43.75807" lon="4.7338">
        <ele>135.87173461914</ele>
        <time>2014-12-28T10:01:53.000Z</time>
      </trkpt>
      <trkpt lat="43.75811" lon="4.73374">
        <ele>135.95683288574</ele>
        <time>2014-12-28T10:01:55.000Z</time>
      </trkpt>
      <trkpt lat="43.75814" lon="4.73373">
        <ele>136.11265563965</ele>
        <time>2014-12-28T10:01:58.000Z</time>
      </trkpt>
      <trkpt lat="43.75817" lon="4.7337">
        <ele>136.30921936035</ele>
        <time>2014-12-28T10:02:01.000Z</time>
      </trkpt>
      <trkpt lat="43.75817" lon="4.73362">
        <ele>136.33564758301</ele>
        <time>2014-12-28T10:02:04.000Z</time>
      </trkpt>
      <trkpt lat="43.75817" lon="4.73351">
        <ele>136.18881225586</ele>
        <time>2014-12-28T10:02:07.000Z</time>
      </trkpt>
      <trkpt lat="43.75818" lon="4.73343">
        <ele>135.95205688477</ele>
        <time>2014-12-28T10:02:09.000Z</time>
      </trkpt>
      <trkpt lat="43.75818" lon="4.73333">
        <ele>135.53335571289</ele>
        <time>2014-12-28T10:02:12.000Z</time>
      </trkpt>
      <trkpt lat="43.7582" lon="4.73328">
        <ele>135.11701965332</ele>
        <time>2014-12-28T10:02:14.000Z</time>
      </trkpt>
      <trkpt lat="43.75826" lon="4.73323">
        <ele>134.81716918945</ele>
        <time>2014-12-28T10:02:17.000Z</time>
      </trkpt>
      <trkpt lat="43.75833" lon="4.73315">
        <ele>134.6307220459</ele>
        <time>2014-12-28T10:02:20.000Z</time>
      </trkpt>
      <trkpt lat="43.75845" lon="4.73306">
        <ele>134.54162597656</ele>
        <time>2014-12-28T10:02:23.000Z</time>
      </trkpt>
      <trkpt lat="43.75856" lon="4.73306">
        <ele>134.63014221191</ele>
        <time>2014-12-28T10:02:25.000Z</time>
      </trkpt>
      <trkpt lat="43.75871" lon="4.73308">
        <ele>134.80462646484</ele>
        <time>2014-12-28T10:02:28.000Z</time>
      </trkpt>
      <trkpt lat="43.75884" lon="4.73301">
        <ele>134.91459655762</ele>
        <time>2014-12-28T10:02:31.000Z</time>
      </trkpt>
      <trkpt lat="43.75894" lon="4.73293">
        <ele>134.90200805664</ele>
        <time>2014-12-28T10:02:33.000Z</time>
      </trkpt>
      <trkpt lat="43.75911" lon="4.73287">
        <ele>134.74133300781</ele>
        <time>2014-12-28T10:02:36.000Z</time>
      </trkpt>
      <trkpt lat="43.75926" lon="4.73273">
        <ele>134.10905456543</ele>
        <time>2014-12-28T10:02:39.000Z</time>
      </trkpt>
      <trkpt lat="43.75933" lon="4.73261">
        <ele>133.03805541992</ele>
        <time>2014-12-28T10:02:41.000Z</time>
      </trkpt>
      <trkpt lat="43.75941" lon="4.73247">
        <ele>131.68307495117</ele>
        <time>2014-12-28T10:02:43.000Z</time>
      </trkpt>
      <trkpt lat="43.75959" lon="4.73241">
        <ele>130.34831237793</ele>
        <time>2014-12-28T10:02:46.000Z</time>
      </trkpt>
      <trkpt lat="43.75985" lon="4.73244">
        <ele>129.015625</ele>
        <time>2014-12-28T10:02:49.000Z</time>
      </trkpt>
      <trkpt lat="43.76001" lon="4.73256">
        <ele>128.18710327148</ele>
        <time>2014-12-28T10:02:52.000Z</time>
      </trkpt>
      <trkpt lat="43.76016" lon="4.73263">
        <ele>127.52681732178</ele>
        <time>2014-12-28T10:02:55.000Z</time>
      </trkpt>
      <trkpt lat="43.76025" lon="4.7325">
        <ele>126.70442199707</ele>
        <time>2014-12-28T10:02:58.000Z</time>
      </trkpt>
      <trkpt lat="43.76036" lon="4.7324">
        <ele>125.72483825684</ele>
        <time>2014-12-28T10:03:01.000Z</time>
      </trkpt>
      <trkpt lat="43.76048" lon="4.73247">
        <ele>124.65547180176</ele>
        <time>2014-12-28T10:03:04.000Z</time>
      </trkpt>
      <trkpt lat="43.76064" lon="4.7326">
        <ele>123.42862701416</ele>
        <time>2014-12-28T10:03:07.000Z</time>
      </trkpt>
      <trkpt lat="43.76076" lon="4.73259">
        <ele>122.10417175293</ele>
        <time>2014-12-28T10:03:09.000Z</time>
      </trkpt>
      <trkpt lat="43.761" lon="4.73251">
        <ele>120.69150543213</ele>
        <time>2014-12-28T10:03:12.000Z</time>
      </trkpt>
      <trkpt lat="43.76128" lon="4.7325">
        <ele>119.18648529053</ele>
        <time>2014-12-28T10:03:15.000Z</time>
      </trkpt>
      <trkpt lat="43.76153" lon="4.73267">
        <ele>117.84720611572</ele>
        <time>2014-12-28T10:03:18.000Z</time>
      </trkpt>
      <trkpt lat="43.76178" lon="4.73275">
        <ele>116.54531097412</ele>
        <time>2014-12-28T10:03:21.000Z</time>
      </trkpt>
      <trkpt lat="43.76195" lon="4.73275">
        <ele>115.63665771484</ele>
        <time>2014-12-28T10:03:23.000Z</time>
      </trkpt>
      <trkpt lat="43.76222" lon="4.7328">
        <ele>115.46728515625</ele>
        <time>2014-12-28T10:03:26.000Z</time>
      </trkpt>
      <trkpt lat="43.7624" lon="4.73293">
        <ele>115.55870056152</ele>
        <time>2014-12-28T10:03:28.000Z</time>
      </trkpt>
      <trkpt lat="43.7626" lon="4.73293">
        <ele>115.86483001709</ele>
        <time>2014-12-28T10:03:31.000Z</time>
      </trkpt>
      <trkpt lat="43.76278" lon="4.73311">
        <ele>116.01712799072</ele>
        <time>2014-12-28T10:03:34.000Z</time>
      </trkpt>
      <trkpt lat="43.76297" lon="4.73335">
        <ele>115.51802825928</ele>
        <time>2014-12-28T10:03:37.000Z</time>
      </trkpt>
      <trkpt lat="43.76315" lon="4.73361">
        <ele>114.51847076416</ele>
        <time>2014-12-28T10:03:40.000Z</time>
      </trkpt>
      <trkpt lat="43.76328" lon="4.73374">
        <ele>113.24487304688</ele>
        <time>2014-12-28T10:03:42.000Z</time>
      </trkpt>
      <trkpt lat="43.76352" lon="4.73396">
        <ele>111.305519104</ele>
        <time>2014-12-28T10:03:45.000Z</time>
      </trkpt>
      <trkpt lat="43.76376" lon="4.73414">
        <ele>109.0425567627</ele>
        <time>2014-12-28T10:03:48.000Z</time>
      </trkpt>
      <trkpt lat="43.76391" lon="4.73423">
        <ele>107.32498931885</ele>
        <time>2014-12-28T10:03:50.000Z</time>
      </trkpt>
      <trkpt lat="43.76413" lon="4.73428">
        <ele>105.92370605469</ele>
        <time>2014-12-28T10:03:53.000Z</time>
      </trkpt>
      <trkpt lat="43.76429" lon="4.73428">
        <ele>104.71450042725</ele>
        <time>2014-12-28T10:03:55.000Z</time>
      </trkpt>
      <trkpt lat="43.76449" lon="4.73433">
        <ele>103.78000640869</ele>
        <time>2014-12-28T10:03:58.000Z</time>
      </trkpt>
      <trkpt lat="43.76471" lon="4.73436">
        <ele>103.09897613525</ele>
        <time>2014-12-28T10:04:01.000Z</time>
      </trkpt>
      <trkpt lat="43.76493" lon="4.73434">
        <ele>102.10332489014</ele>
        <time>2014-12-28T10:04:04.000Z</time>
      </trkpt>
      <trkpt lat="43.76519" lon="4.73428">
        <ele>100.5369644165</ele>
        <time>2014-12-28T10:04:07.000Z</time>
      </trkpt>
      <trkpt lat="43.76546" lon="4.73423">
        <ele>98.492797851562</ele>
        <time>2014-12-28T10:04:10.000Z</time>
      </trkpt>
      <trkpt lat="43.7656" lon="4.73423">
        <ele>96.35920715332</ele>
        <time>2014-12-28T10:04:12.000Z</time>
      </trkpt>
      <trkpt lat="43.76578" lon="4.73416">
        <ele>94.086532592773</ele>
        <time>2014-12-28T10:04:15.000Z</time>
      </trkpt>
      <trkpt lat="43.76586" lon="4.73402">
        <ele>92.113067626953</ele>
        <time>2014-12-28T10:04:17.000Z</time>
      </trkpt>
      <trkpt lat="43.76603" lon="4.73387">
        <ele>90.726119995117</ele>
        <time>2014-12-28T10:04:20.000Z</time>
      </trkpt>
      <trkpt lat="43.76613" lon="4.73374">
        <ele>90.005981445312</ele>
        <time>2014-12-28T10:04:22.000Z</time>
      </trkpt>
      <trkpt lat="43.76622" lon="4.73342">
        <ele>89.748840332031</ele>
        <time>2014-12-28T10:04:25.000Z</time>
      </trkpt>
      <trkpt lat="43.76627" lon="4.73324">
        <ele>89.934097290039</ele>
        <time>2014-12-28T10:04:27.000Z</time>
      </trkpt>
      <trkpt lat="43.76637" lon="4.73303">
        <ele>89.996810913086</ele>
        <time>2014-12-28T10:04:30.000Z</time>
      </trkpt>
      <trkpt lat="43.76649" lon="4.73282">
        <ele>89.827011108398</ele>
        <time>2014-12-28T10:04:33.000Z</time>
      </trkpt>
      <trkpt lat="43.76668" lon="4.73264">
        <ele>89.15486907959</ele>
        <time>2014-12-28T10:04:36.000Z</time>
      </trkpt>
      <trkpt lat="43.76678" lon="4.73257">
        <ele>88.210227966309</ele>
        <time>2014-12-28T10:04:38.000Z</time>
      </trkpt>
      <trkpt lat="43.76695" lon="4.73247">
        <ele>87.070510864258</ele>
        <time>2014-12-28T10:04:41.000Z</time>
      </trkpt>
      <trkpt lat="43.76711" lon="4.73241">
        <ele>85.958152770996</ele>
        <time>2014-12-28T10:04:44.000Z</time>
      </trkpt>
      <trkpt lat="43.7673" lon="4.73239">
        <ele>84.891052246094</ele>
        <time>2014-12-28T10:04:47.000Z</time>
      </trkpt>
      <trkpt lat="43.76747" lon="4.73234">
        <ele>84.153907775879</ele>
        <time>2014-12-28T10:04:50.000Z</time>
      </trkpt>
      <trkpt lat="43.76764" lon="4.73235">
        <ele>83.253067016602</ele>
        <time>2014-12-28T10:04:53.000Z</time>
      </trkpt>
      <trkpt lat="43.76776" lon="4.73235">
        <ele>82.302307128906</ele>
        <time>2014-12-28T10:04:55.000Z</time>
      </trkpt>
      <trkpt lat="43.76797" lon="4.73235">
        <ele>81.066253662109</ele>
        <time>2014-12-28T10:04:58.000Z</time>
      </trkpt>
      <trkpt lat="43.76807" lon="4.73233">
        <ele>79.847969055176</ele>
        <time>2014-12-28T10:05:00.000Z</time>
      </trkpt>
      <trkpt lat="43.76825" lon="4.73227">
        <ele>78.479057312012</ele>
        <time>2014-12-28T10:05:03.000Z</time>
      </trkpt>
      <trkpt lat="43.76845" lon="4.73221">
        <ele>77.040725708008</ele>
        <time>2014-12-28T10:05:06.000Z</time>
      </trkpt>
      <trkpt lat="43.76855" lon="4.73212">
        <ele>75.654800415039</ele>
        <time>2014-12-28T10:05:08.000Z</time>
      </trkpt>
      <trkpt lat="43.76872" lon="4.73211">
        <ele>74.353927612305</ele>
        <time>2014-12-28T10:05:11.000Z</time>
      </trkpt>
      <trkpt lat="43.7688" lon="4.73226">
        <ele>73.015357971191</ele>
        <time>2014-12-28T10:05:14.000Z</time>
      </trkpt>
      <trkpt lat="43.76893" lon="4.73243">
        <ele>71.635108947754</ele>
        <time>2014-12-28T10:05:17.000Z</time>
      </trkpt>
      <trkpt lat="43.76909" lon="4.73248">
        <ele>70.230834960938</ele>
        <time>2014-12-28T10:05:20.000Z</time>
      </trkpt>
      <trkpt lat="43.76924" lon="4.7325">
        <ele>68.779281616211</ele>
        <time>2014-12-28T10:05:23.000Z</time>
      </trkpt>
      <trkpt lat="43.76941" lon="4.73251">
        <ele>67.571601867676</ele>
        <time>2014-12-28T10:05:26.000Z</time>
      </trkpt>
      <trkpt lat="43.76954" lon="4.73249">
        <ele>66.565055847168</ele>
        <time>2014-12-28T10:05:28.000Z</time>
      </trkpt>
      <trkpt lat="43.76967" lon="4.73255">
        <ele>65.804733276367</ele>
        <time>2014-12-28T10:05:31.000Z</time>
      </trkpt>
      <trkpt lat="43.76975" lon="4.73265">
        <ele>65.252685546875</ele>
        <time>2014-12-28T10:05:33.000Z</time>
      </trkpt>
      <trkpt lat="43.76982" lon="4.73272">
        <ele>64.750671386719</ele>
        <time>2014-12-28T10:05:35.000Z</time>
      </trkpt>
      <trkpt lat="43.76995" lon="4.73282">
        <ele>64.095100402832</ele>
        <time>2014-12-28T10:05:38.000Z</time>
      </trkpt>
      <trkpt lat="43.77015" lon="4.73293">
        <ele>63.598442077637</ele>
        <time>2014-12-28T10:05:41.000Z</time>
      </trkpt>
      <trkpt lat="43.77028" lon="4.73296">
        <ele>63.407691955566</ele>
        <time>2014-12-28T10:05:43.000Z</time>
      </trkpt>
      <trkpt lat="43.77042" lon="4.73304">
        <ele>63.505237579346</ele>
        <time>2014-12-28T10:05:46.000Z</time>
      </trkpt>
      <trkpt lat="43.77055" lon="4.73308">
        <ele>63.852489471436</ele>
        <time>2014-12-28T10:05:49.000Z</time>
      </trkpt>
      <trkpt lat="43.77068" lon="4.73314">
        <ele>64.46558380127</ele>
        <time>2014-12-28T10:05:52.000Z</time>
      </trkpt>
      <trkpt lat="43.7708" lon="4.73318">
        <ele>64.971237182617</ele>
        <time>2014-12-28T10:05:54.000Z</time>
      </trkpt>
      <trkpt lat="43.77099" lon="4.73325">
        <ele>65.050827026367</ele>
        <time>2014-12-28T10:05:57.000Z</time>
      </trkpt>
      <trkpt lat="43.77121" lon="4.7333">
        <ele>64.756690979004</ele>
        <time>2014-12-28T10:06:00.000Z</time>
      </trkpt>
      <trkpt lat="43.77138" lon="4.73331">
        <ele>64.301956176758</ele>
        <time>2014-12-28T10:06:02.000Z</time>
      </trkpt>
      <trkpt lat="43.77156" lon="4.73343">
        <ele>63.402183532715</ele>
        <time>2014-12-28T10:06:05.000Z</time>
      </trkpt>
      <trkpt lat="43.77172" lon="4.73346">
        <ele>62.23023223877</ele>
        <time>2014-12-28T10:06:08.000Z</time>
      </trkpt>
      <trkpt lat="43.77194" lon="4.73341">
        <ele>60.984436035156</ele>
        <time>2014-12-28T10:06:11.000Z</time>
      </trkpt>
      <trkpt lat="43.77208" lon="4.73338">
        <ele>59.78324508667</ele>
        <time>2014-12-28T10:06:13.000Z</time>
      </trkpt>
      <trkpt lat="43.77222" lon="4.73336">
        <ele>58.383129119873</ele>
        <time>2014-12-28T10:06:15.000Z</time>
      </trkpt>
      <trkpt lat="43.77246" lon="4.73325">
        <ele>57.146045684814</ele>
        <time>2014-12-28T10:06:18.000Z</time>
      </trkpt>
      <trkpt lat="43.77259" lon="4.73326">
        <ele>55.760414123535</ele>
        <time>2014-12-28T10:06:20.000Z</time>
      </trkpt>
      <trkpt lat="43.77277" lon="4.73316">
        <ele>54.455272674561</ele>
        <time>2014-12-28T10:06:23.000Z</time>
      </trkpt>
      <trkpt lat="43.77303" lon="4.73304">
        <ele>52.928993225098</ele>
        <time>2014-12-28T10:06:26.000Z</time>
      </trkpt>
      <trkpt lat="43.77321" lon="4.73287">
        <ele>51.445960998535</ele>
        <time>2014-12-28T10:06:29.000Z</time>
      </trkpt>
      <trkpt lat="43.77329" lon="4.73268">
        <ele>50.315620422363</ele>
        <time>2014-12-28T10:06:32.000Z</time>
      </trkpt>
      <trkpt lat="43.77335" lon="4.73248">
        <ele>49.748138427734</ele>
        <time>2014-12-28T10:06:35.000Z</time>
      </trkpt>
      <trkpt lat="43.77341" lon="4.73237">
        <ele>49.501712799072</ele>
        <time>2014-12-28T10:06:37.000Z</time>
      </trkpt>
      <trkpt lat="43.77356" lon="4.73223">
        <ele>49.724712371826</ele>
        <time>2014-12-28T10:06:40.000Z</time>
      </trkpt>
      <trkpt lat="43.77366" lon="4.73212">
        <ele>50.271751403809</ele>
        <time>2014-12-28T10:06:42.000Z</time>
      </trkpt>
      <trkpt lat="43.77386" lon="4.73205">
        <ele>50.594779968262</ele>
        <time>2014-12-28T10:06:45.000Z</time>
      </trkpt>
      <trkpt lat="43.77398" lon="4.73202">
        <ele>50.650379180908</ele>
        <time>2014-12-28T10:06:47.000Z</time>
      </trkpt>
      <trkpt lat="43.7742" lon="4.73215">
        <ele>49.849452972412</ele>
        <time>2014-12-28T10:06:50.000Z</time>
      </trkpt>
      <trkpt lat="43.77431" lon="4.73223">
        <ele>48.611850738525</ele>
        <time>2014-12-28T10:06:52.000Z</time>
      </trkpt>
      <trkpt lat="43.7745" lon="4.73241">
        <ele>46.606071472168</ele>
        <time>2014-12-28T10:06:55.000Z</time>
      </trkpt>
      <trkpt lat="43.77454" lon="4.73246">
        <ele>44.56001663208</ele>
        <time>2014-12-28T10:06:58.000Z</time>
      </trkpt>
      <trkpt lat="43.77461" lon="4.7324">
        <ele>42.650768280029</ele>
        <time>2014-12-28T10:07:01.000Z</time>
      </trkpt>
      <trkpt lat="43.77471" lon="4.73231">
        <ele>41.521789550781</ele>
        <time>2014-12-28T10:07:04.000Z</time>
      </trkpt>
      <trkpt lat="43.77482" lon="4.73218">
        <ele>40.74987411499</ele>
        <time>2014-12-28T10:07:07.000Z</time>
      </trkpt>
      <trkpt lat="43.7749" lon="4.73209">
        <ele>40.53101348877</ele>
        <time>2014-12-28T10:07:09.000Z</time>
      </trkpt>
      <trkpt lat="43.77503" lon="4.73197">
        <ele>40.215991973877</ele>
        <time>2014-12-28T10:07:12.000Z</time>
      </trkpt>
      <trkpt lat="43.77514" lon="4.73185">
        <ele>39.752490997314</ele>
        <time>2014-12-28T10:07:14.000Z</time>
      </trkpt>
      <trkpt lat="43.77525" lon="4.73176">
        <ele>39.136066436768</ele>
        <time>2014-12-28T10:07:16.000Z</time>
      </trkpt>
      <trkpt lat="43.7754" lon="4.73161">
        <ele>38.44799041748</ele>
        <time>2014-12-28T10:07:19.000Z</time>
      </trkpt>
      <trkpt lat="43.77549" lon="4.73149">
        <ele>37.897926330566</ele>
        <time>2014-12-28T10:07:21.000Z</time>
      </trkpt>
      <trkpt lat="43.77557" lon="4.73138">
        <ele>37.543354034424</ele>
        <time>2014-12-28T10:07:23.000Z</time>
      </trkpt>
      <trkpt lat="43.77568" lon="4.73117">
        <ele>37.143165588379</ele>
        <time>2014-12-28T10:07:26.000Z</time>
      </trkpt>
      <trkpt lat="43.77577" lon="4.73103">
        <ele>36.621147155762</ele>
        <time>2014-12-28T10:07:28.000Z</time>
      </trkpt>
      <trkpt lat="43.77585" lon="4.73075">
        <ele>36.071952819824</ele>
        <time>2014-12-28T10:07:31.000Z</time>
      </trkpt>
      <trkpt lat="43.77595" lon="4.73055">
        <ele>35.628700256348</ele>
        <time>2014-12-28T10:07:34.000Z</time>
      </trkpt>
      <trkpt lat="43.77601" lon="4.73039">
        <ele>35.290222167969</ele>
        <time>2014-12-28T10:07:36.000Z</time>
      </trkpt>
      <trkpt lat="43.7761" lon="4.73017">
        <ele>35.137115478516</ele>
        <time>2014-12-28T10:07:39.000Z</time>
      </trkpt>
      <trkpt lat="43.77618" lon="4.73004">
        <ele>35.194896697998</ele>
        <time>2014-12-28T10:07:41.000Z</time>
      </trkpt>
      <trkpt lat="43.77626" lon="4.72982">
        <ele>35.415550231934</ele>
        <time>2014-12-28T10:07:44.000Z</time>
      </trkpt>
      <trkpt lat="43.77637" lon="4.72963">
        <ele>35.399757385254</ele>
        <time>2014-12-28T10:07:47.000Z</time>
      </trkpt>
      <trkpt lat="43.77647" lon="4.72952">
        <ele>35.187072753906</ele>
        <time>2014-12-28T10:07:49.000Z</time>
      </trkpt>
      <trkpt lat="43.77663" lon="4.7294">
        <ele>34.662590026855</ele>
        <time>2014-12-28T10:07:52.000Z</time>
      </trkpt>
      <trkpt lat="43.77675" lon="4.72928">
        <ele>34.116737365723</ele>
        <time>2014-12-28T10:07:54.000Z</time>
      </trkpt>
      <trkpt lat="43.77686" lon="4.72907">
        <ele>33.455360412598</ele>
        <time>2014-12-28T10:07:57.000Z</time>
      </trkpt>
      <trkpt lat="43.77694" lon="4.72894">
        <ele>32.743175506592</ele>
        <time>2014-12-28T10:07:59.000Z</time>
      </trkpt>
      <trkpt lat="43.77703" lon="4.72877">
        <ele>31.965744018555</ele>
        <time>2014-12-28T10:08:02.000Z</time>
      </trkpt>
      <trkpt lat="43.777" lon="4.72857">
        <ele>31.315738677979</ele>
        <time>2014-12-28T10:08:05.000Z</time>
      </trkpt>
      <trkpt lat="43.77695" lon="4.72845">
        <ele>30.669925689697</ele>
        <time>2014-12-28T10:08:07.000Z</time>
      </trkpt>
      <trkpt lat="43.7769" lon="4.72834">
        <ele>30.071426391602</ele>
        <time>2014-12-28T10:08:09.000Z</time>
      </trkpt>
      <trkpt lat="43.77683" lon="4.72819">
        <ele>29.570623397827</ele>
        <time>2014-12-28T10:08:12.000Z</time>
      </trkpt>
      <trkpt lat="43.77676" lon="4.7281">
        <ele>29.241344451904</ele>
        <time>2014-12-28T10:08:15.000Z</time>
      </trkpt>
      <trkpt lat="43.77671" lon="4.72803">
        <ele>29.040170669556</ele>
        <time>2014-12-28T10:08:17.000Z</time>
      </trkpt>
      <trkpt lat="43.77666" lon="4.72787">
        <ele>28.826190948486</ele>
        <time>2014-12-28T10:08:20.000Z</time>
      </trkpt>
      <trkpt lat="43.77662" lon="4.72779">
        <ele>28.674530029297</ele>
        <time>2014-12-28T10:08:22.000Z</time>
      </trkpt>
      <trkpt lat="43.77657" lon="4.72763">
        <ele>28.536661148071</ele>
        <time>2014-12-28T10:08:25.000Z</time>
      </trkpt>
      <trkpt lat="43.77652" lon="4.72746">
        <ele>28.388803482056</ele>
        <time>2014-12-28T10:08:28.000Z</time>
      </trkpt>
      <trkpt lat="43.7765" lon="4.72725">
        <ele>28.340124130249</ele>
        <time>2014-12-28T10:08:31.000Z</time>
      </trkpt>
      <trkpt lat="43.77645" lon="4.72707">
        <ele>28.442346572876</ele>
        <time>2014-12-28T10:08:34.000Z</time>
      </trkpt>
      <trkpt lat="43.77641" lon="4.72691">
        <ele>28.59369468689</ele>
        <time>2014-12-28T10:08:37.000Z</time>
      </trkpt>
      <trkpt lat="43.7764" lon="4.72682">
        <ele>28.793651580811</ele>
        <time>2014-12-28T10:08:39.000Z</time>
      </trkpt>
      <trkpt lat="43.77644" lon="4.72674">
        <ele>29.014923095703</ele>
        <time>2014-12-28T10:08:41.000Z</time>
      </trkpt>
      <trkpt lat="43.77655" lon="4.72667">
        <ele>29.139633178711</ele>
        <time>2014-12-28T10:08:44.000Z</time>
      </trkpt>
      <trkpt lat="43.77664" lon="4.72661">
        <ele>29.227947235107</ele>
        <time>2014-12-28T10:08:47.000Z</time>
      </trkpt>
      <trkpt lat="43.77675" lon="4.72656">
        <ele>29.200597763062</ele>
        <time>2014-12-28T10:08:50.000Z</time>
      </trkpt>
      <trkpt lat="43.77686" lon="4.7265">
        <ele>29.070520401001</ele>
        <time>2014-12-28T10:08:53.000Z</time>
      </trkpt>
      <trkpt lat="43.77697" lon="4.72645">
        <ele>28.830032348633</ele>
        <time>2014-12-28T10:08:55.000Z</time>
      </trkpt>
      <trkpt lat="43.77706" lon="4.72636">
        <ele>28.521062850952</ele>
        <time>2014-12-28T10:08:58.000Z</time>
      </trkpt>
      <trkpt lat="43.77715" lon="4.72629">
        <ele>28.07145690918</ele>
        <time>2014-12-28T10:09:00.000Z</time>
      </trkpt>
      <trkpt lat="43.77729" lon="4.7262">
        <ele>27.46005821228</ele>
        <time>2014-12-28T10:09:03.000Z</time>
      </trkpt>
      <trkpt lat="43.77739" lon="4.72613">
        <ele>26.768280029297</ele>
        <time>2014-12-28T10:09:05.000Z</time>
      </trkpt>
      <trkpt lat="43.77748" lon="4.72607">
        <ele>25.995370864868</ele>
        <time>2014-12-28T10:09:07.000Z</time>
      </trkpt>
      <trkpt lat="43.77761" lon="4.72596">
        <ele>25.228630065918</ele>
        <time>2014-12-28T10:09:10.000Z</time>
      </trkpt>
      <trkpt lat="43.7777" lon="4.72589">
        <ele>24.51996421814</ele>
        <time>2014-12-28T10:09:12.000Z</time>
      </trkpt>
      <trkpt lat="43.77783" lon="4.72576">
        <ele>23.979604721069</ele>
        <time>2014-12-28T10:09:15.000Z</time>
      </trkpt>
      <trkpt lat="43.77789" lon="4.72569">
        <ele>23.597091674805</ele>
        <time>2014-12-28T10:09:17.000Z</time>
      </trkpt>
      <trkpt lat="43.77803" lon="4.72556">
        <ele>23.378009796143</ele>
        <time>2014-12-28T10:09:20.000Z</time>
      </trkpt>
      <trkpt lat="43.77814" lon="4.72546">
        <ele>23.208578109741</ele>
        <time>2014-12-28T10:09:22.000Z</time>
      </trkpt>
      <trkpt lat="43.77826" lon="4.72535">
        <ele>23.047973632812</ele>
        <time>2014-12-28T10:09:25.000Z</time>
      </trkpt>
      <trkpt lat="43.77834" lon="4.7253">
        <ele>22.914257049561</ele>
        <time>2014-12-28T10:09:27.000Z</time>
      </trkpt>
      <trkpt lat="43.77847" lon="4.72519">
        <ele>22.72597694397</ele>
        <time>2014-12-28T10:09:30.000Z</time>
      </trkpt>
      <trkpt lat="43.77856" lon="4.72508">
        <ele>22.53427696228</ele>
        <time>2014-12-28T10:09:33.000Z</time>
      </trkpt>
      <trkpt lat="43.77864" lon="4.725">
        <ele>22.328296661377</ele>
        <time>2014-12-28T10:09:35.000Z</time>
      </trkpt>
      <trkpt lat="43.77872" lon="4.72493">
        <ele>22.091133117676</ele>
        <time>2014-12-28T10:09:37.000Z</time>
      </trkpt>
      <trkpt lat="43.77885" lon="4.72482">
        <ele>21.777736663818</ele>
        <time>2014-12-28T10:09:40.000Z</time>
      </trkpt>
      <trkpt lat="43.77893" lon="4.72477">
        <ele>21.474809646606</ele>
        <time>2014-12-28T10:09:42.000Z</time>
      </trkpt>
      <trkpt lat="43.77903" lon="4.7247">
        <ele>21.147439956665</ele>
        <time>2014-12-28T10:09:44.000Z</time>
      </trkpt>
      <trkpt lat="43.77915" lon="4.72457">
        <ele>20.782098770142</ele>
        <time>2014-12-28T10:09:47.000Z</time>
      </trkpt>
      <trkpt lat="43.77932" lon="4.72444">
        <ele>20.335742950439</ele>
        <time>2014-12-28T10:09:50.000Z</time>
      </trkpt>
      <trkpt lat="43.77946" lon="4.72432">
        <ele>19.85178565979</ele>
        <time>2014-12-28T10:09:53.000Z</time>
      </trkpt>
      <trkpt lat="43.77955" lon="4.72424">
        <ele>19.337902069092</ele>
        <time>2014-12-28T10:09:55.000Z</time>
      </trkpt>
      <trkpt lat="43.77971" lon="4.72413">
        <ele>18.720951080322</ele>
        <time>2014-12-28T10:09:58.000Z</time>
      </trkpt>
      <trkpt lat="43.7798" lon="4.72403">
        <ele>18.101003646851</ele>
        <time>2014-12-28T10:10:00.000Z</time>
      </trkpt>
      <trkpt lat="43.77991" lon="4.72395">
        <ele>17.545768737793</ele>
        <time>2014-12-28T10:10:02.000Z</time>
      </trkpt>
      <trkpt lat="43.78006" lon="4.72378">
        <ele>17.096881866455</ele>
        <time>2014-12-28T10:10:05.000Z</time>
      </trkpt>
      <trkpt lat="43.78017" lon="4.72362">
        <ele>16.73187828064</ele>
        <time>2014-12-28T10:10:08.000Z</time>
      </trkpt>
      <trkpt lat="43.78027" lon="4.72349">
        <ele>16.514562606812</ele>
        <time>2014-12-28T10:10:11.000Z</time>
      </trkpt>
      <trkpt lat="43.78038" lon="4.72335">
        <ele>16.341917037964</ele>
        <time>2014-12-28T10:10:14.000Z</time>
      </trkpt>
      <trkpt lat="43.78042" lon="4.72327">
        <ele>16.206451416016</ele>
        <time>2014-12-28T10:10:16.000Z</time>
      </trkpt>
      <trkpt lat="43.78049" lon="4.72317">
        <ele>16.040227890015</ele>
        <time>2014-12-28T10:10:19.000Z</time>
      </trkpt>
      <trkpt lat="43.78051" lon="4.72313">
        <ele>15.849784851074</ele>
        <time>2014-12-28T10:10:21.000Z</time>
      </trkpt>
      <trkpt lat="43.78053" lon="4.72311">
        <ele>15.668452262878</ele>
        <time>2014-12-28T10:10:25.000Z</time>
      </trkpt>
      <trkpt lat="43.78055" lon="4.72311">
        <ele>15.512064933777</ele>
        <time>2014-12-28T10:10:27.000Z</time>
      </trkpt>
      <trkpt lat="43.78059" lon="4.72298">
        <ele>15.342425346375</ele>
        <time>2014-12-28T10:10:30.000Z</time>
      </trkpt>
      <trkpt lat="43.78067" lon="4.72282">
        <ele>15.160281181335</ele>
        <time>2014-12-28T10:10:33.000Z</time>
      </trkpt>
      <trkpt lat="43.78076" lon="4.72269">
        <ele>14.943232536316</ele>
        <time>2014-12-28T10:10:36.000Z</time>
      </trkpt>
      <trkpt lat="43.78088" lon="4.72255">
        <ele>14.6675157547</ele>
        <time>2014-12-28T10:10:39.000Z</time>
      </trkpt>
      <trkpt lat="43.78093" lon="4.72251">
        <ele>14.38370513916</ele>
        <time>2014-12-28T10:10:41.000Z</time>
      </trkpt>
      <trkpt lat="43.78107" lon="4.72247">
        <ele>14.103274345398</ele>
        <time>2014-12-28T10:10:44.000Z</time>
      </trkpt>
      <trkpt lat="43.78117" lon="4.72243">
        <ele>13.856065750122</ele>
        <time>2014-12-28T10:10:46.000Z</time>
      </trkpt>
      <trkpt lat="43.78128" lon="4.7224">
        <ele>13.632841110229</ele>
        <time>2014-12-28T10:10:48.000Z</time>
      </trkpt>
      <trkpt lat="43.78146" lon="4.72231">
        <ele>13.392740249634</ele>
        <time>2014-12-28T10:10:51.000Z</time>
      </trkpt>
      <trkpt lat="43.78157" lon="4.72224">
        <ele>13.11083984375</ele>
        <time>2014-12-28T10:10:54.000Z</time>
      </trkpt>
      <trkpt lat="43.78164" lon="4.7222">
        <ele>12.84716796875</ele>
        <time>2014-12-28T10:10:56.000Z</time>
      </trkpt>
      <trkpt lat="43.78179" lon="4.72215">
        <ele>12.562257766724</ele>
        <time>2014-12-28T10:10:59.000Z</time>
      </trkpt>
      <trkpt lat="43.78191" lon="4.72209">
        <ele>12.262128829956</ele>
        <time>2014-12-28T10:11:02.000Z</time>
      </trkpt>
      <trkpt lat="43.78194" lon="4.7222">
        <ele>12.075946807861</ele>
        <time>2014-12-28T10:11:04.000Z</time>
      </trkpt>
      <trkpt lat="43.78197" lon="4.72233">
        <ele>11.98024559021</ele>
        <time>2014-12-28T10:11:06.000Z</time>
      </trkpt>
      <trkpt lat="43.78199" lon="4.7225">
        <ele>11.95922088623</ele>
        <time>2014-12-28T10:11:09.000Z</time>
      </trkpt>
      <trkpt lat="43.78203" lon="4.7226">
        <ele>11.977117538452</ele>
        <time>2014-12-28T10:11:11.000Z</time>
      </trkpt>
      <trkpt lat="43.78206" lon="4.72278">
        <ele>12.011980056763</ele>
        <time>2014-12-28T10:11:14.000Z</time>
      </trkpt>
      <trkpt lat="43.78209" lon="4.72295">
        <ele>11.981912612915</ele>
        <time>2014-12-28T10:11:17.000Z</time>
      </trkpt>
      <trkpt lat="43.78212" lon="4.72307">
        <ele>11.887384414673</ele>
        <time>2014-12-28T10:11:19.000Z</time>
      </trkpt>
      <trkpt lat="43.78213" lon="4.72318">
        <ele>11.730836868286</ele>
        <time>2014-12-28T10:11:21.000Z</time>
      </trkpt>
      <trkpt lat="43.78216" lon="4.72329">
        <ele>11.564836502075</ele>
        <time>2014-12-28T10:11:23.000Z</time>
      </trkpt>
      <trkpt lat="43.7822" lon="4.72347">
        <ele>11.388288497925</ele>
        <time>2014-12-28T10:11:26.000Z</time>
      </trkpt>
      <trkpt lat="43.78225" lon="4.72364">
        <ele>11.200375556946</ele>
        <time>2014-12-28T10:11:29.000Z</time>
      </trkpt>
      <trkpt lat="43.78227" lon="4.72375">
        <ele>11.032512664795</ele>
        <time>2014-12-28T10:11:31.000Z</time>
      </trkpt>
      <trkpt lat="43.7823" lon="4.72392">
        <ele>10.855661392212</ele>
        <time>2014-12-28T10:11:34.000Z</time>
      </trkpt>
      <trkpt lat="43.7823" lon="4.72405">
        <ele>10.706109046936</ele>
        <time>2014-12-28T10:11:36.000Z</time>
      </trkpt>
      <trkpt lat="43.78231" lon="4.72422">
        <ele>10.595483779907</ele>
        <time>2014-12-28T10:11:39.000Z</time>
      </trkpt>
      <trkpt lat="43.78233" lon="4.72442">
        <ele>10.523132324219</ele>
        <time>2014-12-28T10:11:42.000Z</time>
      </trkpt>
      <trkpt lat="43.78234" lon="4.72454">
        <ele>10.460373878479</ele>
        <time>2014-12-28T10:11:44.000Z</time>
      </trkpt>
      <trkpt lat="43.78238" lon="4.72471">
        <ele>10.411036491394</ele>
        <time>2014-12-28T10:11:47.000Z</time>
      </trkpt>
      <trkpt lat="43.7824" lon="4.72488">
        <ele>10.357421875</ele>
        <time>2014-12-28T10:11:50.000Z</time>
      </trkpt>
      <trkpt lat="43.78242" lon="4.72498">
        <ele>10.302734375</ele>
        <time>2014-12-28T10:11:52.000Z</time>
      </trkpt>
      <trkpt lat="43.78246" lon="4.72509">
        <ele>10.284218788147</ele>
        <time>2014-12-28T10:11:54.000Z</time>
      </trkpt>
      <trkpt lat="43.78252" lon="4.72527">
        <ele>10.331418037415</ele>
        <time>2014-12-28T10:11:57.000Z</time>
      </trkpt>
      <trkpt lat="43.78256" lon="4.72546">
        <ele>10.464093208313</ele>
        <time>2014-12-28T10:12:00.000Z</time>
      </trkpt>
      <trkpt lat="43.7826" lon="4.72564">
        <ele>10.664477348328</ele>
        <time>2014-12-28T10:12:03.000Z</time>
      </trkpt>
      <trkpt lat="43.78264" lon="4.72584">
        <ele>10.929902076721</ele>
        <time>2014-12-28T10:12:06.000Z</time>
      </trkpt>
      <trkpt lat="43.7827" lon="4.72596">
        <ele>11.164924621582</ele>
        <time>2014-12-28T10:12:08.000Z</time>
      </trkpt>
      <trkpt lat="43.78272" lon="4.72606">
        <ele>11.345448493958</ele>
        <time>2014-12-28T10:12:10.000Z</time>
      </trkpt>
      <trkpt lat="43.78275" lon="4.72621">
        <ele>11.475145339966</ele>
        <time>2014-12-28T10:12:13.000Z</time>
      </trkpt>
      <trkpt lat="43.78274" lon="4.72634">
        <ele>11.58794593811</ele>
        <time>2014-12-28T10:12:16.000Z</time>
      </trkpt>
      <trkpt lat="43.7828" lon="4.72646">
        <ele>11.601283073425</ele>
        <time>2014-12-28T10:12:19.000Z</time>
      </trkpt>
      <trkpt lat="43.78284" lon="4.72655">
        <ele>11.59511756897</ele>
        <time>2014-12-28T10:12:21.000Z</time>
      </trkpt>
      <trkpt lat="43.7829" lon="4.7267">
        <ele>11.517784118652</ele>
        <time>2014-12-28T10:12:24.000Z</time>
      </trkpt>
      <trkpt lat="43.78292" lon="4.7268">
        <ele>11.39408493042</ele>
        <time>2014-12-28T10:12:26.000Z</time>
      </trkpt>
      <trkpt lat="43.78305" lon="4.72683">
        <ele>11.037931442261</ele>
        <time>2014-12-28T10:12:29.000Z</time>
      </trkpt>
      <trkpt lat="43.78315" lon="4.7268">
        <ele>10.591201782227</ele>
        <time>2014-12-28T10:12:31.000Z</time>
      </trkpt>
      <trkpt lat="43.78324" lon="4.72681">
        <ele>10.0390625</ele>
        <time>2014-12-28T10:12:33.000Z</time>
      </trkpt>
      <trkpt lat="43.78326" lon="4.72689">
        <ele>9.5234375</ele>
        <time>2014-12-28T10:12:35.000Z</time>
      </trkpt>
      <trkpt lat="43.7832" lon="4.72703">
        <ele>9.11328125</ele>
        <time>2014-12-28T10:12:38.000Z</time>
      </trkpt>
      <trkpt lat="43.78317" lon="4.72713">
        <ele>8.943359375</ele>
        <time>2014-12-28T10:12:40.000Z</time>
      </trkpt>
      <trkpt lat="43.78312" lon="4.72728">
        <ele>8.984375</ele>
        <time>2014-12-28T10:12:43.000Z</time>
      </trkpt>
      <trkpt lat="43.78309" lon="4.7274">
        <ele>9.189453125</ele>
        <time>2014-12-28T10:12:45.000Z</time>
      </trkpt>
      <trkpt lat="43.78306" lon="4.72757">
        <ele>9.460901260376</ele>
        <time>2014-12-28T10:12:48.000Z</time>
      </trkpt>
      <trkpt lat="43.78304" lon="4.72774">
        <ele>9.6405935287476</ele>
        <time>2014-12-28T10:12:51.000Z</time>
      </trkpt>
      <trkpt lat="43.78302" lon="4.72791">
        <ele>9.7514190673828</ele>
        <time>2014-12-28T10:12:54.000Z</time>
      </trkpt>
      <trkpt lat="43.783" lon="4.72802">
        <ele>9.7715167999268</ele>
        <time>2014-12-28T10:12:56.000Z</time>
      </trkpt>
      <trkpt lat="43.78299" lon="4.72814">
        <ele>9.7292251586914</ele>
        <time>2014-12-28T10:12:58.000Z</time>
      </trkpt>
      <trkpt lat="43.78297" lon="4.72831">
        <ele>9.6174602508545</ele>
        <time>2014-12-28T10:13:01.000Z</time>
      </trkpt>
      <trkpt lat="43.78295" lon="4.72843">
        <ele>9.5285873413086</ele>
        <time>2014-12-28T10:13:03.000Z</time>
      </trkpt>
      <trkpt lat="43.78292" lon="4.72854">
        <ele>9.4763555526733</ele>
        <time>2014-12-28T10:13:05.000Z</time>
      </trkpt>
      <trkpt lat="43.78291" lon="4.72865">
        <ele>9.4503984451294</ele>
        <time>2014-12-28T10:13:07.000Z</time>
      </trkpt>
      <trkpt lat="43.78288" lon="4.72883">
        <ele>9.4780416488647</ele>
        <time>2014-12-28T10:13:10.000Z</time>
      </trkpt>
      <trkpt lat="43.78287" lon="4.72896">
        <ele>9.541015625</ele>
        <time>2014-12-28T10:13:12.000Z</time>
      </trkpt>
      <trkpt lat="43.78284" lon="4.72908">
        <ele>9.6142578125</ele>
        <time>2014-12-28T10:13:14.000Z</time>
      </trkpt>
      <trkpt lat="43.78286" lon="4.72928">
        <ele>9.6376953125</ele>
        <time>2014-12-28T10:13:17.000Z</time>
      </trkpt>
      <trkpt lat="43.78282" lon="4.72945">
        <ele>9.636474609375</ele>
        <time>2014-12-28T10:13:20.000Z</time>
      </trkpt>
      <trkpt lat="43.7828" lon="4.72957">
        <ele>9.5902099609375</ele>
        <time>2014-12-28T10:13:23.000Z</time>
      </trkpt>
      <trkpt lat="43.78278" lon="4.72973">
        <ele>9.515869140625</ele>
        <time>2014-12-28T10:13:25.000Z</time>
      </trkpt>
      <trkpt lat="43.78276" lon="4.72984">
        <ele>9.415283203125</ele>
        <time>2014-12-28T10:13:27.000Z</time>
      </trkpt>
      <trkpt lat="43.78275" lon="4.72995">
        <ele>9.3316650390625</ele>
        <time>2014-12-28T10:13:29.000Z</time>
      </trkpt>
      <trkpt lat="43.78272" lon="4.73012">
        <ele>9.2756404876709</ele>
        <time>2014-12-28T10:13:32.000Z</time>
      </trkpt>
      <trkpt lat="43.78271" lon="4.73023">
        <ele>9.2557878494263</ele>
        <time>2014-12-28T10:13:34.000Z</time>
      </trkpt>
      <trkpt lat="43.78269" lon="4.73034">
        <ele>9.2774906158447</ele>
        <time>2014-12-28T10:13:36.000Z</time>
      </trkpt>
      <trkpt lat="43.78268" lon="4.73044">
        <ele>9.3206615447998</ele>
        <time>2014-12-28T10:13:38.000Z</time>
      </trkpt>
      <trkpt lat="43.78268" lon="4.73055">
        <ele>9.3852643966675</ele>
        <time>2014-12-28T10:13:40.000Z</time>
      </trkpt>
      <trkpt lat="43.78269" lon="4.73066">
        <ele>9.4390382766724</ele>
        <time>2014-12-28T10:13:42.000Z</time>
      </trkpt>
      <trkpt lat="43.7827" lon="4.73082">
        <ele>9.4783000946045</ele>
        <time>2014-12-28T10:13:45.000Z</time>
      </trkpt>
      <trkpt lat="43.78269" lon="4.73099">
        <ele>9.4477567672729</ele>
        <time>2014-12-28T10:13:48.000Z</time>
      </trkpt>
      <trkpt lat="43.78264" lon="4.73108">
        <ele>9.3860960006714</ele>
        <time>2014-12-28T10:13:50.000Z</time>
      </trkpt>
      <trkpt lat="43.78255" lon="4.73116">
        <ele>9.3181343078613</ele>
        <time>2014-12-28T10:13:53.000Z</time>
      </trkpt>
      <trkpt lat="43.78249" lon="4.73118">
        <ele>9.2524671554565</ele>
        <time>2014-12-28T10:13:55.000Z</time>
      </trkpt>
      <trkpt lat="43.78242" lon="4.73128">
        <ele>9.1818790435791</ele>
        <time>2014-12-28T10:13:58.000Z</time>
      </trkpt>
      <trkpt lat="43.78238" lon="4.73137">
        <ele>9.1497621536255</ele>
        <time>2014-12-28T10:14:00.000Z</time>
      </trkpt>
      <trkpt lat="43.78237" lon="4.73144">
        <ele>9.111083984375</ele>
        <time>2014-12-28T10:14:02.000Z</time>
      </trkpt>
      <trkpt lat="43.78235" lon="4.73157">
        <ele>9.0315990447998</ele>
        <time>2014-12-28T10:14:05.000Z</time>
      </trkpt>
      <trkpt lat="43.78234" lon="4.73166">
        <ele>8.9153537750244</ele>
        <time>2014-12-28T10:14:07.000Z</time>
      </trkpt>
      <trkpt lat="43.78233" lon="4.73175">
        <ele>8.8092679977417</ele>
        <time>2014-12-28T10:14:09.000Z</time>
      </trkpt>
      <trkpt lat="43.7823" lon="4.73183">
        <ele>8.7443647384644</ele>
        <time>2014-12-28T10:14:11.000Z</time>
      </trkpt>
      <trkpt lat="43.78228" lon="4.73189">
        <ele>8.7204895019531</ele>
        <time>2014-12-28T10:14:13.000Z</time>
      </trkpt>
      <trkpt lat="43.78227" lon="4.73198">
        <ele>8.7556533813477</ele>
        <time>2014-12-28T10:14:16.000Z</time>
      </trkpt>
      <trkpt lat="43.78229" lon="4.73205">
        <ele>8.8124542236328</ele>
        <time>2014-12-28T10:14:19.000Z</time>
      </trkpt>
      <trkpt lat="43.78231" lon="4.73206">
        <ele>8.8379802703857</ele>
        <time>2014-12-28T10:14:21.000Z</time>
      </trkpt>
      <trkpt lat="43.78235" lon="4.73205">
        <ele>8.8064956665039</ele>
        <time>2014-12-28T10:14:24.000Z</time>
      </trkpt>
      <trkpt lat="43.78238" lon="4.73203">
        <ele>8.7345161437988</ele>
        <time>2014-12-28T10:14:27.000Z</time>
      </trkpt>
      <trkpt lat="43.78239" lon="4.732">
        <ele>8.643030166626</ele>
        <time>2014-12-28T10:14:30.000Z</time>
      </trkpt>
      <trkpt lat="43.78238" lon="4.73199">
        <ele>8.5635395050049</ele>
        <time>2014-12-28T10:14:36.000Z</time>
      </trkpt>
      <trkpt lat="43.78239" lon="4.73198">
        <ele>8.5001583099365</ele>
        <time>2014-12-28T10:14:40.000Z</time>
      </trkpt>
      <trkpt lat="43.78241" lon="4.73199">
        <ele>8.4478893280029</ele>
        <time>2014-12-28T10:14:42.000Z</time>
      </trkpt>
      <trkpt lat="43.78242" lon="4.73199">
        <ele>8.4102306365967</ele>
        <time>2014-12-28T10:14:45.000Z</time>
      </trkpt>
      <trkpt lat="43.78244" lon="4.73201">
        <ele>8.3673334121704</ele>
        <time>2014-12-28T10:14:49.000Z</time>
      </trkpt>
      <trkpt lat="43.78244" lon="4.732">
        <ele>8.3211841583252</ele>
        <time>2014-12-28T10:14:54.000Z</time>
      </trkpt>
      <trkpt lat="43.78243" lon="4.73199">
        <ele>8.285026550293</ele>
        <time>2014-12-28T10:14:56.000Z</time>
      </trkpt>
      <trkpt lat="43.78246" lon="4.73197">
        <ele>8.2518405914307</ele>
        <time>2014-12-28T10:14:59.000Z</time>
      </trkpt>
      <trkpt lat="43.78247" lon="4.73196">
        <ele>8.2118606567383</ele>
        <time>2014-12-28T10:15:02.000Z</time>
      </trkpt>
      <trkpt lat="43.78247" lon="4.73196">
        <ele>8.2118606567383</ele>
        <time>2014-12-28T10:15:22.000Z</time>
      </trkpt>
      <trkpt lat="43.78249" lon="4.73196">
        <ele>8.1683263778687</ele>
        <time>2014-12-28T10:15:33.000Z</time>
      </trkpt>
      <trkpt lat="43.78251" lon="4.73195">
        <ele>8.1190395355225</ele>
        <time>2014-12-28T10:15:44.000Z</time>
      </trkpt>
      <trkpt lat="43.78251" lon="4.73195">
        <ele>8.1190395355225</ele>
        <time>2014-12-28T10:16:04.000Z</time>
      </trkpt>
      <trkpt lat="43.7825" lon="4.73197">
        <ele>8.0661029815674</ele>
        <time>2014-12-28T10:17:05.000Z</time>
      </trkpt>
      <trkpt lat="43.78251" lon="4.73196">
        <ele>8.029806137085</ele>
        <time>2014-12-28T10:17:08.000Z</time>
      </trkpt>
      <trkpt lat="43.78251" lon="4.73196">
        <ele>8.029806137085</ele>
        <time>2014-12-28T10:17:28.000Z</time>
      </trkpt>
      <trkpt lat="43.78251" lon="4.73193">
        <ele>8.0106163024902</ele>
        <time>2014-12-28T10:17:34.000Z</time>
      </trkpt>
      <trkpt lat="43.78251" lon="4.73193">
        <ele>8.0106163024902</ele>
        <time>2014-12-28T10:17:54.000Z</time>
      </trkpt>
      <trkpt lat="43.7825" lon="4.73192">
        <ele>8.0040693283081</ele>
        <time>2014-12-28T10:19:11.000Z</time>
      </trkpt>
      <trkpt lat="43.78249" lon="4.73194">
        <ele>8.0067930221558</ele>
        <time>2014-12-28T10:19:14.000Z</time>
      </trkpt>
      <trkpt lat="43.78249" lon="4.73198">
        <ele>8.0101699829102</ele>
        <time>2014-12-28T10:19:17.000Z</time>
      </trkpt>
      <trkpt lat="43.7825" lon="4.732">
        <ele>8.0102863311768</ele>
        <time>2014-12-28T10:19:19.000Z</time>
      </trkpt>
      <trkpt lat="43.78251" lon="4.73203">
        <ele>8.0106830596924</ele>
        <time>2014-12-28T10:19:28.000Z</time>
      </trkpt>
      <trkpt lat="43.78249" lon="4.73201">
        <ele>8.0173673629761</ele>
        <time>2014-12-28T10:19:42.000Z</time>
      </trkpt>
      <trkpt lat="43.78249" lon="4.73201">
        <ele>8.0173673629761</ele>
        <time>2014-12-28T10:20:02.000Z</time>
      </trkpt>
      <trkpt lat="43.78249" lon="4.73202">
        <ele>8.0241794586182</ele>
        <time>2014-12-28T10:21:00.000Z</time>
      </trkpt>
      <trkpt lat="43.7825" lon="4.73201">
        <ele>8.0208730697632</ele>
        <time>2014-12-28T10:21:16.000Z</time>
      </trkpt>
      <trkpt lat="43.7825" lon="4.73201">
        <ele>8.0208730697632</ele>
        <time>2014-12-28T10:21:36.000Z</time>
      </trkpt>
      <trkpt lat="43.7825" lon="4.732">
        <ele>8.0208749771118</ele>
        <time>2014-12-28T10:22:43.000Z</time>
      </trkpt>
      <trkpt lat="43.78251" lon="4.73198">
        <ele>8.0206727981567</ele>
        <time>2014-12-28T10:22:53.000Z</time>
      </trkpt>
      <trkpt lat="43.78251" lon="4.73196">
        <ele>8.0152883529663</ele>
        <time>2014-12-28T10:22:55.000Z</time>
      </trkpt>
      <trkpt lat="43.78251" lon="4.73196">
        <ele>8.0152883529663</ele>
        <time>2014-12-28T10:23:15.000Z</time>
      </trkpt>
      <trkpt lat="43.7825" lon="4.73196">
        <ele>8.0052280426025</ele>
        <time>2014-12-28T10:23:27.000Z</time>
      </trkpt>
      <trkpt lat="43.7825" lon="4.73197">
        <ele>8.0051498413086</ele>
        <time>2014-12-28T10:23:31.000Z</time>
      </trkpt>
      <trkpt lat="43.78251" lon="4.73198">
        <ele>8.0058078765869</ele>
        <time>2014-12-28T10:23:41.000Z</time>
      </trkpt>
      <trkpt lat="43.78251" lon="4.73198">
        <ele>8.0058078765869</ele>
        <time>2014-12-28T10:24:01.000Z</time>
      </trkpt>
      <trkpt lat="43.78251" lon="4.73199">
        <ele>8.0050983428955</ele>
        <time>2014-12-28T10:24:04.000Z</time>
      </trkpt>
      <trkpt lat="43.78251" lon="4.73199">
        <ele>8.0050983428955</ele>
        <time>2014-12-28T10:24:24.000Z</time>
      </trkpt>
      <trkpt lat="43.78249" lon="4.732">
        <ele>8.0104570388794</ele>
        <time>2014-12-28T10:24:51.000Z</time>
      </trkpt>
      <trkpt lat="43.78247" lon="4.732">
        <ele>8.0336761474609</ele>
        <time>2014-12-28T10:25:03.000Z</time>
      </trkpt>
      <trkpt lat="43.78247" lon="4.732">
        <ele>8.0336761474609</ele>
        <time>2014-12-28T10:25:23.000Z</time>
      </trkpt>
      <trkpt lat="43.78247" lon="4.73198">
        <ele>8.0600986480713</ele>
        <time>2014-12-28T10:25:34.000Z</time>
      </trkpt>
      <trkpt lat="43.78247" lon="4.73198">
        <ele>8.0600986480713</ele>
        <time>2014-12-28T10:25:54.000Z</time>
      </trkpt>
      <trkpt lat="43.78246" lon="4.73199">
        <ele>8.0924644470215</ele>
        <time>2014-12-28T10:28:25.000Z</time>
      </trkpt>
      <trkpt lat="43.78246" lon="4.73199">
        <ele>8.0924644470215</ele>
        <time>2014-12-28T10:28:45.000Z</time>
      </trkpt>
      <trkpt lat="43.78245" lon="4.732">
        <ele>8.1323299407959</ele>
        <time>2014-12-28T10:29:00.000Z</time>
      </trkpt>
      <trkpt lat="43.78246" lon="4.73201">
        <ele>8.1623430252075</ele>
        <time>2014-12-28T10:29:03.000Z</time>
      </trkpt>
      <trkpt lat="43.78245" lon="4.73199">
        <ele>8.1821985244751</ele>
        <time>2014-12-28T10:29:06.000Z</time>
      </trkpt>
      <trkpt lat="43.78244" lon="4.732">
        <ele>8.2056007385254</ele>
        <time>2014-12-28T10:29:09.000Z</time>
      </trkpt>
      <trkpt lat="43.78245" lon="4.73201">
        <ele>8.215838432312</ele>
        <time>2014-12-28T10:29:11.000Z</time>
      </trkpt>
      <trkpt lat="43.78244" lon="4.73201">
        <ele>8.2259454727173</ele>
        <time>2014-12-28T10:29:22.000Z</time>
      </trkpt>
      <trkpt lat="43.78241" lon="4.732">
        <ele>8.25901222229</ele>
        <time>2014-12-28T10:29:25.000Z</time>
      </trkpt>
      <trkpt lat="43.7824" lon="4.73199">
        <ele>8.2953081130981</ele>
        <time>2014-12-28T10:29:28.000Z</time>
      </trkpt>
      <trkpt lat="43.78241" lon="4.73197">
        <ele>8.3210830688477</ele>
        <time>2014-12-28T10:29:30.000Z</time>
      </trkpt>
      <trkpt lat="43.78241" lon="4.73198">
        <ele>8.3471364974976</ele>
        <time>2014-12-28T10:29:34.000Z</time>
      </trkpt>
      <trkpt lat="43.7824" lon="4.73199">
        <ele>8.3797817230225</ele>
        <time>2014-12-28T10:29:47.000Z</time>
      </trkpt>
      <trkpt lat="43.78241" lon="4.73197">
        <ele>8.3856344223022</ele>
        <time>2014-12-28T10:29:49.000Z</time>
      </trkpt>
      <trkpt lat="43.78239" lon="4.73199">
        <ele>8.3922481536865</ele>
        <time>2014-12-28T10:29:54.000Z</time>
      </trkpt>
      <trkpt lat="43.78236" lon="4.73202">
        <ele>8.4269189834595</ele>
        <time>2014-12-28T10:29:56.000Z</time>
      </trkpt>
      <trkpt lat="43.78235" lon="4.73204">
        <ele>8.4786548614502</ele>
        <time>2014-12-28T10:29:58.000Z</time>
      </trkpt>
      <trkpt lat="43.78234" lon="4.73206">
        <ele>8.524754524231</ele>
        <time>2014-12-28T10:30:00.000Z</time>
      </trkpt>
      <trkpt lat="43.78234" lon="4.73209">
        <ele>8.5829391479492</ele>
        <time>2014-12-28T10:30:02.000Z</time>
      </trkpt>
      <trkpt lat="43.78233" lon="4.73214">
        <ele>8.6400060653687</ele>
        <time>2014-12-28T10:30:05.000Z</time>
      </trkpt>
      <trkpt lat="43.78233" lon="4.73218">
        <ele>8.6745481491089</ele>
        <time>2014-12-28T10:30:07.000Z</time>
      </trkpt>
      <trkpt lat="43.78234" lon="4.73221">
        <ele>8.6963119506836</ele>
        <time>2014-12-28T10:30:09.000Z</time>
      </trkpt>
      <trkpt lat="43.78232" lon="4.73224">
        <ele>8.7264261245728</ele>
        <time>2014-12-28T10:30:11.000Z</time>
      </trkpt>
      <trkpt lat="43.78229" lon="4.73228">
        <ele>8.782172203064</ele>
        <time>2014-12-28T10:30:14.000Z</time>
      </trkpt>
      <trkpt lat="43.78228" lon="4.73231">
        <ele>8.8377904891968</ele>
        <time>2014-12-28T10:30:16.000Z</time>
      </trkpt>
      <trkpt lat="43.78227" lon="4.73234">
        <ele>8.9010715484619</ele>
        <time>2014-12-28T10:30:18.000Z</time>
      </trkpt>
      <trkpt lat="43.78225" lon="4.73237">
        <ele>8.9837207794189</ele>
        <time>2014-12-28T10:30:21.000Z</time>
      </trkpt>
      <trkpt lat="43.78223" lon="4.73239">
        <ele>9.0744047164917</ele>
        <time>2014-12-28T10:30:23.000Z</time>
      </trkpt>
      <trkpt lat="43.7822" lon="4.7324">
        <ele>9.1692657470703</ele>
        <time>2014-12-28T10:30:25.000Z</time>
      </trkpt>
      <trkpt lat="43.78215" lon="4.7324">
        <ele>9.3005018234253</ele>
        <time>2014-12-28T10:30:28.000Z</time>
      </trkpt>
      <trkpt lat="43.78209" lon="4.7324">
        <ele>9.4715089797974</ele>
        <time>2014-12-28T10:30:30.000Z</time>
      </trkpt>
      <trkpt lat="43.78204" lon="4.73241">
        <ele>9.6797256469727</ele>
        <time>2014-12-28T10:30:32.000Z</time>
      </trkpt>
      <trkpt lat="43.78201" lon="4.73243">
        <ele>9.8894872665405</ele>
        <time>2014-12-28T10:30:34.000Z</time>
      </trkpt>
      <trkpt lat="43.782" lon="4.73245">
        <ele>10.078689575195</ele>
        <time>2014-12-28T10:30:38.000Z</time>
      </trkpt>
      <trkpt lat="43.78199" lon="4.73248">
        <ele>10.231019020081</ele>
        <time>2014-12-28T10:30:40.000Z</time>
      </trkpt>
      <trkpt lat="43.78199" lon="4.73253">
        <ele>10.343139648438</ele>
        <time>2014-12-28T10:30:42.000Z</time>
      </trkpt>
      <trkpt lat="43.78199" lon="4.73258">
        <ele>10.401272773743</ele>
        <time>2014-12-28T10:30:44.000Z</time>
      </trkpt>
      <trkpt lat="43.78201" lon="4.7326">
        <ele>10.41743850708</ele>
        <time>2014-12-28T10:30:47.000Z</time>
      </trkpt>
      <trkpt lat="43.78203" lon="4.73262">
        <ele>10.406260490417</ele>
        <time>2014-12-28T10:30:55.000Z</time>
      </trkpt>
      <trkpt lat="43.78203" lon="4.73264">
        <ele>10.391660690308</ele>
        <time>2014-12-28T10:30:58.000Z</time>
      </trkpt>
      <trkpt lat="43.78204" lon="4.73262">
        <ele>10.358357429504</ele>
        <time>2014-12-28T10:31:04.000Z</time>
      </trkpt>
      <trkpt lat="43.78202" lon="4.73261">
        <ele>10.335146903992</ele>
        <time>2014-12-28T10:31:14.000Z</time>
      </trkpt>
      <trkpt lat="43.78201" lon="4.73261">
        <ele>10.335606575012</ele>
        <time>2014-12-28T10:31:26.000Z</time>
      </trkpt>
      <trkpt lat="43.78202" lon="4.73261">
        <ele>10.341300964355</ele>
        <time>2014-12-28T10:31:32.000Z</time>
      </trkpt>
      <trkpt lat="43.78202" lon="4.73261">
        <ele>10.341300964355</ele>
        <time>2014-12-28T10:31:52.000Z</time>
      </trkpt>
      <trkpt lat="43.78205" lon="4.73264">
        <ele>10.315093040466</ele>
        <time>2014-12-28T10:32:02.000Z</time>
      </trkpt>
      <trkpt lat="43.78207" lon="4.73266">
        <ele>10.2856798172</ele>
        <time>2014-12-28T10:32:22.000Z</time>
      </trkpt>
      <trkpt lat="43.78207" lon="4.73266">
        <ele>10.2856798172</ele>
        <time>2014-12-28T10:32:42.000Z</time>
      </trkpt>
      <trkpt lat="43.78207" lon="4.73265">
        <ele>10.248205184937</ele>
        <time>2014-12-28T10:33:54.000Z</time>
      </trkpt>
      <trkpt lat="43.78207" lon="4.73266">
        <ele>10.205189704895</ele>
        <time>2014-12-28T10:34:01.000Z</time>
      </trkpt>
      <trkpt lat="43.78205" lon="4.73264">
        <ele>10.186015129089</ele>
        <time>2014-12-28T10:34:04.000Z</time>
      </trkpt>
      <trkpt lat="43.78205" lon="4.73262">
        <ele>10.188180923462</ele>
        <time>2014-12-28T10:34:07.000Z</time>
      </trkpt>
      <trkpt lat="43.78206" lon="4.73264">
        <ele>10.197510719299</ele>
        <time>2014-12-28T10:34:10.000Z</time>
      </trkpt>
      <trkpt lat="43.78206" lon="4.73264">
        <ele>10.197510719299</ele>
        <time>2014-12-28T10:34:24.000Z</time>
      </trkpt>
    </trkseg>
  </trk>
</gpx>